<?xml version='1.0' encoding='UTF-8'?><gpx version="1.1" creator="JPX - https://github.com/jenetics/jpx" xmlns="http://www.topografix.com/GPX/1/1"><trk><trkseg><trkpt lat="45.5253233" lon="8.78017"><ele>167.0</ele><time>2026-04-12T07:27:52.768Z</time></trkpt><trkpt lat="45.5252817" lon="8.780035"><ele>167.0</ele><time>2026-04-12T07:27:53.767Z</time></trkpt><trkpt lat="45.5252633" lon="8.77991"><ele>167.0</ele><time>2026-04-12T07:27:54.767Z</time></trkpt><trkpt lat="45.5252367" lon="8.7798017"><ele>167.0</ele><time>2026-04-12T07:27:56.767Z</time></trkpt><trkpt lat="45.52522" lon="8.7797067"><ele>167.0</ele><time>2026-04-12T07:27:58.767Z</time></trkpt><trkpt lat="45.5251483" lon="8.7794133"><ele>167.0</ele><time>2026-04-12T07:28:04.899Z</time></trkpt><trkpt lat="45.5251233" lon="8.779305"><ele>167.0</ele><time>2026-04-12T07:28:06.899Z</time></trkpt><trkpt lat="45.5251267" lon="8.7792033"><ele>167.0</ele><time>2026-04-12T07:28:08.899Z</time></trkpt><trkpt lat="45.5251567" lon="8.7790983"><ele>167.0</ele><time>2026-04-12T07:28:10.899Z</time></trkpt><trkpt lat="45.525205" lon="8.7790217"><ele>167.0</ele><time>2026-04-12T07:28:12.899Z</time></trkpt><trkpt lat="45.525245" lon="8.7789017"><ele>167.0</ele><time>2026-04-12T07:28:15.899Z</time></trkpt><trkpt lat="45.52521" lon="8.778815"><ele>167.0</ele><time>2026-04-12T07:28:17.899Z</time></trkpt><trkpt lat="45.5251517" lon="8.7787367"><ele>167.0</ele><time>2026-04-12T07:28:19.899Z</time></trkpt><trkpt lat="45.5251067" lon="8.7786483"><ele>167.0</ele><time>2026-04-12T07:28:21.899Z</time></trkpt><trkpt lat="45.5250633" lon="8.7785467"><ele>167.0</ele><time>2026-04-12T07:28:23.899Z</time></trkpt><trkpt lat="45.5250317" lon="8.7784333"><ele>167.0</ele><time>2026-04-12T07:28:25.899Z</time></trkpt><trkpt lat="45.525" lon="8.7783167"><ele>167.0</ele><time>2026-04-12T07:28:27.899Z</time></trkpt><trkpt lat="45.5249733" lon="8.7782067"><ele>167.0</ele><time>2026-04-12T07:28:29.899Z</time></trkpt><trkpt lat="45.524945" lon="8.778095"><ele>167.0</ele><time>2026-04-12T07:28:31.899Z</time></trkpt><trkpt lat="45.524915" lon="8.77798"><ele>167.0</ele><time>2026-04-12T07:28:33.899Z</time></trkpt><trkpt lat="45.5248917" lon="8.7778667"><ele>167.0</ele><time>2026-04-12T07:28:35.899Z</time></trkpt><trkpt lat="45.5248683" lon="8.777755"><ele>167.0</ele><time>2026-04-12T07:28:37.9Z</time></trkpt><trkpt lat="45.52484" lon="8.7776483"><ele>167.0</ele><time>2026-04-12T07:28:39.9Z</time></trkpt><trkpt lat="45.524805" lon="8.7775383"><ele>167.0</ele><time>2026-04-12T07:28:41.899Z</time></trkpt><trkpt lat="45.5247717" lon="8.77743"><ele>167.0</ele><time>2026-04-12T07:28:43.899Z</time></trkpt><trkpt lat="45.5247383" lon="8.7773317"><ele>167.0</ele><time>2026-04-12T07:28:45.899Z</time></trkpt><trkpt lat="45.5247033" lon="8.7772333"><ele>167.0</ele><time>2026-04-12T07:28:47.899Z</time></trkpt><trkpt lat="45.5246733" lon="8.7771383"><ele>167.0</ele><time>2026-04-12T07:28:49.899Z</time></trkpt><trkpt lat="45.524645" lon="8.7770217"><ele>167.0</ele><time>2026-04-12T07:28:52.9Z</time></trkpt><trkpt lat="45.52463" lon="8.7768917"><ele>167.0</ele><time>2026-04-12T07:29:11.9Z</time></trkpt><trkpt lat="45.5246067" lon="8.7767667"><ele>167.0</ele><time>2026-04-12T07:29:14.899Z</time></trkpt><trkpt lat="45.5246033" lon="8.77663"><ele>167.0</ele><time>2026-04-12T07:29:17.899Z</time></trkpt><trkpt lat="45.5245867" lon="8.7765183"><ele>167.0</ele><time>2026-04-12T07:29:19.899Z</time></trkpt><trkpt lat="45.52456" lon="8.7764033"><ele>167.0</ele><time>2026-04-12T07:29:21.899Z</time></trkpt><trkpt lat="45.524545" lon="8.77629"><ele>167.0</ele><time>2026-04-12T07:29:23.899Z</time></trkpt><trkpt lat="45.52453" lon="8.77617"><ele>167.0</ele><time>2026-04-12T07:29:25.899Z</time></trkpt><trkpt lat="45.52451" lon="8.7760517"><ele>167.0</ele><time>2026-04-12T07:29:27.899Z</time></trkpt><trkpt lat="45.5244933" lon="8.7759367"><ele>167.0</ele><time>2026-04-12T07:29:29.899Z</time></trkpt><trkpt lat="45.524485" lon="8.7758067"><ele>167.0</ele><time>2026-04-12T07:29:31.899Z</time></trkpt><trkpt lat="45.5244733" lon="8.775685"><ele>167.0</ele><time>2026-04-12T07:29:33.899Z</time></trkpt><trkpt lat="45.52446" lon="8.7755583"><ele>167.0</ele><time>2026-04-12T07:29:35.899Z</time></trkpt><trkpt lat="45.5244467" lon="8.7754467"><ele>167.0</ele><time>2026-04-12T07:29:37.899Z</time></trkpt><trkpt lat="45.5244267" lon="8.7753433"><ele>167.0</ele><time>2026-04-12T07:29:39.899Z</time></trkpt><trkpt lat="45.5244183" lon="8.77523"><ele>167.0</ele><time>2026-04-12T07:29:42.899Z</time></trkpt><trkpt lat="45.52435" lon="8.7751633"><ele>167.0</ele><time>2026-04-12T07:29:45.899Z</time></trkpt><trkpt lat="45.5242717" lon="8.7751517"><ele>167.0</ele><time>2026-04-12T07:29:47.899Z</time></trkpt><trkpt lat="45.5241867" lon="8.775155"><ele>167.0</ele><time>2026-04-12T07:29:49.899Z</time></trkpt><trkpt lat="45.5241083" lon="8.7751517"><ele>167.0</ele><time>2026-04-12T07:29:51.899Z</time></trkpt><trkpt lat="45.5240383" lon="8.7751833"><ele>167.0</ele><time>2026-04-12T07:29:53.899Z</time></trkpt><trkpt lat="45.5239233" lon="8.7752133"><ele>167.0</ele><time>2026-04-12T07:29:56.899Z</time></trkpt><trkpt lat="45.523845" lon="8.775235"><ele>167.0</ele><time>2026-04-12T07:29:58.899Z</time></trkpt><trkpt lat="45.523765" lon="8.7752767"><ele>167.0</ele><time>2026-04-12T07:30:00.899Z</time></trkpt><trkpt lat="45.5236867" lon="8.77529"><ele>167.0</ele><time>2026-04-12T07:30:02.899Z</time></trkpt><trkpt lat="45.5236" lon="8.775335"><ele>166.8</ele><time>2026-04-12T07:30:04.899Z</time></trkpt><trkpt lat="45.5235133" lon="8.7754"><ele>166.6</ele><time>2026-04-12T07:30:06.899Z</time></trkpt><trkpt lat="45.5234317" lon="8.775465"><ele>166.4</ele><time>2026-04-12T07:30:08.899Z</time></trkpt><trkpt lat="45.5233517" lon="8.77553"><ele>166.20000000000002</ele><time>2026-04-12T07:30:10.899Z</time></trkpt><trkpt lat="45.5232783" lon="8.7755967"><ele>166.0</ele><time>2026-04-12T07:30:12.899Z</time></trkpt><trkpt lat="45.523205" lon="8.7756717"><ele>166.0</ele><time>2026-04-12T07:30:14.899Z</time></trkpt><trkpt lat="45.5231283" lon="8.7757567"><ele>166.0</ele><time>2026-04-12T07:30:16.899Z</time></trkpt><trkpt lat="45.523055" lon="8.775835"><ele>166.0</ele><time>2026-04-12T07:30:18.9Z</time></trkpt><trkpt lat="45.5229783" lon="8.7759067"><ele>166.0</ele><time>2026-04-12T07:30:20.899Z</time></trkpt><trkpt lat="45.5228983" lon="8.7759467"><ele>166.0</ele><time>2026-04-12T07:30:22.899Z</time></trkpt><trkpt lat="45.5228367" lon="8.7758933"><ele>166.0</ele><time>2026-04-12T07:30:24.899Z</time></trkpt><trkpt lat="45.5227817" lon="8.7758067"><ele>166.0</ele><time>2026-04-12T07:30:26.899Z</time></trkpt><trkpt lat="45.5227367" lon="8.7756883"><ele>166.0</ele><time>2026-04-12T07:30:28.899Z</time></trkpt><trkpt lat="45.52268" lon="8.7755617"><ele>166.0</ele><time>2026-04-12T07:30:30.899Z</time></trkpt><trkpt lat="45.5226167" lon="8.7754383"><ele>166.0</ele><time>2026-04-12T07:30:32.9Z</time></trkpt><trkpt lat="45.5225517" lon="8.7753083"><ele>166.0</ele><time>2026-04-12T07:30:34.899Z</time></trkpt><trkpt lat="45.5224917" lon="8.7751783"><ele>165.8</ele><time>2026-04-12T07:30:36.899Z</time></trkpt><trkpt lat="45.522435" lon="8.77505"><ele>165.60000000000002</ele><time>2026-04-12T07:30:38.899Z</time></trkpt><trkpt lat="45.522375" lon="8.77493"><ele>165.4</ele><time>2026-04-12T07:30:40.899Z</time></trkpt><trkpt lat="45.5223283" lon="8.774805"><ele>165.2</ele><time>2026-04-12T07:30:42.899Z</time></trkpt><trkpt lat="45.52227" lon="8.7746817"><ele>165.0</ele><time>2026-04-12T07:30:44.899Z</time></trkpt><trkpt lat="45.5222267" lon="8.7745617"><ele>165.0</ele><time>2026-04-12T07:30:46.899Z</time></trkpt><trkpt lat="45.5221617" lon="8.77445"><ele>165.0</ele><time>2026-04-12T07:30:48.899Z</time></trkpt><trkpt lat="45.522095" lon="8.7743383"><ele>165.0</ele><time>2026-04-12T07:30:50.899Z</time></trkpt><trkpt lat="45.522045" lon="8.7742383"><ele>165.0</ele><time>2026-04-12T07:30:52.899Z</time></trkpt><trkpt lat="45.52201" lon="8.77413"><ele>165.0</ele><time>2026-04-12T07:30:54.899Z</time></trkpt><trkpt lat="45.52195" lon="8.7740283"><ele>165.0</ele><time>2026-04-12T07:30:56.899Z</time></trkpt><trkpt lat="45.5218883" lon="8.7739333"><ele>165.0</ele><time>2026-04-12T07:30:58.899Z</time></trkpt><trkpt lat="45.5218333" lon="8.7738317"><ele>165.0</ele><time>2026-04-12T07:31:00.899Z</time></trkpt><trkpt lat="45.5217883" lon="8.7737283"><ele>165.0</ele><time>2026-04-12T07:31:02.899Z</time></trkpt><trkpt lat="45.521735" lon="8.7736383"><ele>165.0</ele><time>2026-04-12T07:31:04.899Z</time></trkpt><trkpt lat="45.52167" lon="8.7736033"><ele>165.0</ele><time>2026-04-12T07:31:06.899Z</time></trkpt><trkpt lat="45.5215883" lon="8.7736583"><ele>165.0</ele><time>2026-04-12T07:31:08.899Z</time></trkpt><trkpt lat="45.5215117" lon="8.7737267"><ele>165.0</ele><time>2026-04-12T07:31:10.899Z</time></trkpt><trkpt lat="45.52143" lon="8.7738033"><ele>165.0</ele><time>2026-04-12T07:31:12.899Z</time></trkpt><trkpt lat="45.52135" lon="8.773885"><ele>165.0</ele><time>2026-04-12T07:31:14.899Z</time></trkpt><trkpt lat="45.5212717" lon="8.7739533"><ele>165.0</ele><time>2026-04-12T07:31:16.899Z</time></trkpt><trkpt lat="45.5211883" lon="8.7740317"><ele>165.0</ele><time>2026-04-12T07:31:18.899Z</time></trkpt><trkpt lat="45.52111" lon="8.77411"><ele>165.0</ele><time>2026-04-12T07:31:20.899Z</time></trkpt><trkpt lat="45.5210317" lon="8.77418"><ele>165.0</ele><time>2026-04-12T07:31:22.899Z</time></trkpt><trkpt lat="45.520955" lon="8.774255"><ele>165.0</ele><time>2026-04-12T07:31:24.899Z</time></trkpt><trkpt lat="45.5208967" lon="8.77434"><ele>165.0</ele><time>2026-04-12T07:31:26.899Z</time></trkpt><trkpt lat="45.5208333" lon="8.7744333"><ele>164.8</ele><time>2026-04-12T07:31:28.899Z</time></trkpt><trkpt lat="45.5207417" lon="8.774495"><ele>164.6</ele><time>2026-04-12T07:31:30.899Z</time></trkpt><trkpt lat="45.5206667" lon="8.774555"><ele>164.39999999999998</ele><time>2026-04-12T07:31:32.899Z</time></trkpt><trkpt lat="45.5205683" lon="8.77462"><ele>164.2</ele><time>2026-04-12T07:31:34.899Z</time></trkpt><trkpt lat="45.5204917" lon="8.7746883"><ele>164.0</ele><time>2026-04-12T07:31:36.899Z</time></trkpt><trkpt lat="45.5204183" lon="8.7747667"><ele>164.0</ele><time>2026-04-12T07:31:38.899Z</time></trkpt><trkpt lat="45.5203517" lon="8.774835"><ele>164.0</ele><time>2026-04-12T07:31:40.899Z</time></trkpt><trkpt lat="45.520285" lon="8.7748883"><ele>164.0</ele><time>2026-04-12T07:31:42.899Z</time></trkpt><trkpt lat="45.5202133" lon="8.7748517"><ele>164.0</ele><time>2026-04-12T07:31:45.899Z</time></trkpt><trkpt lat="45.5201617" lon="8.774775"><ele>164.0</ele><time>2026-04-12T07:31:47.9Z</time></trkpt><trkpt lat="45.5201067" lon="8.7746967"><ele>164.0</ele><time>2026-04-12T07:31:49.899Z</time></trkpt><trkpt lat="45.520055" lon="8.77462"><ele>164.0</ele><time>2026-04-12T07:31:51.899Z</time></trkpt><trkpt lat="45.5199883" lon="8.7745117"><ele>164.0</ele><time>2026-04-12T07:31:53.899Z</time></trkpt><trkpt lat="45.5199083" lon="8.77441"><ele>164.0</ele><time>2026-04-12T07:31:55.899Z</time></trkpt><trkpt lat="45.5198483" lon="8.7743067"><ele>164.0</ele><time>2026-04-12T07:31:57.899Z</time></trkpt><trkpt lat="45.5197933" lon="8.7742"><ele>164.0</ele><time>2026-04-12T07:31:59.899Z</time></trkpt><trkpt lat="45.51975" lon="8.7740833"><ele>164.2</ele><time>2026-04-12T07:32:01.899Z</time></trkpt><trkpt lat="45.5197233" lon="8.7739533"><ele>164.39999999999998</ele><time>2026-04-12T07:32:03.899Z</time></trkpt><trkpt lat="45.51971" lon="8.7738117"><ele>164.6</ele><time>2026-04-12T07:32:05.899Z</time></trkpt><trkpt lat="45.5197117" lon="8.7736817"><ele>164.8</ele><time>2026-04-12T07:32:07.899Z</time></trkpt><trkpt lat="45.5197267" lon="8.7735717"><ele>165.0</ele><time>2026-04-12T07:32:09.899Z</time></trkpt><trkpt lat="45.51974" lon="8.7734467"><ele>164.6</ele><time>2026-04-12T07:32:11.899Z</time></trkpt><trkpt lat="45.519765" lon="8.7733233"><ele>164.2</ele><time>2026-04-12T07:32:13.899Z</time></trkpt><trkpt lat="45.5197783" lon="8.7732"><ele>163.8</ele><time>2026-04-12T07:32:15.899Z</time></trkpt><trkpt lat="45.5197917" lon="8.7730483"><ele>163.4</ele><time>2026-04-12T07:32:17.899Z</time></trkpt><trkpt lat="45.519815" lon="8.77291"><ele>163.0</ele><time>2026-04-12T07:32:19.899Z</time></trkpt><trkpt lat="45.5198183" lon="8.772755"><ele>162.5</ele><time>2026-04-12T07:32:21.899Z</time></trkpt><trkpt lat="45.51981" lon="8.7725833"><ele>162.0</ele><time>2026-04-12T07:32:23.899Z</time></trkpt><trkpt lat="45.5198017" lon="8.7724933"><ele>161.5</ele><time>2026-04-12T07:32:24.899Z</time></trkpt><trkpt lat="45.5197883" lon="8.7723967"><ele>161.0</ele><time>2026-04-12T07:32:25.9Z</time></trkpt><trkpt lat="45.5197783" lon="8.7723067"><ele>160.5</ele><time>2026-04-12T07:32:26.899Z</time></trkpt><trkpt lat="45.5197717" lon="8.7722133"><ele>160.0</ele><time>2026-04-12T07:32:27.899Z</time></trkpt><trkpt lat="45.519765" lon="8.7721067"><ele>160.0</ele><time>2026-04-12T07:32:28.899Z</time></trkpt><trkpt lat="45.51976" lon="8.7720067"><ele>160.0</ele><time>2026-04-12T07:32:29.899Z</time></trkpt><trkpt lat="45.519755" lon="8.77191"><ele>160.0</ele><time>2026-04-12T07:32:30.899Z</time></trkpt><trkpt lat="45.5197517" lon="8.77182"><ele>160.0</ele><time>2026-04-12T07:32:31.899Z</time></trkpt><trkpt lat="45.51975" lon="8.7717217"><ele>160.0</ele><time>2026-04-12T07:32:32.899Z</time></trkpt><trkpt lat="45.5197467" lon="8.7716133"><ele>160.0</ele><time>2026-04-12T07:32:33.899Z</time></trkpt><trkpt lat="45.5197417" lon="8.771505"><ele>160.0</ele><time>2026-04-12T07:32:34.899Z</time></trkpt><trkpt lat="45.519735" lon="8.7714"><ele>159.16666666666669</ele><time>2026-04-12T07:32:35.899Z</time></trkpt><trkpt lat="45.5197217" lon="8.7712933"><ele>158.33333333333334</ele><time>2026-04-12T07:32:36.9Z</time></trkpt><trkpt lat="45.5197117" lon="8.7711933"><ele>157.5</ele><time>2026-04-12T07:32:37.899Z</time></trkpt><trkpt lat="45.5197" lon="8.7710867"><ele>156.66666666666666</ele><time>2026-04-12T07:32:38.899Z</time></trkpt><trkpt lat="45.5196967" lon="8.7709833"><ele>155.83333333333331</ele><time>2026-04-12T07:32:39.899Z</time></trkpt><trkpt lat="45.5196983" lon="8.7708717"><ele>155.0</ele><time>2026-04-12T07:32:40.9Z</time></trkpt><trkpt lat="45.5196883" lon="8.7707617"><ele>154.28571428571428</ele><time>2026-04-12T07:32:41.899Z</time></trkpt><trkpt lat="45.5196733" lon="8.7706533"><ele>153.57142857142856</ele><time>2026-04-12T07:32:42.899Z</time></trkpt><trkpt lat="45.51966" lon="8.7705567"><ele>152.85714285714283</ele><time>2026-04-12T07:32:43.899Z</time></trkpt><trkpt lat="45.5196483" lon="8.770455"><ele>152.14285714285714</ele><time>2026-04-12T07:32:44.899Z</time></trkpt><trkpt lat="45.519645" lon="8.7703567"><ele>151.42857142857142</ele><time>2026-04-12T07:32:45.899Z</time></trkpt><trkpt lat="45.5196383" lon="8.7702467"><ele>150.7142857142857</ele><time>2026-04-12T07:32:46.899Z</time></trkpt><trkpt lat="45.5196333" lon="8.770135"><ele>150.0</ele><time>2026-04-12T07:32:47.899Z</time></trkpt><trkpt lat="45.5196317" lon="8.77002"><ele>149.0</ele><time>2026-04-12T07:32:48.899Z</time></trkpt><trkpt lat="45.5196317" lon="8.7699033"><ele>148.0</ele><time>2026-04-12T07:32:49.899Z</time></trkpt><trkpt lat="45.5196333" lon="8.76976"><ele>147.0</ele><time>2026-04-12T07:32:50.899Z</time></trkpt><trkpt lat="45.5196433" lon="8.769625"><ele>146.0</ele><time>2026-04-12T07:32:51.899Z</time></trkpt><trkpt lat="45.5196517" lon="8.769495"><ele>145.0</ele><time>2026-04-12T07:32:52.899Z</time></trkpt><trkpt lat="45.5196533" lon="8.7693717"><ele>145.0</ele><time>2026-04-12T07:32:53.899Z</time></trkpt><trkpt lat="45.5196583" lon="8.7692567"><ele>145.0</ele><time>2026-04-12T07:32:54.899Z</time></trkpt><trkpt lat="45.5196717" lon="8.7691483"><ele>145.0</ele><time>2026-04-12T07:32:55.899Z</time></trkpt><trkpt lat="45.51968" lon="8.769045"><ele>145.0</ele><time>2026-04-12T07:32:56.899Z</time></trkpt><trkpt lat="45.5196817" lon="8.76895"><ele>145.0</ele><time>2026-04-12T07:32:57.9Z</time></trkpt><trkpt lat="45.51968" lon="8.7687967"><ele>145.0</ele><time>2026-04-12T07:32:59.899Z</time></trkpt><trkpt lat="45.5196467" lon="8.7686817"><ele>145.0</ele><time>2026-04-12T07:33:01.899Z</time></trkpt><trkpt lat="45.519575" lon="8.768655"><ele>145.0</ele><time>2026-04-12T07:33:03.899Z</time></trkpt><trkpt lat="45.5194633" lon="8.7686667"><ele>145.0</ele><time>2026-04-12T07:33:05.899Z</time></trkpt><trkpt lat="45.5193517" lon="8.7686667"><ele>145.0</ele><time>2026-04-12T07:33:07.899Z</time></trkpt><trkpt lat="45.5192433" lon="8.7686633"><ele>145.0</ele><time>2026-04-12T07:33:09.9Z</time></trkpt><trkpt lat="45.5191367" lon="8.7686683"><ele>144.0</ele><time>2026-04-12T07:33:11.899Z</time></trkpt><trkpt lat="45.519025" lon="8.7686683"><ele>143.0</ele><time>2026-04-12T07:33:13.899Z</time></trkpt><trkpt lat="45.5189267" lon="8.7686583"><ele>142.0</ele><time>2026-04-12T07:33:15.899Z</time></trkpt><trkpt lat="45.51882" lon="8.7686433"><ele>141.0</ele><time>2026-04-12T07:33:17.899Z</time></trkpt><trkpt lat="45.5187183" lon="8.7686217"><ele>140.0</ele><time>2026-04-12T07:33:19.899Z</time></trkpt><trkpt lat="45.51862" lon="8.7686033"><ele>139.8</ele><time>2026-04-12T07:33:21.899Z</time></trkpt><trkpt lat="45.51851" lon="8.7685783"><ele>139.6</ele><time>2026-04-12T07:33:23.899Z</time></trkpt><trkpt lat="45.518415" lon="8.7685117"><ele>139.4</ele><time>2026-04-12T07:33:25.899Z</time></trkpt><trkpt lat="45.5183167" lon="8.7684233"><ele>139.2</ele><time>2026-04-12T07:33:27.899Z</time></trkpt><trkpt lat="45.518225" lon="8.7683333"><ele>139.0</ele><time>2026-04-12T07:33:29.899Z</time></trkpt><trkpt lat="45.5181383" lon="8.7682417"><ele>139.0</ele><time>2026-04-12T07:33:31.899Z</time></trkpt><trkpt lat="45.518045" lon="8.76817"><ele>139.0</ele><time>2026-04-12T07:33:33.899Z</time></trkpt><trkpt lat="45.517945" lon="8.7681217"><ele>139.0</ele><time>2026-04-12T07:33:35.899Z</time></trkpt><trkpt lat="45.5178483" lon="8.768085"><ele>139.0</ele><time>2026-04-12T07:33:37.899Z</time></trkpt><trkpt lat="45.51775" lon="8.7680567"><ele>139.0</ele><time>2026-04-12T07:33:39.899Z</time></trkpt><trkpt lat="45.5176467" lon="8.768025"><ele>139.0</ele><time>2026-04-12T07:33:41.9Z</time></trkpt><trkpt lat="45.5175533" lon="8.7679783"><ele>139.0</ele><time>2026-04-12T07:33:43.899Z</time></trkpt><trkpt lat="45.51747" lon="8.76796"><ele>139.0</ele><time>2026-04-12T07:33:45.899Z</time></trkpt><trkpt lat="45.51737" lon="8.7679317"><ele>139.0</ele><time>2026-04-12T07:33:47.899Z</time></trkpt><trkpt lat="45.5172633" lon="8.76792"><ele>139.0</ele><time>2026-04-12T07:33:49.899Z</time></trkpt><trkpt lat="45.5171817" lon="8.7679767"><ele>139.0</ele><time>2026-04-12T07:33:51.9Z</time></trkpt><trkpt lat="45.5171333" lon="8.768095"><ele>139.0</ele><time>2026-04-12T07:33:53.899Z</time></trkpt><trkpt lat="45.517075" lon="8.7682117"><ele>139.0</ele><time>2026-04-12T07:33:55.899Z</time></trkpt><trkpt lat="45.5170133" lon="8.7683133"><ele>139.0</ele><time>2026-04-12T07:33:57.9Z</time></trkpt><trkpt lat="45.516945" lon="8.768415"><ele>139.0</ele><time>2026-04-12T07:33:59.9Z</time></trkpt><trkpt lat="45.5168817" lon="8.7685233"><ele>138.6</ele><time>2026-04-12T07:34:01.899Z</time></trkpt><trkpt lat="45.5168183" lon="8.768635"><ele>138.2</ele><time>2026-04-12T07:34:03.899Z</time></trkpt><trkpt lat="45.51675" lon="8.7687367"><ele>137.79999999999998</ele><time>2026-04-12T07:34:05.899Z</time></trkpt><trkpt lat="45.516695" lon="8.7688433"><ele>137.4</ele><time>2026-04-12T07:34:07.899Z</time></trkpt><trkpt lat="45.5166333" lon="8.7689367"><ele>137.0</ele><time>2026-04-12T07:34:09.899Z</time></trkpt><trkpt lat="45.516545" lon="8.7689983"><ele>137.0</ele><time>2026-04-12T07:34:11.899Z</time></trkpt><trkpt lat="45.5164467" lon="8.76904"><ele>137.0</ele><time>2026-04-12T07:34:13.899Z</time></trkpt><trkpt lat="45.5163467" lon="8.7690433"><ele>137.0</ele><time>2026-04-12T07:34:15.899Z</time></trkpt><trkpt lat="45.51624" lon="8.7690633"><ele>137.0</ele><time>2026-04-12T07:34:17.9Z</time></trkpt><trkpt lat="45.51614" lon="8.7690883"><ele>137.0</ele><time>2026-04-12T07:34:19.899Z</time></trkpt><trkpt lat="45.5160333" lon="8.76912"><ele>137.4</ele><time>2026-04-12T07:34:21.899Z</time></trkpt><trkpt lat="45.51594" lon="8.76916"><ele>137.79999999999998</ele><time>2026-04-12T07:34:23.899Z</time></trkpt><trkpt lat="45.5158433" lon="8.769205"><ele>138.2</ele><time>2026-04-12T07:34:25.899Z</time></trkpt><trkpt lat="45.5157517" lon="8.7692233"><ele>138.6</ele><time>2026-04-12T07:34:27.899Z</time></trkpt><trkpt lat="45.5156717" lon="8.7692317"><ele>139.0</ele><time>2026-04-12T07:34:29.899Z</time></trkpt><trkpt lat="45.51559" lon="8.769245"><ele>139.0</ele><time>2026-04-12T07:34:31.899Z</time></trkpt><trkpt lat="45.5155267" lon="8.7692083"><ele>139.0</ele><time>2026-04-12T07:34:33.899Z</time></trkpt><trkpt lat="45.5154833" lon="8.76913"><ele>139.0</ele><time>2026-04-12T07:34:35.899Z</time></trkpt><trkpt lat="45.5154633" lon="8.7690283"><ele>139.0</ele><time>2026-04-12T07:34:37.9Z</time></trkpt><trkpt lat="45.5154417" lon="8.76889"><ele>139.0</ele><time>2026-04-12T07:34:39.899Z</time></trkpt><trkpt lat="45.515425" lon="8.76877"><ele>139.0</ele><time>2026-04-12T07:34:41.899Z</time></trkpt><trkpt lat="45.5153967" lon="8.7686633"><ele>139.83333333333334</ele><time>2026-04-12T07:34:43.899Z</time></trkpt><trkpt lat="45.5153583" lon="8.7685633"><ele>140.66666666666669</ele><time>2026-04-12T07:34:45.899Z</time></trkpt><trkpt lat="45.5152983" lon="8.7684717"><ele>141.5</ele><time>2026-04-12T07:34:47.899Z</time></trkpt><trkpt lat="45.5152367" lon="8.768405"><ele>142.33333333333334</ele><time>2026-04-12T07:34:49.899Z</time></trkpt><trkpt lat="45.51518" lon="8.7683117"><ele>143.16666666666666</ele><time>2026-04-12T07:34:51.899Z</time></trkpt><trkpt lat="45.5151317" lon="8.76821"><ele>144.0</ele><time>2026-04-12T07:34:53.899Z</time></trkpt><trkpt lat="45.5150767" lon="8.7681017"><ele>144.0</ele><time>2026-04-12T07:34:55.899Z</time></trkpt><trkpt lat="45.51502" lon="8.768015"><ele>144.0</ele><time>2026-04-12T07:34:57.899Z</time></trkpt><trkpt lat="45.5149317" lon="8.7679433"><ele>144.0</ele><time>2026-04-12T07:34:59.899Z</time></trkpt><trkpt lat="45.51484" lon="8.76789"><ele>144.0</ele><time>2026-04-12T07:35:01.899Z</time></trkpt><trkpt lat="45.5147333" lon="8.7678433"><ele>144.0</ele><time>2026-04-12T07:35:03.9Z</time></trkpt><trkpt lat="45.5146433" lon="8.7678017"><ele>143.4</ele><time>2026-04-12T07:35:05.899Z</time></trkpt><trkpt lat="45.51455" lon="8.767745"><ele>142.8</ele><time>2026-04-12T07:35:07.899Z</time></trkpt><trkpt lat="45.5144717" lon="8.76766"><ele>142.2</ele><time>2026-04-12T07:35:09.899Z</time></trkpt><trkpt lat="45.5144017" lon="8.7675867"><ele>141.6</ele><time>2026-04-12T07:35:11.899Z</time></trkpt><trkpt lat="45.5143233" lon="8.7675217"><ele>141.0</ele><time>2026-04-12T07:35:13.899Z</time></trkpt><trkpt lat="45.5142467" lon="8.7674583"><ele>141.0</ele><time>2026-04-12T07:35:15.899Z</time></trkpt><trkpt lat="45.5141717" lon="8.7674067"><ele>141.0</ele><time>2026-04-12T07:35:17.898Z</time></trkpt><trkpt lat="45.514085" lon="8.7673567"><ele>141.0</ele><time>2026-04-12T07:35:19.898Z</time></trkpt><trkpt lat="45.5139983" lon="8.7672983"><ele>141.0</ele><time>2026-04-12T07:35:21.898Z</time></trkpt><trkpt lat="45.513925" lon="8.76722"><ele>141.0</ele><time>2026-04-12T07:35:23.898Z</time></trkpt><trkpt lat="45.513855" lon="8.767155"><ele>141.0</ele><time>2026-04-12T07:35:25.898Z</time></trkpt><trkpt lat="45.5137867" lon="8.7670717"><ele>140.33333333333334</ele><time>2026-04-12T07:35:27.898Z</time></trkpt><trkpt lat="45.5137033" lon="8.7670183"><ele>139.66666666666666</ele><time>2026-04-12T07:35:29.898Z</time></trkpt><trkpt lat="45.5136367" lon="8.7669583"><ele>139.0</ele><time>2026-04-12T07:35:31.898Z</time></trkpt><trkpt lat="45.51356" lon="8.7668983"><ele>138.33333333333331</ele><time>2026-04-12T07:35:33.898Z</time></trkpt><trkpt lat="45.51349" lon="8.76684"><ele>137.66666666666666</ele><time>2026-04-12T07:35:35.898Z</time></trkpt><trkpt lat="45.513405" lon="8.76678"><ele>137.0</ele><time>2026-04-12T07:35:37.898Z</time></trkpt><trkpt lat="45.5133367" lon="8.7667033"><ele>137.0</ele><time>2026-04-12T07:35:39.898Z</time></trkpt><trkpt lat="45.5132733" lon="8.7666067"><ele>137.0</ele><time>2026-04-12T07:35:41.898Z</time></trkpt><trkpt lat="45.5132033" lon="8.7665083"><ele>137.0</ele><time>2026-04-12T07:35:43.899Z</time></trkpt><trkpt lat="45.5131283" lon="8.7664167"><ele>137.0</ele><time>2026-04-12T07:35:45.898Z</time></trkpt><trkpt lat="45.5130533" lon="8.7663217"><ele>137.0</ele><time>2026-04-12T07:35:47.898Z</time></trkpt><trkpt lat="45.5129867" lon="8.7662183"><ele>137.0</ele><time>2026-04-12T07:35:49.898Z</time></trkpt><trkpt lat="45.5129217" lon="8.7661083"><ele>137.0</ele><time>2026-04-12T07:35:51.899Z</time></trkpt><trkpt lat="45.5128567" lon="8.766015"><ele>137.0</ele><time>2026-04-12T07:35:53.898Z</time></trkpt><trkpt lat="45.5128033" lon="8.7659217"><ele>137.0</ele><time>2026-04-12T07:35:55.898Z</time></trkpt><trkpt lat="45.51275" lon="8.765825"><ele>137.0</ele><time>2026-04-12T07:35:57.898Z</time></trkpt><trkpt lat="45.5127017" lon="8.7657333"><ele>137.0</ele><time>2026-04-12T07:35:59.898Z</time></trkpt><trkpt lat="45.5126417" lon="8.76564"><ele>137.16666666666666</ele><time>2026-04-12T07:36:01.898Z</time></trkpt><trkpt lat="45.5125817" lon="8.765555"><ele>137.33333333333331</ele><time>2026-04-12T07:36:03.898Z</time></trkpt><trkpt lat="45.51254" lon="8.76548"><ele>137.5</ele><time>2026-04-12T07:36:05.898Z</time></trkpt><trkpt lat="45.5125167" lon="8.7653817"><ele>137.66666666666666</ele><time>2026-04-12T07:36:07.898Z</time></trkpt><trkpt lat="45.5125267" lon="8.7652867"><ele>137.83333333333334</ele><time>2026-04-12T07:36:10.898Z</time></trkpt><trkpt lat="45.512605" lon="8.7651367"><ele>138.0</ele><time>2026-04-12T07:36:24.898Z</time></trkpt><trkpt lat="45.5126467" lon="8.765055"><ele>138.20000000000002</ele><time>2026-04-12T07:36:27.898Z</time></trkpt><trkpt lat="45.512705" lon="8.7649733"><ele>138.4</ele><time>2026-04-12T07:36:31.898Z</time></trkpt><trkpt lat="45.51278" lon="8.764935"><ele>138.60000000000002</ele><time>2026-04-12T07:36:34.898Z</time></trkpt><trkpt lat="45.5128583" lon="8.764875"><ele>138.8</ele><time>2026-04-12T07:36:36.898Z</time></trkpt><trkpt lat="45.5129517" lon="8.7647933"><ele>139.0</ele><time>2026-04-12T07:36:38.898Z</time></trkpt><trkpt lat="45.5130417" lon="8.7646983"><ele>139.0</ele><time>2026-04-12T07:36:40.898Z</time></trkpt><trkpt lat="45.5131117" lon="8.764615"><ele>139.0</ele><time>2026-04-12T07:36:42.898Z</time></trkpt><trkpt lat="45.51317" lon="8.7645417"><ele>139.0</ele><time>2026-04-12T07:36:44.898Z</time></trkpt><trkpt lat="45.5132233" lon="8.7644667"><ele>139.0</ele><time>2026-04-12T07:36:46.898Z</time></trkpt><trkpt lat="45.5132817" lon="8.7644033"><ele>139.0</ele><time>2026-04-12T07:36:48.898Z</time></trkpt><trkpt lat="45.5133383" lon="8.764325"><ele>139.0</ele><time>2026-04-12T07:36:50.898Z</time></trkpt><trkpt lat="45.5133917" lon="8.764215"><ele>139.0</ele><time>2026-04-12T07:36:52.898Z</time></trkpt><trkpt lat="45.5134383" lon="8.7640983"><ele>139.0</ele><time>2026-04-12T07:36:54.898Z</time></trkpt><trkpt lat="45.5134783" lon="8.7639833"><ele>139.0</ele><time>2026-04-12T07:36:56.898Z</time></trkpt><trkpt lat="45.5135083" lon="8.7638717"><ele>139.0</ele><time>2026-04-12T07:36:58.899Z</time></trkpt><trkpt lat="45.513535" lon="8.763765"><ele>139.0</ele><time>2026-04-12T07:37:00.898Z</time></trkpt><trkpt lat="45.5135817" lon="8.7636617"><ele>139.0</ele><time>2026-04-12T07:37:02.898Z</time></trkpt><trkpt lat="45.51362" lon="8.7635633"><ele>138.83333333333334</ele><time>2026-04-12T07:37:04.898Z</time></trkpt><trkpt lat="45.5136667" lon="8.7634517"><ele>138.66666666666669</ele><time>2026-04-12T07:37:06.898Z</time></trkpt><trkpt lat="45.5137033" lon="8.7633567"><ele>138.5</ele><time>2026-04-12T07:37:08.898Z</time></trkpt><trkpt lat="45.5137333" lon="8.763265"><ele>138.33333333333334</ele><time>2026-04-12T07:37:10.898Z</time></trkpt><trkpt lat="45.51376" lon="8.7631617"><ele>138.16666666666666</ele><time>2026-04-12T07:37:12.898Z</time></trkpt><trkpt lat="45.5137867" lon="8.7630667"><ele>138.0</ele><time>2026-04-12T07:37:14.898Z</time></trkpt><trkpt lat="45.5138267" lon="8.7629433"><ele>138.5</ele><time>2026-04-12T07:37:17.898Z</time></trkpt><trkpt lat="45.5138833" lon="8.762835"><ele>139.0</ele><time>2026-04-12T07:37:20.898Z</time></trkpt><trkpt lat="45.51391" lon="8.7627117"><ele>139.5</ele><time>2026-04-12T07:37:23.898Z</time></trkpt><trkpt lat="45.51391" lon="8.7626167"><ele>140.0</ele><time>2026-04-12T07:37:25.898Z</time></trkpt><trkpt lat="45.51392" lon="8.7625067"><ele>140.5</ele><time>2026-04-12T07:37:27.898Z</time></trkpt><trkpt lat="45.5139367" lon="8.7624017"><ele>141.0</ele><time>2026-04-12T07:37:29.898Z</time></trkpt><trkpt lat="45.5139783" lon="8.7623233"><ele>141.0</ele><time>2026-04-12T07:37:31.898Z</time></trkpt><trkpt lat="45.5140233" lon="8.7622383"><ele>141.0</ele><time>2026-04-12T07:37:33.898Z</time></trkpt><trkpt lat="45.5140583" lon="8.7621533"><ele>141.0</ele><time>2026-04-12T07:37:35.898Z</time></trkpt><trkpt lat="45.5140933" lon="8.7620283"><ele>141.0</ele><time>2026-04-12T07:37:38.898Z</time></trkpt><trkpt lat="45.5141367" lon="8.76192"><ele>141.0</ele><time>2026-04-12T07:37:41.898Z</time></trkpt><trkpt lat="45.5141833" lon="8.7618417"><ele>141.0</ele><time>2026-04-12T07:37:44.899Z</time></trkpt><trkpt lat="45.5142133" lon="8.7617467"><ele>141.0</ele><time>2026-04-12T07:37:47.898Z</time></trkpt><trkpt lat="45.5142583" lon="8.7616417"><ele>141.0</ele><time>2026-04-12T07:37:50.898Z</time></trkpt><trkpt lat="45.5142867" lon="8.7615433"><ele>141.0</ele><time>2026-04-12T07:37:52.898Z</time></trkpt><trkpt lat="45.5143183" lon="8.76144"><ele>141.0</ele><time>2026-04-12T07:37:54.898Z</time></trkpt><trkpt lat="45.51434" lon="8.7613517"><ele>141.0</ele><time>2026-04-12T07:37:56.898Z</time></trkpt><trkpt lat="45.5143717" lon="8.761265"><ele>141.0</ele><time>2026-04-12T07:37:58.898Z</time></trkpt><trkpt lat="45.5143917" lon="8.7611717"><ele>141.0</ele><time>2026-04-12T07:38:00.898Z</time></trkpt><trkpt lat="45.5144167" lon="8.76108"><ele>141.0</ele><time>2026-04-12T07:38:02.898Z</time></trkpt><trkpt lat="45.5144417" lon="8.7609783"><ele>141.0</ele><time>2026-04-12T07:38:04.899Z</time></trkpt><trkpt lat="45.5144667" lon="8.76088"><ele>141.0</ele><time>2026-04-12T07:38:06.898Z</time></trkpt><trkpt lat="45.514505" lon="8.7607817"><ele>141.0</ele><time>2026-04-12T07:38:08.898Z</time></trkpt><trkpt lat="45.5145433" lon="8.7606867"><ele>141.0</ele><time>2026-04-12T07:38:10.898Z</time></trkpt><trkpt lat="45.5145783" lon="8.7606"><ele>141.0</ele><time>2026-04-12T07:38:12.898Z</time></trkpt><trkpt lat="45.5146233" lon="8.7605083"><ele>141.0</ele><time>2026-04-12T07:38:14.898Z</time></trkpt><trkpt lat="45.5146667" lon="8.7604233"><ele>141.0</ele><time>2026-04-12T07:38:16.898Z</time></trkpt><trkpt lat="45.5146983" lon="8.7603383"><ele>141.0</ele><time>2026-04-12T07:38:18.898Z</time></trkpt><trkpt lat="45.51473" lon="8.7602433"><ele>141.0</ele><time>2026-04-12T07:38:20.898Z</time></trkpt><trkpt lat="45.5147717" lon="8.7601483"><ele>141.0</ele><time>2026-04-12T07:38:22.898Z</time></trkpt><trkpt lat="45.5148233" lon="8.7600667"><ele>141.0</ele><time>2026-04-12T07:38:24.898Z</time></trkpt><trkpt lat="45.5148683" lon="8.7599933"><ele>141.0</ele><time>2026-04-12T07:38:26.898Z</time></trkpt><trkpt lat="45.5149133" lon="8.7598967"><ele>140.5</ele><time>2026-04-12T07:38:28.898Z</time></trkpt><trkpt lat="45.5149417" lon="8.7598067"><ele>140.0</ele><time>2026-04-12T07:38:30.898Z</time></trkpt><trkpt lat="45.514975" lon="8.7597067"><ele>139.5</ele><time>2026-04-12T07:38:32.898Z</time></trkpt><trkpt lat="45.5150133" lon="8.7596167"><ele>139.0</ele><time>2026-04-12T07:38:34.898Z</time></trkpt><trkpt lat="45.5150517" lon="8.7595383"><ele>138.5</ele><time>2026-04-12T07:38:36.899Z</time></trkpt><trkpt lat="45.5151117" lon="8.7594617"><ele>138.0</ele><time>2026-04-12T07:38:38.898Z</time></trkpt><trkpt lat="45.515185" lon="8.7594083"><ele>138.0</ele><time>2026-04-12T07:38:41.898Z</time></trkpt><trkpt lat="45.515265" lon="8.7593583"><ele>138.0</ele><time>2026-04-12T07:38:44.898Z</time></trkpt><trkpt lat="45.5153617" lon="8.7592883"><ele>138.0</ele><time>2026-04-12T07:38:47.898Z</time></trkpt><trkpt lat="45.5154283" lon="8.75922"><ele>138.0</ele><time>2026-04-12T07:38:49.898Z</time></trkpt><trkpt lat="45.515495" lon="8.7591683"><ele>138.0</ele><time>2026-04-12T07:38:51.898Z</time></trkpt><trkpt lat="45.5155667" lon="8.7591067"><ele>138.0</ele><time>2026-04-12T07:38:53.898Z</time></trkpt><trkpt lat="45.5156317" lon="8.759045"><ele>138.0</ele><time>2026-04-12T07:38:55.898Z</time></trkpt><trkpt lat="45.51569" lon="8.75899"><ele>138.0</ele><time>2026-04-12T07:38:57.898Z</time></trkpt><trkpt lat="45.5157483" lon="8.758935"><ele>138.0</ele><time>2026-04-12T07:38:59.898Z</time></trkpt><trkpt lat="45.5158083" lon="8.75889"><ele>138.0</ele><time>2026-04-12T07:39:01.898Z</time></trkpt><trkpt lat="45.5158833" lon="8.7588233"><ele>138.0</ele><time>2026-04-12T07:39:03.898Z</time></trkpt><trkpt lat="45.51596" lon="8.7587667"><ele>138.0</ele><time>2026-04-12T07:39:05.898Z</time></trkpt><trkpt lat="45.5160267" lon="8.758705"><ele>138.0</ele><time>2026-04-12T07:39:07.898Z</time></trkpt><trkpt lat="45.5160917" lon="8.75865"><ele>138.0</ele><time>2026-04-12T07:39:09.898Z</time></trkpt><trkpt lat="45.5161583" lon="8.7585933"><ele>138.0</ele><time>2026-04-12T07:39:11.899Z</time></trkpt><trkpt lat="45.51623" lon="8.7585417"><ele>138.0</ele><time>2026-04-12T07:39:13.898Z</time></trkpt><trkpt lat="45.5163083" lon="8.7584933"><ele>138.0</ele><time>2026-04-12T07:39:15.898Z</time></trkpt><trkpt lat="45.5163867" lon="8.7584333"><ele>138.0</ele><time>2026-04-12T07:39:17.899Z</time></trkpt><trkpt lat="45.5164583" lon="8.7583617"><ele>139.5</ele><time>2026-04-12T07:39:19.898Z</time></trkpt><trkpt lat="45.516515" lon="8.7583083"><ele>141.0</ele><time>2026-04-12T07:39:21.898Z</time></trkpt><trkpt lat="45.5165817" lon="8.7582517"><ele>142.5</ele><time>2026-04-12T07:39:23.898Z</time></trkpt><trkpt lat="45.516645" lon="8.7581983"><ele>144.0</ele><time>2026-04-12T07:39:25.898Z</time></trkpt><trkpt lat="45.51671" lon="8.7581433"><ele>145.5</ele><time>2026-04-12T07:39:27.898Z</time></trkpt><trkpt lat="45.5167883" lon="8.75811"><ele>147.0</ele><time>2026-04-12T07:39:29.898Z</time></trkpt><trkpt lat="45.5168583" lon="8.758075"><ele>147.0</ele><time>2026-04-12T07:39:31.899Z</time></trkpt><trkpt lat="45.5169233" lon="8.7580467"><ele>147.0</ele><time>2026-04-12T07:39:33.898Z</time></trkpt><trkpt lat="45.5169983" lon="8.7580233"><ele>147.0</ele><time>2026-04-12T07:39:35.898Z</time></trkpt><trkpt lat="45.5170783" lon="8.7580067"><ele>147.0</ele><time>2026-04-12T07:39:37.898Z</time></trkpt><trkpt lat="45.5171517" lon="8.7579867"><ele>147.0</ele><time>2026-04-12T07:39:39.898Z</time></trkpt><trkpt lat="45.5172317" lon="8.75796"><ele>147.0</ele><time>2026-04-12T07:39:41.898Z</time></trkpt><trkpt lat="45.5173017" lon="8.7579283"><ele>147.16666666666666</ele><time>2026-04-12T07:39:43.898Z</time></trkpt><trkpt lat="45.51738" lon="8.7578833"><ele>147.33333333333334</ele><time>2026-04-12T07:39:46.898Z</time></trkpt><trkpt lat="45.5174633" lon="8.7578167"><ele>147.5</ele><time>2026-04-12T07:39:49.898Z</time></trkpt><trkpt lat="45.51752" lon="8.7577717"><ele>147.66666666666669</ele><time>2026-04-12T07:39:51.898Z</time></trkpt><trkpt lat="45.517585" lon="8.75773"><ele>147.83333333333334</ele><time>2026-04-12T07:39:53.898Z</time></trkpt><trkpt lat="45.51765" lon="8.7576983"><ele>148.0</ele><time>2026-04-12T07:39:55.898Z</time></trkpt><trkpt lat="45.5177333" lon="8.7576733"><ele>148.0</ele><time>2026-04-12T07:39:57.898Z</time></trkpt><trkpt lat="45.5178133" lon="8.75765"><ele>148.0</ele><time>2026-04-12T07:39:59.899Z</time></trkpt><trkpt lat="45.5178967" lon="8.7576317"><ele>148.0</ele><time>2026-04-12T07:40:01.898Z</time></trkpt><trkpt lat="45.5179817" lon="8.7576283"><ele>148.0</ele><time>2026-04-12T07:40:03.898Z</time></trkpt><trkpt lat="45.5180717" lon="8.7576283"><ele>148.0</ele><time>2026-04-12T07:40:05.899Z</time></trkpt><trkpt lat="45.5181567" lon="8.7576283"><ele>148.0</ele><time>2026-04-12T07:40:07.898Z</time></trkpt><trkpt lat="45.518235" lon="8.7576317"><ele>147.66666666666669</ele><time>2026-04-12T07:40:09.898Z</time></trkpt><trkpt lat="45.5183117" lon="8.7576183"><ele>147.33333333333334</ele><time>2026-04-12T07:40:11.898Z</time></trkpt><trkpt lat="45.5184017" lon="8.75758"><ele>147.0</ele><time>2026-04-12T07:40:13.898Z</time></trkpt><trkpt lat="45.5184867" lon="8.7575617"><ele>146.66666666666666</ele><time>2026-04-12T07:40:15.898Z</time></trkpt><trkpt lat="45.518565" lon="8.75751"><ele>146.33333333333331</ele><time>2026-04-12T07:40:17.898Z</time></trkpt><trkpt lat="45.518635" lon="8.75742"><ele>146.0</ele><time>2026-04-12T07:40:19.898Z</time></trkpt><trkpt lat="45.5186917" lon="8.7573333"><ele>144.83333333333331</ele><time>2026-04-12T07:40:21.898Z</time></trkpt><trkpt lat="45.518735" lon="8.7572317"><ele>143.66666666666666</ele><time>2026-04-12T07:40:23.898Z</time></trkpt><trkpt lat="45.5187833" lon="8.7571417"><ele>142.5</ele><time>2026-04-12T07:40:25.898Z</time></trkpt><trkpt lat="45.5188317" lon="8.7570533"><ele>141.33333333333334</ele><time>2026-04-12T07:40:27.898Z</time></trkpt><trkpt lat="45.5188817" lon="8.756975"><ele>140.16666666666669</ele><time>2026-04-12T07:40:29.898Z</time></trkpt><trkpt lat="45.5189133" lon="8.7568667"><ele>139.0</ele><time>2026-04-12T07:40:32.898Z</time></trkpt><trkpt lat="45.5188817" lon="8.7567733"><ele>138.83333333333334</ele><time>2026-04-12T07:40:34.898Z</time></trkpt><trkpt lat="45.5188183" lon="8.7566817"><ele>138.66666666666669</ele><time>2026-04-12T07:40:36.898Z</time></trkpt><trkpt lat="45.5187583" lon="8.7566017"><ele>138.5</ele><time>2026-04-12T07:40:38.899Z</time></trkpt><trkpt lat="45.518695" lon="8.7565267"><ele>138.33333333333334</ele><time>2026-04-12T07:40:40.898Z</time></trkpt><trkpt lat="45.518645" lon="8.7564333"><ele>138.16666666666666</ele><time>2026-04-12T07:40:42.898Z</time></trkpt><trkpt lat="45.5186" lon="8.7563333"><ele>138.0</ele><time>2026-04-12T07:40:44.898Z</time></trkpt><trkpt lat="45.5185633" lon="8.7562233"><ele>138.4</ele><time>2026-04-12T07:40:46.898Z</time></trkpt><trkpt lat="45.51851" lon="8.756105"><ele>138.8</ele><time>2026-04-12T07:40:48.898Z</time></trkpt><trkpt lat="45.518475" lon="8.7559817"><ele>139.2</ele><time>2026-04-12T07:40:50.898Z</time></trkpt><trkpt lat="45.518425" lon="8.7558717"><ele>139.6</ele><time>2026-04-12T07:40:52.898Z</time></trkpt><trkpt lat="45.5183733" lon="8.7557533"><ele>140.0</ele><time>2026-04-12T07:40:54.898Z</time></trkpt><trkpt lat="45.5183333" lon="8.7556483"><ele>140.0</ele><time>2026-04-12T07:40:56.898Z</time></trkpt><trkpt lat="45.5182867" lon="8.7555317"><ele>140.0</ele><time>2026-04-12T07:40:58.898Z</time></trkpt><trkpt lat="45.5182333" lon="8.755415"><ele>140.0</ele><time>2026-04-12T07:41:00.898Z</time></trkpt><trkpt lat="45.5181733" lon="8.7553"><ele>140.0</ele><time>2026-04-12T07:41:02.898Z</time></trkpt><trkpt lat="45.5181183" lon="8.7551967"><ele>140.0</ele><time>2026-04-12T07:41:04.898Z</time></trkpt><trkpt lat="45.5180583" lon="8.7550917"><ele>139.8</ele><time>2026-04-12T07:41:06.898Z</time></trkpt><trkpt lat="45.5179933" lon="8.75499"><ele>139.6</ele><time>2026-04-12T07:41:08.898Z</time></trkpt><trkpt lat="45.5179083" lon="8.7548933"><ele>139.4</ele><time>2026-04-12T07:41:10.898Z</time></trkpt><trkpt lat="45.5178333" lon="8.7548033"><ele>139.2</ele><time>2026-04-12T07:41:12.898Z</time></trkpt><trkpt lat="45.5177517" lon="8.7547067"><ele>139.0</ele><time>2026-04-12T07:41:14.898Z</time></trkpt><trkpt lat="45.517665" lon="8.75461"><ele>139.0</ele><time>2026-04-12T07:41:16.898Z</time></trkpt><trkpt lat="45.5175933" lon="8.7545183"><ele>139.0</ele><time>2026-04-12T07:41:18.898Z</time></trkpt><trkpt lat="45.5175133" lon="8.7544217"><ele>139.0</ele><time>2026-04-12T07:41:20.898Z</time></trkpt><trkpt lat="45.5174317" lon="8.7543167"><ele>139.0</ele><time>2026-04-12T07:41:22.898Z</time></trkpt><trkpt lat="45.517365" lon="8.7541917"><ele>139.0</ele><time>2026-04-12T07:41:24.898Z</time></trkpt><trkpt lat="45.5173183" lon="8.7540417"><ele>138.6</ele><time>2026-04-12T07:41:26.898Z</time></trkpt><trkpt lat="45.5173167" lon="8.753885"><ele>138.2</ele><time>2026-04-12T07:41:28.898Z</time></trkpt><trkpt lat="45.5173467" lon="8.75374"><ele>137.79999999999998</ele><time>2026-04-12T07:41:30.899Z</time></trkpt><trkpt lat="45.5173933" lon="8.75359"><ele>137.4</ele><time>2026-04-12T07:41:32.898Z</time></trkpt><trkpt lat="45.5174333" lon="8.7534517"><ele>137.0</ele><time>2026-04-12T07:41:34.898Z</time></trkpt><trkpt lat="45.5174783" lon="8.7533167"><ele>137.0</ele><time>2026-04-12T07:41:36.898Z</time></trkpt><trkpt lat="45.5175283" lon="8.75319"><ele>137.0</ele><time>2026-04-12T07:41:38.898Z</time></trkpt><trkpt lat="45.517575" lon="8.7530533"><ele>137.0</ele><time>2026-04-12T07:41:40.898Z</time></trkpt><trkpt lat="45.5176283" lon="8.7529183"><ele>137.0</ele><time>2026-04-12T07:41:42.898Z</time></trkpt><trkpt lat="45.5176833" lon="8.7527867"><ele>137.0</ele><time>2026-04-12T07:41:44.898Z</time></trkpt><trkpt lat="45.51773" lon="8.75265"><ele>137.2</ele><time>2026-04-12T07:41:46.898Z</time></trkpt><trkpt lat="45.5177767" lon="8.752505"><ele>137.39999999999998</ele><time>2026-04-12T07:41:48.898Z</time></trkpt><trkpt lat="45.5178117" lon="8.7523517"><ele>137.60000000000002</ele><time>2026-04-12T07:41:50.898Z</time></trkpt><trkpt lat="45.517805" lon="8.752215"><ele>137.8</ele><time>2026-04-12T07:41:52.898Z</time></trkpt><trkpt lat="45.517735" lon="8.7520817"><ele>138.0</ele><time>2026-04-12T07:41:54.898Z</time></trkpt><trkpt lat="45.51765" lon="8.7519683"><ele>137.5</ele><time>2026-04-12T07:41:56.898Z</time></trkpt><trkpt lat="45.5175583" lon="8.7518717"><ele>137.0</ele><time>2026-04-12T07:41:58.898Z</time></trkpt><trkpt lat="45.5174683" lon="8.7517617"><ele>136.5</ele><time>2026-04-12T07:42:00.898Z</time></trkpt><trkpt lat="45.5173833" lon="8.7516517"><ele>136.0</ele><time>2026-04-12T07:42:02.899Z</time></trkpt><trkpt lat="45.5173117" lon="8.751545"><ele>136.0</ele><time>2026-04-12T07:42:04.898Z</time></trkpt><trkpt lat="45.51723" lon="8.7514417"><ele>136.0</ele><time>2026-04-12T07:42:06.898Z</time></trkpt><trkpt lat="45.5171517" lon="8.7513367"><ele>136.0</ele><time>2026-04-12T07:42:08.898Z</time></trkpt><trkpt lat="45.5170783" lon="8.7512483"><ele>136.0</ele><time>2026-04-12T07:42:10.898Z</time></trkpt><trkpt lat="45.5170083" lon="8.75116"><ele>136.0</ele><time>2026-04-12T07:42:12.898Z</time></trkpt><trkpt lat="45.5169483" lon="8.75106"><ele>136.16666666666669</ele><time>2026-04-12T07:42:14.898Z</time></trkpt><trkpt lat="45.51689" lon="8.75099"><ele>136.33333333333334</ele><time>2026-04-12T07:42:16.899Z</time></trkpt><trkpt lat="45.5168233" lon="8.7509417"><ele>136.5</ele><time>2026-04-12T07:42:18.898Z</time></trkpt><trkpt lat="45.51675" lon="8.7508933"><ele>136.66666666666666</ele><time>2026-04-12T07:42:21.898Z</time></trkpt><trkpt lat="45.5166917" lon="8.75085"><ele>136.83333333333331</ele><time>2026-04-12T07:42:23.899Z</time></trkpt><trkpt lat="45.51665" lon="8.750735"><ele>137.0</ele><time>2026-04-12T07:42:25.899Z</time></trkpt><trkpt lat="45.51664" lon="8.7505683"><ele>137.0</ele><time>2026-04-12T07:42:27.898Z</time></trkpt><trkpt lat="45.5166517" lon="8.75039"><ele>137.0</ele><time>2026-04-12T07:42:29.898Z</time></trkpt><trkpt lat="45.5166617" lon="8.7502967"><ele>137.0</ele><time>2026-04-12T07:42:30.898Z</time></trkpt><trkpt lat="45.5166783" lon="8.7502067"><ele>137.0</ele><time>2026-04-12T07:42:31.898Z</time></trkpt><trkpt lat="45.5166983" lon="8.75003"><ele>137.0</ele><time>2026-04-12T07:42:33.898Z</time></trkpt><trkpt lat="45.5166767" lon="8.7498633"><ele>137.0</ele><time>2026-04-12T07:42:35.898Z</time></trkpt><trkpt lat="45.5165983" lon="8.749725"><ele>137.0</ele><time>2026-04-12T07:42:37.899Z</time></trkpt><trkpt lat="45.516495" lon="8.7496083"><ele>137.0</ele><time>2026-04-12T07:42:39.898Z</time></trkpt><trkpt lat="45.51645" lon="8.74954"><ele>137.0</ele><time>2026-04-12T07:42:40.898Z</time></trkpt><trkpt lat="45.51636" lon="8.7494417"><ele>137.0</ele><time>2026-04-12T07:42:42.898Z</time></trkpt><trkpt lat="45.5162683" lon="8.7493367"><ele>137.5</ele><time>2026-04-12T07:42:44.899Z</time></trkpt><trkpt lat="45.51618" lon="8.749235"><ele>138.0</ele><time>2026-04-12T07:42:46.898Z</time></trkpt><trkpt lat="45.5160983" lon="8.7491367"><ele>138.5</ele><time>2026-04-12T07:42:48.898Z</time></trkpt><trkpt lat="45.5160083" lon="8.7490267"><ele>139.0</ele><time>2026-04-12T07:42:50.898Z</time></trkpt><trkpt lat="45.515915" lon="8.7489267"><ele>139.0</ele><time>2026-04-12T07:42:52.898Z</time></trkpt><trkpt lat="45.5158167" lon="8.7488333"><ele>139.0</ele><time>2026-04-12T07:42:54.898Z</time></trkpt><trkpt lat="45.5157617" lon="8.7487883"><ele>139.0</ele><time>2026-04-12T07:42:55.898Z</time></trkpt><trkpt lat="45.51571" lon="8.7487367"><ele>139.0</ele><time>2026-04-12T07:42:56.898Z</time></trkpt><trkpt lat="45.515615" lon="8.748625"><ele>139.0</ele><time>2026-04-12T07:42:58.898Z</time></trkpt><trkpt lat="45.51553" lon="8.748515"><ele>139.2</ele><time>2026-04-12T07:43:00.898Z</time></trkpt><trkpt lat="45.5154383" lon="8.7484267"><ele>139.4</ele><time>2026-04-12T07:43:02.898Z</time></trkpt><trkpt lat="45.5153717" lon="8.7483167"><ele>139.6</ele><time>2026-04-12T07:43:04.899Z</time></trkpt><trkpt lat="45.5152917" lon="8.7481967"><ele>139.8</ele><time>2026-04-12T07:43:06.898Z</time></trkpt><trkpt lat="45.5152033" lon="8.74808"><ele>140.0</ele><time>2026-04-12T07:43:08.898Z</time></trkpt><trkpt lat="45.51512" lon="8.7479633"><ele>140.5</ele><time>2026-04-12T07:43:10.897Z</time></trkpt><trkpt lat="45.5150367" lon="8.7478467"><ele>141.0</ele><time>2026-04-12T07:43:12.897Z</time></trkpt><trkpt lat="45.51496" lon="8.7477317"><ele>141.5</ele><time>2026-04-12T07:43:14.897Z</time></trkpt><trkpt lat="45.5148817" lon="8.74761"><ele>142.0</ele><time>2026-04-12T07:43:16.897Z</time></trkpt><trkpt lat="45.5148117" lon="8.7474683"><ele>141.2</ele><time>2026-04-12T07:43:18.898Z</time></trkpt><trkpt lat="45.5147367" lon="8.7473583"><ele>140.39999999999998</ele><time>2026-04-12T07:43:20.897Z</time></trkpt><trkpt lat="45.5146683" lon="8.7472433"><ele>139.60000000000002</ele><time>2026-04-12T07:43:22.898Z</time></trkpt><trkpt lat="45.5146" lon="8.74714"><ele>138.8</ele><time>2026-04-12T07:43:24.897Z</time></trkpt><trkpt lat="45.5145417" lon="8.747015"><ele>138.0</ele><time>2026-04-12T07:43:26.897Z</time></trkpt><trkpt lat="45.5144817" lon="8.7468833"><ele>137.8</ele><time>2026-04-12T07:43:28.897Z</time></trkpt><trkpt lat="45.51442" lon="8.7467383"><ele>137.60000000000002</ele><time>2026-04-12T07:43:30.897Z</time></trkpt><trkpt lat="45.51438" lon="8.7466017"><ele>137.39999999999998</ele><time>2026-04-12T07:43:32.897Z</time></trkpt><trkpt lat="45.5143467" lon="8.7464667"><ele>137.2</ele><time>2026-04-12T07:43:34.897Z</time></trkpt><trkpt lat="45.5143" lon="8.7463317"><ele>137.0</ele><time>2026-04-12T07:43:36.897Z</time></trkpt><trkpt lat="45.51425" lon="8.74619"><ele>137.0</ele><time>2026-04-12T07:43:38.897Z</time></trkpt><trkpt lat="45.5142083" lon="8.7460567"><ele>137.0</ele><time>2026-04-12T07:43:40.897Z</time></trkpt><trkpt lat="45.5141667" lon="8.745945"><ele>137.0</ele><time>2026-04-12T07:43:42.897Z</time></trkpt><trkpt lat="45.5141183" lon="8.74581"><ele>137.0</ele><time>2026-04-12T07:43:44.897Z</time></trkpt><trkpt lat="45.5140683" lon="8.7456833"><ele>137.0</ele><time>2026-04-12T07:43:46.897Z</time></trkpt><trkpt lat="45.5140133" lon="8.745555"><ele>137.25</ele><time>2026-04-12T07:43:48.897Z</time></trkpt><trkpt lat="45.5139583" lon="8.74542"><ele>137.5</ele><time>2026-04-12T07:43:50.897Z</time></trkpt><trkpt lat="45.5139" lon="8.7452733"><ele>137.75</ele><time>2026-04-12T07:43:52.897Z</time></trkpt><trkpt lat="45.513845" lon="8.745125"><ele>138.0</ele><time>2026-04-12T07:43:54.897Z</time></trkpt><trkpt lat="45.5137983" lon="8.7449733"><ele>138.0</ele><time>2026-04-12T07:43:56.897Z</time></trkpt><trkpt lat="45.5137483" lon="8.7448333"><ele>138.0</ele><time>2026-04-12T07:43:58.897Z</time></trkpt><trkpt lat="45.51369" lon="8.7447133"><ele>138.0</ele><time>2026-04-12T07:44:00.897Z</time></trkpt><trkpt lat="45.5136517" lon="8.7445733"><ele>138.0</ele><time>2026-04-12T07:44:02.897Z</time></trkpt><trkpt lat="45.5136017" lon="8.74442"><ele>138.0</ele><time>2026-04-12T07:44:04.897Z</time></trkpt><trkpt lat="45.5135483" lon="8.744285"><ele>138.4</ele><time>2026-04-12T07:44:06.897Z</time></trkpt><trkpt lat="45.513485" lon="8.7441517"><ele>138.8</ele><time>2026-04-12T07:44:08.897Z</time></trkpt><trkpt lat="45.513415" lon="8.7440183"><ele>139.2</ele><time>2026-04-12T07:44:10.897Z</time></trkpt><trkpt lat="45.5133517" lon="8.7438917"><ele>139.6</ele><time>2026-04-12T07:44:12.897Z</time></trkpt><trkpt lat="45.5132967" lon="8.7437617"><ele>140.0</ele><time>2026-04-12T07:44:14.897Z</time></trkpt><trkpt lat="45.51324" lon="8.7436183"><ele>139.0</ele><time>2026-04-12T07:44:16.897Z</time></trkpt><trkpt lat="45.5131783" lon="8.74347"><ele>138.0</ele><time>2026-04-12T07:44:18.897Z</time></trkpt><trkpt lat="45.5131283" lon="8.7434033"><ele>137.0</ele><time>2026-04-12T07:44:19.897Z</time></trkpt><trkpt lat="45.513075" lon="8.7433283"><ele>136.0</ele><time>2026-04-12T07:44:20.897Z</time></trkpt><trkpt lat="45.513025" lon="8.7432533"><ele>135.0</ele><time>2026-04-12T07:44:21.898Z</time></trkpt><trkpt lat="45.5129767" lon="8.7431867"><ele>134.0</ele><time>2026-04-12T07:44:22.897Z</time></trkpt><trkpt lat="45.5129233" lon="8.7431183"><ele>133.6</ele><time>2026-04-12T07:44:23.897Z</time></trkpt><trkpt lat="45.512875" lon="8.7430417"><ele>133.2</ele><time>2026-04-12T07:44:24.897Z</time></trkpt><trkpt lat="45.5128267" lon="8.7429733"><ele>132.79999999999998</ele><time>2026-04-12T07:44:25.898Z</time></trkpt><trkpt lat="45.512745" lon="8.7428767"><ele>132.4</ele><time>2026-04-12T07:44:27.897Z</time></trkpt><trkpt lat="45.5126617" lon="8.7427533"><ele>132.0</ele><time>2026-04-12T07:44:29.897Z</time></trkpt><trkpt lat="45.5125917" lon="8.7426217"><ele>132.0</ele><time>2026-04-12T07:44:31.897Z</time></trkpt><trkpt lat="45.5125183" lon="8.7424917"><ele>132.0</ele><time>2026-04-12T07:44:33.897Z</time></trkpt><trkpt lat="45.51244" lon="8.7423817"><ele>132.0</ele><time>2026-04-12T07:44:35.897Z</time></trkpt><trkpt lat="45.51235" lon="8.742285"><ele>132.0</ele><time>2026-04-12T07:44:37.897Z</time></trkpt><trkpt lat="45.512265" lon="8.7422117"><ele>132.0</ele><time>2026-04-12T07:44:39.897Z</time></trkpt><trkpt lat="45.5121583" lon="8.7421367"><ele>131.79999999999998</ele><time>2026-04-12T07:44:41.897Z</time></trkpt><trkpt lat="45.5120467" lon="8.74206"><ele>131.6</ele><time>2026-04-12T07:44:43.897Z</time></trkpt><trkpt lat="45.511935" lon="8.7419883"><ele>131.39999999999998</ele><time>2026-04-12T07:44:45.897Z</time></trkpt><trkpt lat="45.5118233" lon="8.7419233"><ele>131.2</ele><time>2026-04-12T07:44:47.897Z</time></trkpt><trkpt lat="45.5117617" lon="8.741895"><ele>131.0</ele><time>2026-04-12T07:44:48.897Z</time></trkpt><trkpt lat="45.5116467" lon="8.74183"><ele>131.4</ele><time>2026-04-12T07:44:50.897Z</time></trkpt><trkpt lat="45.5115933" lon="8.7417817"><ele>131.8</ele><time>2026-04-12T07:44:51.897Z</time></trkpt><trkpt lat="45.5114967" lon="8.7416883"><ele>132.20000000000002</ele><time>2026-04-12T07:44:53.897Z</time></trkpt><trkpt lat="45.51143" lon="8.7415433"><ele>132.6</ele><time>2026-04-12T07:44:55.897Z</time></trkpt><trkpt lat="45.51139" lon="8.7413833"><ele>133.0</ele><time>2026-04-12T07:44:57.897Z</time></trkpt><trkpt lat="45.511355" lon="8.7412467"><ele>133.0</ele><time>2026-04-12T07:44:59.897Z</time></trkpt><trkpt lat="45.5113233" lon="8.7411"><ele>133.0</ele><time>2026-04-12T07:45:01.897Z</time></trkpt><trkpt lat="45.5112683" lon="8.7409733"><ele>133.0</ele><time>2026-04-12T07:45:03.897Z</time></trkpt><trkpt lat="45.5112117" lon="8.7408483"><ele>133.0</ele><time>2026-04-12T07:45:05.897Z</time></trkpt><trkpt lat="45.5111467" lon="8.7407267"><ele>133.0</ele><time>2026-04-12T07:45:07.897Z</time></trkpt><trkpt lat="45.51109" lon="8.7406167"><ele>133.4</ele><time>2026-04-12T07:45:09.897Z</time></trkpt><trkpt lat="45.511025" lon="8.740495"><ele>133.8</ele><time>2026-04-12T07:45:11.897Z</time></trkpt><trkpt lat="45.5109583" lon="8.7403767"><ele>134.2</ele><time>2026-04-12T07:45:13.897Z</time></trkpt><trkpt lat="45.5109" lon="8.7402233"><ele>134.6</ele><time>2026-04-12T07:45:15.897Z</time></trkpt><trkpt lat="45.5108567" lon="8.7400817"><ele>135.0</ele><time>2026-04-12T07:45:17.897Z</time></trkpt><trkpt lat="45.510815" lon="8.7399467"><ele>135.0</ele><time>2026-04-12T07:45:19.897Z</time></trkpt><trkpt lat="45.5107767" lon="8.73982"><ele>135.0</ele><time>2026-04-12T07:45:21.897Z</time></trkpt><trkpt lat="45.5107367" lon="8.7396833"><ele>135.0</ele><time>2026-04-12T07:45:23.897Z</time></trkpt><trkpt lat="45.5107017" lon="8.7395583"><ele>135.0</ele><time>2026-04-12T07:45:25.897Z</time></trkpt><trkpt lat="45.5106717" lon="8.73943"><ele>135.0</ele><time>2026-04-12T07:45:27.898Z</time></trkpt><trkpt lat="45.5106367" lon="8.7392967"><ele>134.2</ele><time>2026-04-12T07:45:29.897Z</time></trkpt><trkpt lat="45.5105967" lon="8.739165"><ele>133.4</ele><time>2026-04-12T07:45:31.897Z</time></trkpt><trkpt lat="45.5105467" lon="8.7390333"><ele>132.6</ele><time>2026-04-12T07:45:33.897Z</time></trkpt><trkpt lat="45.5104983" lon="8.7388867"><ele>131.8</ele><time>2026-04-12T07:45:35.897Z</time></trkpt><trkpt lat="45.5104483" lon="8.7387483"><ele>131.0</ele><time>2026-04-12T07:45:37.897Z</time></trkpt><trkpt lat="45.5104" lon="8.7386183"><ele>132.25</ele><time>2026-04-12T07:45:39.897Z</time></trkpt><trkpt lat="45.510335" lon="8.7384933"><ele>133.5</ele><time>2026-04-12T07:45:41.897Z</time></trkpt><trkpt lat="45.51026" lon="8.7383733"><ele>134.75</ele><time>2026-04-12T07:45:43.897Z</time></trkpt><trkpt lat="45.51019" lon="8.73824"><ele>136.0</ele><time>2026-04-12T07:45:45.897Z</time></trkpt><trkpt lat="45.51012" lon="8.7381083"><ele>136.0</ele><time>2026-04-12T07:45:47.897Z</time></trkpt><trkpt lat="45.510055" lon="8.737985"><ele>136.0</ele><time>2026-04-12T07:45:49.897Z</time></trkpt><trkpt lat="45.5100017" lon="8.7378617"><ele>136.0</ele><time>2026-04-12T07:45:51.897Z</time></trkpt><trkpt lat="45.5099583" lon="8.737735"><ele>136.0</ele><time>2026-04-12T07:45:53.897Z</time></trkpt><trkpt lat="45.5099283" lon="8.737595"><ele>136.0</ele><time>2026-04-12T07:45:55.897Z</time></trkpt><trkpt lat="45.5098967" lon="8.737445"><ele>135.8</ele><time>2026-04-12T07:45:57.897Z</time></trkpt><trkpt lat="45.50986" lon="8.7372883"><ele>135.6</ele><time>2026-04-12T07:45:59.897Z</time></trkpt><trkpt lat="45.5098183" lon="8.7371433"><ele>135.4</ele><time>2026-04-12T07:46:01.897Z</time></trkpt><trkpt lat="45.5097733" lon="8.7369917"><ele>135.2</ele><time>2026-04-12T07:46:03.897Z</time></trkpt><trkpt lat="45.5097367" lon="8.7368483"><ele>135.0</ele><time>2026-04-12T07:46:05.897Z</time></trkpt><trkpt lat="45.509705" lon="8.736695"><ele>135.0</ele><time>2026-04-12T07:46:07.897Z</time></trkpt><trkpt lat="45.509675" lon="8.7365583"><ele>135.0</ele><time>2026-04-12T07:46:09.897Z</time></trkpt><trkpt lat="45.5096467" lon="8.73641"><ele>135.0</ele><time>2026-04-12T07:46:11.897Z</time></trkpt><trkpt lat="45.5096183" lon="8.7362633"><ele>135.0</ele><time>2026-04-12T07:46:13.897Z</time></trkpt><trkpt lat="45.5095933" lon="8.7361233"><ele>135.0</ele><time>2026-04-12T07:46:15.897Z</time></trkpt><trkpt lat="45.50957" lon="8.73597"><ele>135.0</ele><time>2026-04-12T07:46:17.897Z</time></trkpt><trkpt lat="45.509545" lon="8.7358183"><ele>135.0</ele><time>2026-04-12T07:46:19.897Z</time></trkpt><trkpt lat="45.5095033" lon="8.7356783"><ele>135.0</ele><time>2026-04-12T07:46:21.897Z</time></trkpt><trkpt lat="45.5094667" lon="8.735535"><ele>135.0</ele><time>2026-04-12T07:46:23.897Z</time></trkpt><trkpt lat="45.5094267" lon="8.7353917"><ele>135.0</ele><time>2026-04-12T07:46:25.897Z</time></trkpt><trkpt lat="45.5093917" lon="8.7352483"><ele>135.0</ele><time>2026-04-12T07:46:27.897Z</time></trkpt><trkpt lat="45.5093833" lon="8.7351233"><ele>135.0</ele><time>2026-04-12T07:46:29.897Z</time></trkpt><trkpt lat="45.5094067" lon="8.7349967"><ele>135.0</ele><time>2026-04-12T07:46:31.897Z</time></trkpt><trkpt lat="45.509425" lon="8.7348567"><ele>135.0</ele><time>2026-04-12T07:46:33.897Z</time></trkpt><trkpt lat="45.5094367" lon="8.7347083"><ele>135.0</ele><time>2026-04-12T07:46:35.897Z</time></trkpt><trkpt lat="45.50944" lon="8.7345667"><ele>135.0</ele><time>2026-04-12T07:46:37.897Z</time></trkpt><trkpt lat="45.5094517" lon="8.7344267"><ele>135.0</ele><time>2026-04-12T07:46:39.898Z</time></trkpt><trkpt lat="45.50946" lon="8.7342817"><ele>135.0</ele><time>2026-04-12T07:46:41.897Z</time></trkpt><trkpt lat="45.50947" lon="8.73413"><ele>135.0</ele><time>2026-04-12T07:46:43.898Z</time></trkpt><trkpt lat="45.5094717" lon="8.7339833"><ele>135.0</ele><time>2026-04-12T07:46:45.897Z</time></trkpt><trkpt lat="45.5094383" lon="8.7338483"><ele>135.0</ele><time>2026-04-12T07:46:47.897Z</time></trkpt><trkpt lat="45.509395" lon="8.7337317"><ele>135.0</ele><time>2026-04-12T07:46:49.897Z</time></trkpt><trkpt lat="45.5093567" lon="8.733615"><ele>135.0</ele><time>2026-04-12T07:46:51.897Z</time></trkpt><trkpt lat="45.50934" lon="8.7334933"><ele>135.0</ele><time>2026-04-12T07:46:53.897Z</time></trkpt><trkpt lat="45.5093333" lon="8.7333717"><ele>135.0</ele><time>2026-04-12T07:46:55.897Z</time></trkpt><trkpt lat="45.5093483" lon="8.7332467"><ele>135.0</ele><time>2026-04-12T07:46:57.897Z</time></trkpt><trkpt lat="45.509375" lon="8.7330967"><ele>135.0</ele><time>2026-04-12T07:46:59.898Z</time></trkpt><trkpt lat="45.5094" lon="8.73295"><ele>135.0</ele><time>2026-04-12T07:47:01.897Z</time></trkpt><trkpt lat="45.5094183" lon="8.7328033"><ele>135.0</ele><time>2026-04-12T07:47:03.897Z</time></trkpt><trkpt lat="45.5094317" lon="8.7326467"><ele>135.0</ele><time>2026-04-12T07:47:05.897Z</time></trkpt><trkpt lat="45.5094367" lon="8.73249"><ele>135.0</ele><time>2026-04-12T07:47:07.897Z</time></trkpt><trkpt lat="45.5094283" lon="8.7323233"><ele>135.5</ele><time>2026-04-12T07:47:09.897Z</time></trkpt><trkpt lat="45.5094" lon="8.7321533"><ele>136.0</ele><time>2026-04-12T07:47:11.897Z</time></trkpt><trkpt lat="45.5093533" lon="8.7320017"><ele>136.5</ele><time>2026-04-12T07:47:13.897Z</time></trkpt><trkpt lat="45.5092867" lon="8.7318667"><ele>137.0</ele><time>2026-04-12T07:47:15.897Z</time></trkpt><trkpt lat="45.5092" lon="8.7317567"><ele>137.2</ele><time>2026-04-12T07:47:17.897Z</time></trkpt><trkpt lat="45.5091183" lon="8.7316717"><ele>137.39999999999998</ele><time>2026-04-12T07:47:19.898Z</time></trkpt><trkpt lat="45.5090267" lon="8.7316"><ele>137.60000000000002</ele><time>2026-04-12T07:47:21.897Z</time></trkpt><trkpt lat="45.5089383" lon="8.7315183"><ele>137.8</ele><time>2026-04-12T07:47:23.897Z</time></trkpt><trkpt lat="45.5088617" lon="8.7314333"><ele>138.0</ele><time>2026-04-12T07:47:25.898Z</time></trkpt><trkpt lat="45.5088167" lon="8.73137"><ele>137.6</ele><time>2026-04-12T07:47:26.897Z</time></trkpt><trkpt lat="45.5087417" lon="8.7312467"><ele>137.20000000000002</ele><time>2026-04-12T07:47:28.897Z</time></trkpt><trkpt lat="45.5086783" lon="8.731135"><ele>136.8</ele><time>2026-04-12T07:47:30.897Z</time></trkpt><trkpt lat="45.5086333" lon="8.7310017"><ele>136.4</ele><time>2026-04-12T07:47:32.897Z</time></trkpt><trkpt lat="45.508615" lon="8.73086"><ele>136.0</ele><time>2026-04-12T07:47:34.897Z</time></trkpt><trkpt lat="45.5086233" lon="8.7307267"><ele>136.0</ele><time>2026-04-12T07:47:36.897Z</time></trkpt><trkpt lat="45.5086317" lon="8.730585"><ele>136.0</ele><time>2026-04-12T07:47:38.897Z</time></trkpt><trkpt lat="45.5086383" lon="8.7304483"><ele>136.0</ele><time>2026-04-12T07:47:40.897Z</time></trkpt><trkpt lat="45.5086367" lon="8.7302833"><ele>136.0</ele><time>2026-04-12T07:47:42.897Z</time></trkpt><trkpt lat="45.5086433" lon="8.7301383"><ele>136.0</ele><time>2026-04-12T07:47:44.897Z</time></trkpt><trkpt lat="45.508645" lon="8.7299817"><ele>136.25</ele><time>2026-04-12T07:47:46.897Z</time></trkpt><trkpt lat="45.5086517" lon="8.7298283"><ele>136.5</ele><time>2026-04-12T07:47:48.897Z</time></trkpt><trkpt lat="45.50865" lon="8.729665"><ele>136.75</ele><time>2026-04-12T07:47:50.897Z</time></trkpt><trkpt lat="45.508655" lon="8.7294983"><ele>137.0</ele><time>2026-04-12T07:47:52.897Z</time></trkpt><trkpt lat="45.508685" lon="8.729335"><ele>137.4</ele><time>2026-04-12T07:47:54.897Z</time></trkpt><trkpt lat="45.5087083" lon="8.7291817"><ele>137.79999999999998</ele><time>2026-04-12T07:47:56.897Z</time></trkpt><trkpt lat="45.5087" lon="8.7290283"><ele>138.2</ele><time>2026-04-12T07:47:58.897Z</time></trkpt><trkpt lat="45.50867" lon="8.7288817"><ele>138.6</ele><time>2026-04-12T07:48:00.897Z</time></trkpt><trkpt lat="45.5086517" lon="8.7287367"><ele>139.0</ele><time>2026-04-12T07:48:02.897Z</time></trkpt><trkpt lat="45.5086333" lon="8.7286"><ele>138.4</ele><time>2026-04-12T07:48:04.897Z</time></trkpt><trkpt lat="45.50864" lon="8.7284733"><ele>137.8</ele><time>2026-04-12T07:48:06.897Z</time></trkpt><trkpt lat="45.5086567" lon="8.7283567"><ele>137.2</ele><time>2026-04-12T07:48:08.897Z</time></trkpt><trkpt lat="45.5086817" lon="8.7282267"><ele>136.6</ele><time>2026-04-12T07:48:10.897Z</time></trkpt><trkpt lat="45.5087167" lon="8.728095"><ele>136.0</ele><time>2026-04-12T07:48:12.897Z</time></trkpt><trkpt lat="45.5087417" lon="8.7279617"><ele>136.2</ele><time>2026-04-12T07:48:14.897Z</time></trkpt><trkpt lat="45.5087583" lon="8.727825"><ele>136.39999999999998</ele><time>2026-04-12T07:48:16.897Z</time></trkpt><trkpt lat="45.5087833" lon="8.7276783"><ele>136.6</ele><time>2026-04-12T07:48:18.898Z</time></trkpt><trkpt lat="45.5088017" lon="8.7275283"><ele>136.79999999999998</ele><time>2026-04-12T07:48:20.897Z</time></trkpt><trkpt lat="45.5088233" lon="8.7273783"><ele>137.0</ele><time>2026-04-12T07:48:22.897Z</time></trkpt><trkpt lat="45.50885" lon="8.7272333"><ele>137.0</ele><time>2026-04-12T07:48:24.897Z</time></trkpt><trkpt lat="45.5088867" lon="8.7270983"><ele>137.0</ele><time>2026-04-12T07:48:26.897Z</time></trkpt><trkpt lat="45.5089083" lon="8.7269617"><ele>137.0</ele><time>2026-04-12T07:48:28.897Z</time></trkpt><trkpt lat="45.5088917" lon="8.7268033"><ele>137.0</ele><time>2026-04-12T07:48:30.897Z</time></trkpt><trkpt lat="45.5088483" lon="8.7266817"><ele>137.0</ele><time>2026-04-12T07:48:32.897Z</time></trkpt><trkpt lat="45.508795" lon="8.72655"><ele>137.0</ele><time>2026-04-12T07:48:34.897Z</time></trkpt><trkpt lat="45.50873" lon="8.7264283"><ele>137.0</ele><time>2026-04-12T07:48:36.897Z</time></trkpt><trkpt lat="45.508685" lon="8.7263033"><ele>137.0</ele><time>2026-04-12T07:48:38.897Z</time></trkpt><trkpt lat="45.5086483" lon="8.7261667"><ele>137.0</ele><time>2026-04-12T07:48:40.897Z</time></trkpt><trkpt lat="45.5086183" lon="8.72602"><ele>137.0</ele><time>2026-04-12T07:48:42.897Z</time></trkpt><trkpt lat="45.5086217" lon="8.7258683"><ele>137.0</ele><time>2026-04-12T07:48:44.897Z</time></trkpt><trkpt lat="45.5086283" lon="8.7257267"><ele>137.0</ele><time>2026-04-12T07:48:46.897Z</time></trkpt><trkpt lat="45.508645" lon="8.7255717"><ele>137.0</ele><time>2026-04-12T07:48:48.897Z</time></trkpt><trkpt lat="45.5086383" lon="8.725425"><ele>137.0</ele><time>2026-04-12T07:48:50.898Z</time></trkpt><trkpt lat="45.5086417" lon="8.7252917"><ele>137.0</ele><time>2026-04-12T07:48:52.897Z</time></trkpt><trkpt lat="45.508655" lon="8.7251617"><ele>136.0</ele><time>2026-04-12T07:48:54.897Z</time></trkpt><trkpt lat="45.5086867" lon="8.7250367"><ele>135.0</ele><time>2026-04-12T07:48:56.897Z</time></trkpt><trkpt lat="45.5087117" lon="8.7249133"><ele>134.0</ele><time>2026-04-12T07:48:58.897Z</time></trkpt><trkpt lat="45.508725" lon="8.7247683"><ele>133.0</ele><time>2026-04-12T07:49:00.897Z</time></trkpt><trkpt lat="45.5087217" lon="8.7246167"><ele>132.0</ele><time>2026-04-12T07:49:02.897Z</time></trkpt><trkpt lat="45.5087083" lon="8.7244783"><ele>131.6</ele><time>2026-04-12T07:49:04.897Z</time></trkpt><trkpt lat="45.5086967" lon="8.72434"><ele>131.2</ele><time>2026-04-12T07:49:06.897Z</time></trkpt><trkpt lat="45.5086783" lon="8.7242217"><ele>130.8</ele><time>2026-04-12T07:49:08.897Z</time></trkpt><trkpt lat="45.5086283" lon="8.7241133"><ele>130.4</ele><time>2026-04-12T07:49:10.897Z</time></trkpt><trkpt lat="45.508565" lon="8.7240067"><ele>130.0</ele><time>2026-04-12T07:49:12.897Z</time></trkpt><trkpt lat="45.5085117" lon="8.7239033"><ele>130.0</ele><time>2026-04-12T07:49:14.897Z</time></trkpt><trkpt lat="45.5084717" lon="8.7238017"><ele>130.0</ele><time>2026-04-12T07:49:16.897Z</time></trkpt><trkpt lat="45.5084517" lon="8.7237117"><ele>130.0</ele><time>2026-04-12T07:49:18.897Z</time></trkpt><trkpt lat="45.508475" lon="8.7236133"><ele>130.0</ele><time>2026-04-12T07:49:20.897Z</time></trkpt><trkpt lat="45.5085183" lon="8.7235067"><ele>130.0</ele><time>2026-04-12T07:49:22.897Z</time></trkpt><trkpt lat="45.5085617" lon="8.7234"><ele>130.0</ele><time>2026-04-12T07:49:24.897Z</time></trkpt><trkpt lat="45.508605" lon="8.7232617"><ele>130.4</ele><time>2026-04-12T07:49:26.897Z</time></trkpt><trkpt lat="45.5086317" lon="8.723145"><ele>130.8</ele><time>2026-04-12T07:49:28.897Z</time></trkpt><trkpt lat="45.5086467" lon="8.7230167"><ele>131.2</ele><time>2026-04-12T07:49:30.897Z</time></trkpt><trkpt lat="45.50865" lon="8.7228817"><ele>131.6</ele><time>2026-04-12T07:49:32.898Z</time></trkpt><trkpt lat="45.5086617" lon="8.7227517"><ele>132.0</ele><time>2026-04-12T07:49:34.897Z</time></trkpt><trkpt lat="45.508655" lon="8.722625"><ele>132.0</ele><time>2026-04-12T07:49:36.897Z</time></trkpt><trkpt lat="45.5086567" lon="8.72249"><ele>132.0</ele><time>2026-04-12T07:49:38.897Z</time></trkpt><trkpt lat="45.5086567" lon="8.72235"><ele>132.0</ele><time>2026-04-12T07:49:40.897Z</time></trkpt><trkpt lat="45.5086717" lon="8.7222133"><ele>132.0</ele><time>2026-04-12T07:49:42.897Z</time></trkpt><trkpt lat="45.5086983" lon="8.7220767"><ele>132.0</ele><time>2026-04-12T07:49:44.897Z</time></trkpt><trkpt lat="45.5087267" lon="8.7219483"><ele>132.2</ele><time>2026-04-12T07:49:46.897Z</time></trkpt><trkpt lat="45.508765" lon="8.721825"><ele>132.39999999999998</ele><time>2026-04-12T07:49:48.897Z</time></trkpt><trkpt lat="45.5088167" lon="8.7216983"><ele>132.60000000000002</ele><time>2026-04-12T07:49:50.897Z</time></trkpt><trkpt lat="45.508875" lon="8.72159"><ele>132.8</ele><time>2026-04-12T07:49:52.897Z</time></trkpt><trkpt lat="45.5089517" lon="8.7214833"><ele>133.0</ele><time>2026-04-12T07:49:54.897Z</time></trkpt><trkpt lat="45.5090183" lon="8.7213783"><ele>133.0</ele><time>2026-04-12T07:49:56.897Z</time></trkpt><trkpt lat="45.5090833" lon="8.7212817"><ele>133.0</ele><time>2026-04-12T07:49:58.897Z</time></trkpt><trkpt lat="45.5091733" lon="8.7212117"><ele>133.0</ele><time>2026-04-12T07:50:00.897Z</time></trkpt><trkpt lat="45.5092733" lon="8.7212217"><ele>133.0</ele><time>2026-04-12T07:50:02.897Z</time></trkpt><trkpt lat="45.5093533" lon="8.7213083"><ele>133.0</ele><time>2026-04-12T07:50:04.897Z</time></trkpt><trkpt lat="45.5094283" lon="8.7213467"><ele>133.0</ele><time>2026-04-12T07:50:06.897Z</time></trkpt><trkpt lat="45.50951" lon="8.7213083"><ele>133.0</ele><time>2026-04-12T07:50:08.897Z</time></trkpt><trkpt lat="45.509555" lon="8.721205"><ele>133.0</ele><time>2026-04-12T07:50:10.897Z</time></trkpt><trkpt lat="45.5095217" lon="8.721085"><ele>133.0</ele><time>2026-04-12T07:50:12.897Z</time></trkpt><trkpt lat="45.5094533" lon="8.7210033"><ele>133.0</ele><time>2026-04-12T07:50:14.897Z</time></trkpt><trkpt lat="45.5093833" lon="8.7209317"><ele>133.0</ele><time>2026-04-12T07:50:16.897Z</time></trkpt><trkpt lat="45.5093433" lon="8.7208333"><ele>133.0</ele><time>2026-04-12T07:50:18.897Z</time></trkpt><trkpt lat="45.5093183" lon="8.7207483"><ele>133.0</ele><time>2026-04-12T07:50:20.897Z</time></trkpt><trkpt lat="45.509265" lon="8.720645"><ele>133.0</ele><time>2026-04-12T07:50:23.897Z</time></trkpt><trkpt lat="45.509175" lon="8.72058"><ele>133.0</ele><time>2026-04-12T07:50:26.897Z</time></trkpt><trkpt lat="45.509095" lon="8.7205167"><ele>133.0</ele><time>2026-04-12T07:50:28.897Z</time></trkpt><trkpt lat="45.5090183" lon="8.72044"><ele>133.0</ele><time>2026-04-12T07:50:30.897Z</time></trkpt><trkpt lat="45.5089333" lon="8.7203583"><ele>133.0</ele><time>2026-04-12T07:50:32.897Z</time></trkpt><trkpt lat="45.5088567" lon="8.7202817"><ele>133.0</ele><time>2026-04-12T07:50:34.897Z</time></trkpt><trkpt lat="45.508765" lon="8.720215"><ele>133.0</ele><time>2026-04-12T07:50:36.897Z</time></trkpt><trkpt lat="45.50867" lon="8.7201433"><ele>133.0</ele><time>2026-04-12T07:50:38.897Z</time></trkpt><trkpt lat="45.508585" lon="8.72007"><ele>133.0</ele><time>2026-04-12T07:50:40.897Z</time></trkpt><trkpt lat="45.508505" lon="8.72"><ele>132.4</ele><time>2026-04-12T07:50:42.897Z</time></trkpt><trkpt lat="45.508425" lon="8.719925"><ele>131.8</ele><time>2026-04-12T07:50:44.897Z</time></trkpt><trkpt lat="45.5083433" lon="8.7198483"><ele>131.2</ele><time>2026-04-12T07:50:46.897Z</time></trkpt><trkpt lat="45.5082717" lon="8.7197717"><ele>130.6</ele><time>2026-04-12T07:50:48.897Z</time></trkpt><trkpt lat="45.5081967" lon="8.7196967"><ele>130.0</ele><time>2026-04-12T07:50:50.897Z</time></trkpt><trkpt lat="45.5081283" lon="8.719645"><ele>130.0</ele><time>2026-04-12T07:50:52.897Z</time></trkpt><trkpt lat="45.5080567" lon="8.7196367"><ele>130.0</ele><time>2026-04-12T07:50:54.897Z</time></trkpt><trkpt lat="45.5079783" lon="8.7196333"><ele>130.0</ele><time>2026-04-12T07:50:56.897Z</time></trkpt><trkpt lat="45.507895" lon="8.71962"><ele>130.0</ele><time>2026-04-12T07:50:58.897Z</time></trkpt><trkpt lat="45.5078167" lon="8.7196633"><ele>130.0</ele><time>2026-04-12T07:51:00.897Z</time></trkpt><trkpt lat="45.5077367" lon="8.719745"><ele>130.0</ele><time>2026-04-12T07:51:02.897Z</time></trkpt><trkpt lat="45.5076383" lon="8.7198333"><ele>130.14285714285717</ele><time>2026-04-12T07:51:04.897Z</time></trkpt><trkpt lat="45.507585" lon="8.7198867"><ele>130.28571428571428</ele><time>2026-04-12T07:51:05.897Z</time></trkpt><trkpt lat="45.5075267" lon="8.7199417"><ele>130.42857142857144</ele><time>2026-04-12T07:51:06.897Z</time></trkpt><trkpt lat="45.50747" lon="8.7200067"><ele>130.57142857142858</ele><time>2026-04-12T07:51:07.897Z</time></trkpt><trkpt lat="45.5074167" lon="8.7200733"><ele>130.71428571428572</ele><time>2026-04-12T07:51:08.897Z</time></trkpt><trkpt lat="45.5073683" lon="8.72014"><ele>130.85714285714286</ele><time>2026-04-12T07:51:09.897Z</time></trkpt><trkpt lat="45.5073117" lon="8.7202067"><ele>131.0</ele><time>2026-04-12T07:51:10.897Z</time></trkpt><trkpt lat="45.507215" lon="8.7203233"><ele>130.8</ele><time>2026-04-12T07:51:12.897Z</time></trkpt><trkpt lat="45.50713" lon="8.7204383"><ele>130.6</ele><time>2026-04-12T07:51:14.897Z</time></trkpt><trkpt lat="45.5070483" lon="8.7205367"><ele>130.4</ele><time>2026-04-12T07:51:16.897Z</time></trkpt><trkpt lat="45.5069533" lon="8.720605"><ele>130.2</ele><time>2026-04-12T07:51:18.897Z</time></trkpt><trkpt lat="45.5068567" lon="8.7206833"><ele>130.0</ele><time>2026-04-12T07:51:20.897Z</time></trkpt><trkpt lat="45.50676" lon="8.7207367"><ele>130.0</ele><time>2026-04-12T07:51:22.897Z</time></trkpt><trkpt lat="45.5066733" lon="8.7207933"><ele>130.0</ele><time>2026-04-12T07:51:24.897Z</time></trkpt><trkpt lat="45.5065783" lon="8.7208317"><ele>130.0</ele><time>2026-04-12T07:51:26.898Z</time></trkpt><trkpt lat="45.506475" lon="8.7208667"><ele>130.0</ele><time>2026-04-12T07:51:28.897Z</time></trkpt><trkpt lat="45.5063867" lon="8.72091"><ele>130.0</ele><time>2026-04-12T07:51:30.897Z</time></trkpt><trkpt lat="45.5063033" lon="8.7209867"><ele>130.4</ele><time>2026-04-12T07:51:32.897Z</time></trkpt><trkpt lat="45.5061967" lon="8.7210433"><ele>130.8</ele><time>2026-04-12T07:51:34.897Z</time></trkpt><trkpt lat="45.5060833" lon="8.7210883"><ele>131.2</ele><time>2026-04-12T07:51:36.896Z</time></trkpt><trkpt lat="45.5059783" lon="8.72112"><ele>131.6</ele><time>2026-04-12T07:51:38.896Z</time></trkpt><trkpt lat="45.50588" lon="8.721155"><ele>132.0</ele><time>2026-04-12T07:51:40.896Z</time></trkpt><trkpt lat="45.5057667" lon="8.721175"><ele>132.0</ele><time>2026-04-12T07:51:42.896Z</time></trkpt><trkpt lat="45.505655" lon="8.72121"><ele>132.0</ele><time>2026-04-12T07:51:44.896Z</time></trkpt><trkpt lat="45.5055483" lon="8.7212583"><ele>132.0</ele><time>2026-04-12T07:51:46.896Z</time></trkpt><trkpt lat="45.5054467" lon="8.7213117"><ele>132.0</ele><time>2026-04-12T07:51:48.896Z</time></trkpt><trkpt lat="45.5053517" lon="8.7213667"><ele>132.0</ele><time>2026-04-12T07:51:50.896Z</time></trkpt><trkpt lat="45.5052483" lon="8.7214317"><ele>132.0</ele><time>2026-04-12T07:51:52.896Z</time></trkpt><trkpt lat="45.5051667" lon="8.7215117"><ele>132.0</ele><time>2026-04-12T07:51:54.896Z</time></trkpt><trkpt lat="45.50508" lon="8.7216167"><ele>132.0</ele><time>2026-04-12T07:51:56.896Z</time></trkpt><trkpt lat="45.5049867" lon="8.7217133"><ele>132.0</ele><time>2026-04-12T07:51:58.896Z</time></trkpt><trkpt lat="45.5048983" lon="8.72181"><ele>132.0</ele><time>2026-04-12T07:52:00.897Z</time></trkpt><trkpt lat="45.5048183" lon="8.7219067"><ele>132.0</ele><time>2026-04-12T07:52:02.897Z</time></trkpt><trkpt lat="45.5047517" lon="8.7219867"><ele>132.0</ele><time>2026-04-12T07:52:04.896Z</time></trkpt><trkpt lat="45.504685" lon="8.7220883"><ele>132.0</ele><time>2026-04-12T07:52:06.896Z</time></trkpt><trkpt lat="45.5046083" lon="8.7221883"><ele>132.0</ele><time>2026-04-12T07:52:08.896Z</time></trkpt><trkpt lat="45.50452" lon="8.7223017"><ele>132.0</ele><time>2026-04-12T07:52:10.896Z</time></trkpt><trkpt lat="45.50443" lon="8.722405"><ele>132.2</ele><time>2026-04-12T07:52:12.896Z</time></trkpt><trkpt lat="45.504345" lon="8.72247"><ele>132.39999999999998</ele><time>2026-04-12T07:52:14.896Z</time></trkpt><trkpt lat="45.5042467" lon="8.72252"><ele>132.60000000000002</ele><time>2026-04-12T07:52:16.896Z</time></trkpt><trkpt lat="45.5041717" lon="8.722565"><ele>132.8</ele><time>2026-04-12T07:52:18.896Z</time></trkpt><trkpt lat="45.50409" lon="8.7226217"><ele>133.0</ele><time>2026-04-12T07:52:20.896Z</time></trkpt><trkpt lat="45.50398" lon="8.7226817"><ele>133.0</ele><time>2026-04-12T07:52:22.897Z</time></trkpt><trkpt lat="45.5038783" lon="8.72272"><ele>133.0</ele><time>2026-04-12T07:52:24.896Z</time></trkpt><trkpt lat="45.50377" lon="8.72276"><ele>133.0</ele><time>2026-04-12T07:52:26.896Z</time></trkpt><trkpt lat="45.50366" lon="8.7228167"><ele>133.0</ele><time>2026-04-12T07:52:28.896Z</time></trkpt><trkpt lat="45.50355" lon="8.7228767"><ele>132.8</ele><time>2026-04-12T07:52:30.896Z</time></trkpt><trkpt lat="45.503445" lon="8.7229417"><ele>132.60000000000002</ele><time>2026-04-12T07:52:32.896Z</time></trkpt><trkpt lat="45.50335" lon="8.7230083"><ele>132.39999999999998</ele><time>2026-04-12T07:52:34.896Z</time></trkpt><trkpt lat="45.5032517" lon="8.7230717"><ele>132.2</ele><time>2026-04-12T07:52:36.896Z</time></trkpt><trkpt lat="45.5031617" lon="8.7231467"><ele>132.0</ele><time>2026-04-12T07:52:38.896Z</time></trkpt><trkpt lat="45.5030783" lon="8.7232217"><ele>132.0</ele><time>2026-04-12T07:52:40.896Z</time></trkpt><trkpt lat="45.5030033" lon="8.7233067"><ele>132.0</ele><time>2026-04-12T07:52:42.896Z</time></trkpt><trkpt lat="45.5029333" lon="8.7234017"><ele>132.0</ele><time>2026-04-12T07:52:44.896Z</time></trkpt><trkpt lat="45.5028583" lon="8.7235"><ele>132.0</ele><time>2026-04-12T07:52:46.896Z</time></trkpt><trkpt lat="45.5027833" lon="8.7236017"><ele>132.0</ele><time>2026-04-12T07:52:48.896Z</time></trkpt><trkpt lat="45.5027167" lon="8.7236817"><ele>132.16666666666666</ele><time>2026-04-12T07:52:50.896Z</time></trkpt><trkpt lat="45.5026517" lon="8.72376"><ele>132.33333333333334</ele><time>2026-04-12T07:52:52.896Z</time></trkpt><trkpt lat="45.5025933" lon="8.72382"><ele>132.5</ele><time>2026-04-12T07:52:54.896Z</time></trkpt><trkpt lat="45.5025217" lon="8.7238867"><ele>132.66666666666669</ele><time>2026-04-12T07:52:56.896Z</time></trkpt><trkpt lat="45.5024383" lon="8.7239533"><ele>132.83333333333334</ele><time>2026-04-12T07:52:58.896Z</time></trkpt><trkpt lat="45.50234" lon="8.7239967"><ele>133.0</ele><time>2026-04-12T07:53:00.896Z</time></trkpt><trkpt lat="45.5022433" lon="8.7240433"><ele>133.0</ele><time>2026-04-12T07:53:02.896Z</time></trkpt><trkpt lat="45.5021483" lon="8.7241017"><ele>133.0</ele><time>2026-04-12T07:53:04.896Z</time></trkpt><trkpt lat="45.5020633" lon="8.72416"><ele>133.0</ele><time>2026-04-12T07:53:06.896Z</time></trkpt><trkpt lat="45.501985" lon="8.724205"><ele>133.0</ele><time>2026-04-12T07:53:08.896Z</time></trkpt><trkpt lat="45.5019017" lon="8.7242467"><ele>133.0</ele><time>2026-04-12T07:53:10.896Z</time></trkpt><trkpt lat="45.501825" lon="8.7242467"><ele>133.0</ele><time>2026-04-12T07:53:12.896Z</time></trkpt><trkpt lat="45.5017167" lon="8.724235"><ele>133.4</ele><time>2026-04-12T07:53:14.896Z</time></trkpt><trkpt lat="45.501605" lon="8.7242567"><ele>133.8</ele><time>2026-04-12T07:53:16.896Z</time></trkpt><trkpt lat="45.50152" lon="8.72428"><ele>134.2</ele><time>2026-04-12T07:53:18.896Z</time></trkpt><trkpt lat="45.50143" lon="8.7242867"><ele>134.6</ele><time>2026-04-12T07:53:20.896Z</time></trkpt><trkpt lat="45.501345" lon="8.72431"><ele>135.0</ele><time>2026-04-12T07:53:22.896Z</time></trkpt><trkpt lat="45.50127" lon="8.7243767"><ele>135.16666666666666</ele><time>2026-04-12T07:53:24.896Z</time></trkpt><trkpt lat="45.5012433" lon="8.7245033"><ele>135.33333333333334</ele><time>2026-04-12T07:53:26.896Z</time></trkpt><trkpt lat="45.50121" lon="8.7246317"><ele>135.5</ele><time>2026-04-12T07:53:28.896Z</time></trkpt><trkpt lat="45.5011783" lon="8.7247533"><ele>135.66666666666669</ele><time>2026-04-12T07:53:30.896Z</time></trkpt><trkpt lat="45.5011433" lon="8.7248617"><ele>135.83333333333334</ele><time>2026-04-12T07:53:32.896Z</time></trkpt><trkpt lat="45.5010733" lon="8.72492"><ele>136.0</ele><time>2026-04-12T07:53:34.897Z</time></trkpt><trkpt lat="45.5009833" lon="8.7249517"><ele>136.0</ele><time>2026-04-12T07:53:36.896Z</time></trkpt><trkpt lat="45.500895" lon="8.72497"><ele>136.0</ele><time>2026-04-12T07:53:38.896Z</time></trkpt><trkpt lat="45.5008033" lon="8.7249817"><ele>136.0</ele><time>2026-04-12T07:53:40.896Z</time></trkpt><trkpt lat="45.5007217" lon="8.72498"><ele>136.0</ele><time>2026-04-12T07:53:42.896Z</time></trkpt><trkpt lat="45.50065" lon="8.7249717"><ele>136.0</ele><time>2026-04-12T07:53:44.896Z</time></trkpt><trkpt lat="45.500575" lon="8.7249817"><ele>136.0</ele><time>2026-04-12T07:53:46.896Z</time></trkpt><trkpt lat="45.5005617" lon="8.7251167"><ele>135.8</ele><time>2026-04-12T07:53:49.896Z</time></trkpt><trkpt lat="45.5006133" lon="8.7252367"><ele>135.6</ele><time>2026-04-12T07:53:51.896Z</time></trkpt><trkpt lat="45.5006533" lon="8.72536"><ele>135.4</ele><time>2026-04-12T07:53:53.896Z</time></trkpt><trkpt lat="45.5007033" lon="8.7254783"><ele>135.2</ele><time>2026-04-12T07:53:55.896Z</time></trkpt><trkpt lat="45.5007483" lon="8.72558"><ele>135.0</ele><time>2026-04-12T07:53:57.896Z</time></trkpt><trkpt lat="45.5007832" lon="8.7256908"><ele>135.0</ele><time>2026-04-12T07:53:59.896Z</time></trkpt><trkpt lat="45.5008174" lon="8.7257965"><ele>135.0</ele><time>2026-04-12T07:54:01.896Z</time></trkpt><trkpt lat="45.5008387" lon="8.7258832"><ele>135.0</ele><time>2026-04-12T07:54:03.977Z</time></trkpt><trkpt lat="45.5008945" lon="8.7260142"><ele>135.0</ele><time>2026-04-12T07:54:05.937Z</time></trkpt><trkpt lat="45.5009373" lon="8.7261721"><ele>135.0</ele><time>2026-04-12T07:54:07.896Z</time></trkpt><trkpt lat="45.5009883" lon="8.7262967"><ele>135.0</ele><time>2026-04-12T07:54:09.897Z</time></trkpt><trkpt lat="45.501035" lon="8.7264"><ele>135.0</ele><time>2026-04-12T07:54:11.896Z</time></trkpt><trkpt lat="45.5010833" lon="8.7265233"><ele>135.0</ele><time>2026-04-12T07:54:13.896Z</time></trkpt><trkpt lat="45.50114" lon="8.726645"><ele>135.0</ele><time>2026-04-12T07:54:15.896Z</time></trkpt><trkpt lat="45.5011917" lon="8.7267867"><ele>135.0</ele><time>2026-04-12T07:54:17.896Z</time></trkpt><trkpt lat="45.50123" lon="8.7269283"><ele>134.8</ele><time>2026-04-12T07:54:19.896Z</time></trkpt><trkpt lat="45.5012533" lon="8.72707"><ele>134.6</ele><time>2026-04-12T07:54:21.896Z</time></trkpt><trkpt lat="45.5012883" lon="8.7272083"><ele>134.4</ele><time>2026-04-12T07:54:23.896Z</time></trkpt><trkpt lat="45.50131" lon="8.7273333"><ele>134.2</ele><time>2026-04-12T07:54:25.896Z</time></trkpt><trkpt lat="45.501335" lon="8.7274383"><ele>134.0</ele><time>2026-04-12T07:54:27.896Z</time></trkpt><trkpt lat="45.501365" lon="8.72754"><ele>134.0</ele><time>2026-04-12T07:54:30.896Z</time></trkpt><trkpt lat="45.501365" lon="8.727435"><ele>134.0</ele><time>2026-04-12T07:55:01.896Z</time></trkpt><trkpt lat="45.5013317" lon="8.7273467"><ele>134.0</ele><time>2026-04-12T07:55:03.896Z</time></trkpt><trkpt lat="45.5013233" lon="8.727235"><ele>134.0</ele><time>2026-04-12T07:55:05.896Z</time></trkpt><trkpt lat="45.5013033" lon="8.727135"><ele>134.0</ele><time>2026-04-12T07:55:07.896Z</time></trkpt><trkpt lat="45.50128" lon="8.7270483"><ele>134.0</ele><time>2026-04-12T07:55:09.896Z</time></trkpt><trkpt lat="45.5012517" lon="8.7269467"><ele>134.0</ele><time>2026-04-12T07:55:11.896Z</time></trkpt><trkpt lat="45.5012083" lon="8.7268283"><ele>133.83333333333331</ele><time>2026-04-12T07:55:13.897Z</time></trkpt><trkpt lat="45.5011617" lon="8.7267317"><ele>133.66666666666666</ele><time>2026-04-12T07:55:15.896Z</time></trkpt><trkpt lat="45.5011117" lon="8.72664"><ele>133.5</ele><time>2026-04-12T07:55:17.896Z</time></trkpt><trkpt lat="45.5010683" lon="8.7265383"><ele>133.33333333333334</ele><time>2026-04-12T07:55:19.896Z</time></trkpt><trkpt lat="45.50102" lon="8.7264483"><ele>133.16666666666669</ele><time>2026-04-12T07:55:21.896Z</time></trkpt><trkpt lat="45.5009667" lon="8.7263783"><ele>133.0</ele><time>2026-04-12T07:55:24.897Z</time></trkpt><trkpt lat="45.50092" lon="8.7264617"><ele>133.0</ele><time>2026-04-12T07:55:27.896Z</time></trkpt><trkpt lat="45.5009067" lon="8.72657"><ele>133.0</ele><time>2026-04-12T07:55:29.896Z</time></trkpt><trkpt lat="45.50088" lon="8.7267017"><ele>133.0</ele><time>2026-04-12T07:55:31.896Z</time></trkpt><trkpt lat="45.50085" lon="8.726825"><ele>133.0</ele><time>2026-04-12T07:55:33.896Z</time></trkpt><trkpt lat="45.5008033" lon="8.72696"><ele>133.0</ele><time>2026-04-12T07:55:35.896Z</time></trkpt><trkpt lat="45.5007383" lon="8.7271033"><ele>133.4</ele><time>2026-04-12T07:55:37.897Z</time></trkpt><trkpt lat="45.50066" lon="8.727235"><ele>133.8</ele><time>2026-04-12T07:55:39.896Z</time></trkpt><trkpt lat="45.500585" lon="8.7273217"><ele>134.2</ele><time>2026-04-12T07:55:41.896Z</time></trkpt><trkpt lat="45.500515" lon="8.72739"><ele>134.6</ele><time>2026-04-12T07:55:43.896Z</time></trkpt><trkpt lat="45.5004117" lon="8.72746"><ele>135.0</ele><time>2026-04-12T07:55:45.896Z</time></trkpt><trkpt lat="45.500305" lon="8.727535"><ele>134.2</ele><time>2026-04-12T07:55:47.896Z</time></trkpt><trkpt lat="45.5002017" lon="8.7276167"><ele>133.4</ele><time>2026-04-12T07:55:49.896Z</time></trkpt><trkpt lat="45.5001483" lon="8.727665"><ele>132.6</ele><time>2026-04-12T07:55:50.896Z</time></trkpt><trkpt lat="45.5000633" lon="8.7277717"><ele>131.8</ele><time>2026-04-12T07:55:52.896Z</time></trkpt><trkpt lat="45.4999867" lon="8.72789"><ele>131.0</ele><time>2026-04-12T07:55:54.896Z</time></trkpt><trkpt lat="45.4999367" lon="8.7280317"><ele>130.6</ele><time>2026-04-12T07:55:56.896Z</time></trkpt><trkpt lat="45.4999233" lon="8.7281967"><ele>130.2</ele><time>2026-04-12T07:55:58.896Z</time></trkpt><trkpt lat="45.499925" lon="8.7283483"><ele>129.8</ele><time>2026-04-12T07:56:00.896Z</time></trkpt><trkpt lat="45.4999283" lon="8.7285017"><ele>129.4</ele><time>2026-04-12T07:56:02.896Z</time></trkpt><trkpt lat="45.499935" lon="8.72866"><ele>129.0</ele><time>2026-04-12T07:56:04.896Z</time></trkpt><trkpt lat="45.4999483" lon="8.7288167"><ele>129.0</ele><time>2026-04-12T07:56:06.896Z</time></trkpt><trkpt lat="45.499945" lon="8.7289767"><ele>129.0</ele><time>2026-04-12T07:56:08.896Z</time></trkpt><trkpt lat="45.49994" lon="8.7291333"><ele>129.0</ele><time>2026-04-12T07:56:10.896Z</time></trkpt><trkpt lat="45.49995" lon="8.729295"><ele>129.0</ele><time>2026-04-12T07:56:12.896Z</time></trkpt><trkpt lat="45.4999733" lon="8.7294483"><ele>129.0</ele><time>2026-04-12T07:56:14.896Z</time></trkpt><trkpt lat="45.5" lon="8.729595"><ele>129.2</ele><time>2026-04-12T07:56:16.896Z</time></trkpt><trkpt lat="45.5000167" lon="8.7297417"><ele>129.4</ele><time>2026-04-12T07:56:18.896Z</time></trkpt><trkpt lat="45.5000367" lon="8.72989"><ele>129.6</ele><time>2026-04-12T07:56:20.896Z</time></trkpt><trkpt lat="45.5000367" lon="8.7300433"><ele>129.8</ele><time>2026-04-12T07:56:22.896Z</time></trkpt><trkpt lat="45.5000333" lon="8.7301783"><ele>130.0</ele><time>2026-04-12T07:56:24.896Z</time></trkpt><trkpt lat="45.5000217" lon="8.7303067"><ele>130.0</ele><time>2026-04-12T07:56:26.896Z</time></trkpt><trkpt lat="45.500005" lon="8.7304283"><ele>130.0</ele><time>2026-04-12T07:56:28.896Z</time></trkpt><trkpt lat="45.4999783" lon="8.730555"><ele>130.0</ele><time>2026-04-12T07:56:30.896Z</time></trkpt><trkpt lat="45.49991" lon="8.7306317"><ele>130.0</ele><time>2026-04-12T07:56:32.896Z</time></trkpt><trkpt lat="45.4998167" lon="8.7306233"><ele>130.0</ele><time>2026-04-12T07:56:34.896Z</time></trkpt><trkpt lat="45.49972" lon="8.7305733"><ele>130.0</ele><time>2026-04-12T07:56:36.896Z</time></trkpt><trkpt lat="45.4996333" lon="8.73052"><ele>130.0</ele><time>2026-04-12T07:56:38.896Z</time></trkpt><trkpt lat="45.4995367" lon="8.7304683"><ele>130.0</ele><time>2026-04-12T07:56:40.896Z</time></trkpt><trkpt lat="45.4994433" lon="8.7304133"><ele>130.0</ele><time>2026-04-12T07:56:42.896Z</time></trkpt><trkpt lat="45.4993517" lon="8.7303617"><ele>130.0</ele><time>2026-04-12T07:56:44.896Z</time></trkpt><trkpt lat="45.499255" lon="8.7303283"><ele>130.2</ele><time>2026-04-12T07:56:46.896Z</time></trkpt><trkpt lat="45.499145" lon="8.7303283"><ele>130.4</ele><time>2026-04-12T07:56:48.896Z</time></trkpt><trkpt lat="45.4990817" lon="8.7303433"><ele>130.6</ele><time>2026-04-12T07:56:49.896Z</time></trkpt><trkpt lat="45.49902" lon="8.7303717"><ele>130.8</ele><time>2026-04-12T07:56:50.896Z</time></trkpt><trkpt lat="45.498905" lon="8.7304217"><ele>131.0</ele><time>2026-04-12T07:56:52.896Z</time></trkpt><trkpt lat="45.498785" lon="8.73046"><ele>130.8</ele><time>2026-04-12T07:56:54.896Z</time></trkpt><trkpt lat="45.49866" lon="8.7304917"><ele>130.6</ele><time>2026-04-12T07:56:56.896Z</time></trkpt><trkpt lat="45.4985967" lon="8.730495"><ele>130.4</ele><time>2026-04-12T07:56:57.896Z</time></trkpt><trkpt lat="45.4984867" lon="8.73049"><ele>130.2</ele><time>2026-04-12T07:56:59.896Z</time></trkpt><trkpt lat="45.498375" lon="8.7305"><ele>130.0</ele><time>2026-04-12T07:57:01.896Z</time></trkpt><trkpt lat="45.4982633" lon="8.7305167"><ele>130.0</ele><time>2026-04-12T07:57:03.896Z</time></trkpt><trkpt lat="45.4981667" lon="8.7305283"><ele>130.0</ele><time>2026-04-12T07:57:05.896Z</time></trkpt><trkpt lat="45.4980533" lon="8.7305367"><ele>130.0</ele><time>2026-04-12T07:57:07.896Z</time></trkpt><trkpt lat="45.4979383" lon="8.73056"><ele>130.0</ele><time>2026-04-12T07:57:09.896Z</time></trkpt><trkpt lat="45.497875" lon="8.730565"><ele>130.0</ele><time>2026-04-12T07:57:10.896Z</time></trkpt><trkpt lat="45.49781" lon="8.7305733"><ele>129.2</ele><time>2026-04-12T07:57:11.896Z</time></trkpt><trkpt lat="45.4977433" lon="8.7305833"><ele>128.4</ele><time>2026-04-12T07:57:12.896Z</time></trkpt><trkpt lat="45.4976283" lon="8.7306083"><ele>127.6</ele><time>2026-04-12T07:57:14.896Z</time></trkpt><trkpt lat="45.4975167" lon="8.730615"><ele>126.8</ele><time>2026-04-12T07:57:16.896Z</time></trkpt><trkpt lat="45.4974167" lon="8.73063"><ele>126.0</ele><time>2026-04-12T07:57:18.896Z</time></trkpt><trkpt lat="45.49732" lon="8.7306583"><ele>126.0</ele><time>2026-04-12T07:57:20.896Z</time></trkpt><trkpt lat="45.497215" lon="8.7307217"><ele>126.0</ele><time>2026-04-12T07:57:22.896Z</time></trkpt><trkpt lat="45.4971133" lon="8.7307867"><ele>126.0</ele><time>2026-04-12T07:57:24.897Z</time></trkpt><trkpt lat="45.4970217" lon="8.7308833"><ele>126.0</ele><time>2026-04-12T07:57:26.896Z</time></trkpt><trkpt lat="45.4969617" lon="8.7310017"><ele>126.0</ele><time>2026-04-12T07:57:28.897Z</time></trkpt><trkpt lat="45.4969117" lon="8.7311283"><ele>126.6</ele><time>2026-04-12T07:57:30.896Z</time></trkpt><trkpt lat="45.4968667" lon="8.7312667"><ele>127.19999999999999</ele><time>2026-04-12T07:57:32.896Z</time></trkpt><trkpt lat="45.4968283" lon="8.7314"><ele>127.80000000000001</ele><time>2026-04-12T07:57:34.896Z</time></trkpt><trkpt lat="45.4967883" lon="8.7315267"><ele>128.4</ele><time>2026-04-12T07:57:36.896Z</time></trkpt><trkpt lat="45.4967433" lon="8.7316433"><ele>129.0</ele><time>2026-04-12T07:57:38.896Z</time></trkpt><trkpt lat="45.4966933" lon="8.7317733"><ele>129.6</ele><time>2026-04-12T07:57:40.896Z</time></trkpt><trkpt lat="45.4966517" lon="8.7319017"><ele>130.2</ele><time>2026-04-12T07:57:42.896Z</time></trkpt><trkpt lat="45.4965983" lon="8.732035"><ele>130.79999999999998</ele><time>2026-04-12T07:57:44.896Z</time></trkpt><trkpt lat="45.49655" lon="8.73217"><ele>131.4</ele><time>2026-04-12T07:57:46.896Z</time></trkpt><trkpt lat="45.4965033" lon="8.73229"><ele>132.0</ele><time>2026-04-12T07:57:48.896Z</time></trkpt><trkpt lat="45.4964583" lon="8.7324133"><ele>132.0</ele><time>2026-04-12T07:57:50.896Z</time></trkpt><trkpt lat="45.4964033" lon="8.7325533"><ele>132.0</ele><time>2026-04-12T07:57:52.896Z</time></trkpt><trkpt lat="45.4963633" lon="8.73268"><ele>132.0</ele><time>2026-04-12T07:57:54.896Z</time></trkpt><trkpt lat="45.4963283" lon="8.7327967"><ele>132.0</ele><time>2026-04-12T07:57:56.897Z</time></trkpt><trkpt lat="45.4962883" lon="8.7329367"><ele>132.0</ele><time>2026-04-12T07:57:58.896Z</time></trkpt><trkpt lat="45.4962267" lon="8.7330767"><ele>131.6</ele><time>2026-04-12T07:58:00.896Z</time></trkpt><trkpt lat="45.4961717" lon="8.7332133"><ele>131.2</ele><time>2026-04-12T07:58:02.896Z</time></trkpt><trkpt lat="45.4961217" lon="8.733345"><ele>130.8</ele><time>2026-04-12T07:58:04.896Z</time></trkpt><trkpt lat="45.4960733" lon="8.733475"><ele>130.4</ele><time>2026-04-12T07:58:06.896Z</time></trkpt><trkpt lat="45.4960317" lon="8.7336067"><ele>130.0</ele><time>2026-04-12T07:58:08.896Z</time></trkpt><trkpt lat="45.4959883" lon="8.7337467"><ele>130.8</ele><time>2026-04-12T07:58:10.896Z</time></trkpt><trkpt lat="45.495935" lon="8.733885"><ele>131.6</ele><time>2026-04-12T07:58:12.896Z</time></trkpt><trkpt lat="45.49588" lon="8.73401"><ele>132.4</ele><time>2026-04-12T07:58:14.896Z</time></trkpt><trkpt lat="45.495825" lon="8.7341467"><ele>133.2</ele><time>2026-04-12T07:58:16.896Z</time></trkpt><trkpt lat="45.4957733" lon="8.7342967"><ele>134.0</ele><time>2026-04-12T07:58:18.896Z</time></trkpt><trkpt lat="45.495725" lon="8.7344267"><ele>134.2</ele><time>2026-04-12T07:58:20.896Z</time></trkpt><trkpt lat="45.495665" lon="8.7345583"><ele>134.4</ele><time>2026-04-12T07:58:22.896Z</time></trkpt><trkpt lat="45.4956067" lon="8.734695"><ele>134.6</ele><time>2026-04-12T07:58:24.896Z</time></trkpt><trkpt lat="45.4955683" lon="8.7348183"><ele>134.8</ele><time>2026-04-12T07:58:26.896Z</time></trkpt><trkpt lat="45.4955283" lon="8.7349583"><ele>135.0</ele><time>2026-04-12T07:58:28.897Z</time></trkpt><trkpt lat="45.49548" lon="8.7351033"><ele>135.0</ele><time>2026-04-12T07:58:30.896Z</time></trkpt><trkpt lat="45.4954317" lon="8.7352283"><ele>135.0</ele><time>2026-04-12T07:58:32.896Z</time></trkpt><trkpt lat="45.4953883" lon="8.73535"><ele>135.0</ele><time>2026-04-12T07:58:34.896Z</time></trkpt><trkpt lat="45.4953467" lon="8.7354833"><ele>135.0</ele><time>2026-04-12T07:58:36.896Z</time></trkpt><trkpt lat="45.4952967" lon="8.7356167"><ele>135.0</ele><time>2026-04-12T07:58:38.896Z</time></trkpt><trkpt lat="45.49525" lon="8.735755"><ele>134.4</ele><time>2026-04-12T07:58:40.896Z</time></trkpt><trkpt lat="45.49521" lon="8.73588"><ele>133.8</ele><time>2026-04-12T07:58:42.896Z</time></trkpt><trkpt lat="45.4951683" lon="8.736025"><ele>133.2</ele><time>2026-04-12T07:58:44.896Z</time></trkpt><trkpt lat="45.4951183" lon="8.7361767"><ele>132.6</ele><time>2026-04-12T07:58:46.896Z</time></trkpt><trkpt lat="45.4950667" lon="8.7363117"><ele>132.0</ele><time>2026-04-12T07:58:48.896Z</time></trkpt><trkpt lat="45.4950183" lon="8.73643"><ele>132.0</ele><time>2026-04-12T07:58:50.896Z</time></trkpt><trkpt lat="45.494975" lon="8.7365633"><ele>132.0</ele><time>2026-04-12T07:58:52.896Z</time></trkpt><trkpt lat="45.4949133" lon="8.7367067"><ele>132.0</ele><time>2026-04-12T07:58:54.896Z</time></trkpt><trkpt lat="45.4948633" lon="8.7368367"><ele>132.0</ele><time>2026-04-12T07:58:56.896Z</time></trkpt><trkpt lat="45.494815" lon="8.7369783"><ele>132.0</ele><time>2026-04-12T07:58:58.896Z</time></trkpt><trkpt lat="45.49476" lon="8.7371283"><ele>132.0</ele><time>2026-04-12T07:59:00.896Z</time></trkpt><trkpt lat="45.4947067" lon="8.737265"><ele>132.0</ele><time>2026-04-12T07:59:02.896Z</time></trkpt><trkpt lat="45.4946633" lon="8.737415"><ele>132.0</ele><time>2026-04-12T07:59:04.896Z</time></trkpt><trkpt lat="45.4946083" lon="8.7375517"><ele>132.0</ele><time>2026-04-12T07:59:06.896Z</time></trkpt><trkpt lat="45.4945567" lon="8.737695"><ele>132.0</ele><time>2026-04-12T07:59:08.897Z</time></trkpt><trkpt lat="45.4945083" lon="8.7378483"><ele>130.6</ele><time>2026-04-12T07:59:10.896Z</time></trkpt><trkpt lat="45.4944633" lon="8.7379983"><ele>129.2</ele><time>2026-04-12T07:59:12.896Z</time></trkpt><trkpt lat="45.4944167" lon="8.738135"><ele>127.8</ele><time>2026-04-12T07:59:14.896Z</time></trkpt><trkpt lat="45.4943717" lon="8.7382633"><ele>126.4</ele><time>2026-04-12T07:59:16.896Z</time></trkpt><trkpt lat="45.4943117" lon="8.7383933"><ele>125.0</ele><time>2026-04-12T07:59:18.896Z</time></trkpt><trkpt lat="45.494265" lon="8.7385317"><ele>125.2</ele><time>2026-04-12T07:59:20.896Z</time></trkpt><trkpt lat="45.4942317" lon="8.7386617"><ele>125.4</ele><time>2026-04-12T07:59:22.896Z</time></trkpt><trkpt lat="45.4941833" lon="8.738795"><ele>125.6</ele><time>2026-04-12T07:59:24.896Z</time></trkpt><trkpt lat="45.4941333" lon="8.7389183"><ele>125.8</ele><time>2026-04-12T07:59:26.896Z</time></trkpt><trkpt lat="45.4940917" lon="8.7390333"><ele>126.0</ele><time>2026-04-12T07:59:28.897Z</time></trkpt><trkpt lat="45.4940483" lon="8.7391517"><ele>126.0</ele><time>2026-04-12T07:59:30.896Z</time></trkpt><trkpt lat="45.4939817" lon="8.7392633"><ele>126.0</ele><time>2026-04-12T07:59:32.896Z</time></trkpt><trkpt lat="45.493905" lon="8.739335"><ele>126.0</ele><time>2026-04-12T07:59:34.896Z</time></trkpt><trkpt lat="45.4938367" lon="8.7394083"><ele>126.0</ele><time>2026-04-12T07:59:36.896Z</time></trkpt><trkpt lat="45.493715" lon="8.739485"><ele>126.0</ele><time>2026-04-12T07:59:49.896Z</time></trkpt><trkpt lat="45.493655" lon="8.7395383"><ele>126.8</ele><time>2026-04-12T07:59:53.896Z</time></trkpt><trkpt lat="45.49354" lon="8.73961"><ele>127.6</ele><time>2026-04-12T08:00:08.895Z</time></trkpt><trkpt lat="45.4934633" lon="8.7396333"><ele>128.4</ele><time>2026-04-12T08:00:11.895Z</time></trkpt><trkpt lat="45.4933817" lon="8.7396567"><ele>129.2</ele><time>2026-04-12T08:00:14.895Z</time></trkpt><trkpt lat="45.49331" lon="8.7397033"><ele>130.0</ele><time>2026-04-12T08:00:16.895Z</time></trkpt><trkpt lat="45.4932217" lon="8.7397533"><ele>130.0</ele><time>2026-04-12T08:00:18.896Z</time></trkpt><trkpt lat="45.493145" lon="8.7398033"><ele>130.0</ele><time>2026-04-12T08:00:20.895Z</time></trkpt><trkpt lat="45.49306" lon="8.7398383"><ele>130.0</ele><time>2026-04-12T08:00:22.895Z</time></trkpt><trkpt lat="45.4929817" lon="8.7398883"><ele>130.0</ele><time>2026-04-12T08:00:24.895Z</time></trkpt><trkpt lat="45.4929117" lon="8.739945"><ele>130.0</ele><time>2026-04-12T08:00:26.895Z</time></trkpt><trkpt lat="45.4928233" lon="8.7399933"><ele>130.0</ele><time>2026-04-12T08:00:28.895Z</time></trkpt><trkpt lat="45.49275" lon="8.7400383"><ele>130.2</ele><time>2026-04-12T08:00:30.895Z</time></trkpt><trkpt lat="45.4926733" lon="8.7400917"><ele>130.4</ele><time>2026-04-12T08:00:32.895Z</time></trkpt><trkpt lat="45.4925867" lon="8.74015"><ele>130.6</ele><time>2026-04-12T08:00:34.896Z</time></trkpt><trkpt lat="45.492495" lon="8.7401983"><ele>130.8</ele><time>2026-04-12T08:00:36.895Z</time></trkpt><trkpt lat="45.4923883" lon="8.7402467"><ele>131.0</ele><time>2026-04-12T08:00:38.895Z</time></trkpt><trkpt lat="45.49229" lon="8.74031"><ele>130.8</ele><time>2026-04-12T08:00:40.895Z</time></trkpt><trkpt lat="45.4921967" lon="8.7403567"><ele>130.6</ele><time>2026-04-12T08:00:42.895Z</time></trkpt><trkpt lat="45.4920867" lon="8.7404017"><ele>130.4</ele><time>2026-04-12T08:00:44.895Z</time></trkpt><trkpt lat="45.49199" lon="8.7404517"><ele>130.2</ele><time>2026-04-12T08:00:46.895Z</time></trkpt><trkpt lat="45.4919" lon="8.7405117"><ele>130.0</ele><time>2026-04-12T08:00:48.895Z</time></trkpt><trkpt lat="45.4918067" lon="8.7405783"><ele>130.0</ele><time>2026-04-12T08:00:50.895Z</time></trkpt><trkpt lat="45.4917167" lon="8.7406333"><ele>130.0</ele><time>2026-04-12T08:00:52.895Z</time></trkpt><trkpt lat="45.4916283" lon="8.7406983"><ele>130.0</ele><time>2026-04-12T08:00:54.895Z</time></trkpt><trkpt lat="45.49153" lon="8.7407617"><ele>130.0</ele><time>2026-04-12T08:00:56.895Z</time></trkpt><trkpt lat="45.4914417" lon="8.7408067"><ele>130.0</ele><time>2026-04-12T08:00:58.895Z</time></trkpt><trkpt lat="45.49136" lon="8.7408517"><ele>130.0</ele><time>2026-04-12T08:01:00.895Z</time></trkpt><trkpt lat="45.491285" lon="8.74089"><ele>130.0</ele><time>2026-04-12T08:01:02.895Z</time></trkpt><trkpt lat="45.4912067" lon="8.7409217"><ele>130.0</ele><time>2026-04-12T08:01:04.895Z</time></trkpt><trkpt lat="45.4911317" lon="8.7409583"><ele>130.0</ele><time>2026-04-12T08:01:06.895Z</time></trkpt><trkpt lat="45.4910433" lon="8.740995"><ele>130.0</ele><time>2026-04-12T08:01:08.895Z</time></trkpt><trkpt lat="45.4909567" lon="8.74103"><ele>130.0</ele><time>2026-04-12T08:01:10.895Z</time></trkpt><trkpt lat="45.4909017" lon="8.741125"><ele>129.0</ele><time>2026-04-12T08:01:12.895Z</time></trkpt><trkpt lat="45.4909267" lon="8.7412583"><ele>128.0</ele><time>2026-04-12T08:01:14.895Z</time></trkpt><trkpt lat="45.4909417" lon="8.74139"><ele>127.0</ele><time>2026-04-12T08:01:16.895Z</time></trkpt><trkpt lat="45.4909467" lon="8.7415317"><ele>126.0</ele><time>2026-04-12T08:01:18.895Z</time></trkpt><trkpt lat="45.490945" lon="8.7416683"><ele>125.0</ele><time>2026-04-12T08:01:20.895Z</time></trkpt><trkpt lat="45.4909433" lon="8.7418083"><ele>125.2</ele><time>2026-04-12T08:01:22.895Z</time></trkpt><trkpt lat="45.4909317" lon="8.7419567"><ele>125.4</ele><time>2026-04-12T08:01:24.895Z</time></trkpt><trkpt lat="45.4909317" lon="8.7421083"><ele>125.6</ele><time>2026-04-12T08:01:26.895Z</time></trkpt><trkpt lat="45.4909333" lon="8.7422533"><ele>125.8</ele><time>2026-04-12T08:01:28.895Z</time></trkpt><trkpt lat="45.4909233" lon="8.742395"><ele>126.0</ele><time>2026-04-12T08:01:30.895Z</time></trkpt><trkpt lat="45.4909167" lon="8.7425467"><ele>126.0</ele><time>2026-04-12T08:01:32.895Z</time></trkpt><trkpt lat="45.4909167" lon="8.7427067"><ele>126.0</ele><time>2026-04-12T08:01:34.895Z</time></trkpt><trkpt lat="45.4909017" lon="8.7428533"><ele>126.0</ele><time>2026-04-12T08:01:36.895Z</time></trkpt><trkpt lat="45.4909017" lon="8.743005"><ele>126.0</ele><time>2026-04-12T08:01:38.896Z</time></trkpt><trkpt lat="45.4909033" lon="8.7431683"><ele>126.0</ele><time>2026-04-12T08:01:40.895Z</time></trkpt><trkpt lat="45.4908967" lon="8.7433217"><ele>125.6</ele><time>2026-04-12T08:01:42.895Z</time></trkpt><trkpt lat="45.49089" lon="8.7434717"><ele>125.19999999999999</ele><time>2026-04-12T08:01:44.895Z</time></trkpt><trkpt lat="45.490875" lon="8.7436283"><ele>124.80000000000001</ele><time>2026-04-12T08:01:46.895Z</time></trkpt><trkpt lat="45.4908733" lon="8.7437817"><ele>124.4</ele><time>2026-04-12T08:01:48.896Z</time></trkpt><trkpt lat="45.490875" lon="8.74393"><ele>124.0</ele><time>2026-04-12T08:01:50.895Z</time></trkpt><trkpt lat="45.4908633" lon="8.7440917"><ele>124.0</ele><time>2026-04-12T08:01:52.895Z</time></trkpt><trkpt lat="45.4908633" lon="8.7442383"><ele>124.0</ele><time>2026-04-12T08:01:54.895Z</time></trkpt><trkpt lat="45.490855" lon="8.7443817"><ele>124.0</ele><time>2026-04-12T08:01:56.895Z</time></trkpt><trkpt lat="45.490835" lon="8.7445333"><ele>124.0</ele><time>2026-04-12T08:01:58.895Z</time></trkpt><trkpt lat="45.49083" lon="8.7446883"><ele>124.0</ele><time>2026-04-12T08:02:00.895Z</time></trkpt><trkpt lat="45.49083" lon="8.744845"><ele>124.0</ele><time>2026-04-12T08:02:02.895Z</time></trkpt><trkpt lat="45.4908333" lon="8.7449967"><ele>124.0</ele><time>2026-04-12T08:02:04.895Z</time></trkpt><trkpt lat="45.490825" lon="8.7451667"><ele>124.0</ele><time>2026-04-12T08:02:06.895Z</time></trkpt><trkpt lat="45.490825" lon="8.745325"><ele>124.0</ele><time>2026-04-12T08:02:08.895Z</time></trkpt><trkpt lat="45.490825" lon="8.745465"><ele>124.0</ele><time>2026-04-12T08:02:10.895Z</time></trkpt><trkpt lat="45.49082" lon="8.7456283"><ele>123.80000000000001</ele><time>2026-04-12T08:02:12.895Z</time></trkpt><trkpt lat="45.4908117" lon="8.7457933"><ele>123.60000000000001</ele><time>2026-04-12T08:02:14.895Z</time></trkpt><trkpt lat="45.4908083" lon="8.7459583"><ele>123.4</ele><time>2026-04-12T08:02:16.895Z</time></trkpt><trkpt lat="45.4908133" lon="8.746115"><ele>123.2</ele><time>2026-04-12T08:02:18.895Z</time></trkpt><trkpt lat="45.4908067" lon="8.74626"><ele>123.0</ele><time>2026-04-12T08:02:20.895Z</time></trkpt><trkpt lat="45.4908033" lon="8.7464233"><ele>123.2</ele><time>2026-04-12T08:02:22.895Z</time></trkpt><trkpt lat="45.4907983" lon="8.7465817"><ele>123.4</ele><time>2026-04-12T08:02:24.895Z</time></trkpt><trkpt lat="45.490795" lon="8.74673"><ele>123.60000000000001</ele><time>2026-04-12T08:02:26.895Z</time></trkpt><trkpt lat="45.49079" lon="8.7468883"><ele>123.80000000000001</ele><time>2026-04-12T08:02:28.896Z</time></trkpt><trkpt lat="45.4907883" lon="8.74705"><ele>124.0</ele><time>2026-04-12T08:02:30.895Z</time></trkpt><trkpt lat="45.490795" lon="8.7472217"><ele>124.0</ele><time>2026-04-12T08:02:32.895Z</time></trkpt><trkpt lat="45.4907783" lon="8.7473783"><ele>124.0</ele><time>2026-04-12T08:02:34.895Z</time></trkpt><trkpt lat="45.4907767" lon="8.7475233"><ele>124.0</ele><time>2026-04-12T08:02:36.895Z</time></trkpt><trkpt lat="45.4907683" lon="8.747665"><ele>124.0</ele><time>2026-04-12T08:02:38.896Z</time></trkpt><trkpt lat="45.4907767" lon="8.7478283"><ele>124.0</ele><time>2026-04-12T08:02:40.895Z</time></trkpt><trkpt lat="45.4907667" lon="8.747975"><ele>123.80000000000001</ele><time>2026-04-12T08:02:42.895Z</time></trkpt><trkpt lat="45.490745" lon="8.7481233"><ele>123.60000000000001</ele><time>2026-04-12T08:02:44.895Z</time></trkpt><trkpt lat="45.4907433" lon="8.7482767"><ele>123.4</ele><time>2026-04-12T08:02:46.895Z</time></trkpt><trkpt lat="45.4907467" lon="8.7484533"><ele>123.2</ele><time>2026-04-12T08:02:48.895Z</time></trkpt><trkpt lat="45.4907367" lon="8.74861"><ele>123.0</ele><time>2026-04-12T08:02:50.895Z</time></trkpt><trkpt lat="45.4907183" lon="8.748765"><ele>122.80000000000001</ele><time>2026-04-12T08:02:52.896Z</time></trkpt><trkpt lat="45.4907083" lon="8.7489133"><ele>122.60000000000001</ele><time>2026-04-12T08:02:54.895Z</time></trkpt><trkpt lat="45.4907" lon="8.74907"><ele>122.39999999999999</ele><time>2026-04-12T08:02:56.895Z</time></trkpt><trkpt lat="45.4906917" lon="8.74922"><ele>122.19999999999999</ele><time>2026-04-12T08:02:58.896Z</time></trkpt><trkpt lat="45.4906883" lon="8.7493733"><ele>122.0</ele><time>2026-04-12T08:03:00.895Z</time></trkpt><trkpt lat="45.4906833" lon="8.7495217"><ele>122.0</ele><time>2026-04-12T08:03:02.895Z</time></trkpt><trkpt lat="45.4906883" lon="8.7496767"><ele>121.99999999999999</ele><time>2026-04-12T08:03:04.895Z</time></trkpt><trkpt lat="45.490685" lon="8.7498183"><ele>121.99999999999999</ele><time>2026-04-12T08:03:06.895Z</time></trkpt><trkpt lat="45.4906767" lon="8.7499633"><ele>122.0</ele><time>2026-04-12T08:03:08.895Z</time></trkpt><trkpt lat="45.4906767" lon="8.7501017"><ele>122.0</ele><time>2026-04-12T08:03:10.895Z</time></trkpt><trkpt lat="45.49067" lon="8.7502417"><ele>122.19999999999999</ele><time>2026-04-12T08:03:12.895Z</time></trkpt><trkpt lat="45.49066" lon="8.7503817"><ele>122.39999999999999</ele><time>2026-04-12T08:03:14.895Z</time></trkpt><trkpt lat="45.4906567" lon="8.7505183"><ele>122.60000000000001</ele><time>2026-04-12T08:03:16.895Z</time></trkpt><trkpt lat="45.4906533" lon="8.7506567"><ele>122.80000000000001</ele><time>2026-04-12T08:03:18.895Z</time></trkpt><trkpt lat="45.4906533" lon="8.7508017"><ele>123.0</ele><time>2026-04-12T08:03:20.895Z</time></trkpt><trkpt lat="45.490645" lon="8.7509367"><ele>123.0</ele><time>2026-04-12T08:03:22.895Z</time></trkpt><trkpt lat="45.49064" lon="8.7510833"><ele>123.00000000000001</ele><time>2026-04-12T08:03:24.895Z</time></trkpt><trkpt lat="45.4906317" lon="8.7512083"><ele>123.00000000000001</ele><time>2026-04-12T08:03:26.895Z</time></trkpt><trkpt lat="45.4906283" lon="8.7513417"><ele>123.0</ele><time>2026-04-12T08:03:28.895Z</time></trkpt><trkpt lat="45.4906333" lon="8.75148"><ele>123.0</ele><time>2026-04-12T08:03:30.895Z</time></trkpt><trkpt lat="45.4906367" lon="8.75162"><ele>123.0</ele><time>2026-04-12T08:03:32.895Z</time></trkpt><trkpt lat="45.49063" lon="8.7517583"><ele>123.00000000000001</ele><time>2026-04-12T08:03:34.895Z</time></trkpt><trkpt lat="45.49063" lon="8.751905"><ele>123.00000000000001</ele><time>2026-04-12T08:03:36.895Z</time></trkpt><trkpt lat="45.49062" lon="8.7520433"><ele>123.0</ele><time>2026-04-12T08:03:38.895Z</time></trkpt><trkpt lat="45.4906167" lon="8.7521883"><ele>123.0</ele><time>2026-04-12T08:03:40.895Z</time></trkpt><trkpt lat="45.4906117" lon="8.7523433"><ele>122.80000000000001</ele><time>2026-04-12T08:03:42.895Z</time></trkpt><trkpt lat="45.490605" lon="8.752485"><ele>122.60000000000001</ele><time>2026-04-12T08:03:44.895Z</time></trkpt><trkpt lat="45.490605" lon="8.7526383"><ele>122.39999999999999</ele><time>2026-04-12T08:03:46.895Z</time></trkpt><trkpt lat="45.4905917" lon="8.7527883"><ele>122.19999999999999</ele><time>2026-04-12T08:03:48.896Z</time></trkpt><trkpt lat="45.4905817" lon="8.7529317"><ele>122.0</ele><time>2026-04-12T08:03:50.895Z</time></trkpt><trkpt lat="45.490575" lon="8.7530733"><ele>122.0</ele><time>2026-04-12T08:03:52.895Z</time></trkpt><trkpt lat="45.4905783" lon="8.7532183"><ele>121.99999999999999</ele><time>2026-04-12T08:03:54.895Z</time></trkpt><trkpt lat="45.4905767" lon="8.7533583"><ele>121.99999999999999</ele><time>2026-04-12T08:03:56.895Z</time></trkpt><trkpt lat="45.4905767" lon="8.75351"><ele>122.0</ele><time>2026-04-12T08:03:58.895Z</time></trkpt><trkpt lat="45.4905717" lon="8.7536567"><ele>122.0</ele><time>2026-04-12T08:04:00.896Z</time></trkpt><trkpt lat="45.49056" lon="8.7538"><ele>122.0</ele><time>2026-04-12T08:04:02.895Z</time></trkpt><trkpt lat="45.4905583" lon="8.753935"><ele>121.99999999999999</ele><time>2026-04-12T08:04:04.895Z</time></trkpt><trkpt lat="45.4905483" lon="8.7540733"><ele>121.99999999999999</ele><time>2026-04-12T08:04:06.895Z</time></trkpt><trkpt lat="45.490535" lon="8.75421"><ele>122.0</ele><time>2026-04-12T08:04:08.895Z</time></trkpt><trkpt lat="45.490525" lon="8.754355"><ele>122.0</ele><time>2026-04-12T08:04:10.895Z</time></trkpt><trkpt lat="45.49053" lon="8.7545"><ele>122.0</ele><time>2026-04-12T08:04:12.895Z</time></trkpt><trkpt lat="45.4905217" lon="8.754645"><ele>121.99999999999999</ele><time>2026-04-12T08:04:14.895Z</time></trkpt><trkpt lat="45.490515" lon="8.7547833"><ele>121.99999999999999</ele><time>2026-04-12T08:04:16.895Z</time></trkpt><trkpt lat="45.4905033" lon="8.754925"><ele>122.0</ele><time>2026-04-12T08:04:18.895Z</time></trkpt><trkpt lat="45.4904917" lon="8.7550583"><ele>122.0</ele><time>2026-04-12T08:04:20.895Z</time></trkpt><trkpt lat="45.49049" lon="8.755195"><ele>122.39999999999999</ele><time>2026-04-12T08:04:22.896Z</time></trkpt><trkpt lat="45.490495" lon="8.75533"><ele>122.79999999999998</ele><time>2026-04-12T08:04:24.895Z</time></trkpt><trkpt lat="45.4905" lon="8.755465"><ele>123.2</ele><time>2026-04-12T08:04:26.895Z</time></trkpt><trkpt lat="45.4904967" lon="8.7556133"><ele>123.6</ele><time>2026-04-12T08:04:28.895Z</time></trkpt><trkpt lat="45.4904967" lon="8.7557533"><ele>124.0</ele><time>2026-04-12T08:04:30.895Z</time></trkpt><trkpt lat="45.4904967" lon="8.7558933"><ele>124.0</ele><time>2026-04-12T08:04:32.896Z</time></trkpt><trkpt lat="45.4904983" lon="8.7560367"><ele>124.0</ele><time>2026-04-12T08:04:34.895Z</time></trkpt><trkpt lat="45.4904967" lon="8.7561733"><ele>124.0</ele><time>2026-04-12T08:04:36.895Z</time></trkpt><trkpt lat="45.4904833" lon="8.7563017"><ele>124.0</ele><time>2026-04-12T08:04:38.894Z</time></trkpt><trkpt lat="45.4904767" lon="8.7564583"><ele>124.0</ele><time>2026-04-12T08:04:40.895Z</time></trkpt><trkpt lat="45.4904733" lon="8.7565783"><ele>123.80000000000001</ele><time>2026-04-12T08:04:42.895Z</time></trkpt><trkpt lat="45.4904683" lon="8.7567167"><ele>123.60000000000001</ele><time>2026-04-12T08:04:44.895Z</time></trkpt><trkpt lat="45.4904667" lon="8.756855"><ele>123.4</ele><time>2026-04-12T08:04:46.895Z</time></trkpt><trkpt lat="45.4904617" lon="8.7569867"><ele>123.2</ele><time>2026-04-12T08:04:48.895Z</time></trkpt><trkpt lat="45.490465" lon="8.75712"><ele>123.0</ele><time>2026-04-12T08:04:50.895Z</time></trkpt><trkpt lat="45.4904617" lon="8.7572483"><ele>123.0</ele><time>2026-04-12T08:04:52.895Z</time></trkpt><trkpt lat="45.490455" lon="8.7573767"><ele>123.00000000000001</ele><time>2026-04-12T08:04:54.895Z</time></trkpt><trkpt lat="45.4904517" lon="8.75751"><ele>123.00000000000001</ele><time>2026-04-12T08:04:56.895Z</time></trkpt><trkpt lat="45.4904483" lon="8.7576417"><ele>123.0</ele><time>2026-04-12T08:04:58.895Z</time></trkpt><trkpt lat="45.4904433" lon="8.7577767"><ele>123.0</ele><time>2026-04-12T08:05:00.895Z</time></trkpt><trkpt lat="45.4904433" lon="8.7579083"><ele>123.0</ele><time>2026-04-12T08:05:02.895Z</time></trkpt><trkpt lat="45.4904383" lon="8.7580433"><ele>123.00000000000001</ele><time>2026-04-12T08:05:04.895Z</time></trkpt><trkpt lat="45.4904333" lon="8.7581767"><ele>123.00000000000001</ele><time>2026-04-12T08:05:06.895Z</time></trkpt><trkpt lat="45.4904267" lon="8.7583117"><ele>123.0</ele><time>2026-04-12T08:05:08.895Z</time></trkpt><trkpt lat="45.490425" lon="8.7584483"><ele>123.0</ele><time>2026-04-12T08:05:10.895Z</time></trkpt><trkpt lat="45.4904333" lon="8.7585667"><ele>123.0</ele><time>2026-04-12T08:05:12.895Z</time></trkpt><trkpt lat="45.4904517" lon="8.758675"><ele>123.00000000000001</ele><time>2026-04-12T08:05:14.896Z</time></trkpt><trkpt lat="45.4905017" lon="8.75879"><ele>123.00000000000001</ele><time>2026-04-12T08:05:16.895Z</time></trkpt><trkpt lat="45.4905633" lon="8.7588967"><ele>123.0</ele><time>2026-04-12T08:05:18.895Z</time></trkpt><trkpt lat="45.4906233" lon="8.7589883"><ele>123.0</ele><time>2026-04-12T08:05:20.895Z</time></trkpt><trkpt lat="45.4906933" lon="8.7590933"><ele>123.0</ele><time>2026-04-12T08:05:22.895Z</time></trkpt><trkpt lat="45.4907583" lon="8.7591867"><ele>123.00000000000001</ele><time>2026-04-12T08:05:24.895Z</time></trkpt><trkpt lat="45.49081" lon="8.759285"><ele>123.00000000000001</ele><time>2026-04-12T08:05:26.895Z</time></trkpt><trkpt lat="45.4908683" lon="8.759385"><ele>123.0</ele><time>2026-04-12T08:05:28.895Z</time></trkpt><trkpt lat="45.49093" lon="8.7594933"><ele>123.0</ele><time>2026-04-12T08:05:30.895Z</time></trkpt><trkpt lat="45.4909917" lon="8.7595983"><ele>122.80000000000001</ele><time>2026-04-12T08:05:32.895Z</time></trkpt><trkpt lat="45.491055" lon="8.7596883"><ele>122.60000000000001</ele><time>2026-04-12T08:05:34.895Z</time></trkpt><trkpt lat="45.49112" lon="8.759795"><ele>122.39999999999999</ele><time>2026-04-12T08:05:36.895Z</time></trkpt><trkpt lat="45.491175" lon="8.7598933"><ele>122.19999999999999</ele><time>2026-04-12T08:05:38.895Z</time></trkpt><trkpt lat="45.491235" lon="8.759985"><ele>122.0</ele><time>2026-04-12T08:05:40.895Z</time></trkpt><trkpt lat="45.49129" lon="8.7600833"><ele>122.99999999999999</ele><time>2026-04-12T08:05:42.895Z</time></trkpt><trkpt lat="45.4913417" lon="8.7601817"><ele>124.0</ele><time>2026-04-12T08:05:44.895Z</time></trkpt><trkpt lat="45.4913833" lon="8.7602883"><ele>125.0</ele><time>2026-04-12T08:05:46.895Z</time></trkpt><trkpt lat="45.4914183" lon="8.7604"><ele>126.0</ele><time>2026-04-12T08:05:48.895Z</time></trkpt><trkpt lat="45.4914433" lon="8.7605167"><ele>126.99999999999999</ele><time>2026-04-12T08:05:50.895Z</time></trkpt><trkpt lat="45.4914683" lon="8.7606383"><ele>128.0</ele><time>2026-04-12T08:05:52.895Z</time></trkpt><trkpt lat="45.4914883" lon="8.7607533"><ele>128.16666666666666</ele><time>2026-04-12T08:05:54.895Z</time></trkpt><trkpt lat="45.4915067" lon="8.76087"><ele>128.33333333333331</ele><time>2026-04-12T08:05:56.895Z</time></trkpt><trkpt lat="45.49154" lon="8.7609767"><ele>128.5</ele><time>2026-04-12T08:05:58.895Z</time></trkpt><trkpt lat="45.4915917" lon="8.7610933"><ele>128.66666666666666</ele><time>2026-04-12T08:06:00.895Z</time></trkpt><trkpt lat="45.491635" lon="8.7612"><ele>128.83333333333334</ele><time>2026-04-12T08:06:02.895Z</time></trkpt><trkpt lat="45.4916617" lon="8.76129"><ele>129.0</ele><time>2026-04-12T08:06:04.895Z</time></trkpt><trkpt lat="45.4916767" lon="8.7613867"><ele>129.0</ele><time>2026-04-12T08:06:06.895Z</time></trkpt><trkpt lat="45.4917017" lon="8.7614717"><ele>129.0</ele><time>2026-04-12T08:06:08.895Z</time></trkpt><trkpt lat="45.49175" lon="8.761565"><ele>129.0</ele><time>2026-04-12T08:06:10.896Z</time></trkpt><trkpt lat="45.491805" lon="8.76166"><ele>129.0</ele><time>2026-04-12T08:06:12.895Z</time></trkpt><trkpt lat="45.49187" lon="8.761745"><ele>129.0</ele><time>2026-04-12T08:06:14.895Z</time></trkpt><trkpt lat="45.4919283" lon="8.7618383"><ele>129.0</ele><time>2026-04-12T08:06:16.896Z</time></trkpt><trkpt lat="45.4919883" lon="8.7619367"><ele>129.0</ele><time>2026-04-12T08:06:18.896Z</time></trkpt><trkpt lat="45.4920383" lon="8.7620283"><ele>129.0</ele><time>2026-04-12T08:06:20.895Z</time></trkpt><trkpt lat="45.49208" lon="8.7621067"><ele>129.0</ele><time>2026-04-12T08:06:22.895Z</time></trkpt><trkpt lat="45.4921233" lon="8.7621783"><ele>129.0</ele><time>2026-04-12T08:06:24.895Z</time></trkpt><trkpt lat="45.49216" lon="8.7622817"><ele>129.0</ele><time>2026-04-12T08:06:27.895Z</time></trkpt><trkpt lat="45.492195" lon="8.7623917"><ele>129.0</ele><time>2026-04-12T08:06:30.895Z</time></trkpt><trkpt lat="45.4922167" lon="8.76251"><ele>129.0</ele><time>2026-04-12T08:06:33.895Z</time></trkpt><trkpt lat="45.4922283" lon="8.7626333"><ele>129.0</ele><time>2026-04-12T08:06:36.895Z</time></trkpt><trkpt lat="45.4922367" lon="8.76274"><ele>129.0</ele><time>2026-04-12T08:06:38.895Z</time></trkpt><trkpt lat="45.4922383" lon="8.762845"><ele>129.0</ele><time>2026-04-12T08:06:40.895Z</time></trkpt><trkpt lat="45.492215" lon="8.7629433"><ele>129.0</ele><time>2026-04-12T08:06:42.895Z</time></trkpt><trkpt lat="45.492185" lon="8.763045"><ele>129.0</ele><time>2026-04-12T08:06:44.896Z</time></trkpt><trkpt lat="45.4921617" lon="8.7631433"><ele>128.57142857142856</ele><time>2026-04-12T08:06:46.895Z</time></trkpt><trkpt lat="45.492155" lon="8.76324"><ele>128.14285714285714</ele><time>2026-04-12T08:06:48.895Z</time></trkpt><trkpt lat="45.4921617" lon="8.7633317"><ele>127.71428571428571</ele><time>2026-04-12T08:06:51.895Z</time></trkpt><trkpt lat="45.492155" lon="8.7631933"><ele>127.28571428571428</ele><time>2026-04-12T08:07:29.895Z</time></trkpt><trkpt lat="45.4921633" lon="8.7631017"><ele>126.85714285714286</ele><time>2026-04-12T08:07:31.895Z</time></trkpt><trkpt lat="45.4921917" lon="8.763015"><ele>126.42857142857143</ele><time>2026-04-12T08:07:33.896Z</time></trkpt><trkpt lat="45.4922183" lon="8.762925"><ele>126.0</ele><time>2026-04-12T08:07:35.895Z</time></trkpt><trkpt lat="45.4922483" lon="8.762815"><ele>126.5</ele><time>2026-04-12T08:07:38.895Z</time></trkpt><trkpt lat="45.4922617" lon="8.7626967"><ele>127.0</ele><time>2026-04-12T08:07:41.895Z</time></trkpt><trkpt lat="45.4922483" lon="8.762605"><ele>127.5</ele><time>2026-04-12T08:07:43.895Z</time></trkpt><trkpt lat="45.49223" lon="8.7624717"><ele>128.0</ele><time>2026-04-12T08:07:46.895Z</time></trkpt><trkpt lat="45.492185" lon="8.76237"><ele>128.5</ele><time>2026-04-12T08:07:49.895Z</time></trkpt><trkpt lat="45.4921517" lon="8.7622733"><ele>129.0</ele><time>2026-04-12T08:07:52.895Z</time></trkpt><trkpt lat="45.492105" lon="8.762165"><ele>128.99999999999997</ele><time>2026-04-12T08:07:55.895Z</time></trkpt><trkpt lat="45.4920633" lon="8.76208"><ele>129.0</ele><time>2026-04-12T08:07:57.895Z</time></trkpt><trkpt lat="45.4920183" lon="8.76201"><ele>129.0</ele><time>2026-04-12T08:07:59.896Z</time></trkpt><trkpt lat="45.4919867" lon="8.7619317"><ele>129.0</ele><time>2026-04-12T08:08:01.895Z</time></trkpt><trkpt lat="45.491945" lon="8.7618583"><ele>129.0</ele><time>2026-04-12T08:08:03.895Z</time></trkpt><trkpt lat="45.4918983" lon="8.7617817"><ele>128.99999999999997</ele><time>2026-04-12T08:08:05.895Z</time></trkpt><trkpt lat="45.4918317" lon="8.76168"><ele>129.0</ele><time>2026-04-12T08:08:08.895Z</time></trkpt><trkpt lat="45.4917817" lon="8.7616083"><ele>129.0</ele><time>2026-04-12T08:08:10.895Z</time></trkpt><trkpt lat="45.4917267" lon="8.7615"><ele>129.0</ele><time>2026-04-12T08:08:13.895Z</time></trkpt><trkpt lat="45.4916817" lon="8.7614017"><ele>129.0</ele><time>2026-04-12T08:08:15.895Z</time></trkpt><trkpt lat="45.4917" lon="8.7612967"><ele>129.0</ele><time>2026-04-12T08:08:18.895Z</time></trkpt><trkpt lat="45.491785" lon="8.761275"><ele>129.0</ele><time>2026-04-12T08:08:21.895Z</time></trkpt><trkpt lat="45.491872" lon="8.7612467"><ele>129.0</ele><time>2026-04-12T08:08:24.935Z</time></trkpt><trkpt lat="45.4919526" lon="8.7612441"><ele>129.0</ele><time>2026-04-12T08:08:26.837Z</time></trkpt><trkpt lat="45.4920309" lon="8.7612549"><ele>129.0</ele><time>2026-04-12T08:08:28.954Z</time></trkpt><trkpt lat="45.4921113" lon="8.7612745"><ele>129.0</ele><time>2026-04-12T08:08:30.839Z</time></trkpt><trkpt lat="45.492196" lon="8.7612937"><ele>129.0</ele><time>2026-04-12T08:08:32.924Z</time></trkpt><trkpt lat="45.492285" lon="8.7613017"><ele>129.0</ele><time>2026-04-12T08:08:34.895Z</time></trkpt><trkpt lat="45.49237" lon="8.7613083"><ele>129.0</ele><time>2026-04-12T08:08:36.895Z</time></trkpt><trkpt lat="45.4924583" lon="8.7613117"><ele>129.0</ele><time>2026-04-12T08:08:38.895Z</time></trkpt><trkpt lat="45.49255" lon="8.7613333"><ele>129.0</ele><time>2026-04-12T08:08:40.894Z</time></trkpt><trkpt lat="45.4926417" lon="8.7613633"><ele>129.0</ele><time>2026-04-12T08:08:42.895Z</time></trkpt><trkpt lat="45.4927267" lon="8.7614117"><ele>129.0</ele><time>2026-04-12T08:08:44.894Z</time></trkpt><trkpt lat="45.49282" lon="8.761485"><ele>129.0</ele><time>2026-04-12T08:08:46.894Z</time></trkpt><trkpt lat="45.49291" lon="8.7615183"><ele>128.66666666666666</ele><time>2026-04-12T08:08:48.894Z</time></trkpt><trkpt lat="45.4930017" lon="8.7614917"><ele>128.33333333333334</ele><time>2026-04-12T08:08:50.894Z</time></trkpt><trkpt lat="45.4930733" lon="8.7614417"><ele>128.0</ele><time>2026-04-12T08:08:52.894Z</time></trkpt><trkpt lat="45.4931433" lon="8.76142"><ele>127.66666666666667</ele><time>2026-04-12T08:08:54.894Z</time></trkpt><trkpt lat="45.4931883" lon="8.7613233"><ele>127.33333333333334</ele><time>2026-04-12T08:08:57.894Z</time></trkpt><trkpt lat="45.4931567" lon="8.76123"><ele>127.0</ele><time>2026-04-12T08:08:59.894Z</time></trkpt><trkpt lat="45.4931483" lon="8.7611233"><ele>127.33333333333334</ele><time>2026-04-12T08:09:01.895Z</time></trkpt><trkpt lat="45.493175" lon="8.7610217"><ele>127.66666666666667</ele><time>2026-04-12T08:09:03.895Z</time></trkpt><trkpt lat="45.4932083" lon="8.7609183"><ele>128.0</ele><time>2026-04-12T08:09:05.895Z</time></trkpt><trkpt lat="45.4932383" lon="8.7607967"><ele>128.33333333333334</ele><time>2026-04-12T08:09:07.894Z</time></trkpt><trkpt lat="45.4932667" lon="8.76069"><ele>128.66666666666666</ele><time>2026-04-12T08:09:09.894Z</time></trkpt><trkpt lat="45.4932983" lon="8.760605"><ele>129.0</ele><time>2026-04-12T08:09:11.894Z</time></trkpt><trkpt lat="45.493355" lon="8.760565"><ele>129.0</ele><time>2026-04-12T08:09:13.894Z</time></trkpt><trkpt lat="45.4934267" lon="8.7605267"><ele>129.0</ele><time>2026-04-12T08:09:15.894Z</time></trkpt><trkpt lat="45.493505" lon="8.7604733"><ele>129.0</ele><time>2026-04-12T08:09:17.894Z</time></trkpt><trkpt lat="45.4935833" lon="8.7604317"><ele>129.0</ele><time>2026-04-12T08:09:19.894Z</time></trkpt><trkpt lat="45.4936567" lon="8.7603833"><ele>129.0</ele><time>2026-04-12T08:09:21.894Z</time></trkpt><trkpt lat="45.4937367" lon="8.760355"><ele>129.0</ele><time>2026-04-12T08:09:23.894Z</time></trkpt><trkpt lat="45.4938233" lon="8.7603167"><ele>129.0</ele><time>2026-04-12T08:09:25.894Z</time></trkpt><trkpt lat="45.493905" lon="8.7602783"><ele>129.0</ele><time>2026-04-12T08:09:27.894Z</time></trkpt><trkpt lat="45.4939517" lon="8.7601933"><ele>129.0</ele><time>2026-04-12T08:09:29.894Z</time></trkpt><trkpt lat="45.4939517" lon="8.7600917"><ele>129.0</ele><time>2026-04-12T08:09:31.894Z</time></trkpt><trkpt lat="45.4939067" lon="8.7599833"><ele>129.0</ele><time>2026-04-12T08:09:33.894Z</time></trkpt><trkpt lat="45.4938483" lon="8.7598783"><ele>129.0</ele><time>2026-04-12T08:09:35.894Z</time></trkpt><trkpt lat="45.4937883" lon="8.7597717"><ele>128.83333333333334</ele><time>2026-04-12T08:09:37.894Z</time></trkpt><trkpt lat="45.4937333" lon="8.7596767"><ele>128.66666666666666</ele><time>2026-04-12T08:09:39.894Z</time></trkpt><trkpt lat="45.4936833" lon="8.75957"><ele>128.5</ele><time>2026-04-12T08:09:41.894Z</time></trkpt><trkpt lat="45.4936483" lon="8.7594767"><ele>128.33333333333331</ele><time>2026-04-12T08:09:43.894Z</time></trkpt><trkpt lat="45.4936033" lon="8.7593967"><ele>128.16666666666666</ele><time>2026-04-12T08:09:45.894Z</time></trkpt><trkpt lat="45.4935933" lon="8.7593"><ele>128.0</ele><time>2026-04-12T08:09:47.894Z</time></trkpt><trkpt lat="45.4936167" lon="8.7592"><ele>127.99999999999999</ele><time>2026-04-12T08:09:49.894Z</time></trkpt><trkpt lat="45.493665" lon="8.7591017"><ele>128.0</ele><time>2026-04-12T08:09:51.894Z</time></trkpt><trkpt lat="45.4937133" lon="8.759"><ele>128.0</ele><time>2026-04-12T08:09:53.894Z</time></trkpt><trkpt lat="45.4937583" lon="8.758895"><ele>128.0</ele><time>2026-04-12T08:09:55.895Z</time></trkpt><trkpt lat="45.4938083" lon="8.7587983"><ele>127.99999999999999</ele><time>2026-04-12T08:09:57.894Z</time></trkpt><trkpt lat="45.493865" lon="8.758695"><ele>128.0</ele><time>2026-04-12T08:09:59.894Z</time></trkpt><trkpt lat="45.493905" lon="8.7585917"><ele>127.83333333333333</ele><time>2026-04-12T08:10:01.894Z</time></trkpt><trkpt lat="45.493945" lon="8.7584933"><ele>127.66666666666666</ele><time>2026-04-12T08:10:03.894Z</time></trkpt><trkpt lat="45.4939833" lon="8.7584"><ele>127.5</ele><time>2026-04-12T08:10:05.894Z</time></trkpt><trkpt lat="45.4940183" lon="8.7582983"><ele>127.33333333333334</ele><time>2026-04-12T08:10:07.894Z</time></trkpt><trkpt lat="45.4940583" lon="8.75819"><ele>127.16666666666667</ele><time>2026-04-12T08:10:09.894Z</time></trkpt><trkpt lat="45.4940767" lon="8.7580667"><ele>127.0</ele><time>2026-04-12T08:10:11.894Z</time></trkpt><trkpt lat="45.494095" lon="8.7579433"><ele>127.0</ele><time>2026-04-12T08:10:13.894Z</time></trkpt><trkpt lat="45.4941383" lon="8.757815"><ele>126.99999999999999</ele><time>2026-04-12T08:10:15.894Z</time></trkpt><trkpt lat="45.4941883" lon="8.7577"><ele>126.99999999999999</ele><time>2026-04-12T08:10:17.894Z</time></trkpt><trkpt lat="45.4942483" lon="8.7575967"><ele>127.0</ele><time>2026-04-12T08:10:19.894Z</time></trkpt><trkpt lat="45.494295" lon="8.757485"><ele>127.0</ele><time>2026-04-12T08:10:21.894Z</time></trkpt><trkpt lat="45.4943433" lon="8.757365"><ele>127.0</ele><time>2026-04-12T08:10:23.894Z</time></trkpt><trkpt lat="45.4943867" lon="8.7572433"><ele>126.99999999999999</ele><time>2026-04-12T08:10:25.894Z</time></trkpt><trkpt lat="45.4943967" lon="8.7571133"><ele>126.99999999999999</ele><time>2026-04-12T08:10:27.894Z</time></trkpt><trkpt lat="45.4944067" lon="8.756995"><ele>127.0</ele><time>2026-04-12T08:10:29.894Z</time></trkpt><trkpt lat="45.494425" lon="8.7568633"><ele>127.0</ele><time>2026-04-12T08:10:31.894Z</time></trkpt><trkpt lat="45.4944483" lon="8.7567467"><ele>126.83333333333334</ele><time>2026-04-12T08:10:33.894Z</time></trkpt><trkpt lat="45.49445" lon="8.7566317"><ele>126.66666666666667</ele><time>2026-04-12T08:10:35.894Z</time></trkpt><trkpt lat="45.49446" lon="8.7565217"><ele>126.5</ele><time>2026-04-12T08:10:37.894Z</time></trkpt><trkpt lat="45.494475" lon="8.7564183"><ele>126.33333333333334</ele><time>2026-04-12T08:10:39.894Z</time></trkpt><trkpt lat="45.49449" lon="8.75632"><ele>126.16666666666667</ele><time>2026-04-12T08:10:41.894Z</time></trkpt><trkpt lat="45.4944967" lon="8.75622"><ele>126.0</ele><time>2026-04-12T08:10:43.895Z</time></trkpt><trkpt lat="45.4945083" lon="8.7561"><ele>126.16666666666667</ele><time>2026-04-12T08:10:45.894Z</time></trkpt><trkpt lat="45.4945133" lon="8.7559867"><ele>126.33333333333334</ele><time>2026-04-12T08:10:47.894Z</time></trkpt><trkpt lat="45.494525" lon="8.7558733"><ele>126.5</ele><time>2026-04-12T08:10:49.894Z</time></trkpt><trkpt lat="45.4945317" lon="8.75576"><ele>126.66666666666667</ele><time>2026-04-12T08:10:51.894Z</time></trkpt><trkpt lat="45.494545" lon="8.7556433"><ele>126.83333333333334</ele><time>2026-04-12T08:10:53.894Z</time></trkpt><trkpt lat="45.4945667" lon="8.7555317"><ele>127.0</ele><time>2026-04-12T08:10:55.894Z</time></trkpt><trkpt lat="45.4945767" lon="8.75543"><ele>127.00000000000001</ele><time>2026-04-12T08:10:57.894Z</time></trkpt><trkpt lat="45.4945917" lon="8.7553117"><ele>127.0</ele><time>2026-04-12T08:10:59.894Z</time></trkpt><trkpt lat="45.4946133" lon="8.7551917"><ele>127.0</ele><time>2026-04-12T08:11:01.894Z</time></trkpt><trkpt lat="45.49463" lon="8.75508"><ele>127.0</ele><time>2026-04-12T08:11:03.894Z</time></trkpt><trkpt lat="45.4946417" lon="8.7549733"><ele>127.00000000000001</ele><time>2026-04-12T08:11:05.894Z</time></trkpt><trkpt lat="45.4946433" lon="8.754855"><ele>127.0</ele><time>2026-04-12T08:11:07.894Z</time></trkpt><trkpt lat="45.4946517" lon="8.7547517"><ele>127.00000000000001</ele><time>2026-04-12T08:11:09.894Z</time></trkpt><trkpt lat="45.4946633" lon="8.7546567"><ele>127.0</ele><time>2026-04-12T08:11:11.894Z</time></trkpt><trkpt lat="45.4946883" lon="8.75452"><ele>127.0</ele><time>2026-04-12T08:11:14.894Z</time></trkpt><trkpt lat="45.4946983" lon="8.754415"><ele>127.0</ele><time>2026-04-12T08:11:16.894Z</time></trkpt><trkpt lat="45.4947117" lon="8.7542983"><ele>127.00000000000001</ele><time>2026-04-12T08:11:18.894Z</time></trkpt><trkpt lat="45.494725" lon="8.7541867"><ele>127.0</ele><time>2026-04-12T08:11:20.894Z</time></trkpt><trkpt lat="45.4947367" lon="8.7540767"><ele>127.50000000000001</ele><time>2026-04-12T08:11:22.894Z</time></trkpt><trkpt lat="45.4947383" lon="8.753985"><ele>128.0</ele><time>2026-04-12T08:11:24.894Z</time></trkpt><trkpt lat="45.494735" lon="8.753855"><ele>128.5</ele><time>2026-04-12T08:11:27.894Z</time></trkpt><trkpt lat="45.4947367" lon="8.7537483"><ele>129.0</ele><time>2026-04-12T08:11:29.894Z</time></trkpt><trkpt lat="45.4947467" lon="8.7536433"><ele>129.5</ele><time>2026-04-12T08:11:31.895Z</time></trkpt><trkpt lat="45.49477" lon="8.753555"><ele>130.0</ele><time>2026-04-12T08:11:33.894Z</time></trkpt><trkpt lat="45.494795" lon="8.7534317"><ele>130.42857142857144</ele><time>2026-04-12T08:11:36.894Z</time></trkpt><trkpt lat="45.4948" lon="8.7533417"><ele>130.85714285714286</ele><time>2026-04-12T08:11:39.894Z</time></trkpt><trkpt lat="45.49478" lon="8.753255"><ele>131.28571428571428</ele><time>2026-04-12T08:11:43.894Z</time></trkpt><trkpt lat="45.4947983" lon="8.7531617"><ele>131.71428571428572</ele><time>2026-04-12T08:11:49.894Z</time></trkpt><trkpt lat="45.494815" lon="8.7530733"><ele>132.14285714285714</ele><time>2026-04-12T08:11:52.894Z</time></trkpt><trkpt lat="45.4948317" lon="8.7529517"><ele>132.57142857142858</ele><time>2026-04-12T08:11:55.895Z</time></trkpt><trkpt lat="45.4948317" lon="8.752825"><ele>133.0</ele><time>2026-04-12T08:11:58.894Z</time></trkpt><trkpt lat="45.49485" lon="8.7527"><ele>133.16666666666669</ele><time>2026-04-12T08:12:01.894Z</time></trkpt><trkpt lat="45.49487" lon="8.7525967"><ele>133.33333333333334</ele><time>2026-04-12T08:12:04.894Z</time></trkpt><trkpt lat="45.4948767" lon="8.7524267"><ele>133.5</ele><time>2026-04-12T08:12:17.895Z</time></trkpt><trkpt lat="45.4948733" lon="8.7523067"><ele>133.66666666666666</ele><time>2026-04-12T08:12:21.894Z</time></trkpt><trkpt lat="45.4948817" lon="8.752205"><ele>133.83333333333331</ele><time>2026-04-12T08:12:24.894Z</time></trkpt><trkpt lat="45.49491" lon="8.7521183"><ele>134.0</ele><time>2026-04-12T08:12:26.894Z</time></trkpt><trkpt lat="45.494935" lon="8.7520333"><ele>134.0</ele><time>2026-04-12T08:12:28.894Z</time></trkpt><trkpt lat="45.4949483" lon="8.75194"><ele>134.0</ele><time>2026-04-12T08:12:30.894Z</time></trkpt><trkpt lat="45.494965" lon="8.751845"><ele>134.0</ele><time>2026-04-12T08:12:32.894Z</time></trkpt><trkpt lat="45.4949817" lon="8.7517233"><ele>134.0</ele><time>2026-04-12T08:12:35.894Z</time></trkpt><trkpt lat="45.4949967" lon="8.7515867"><ele>134.0</ele><time>2026-04-12T08:12:38.894Z</time></trkpt><trkpt lat="45.495005" lon="8.75149"><ele>134.0</ele><time>2026-04-12T08:12:40.894Z</time></trkpt><trkpt lat="45.495015" lon="8.75139"><ele>133.57142857142858</ele><time>2026-04-12T08:12:42.894Z</time></trkpt><trkpt lat="45.4950317" lon="8.751285"><ele>133.14285714285714</ele><time>2026-04-12T08:12:44.894Z</time></trkpt><trkpt lat="45.4950467" lon="8.751185"><ele>132.71428571428572</ele><time>2026-04-12T08:12:46.894Z</time></trkpt><trkpt lat="45.49506" lon="8.7510767"><ele>132.28571428571428</ele><time>2026-04-12T08:12:48.894Z</time></trkpt><trkpt lat="45.4950748" lon="8.7509749"><ele>131.85714285714286</ele><time>2026-04-12T08:12:50.925Z</time></trkpt><trkpt lat="45.495089" lon="8.7508814"><ele>131.42857142857144</ele><time>2026-04-12T08:12:52.925Z</time></trkpt><trkpt lat="45.4950828" lon="8.7507818"><ele>131.0</ele><time>2026-04-12T08:12:54.858Z</time></trkpt><trkpt lat="45.49508" lon="8.750665"><ele>131.0</ele><time>2026-04-12T08:12:56.894Z</time></trkpt><trkpt lat="45.49509" lon="8.7505167"><ele>131.0</ele><time>2026-04-12T08:12:58.894Z</time></trkpt><trkpt lat="45.4951017" lon="8.7503733"><ele>131.0</ele><time>2026-04-12T08:13:00.894Z</time></trkpt><trkpt lat="45.49512" lon="8.750245"><ele>131.0</ele><time>2026-04-12T08:13:02.894Z</time></trkpt><trkpt lat="45.4951333" lon="8.75012"><ele>131.0</ele><time>2026-04-12T08:13:04.894Z</time></trkpt><trkpt lat="45.495155" lon="8.7499783"><ele>131.2</ele><time>2026-04-12T08:13:06.894Z</time></trkpt><trkpt lat="45.495165" lon="8.74984"><ele>131.39999999999998</ele><time>2026-04-12T08:13:08.894Z</time></trkpt><trkpt lat="45.4951733" lon="8.7496867"><ele>131.6</ele><time>2026-04-12T08:13:10.894Z</time></trkpt><trkpt lat="45.4951833" lon="8.7495417"><ele>131.79999999999998</ele><time>2026-04-12T08:13:12.894Z</time></trkpt><trkpt lat="45.495205" lon="8.74941"><ele>132.0</ele><time>2026-04-12T08:13:14.894Z</time></trkpt><trkpt lat="45.49522" lon="8.74927"><ele>131.6</ele><time>2026-04-12T08:13:16.894Z</time></trkpt><trkpt lat="45.4951867" lon="8.74917"><ele>131.2</ele><time>2026-04-12T08:13:18.895Z</time></trkpt><trkpt lat="45.495105" lon="8.7491317"><ele>130.8</ele><time>2026-04-12T08:13:20.894Z</time></trkpt><trkpt lat="45.49501" lon="8.7491117"><ele>130.4</ele><time>2026-04-12T08:13:22.894Z</time></trkpt><trkpt lat="45.494925" lon="8.7490767"><ele>130.0</ele><time>2026-04-12T08:13:24.894Z</time></trkpt><trkpt lat="45.494815" lon="8.7490683"><ele>130.0</ele><time>2026-04-12T08:13:26.895Z</time></trkpt><trkpt lat="45.4947133" lon="8.749055"><ele>130.0</ele><time>2026-04-12T08:13:28.894Z</time></trkpt><trkpt lat="45.4946183" lon="8.7490467"><ele>130.0</ele><time>2026-04-12T08:13:30.894Z</time></trkpt><trkpt lat="45.4945383" lon="8.7490383"><ele>130.0</ele><time>2026-04-12T08:13:32.894Z</time></trkpt><trkpt lat="45.4944567" lon="8.7490233"><ele>130.0</ele><time>2026-04-12T08:13:34.894Z</time></trkpt><trkpt lat="45.4943683" lon="8.7490117"><ele>130.0</ele><time>2026-04-12T08:13:36.894Z</time></trkpt><trkpt lat="45.4942717" lon="8.7490217"><ele>129.5</ele><time>2026-04-12T08:13:38.894Z</time></trkpt><trkpt lat="45.4941867" lon="8.7490033"><ele>129.0</ele><time>2026-04-12T08:13:40.894Z</time></trkpt><trkpt lat="45.4941217" lon="8.74894"><ele>128.5</ele><time>2026-04-12T08:13:43.894Z</time></trkpt><trkpt lat="45.49415" lon="8.748835"><ele>128.0</ele><time>2026-04-12T08:13:46.894Z</time></trkpt><trkpt lat="45.494175" lon="8.7487483"><ele>127.50000000000001</ele><time>2026-04-12T08:13:48.894Z</time></trkpt><trkpt lat="45.4942033" lon="8.7486433"><ele>127.0</ele><time>2026-04-12T08:13:50.894Z</time></trkpt><trkpt lat="45.49423" lon="8.748535"><ele>126.8</ele><time>2026-04-12T08:13:52.894Z</time></trkpt><trkpt lat="45.4942567" lon="8.7484217"><ele>126.6</ele><time>2026-04-12T08:13:54.894Z</time></trkpt><trkpt lat="45.4942833" lon="8.7482967"><ele>126.39999999999999</ele><time>2026-04-12T08:13:56.894Z</time></trkpt><trkpt lat="45.494305" lon="8.7481617"><ele>126.19999999999999</ele><time>2026-04-12T08:13:58.894Z</time></trkpt><trkpt lat="45.4943217" lon="8.748015"><ele>126.0</ele><time>2026-04-12T08:14:00.894Z</time></trkpt><trkpt lat="45.494355" lon="8.7478983"><ele>126.0</ele><time>2026-04-12T08:14:02.894Z</time></trkpt><trkpt lat="45.4943783" lon="8.7477567"><ele>126.0</ele><time>2026-04-12T08:14:04.894Z</time></trkpt><trkpt lat="45.49439" lon="8.74762"><ele>126.0</ele><time>2026-04-12T08:14:06.894Z</time></trkpt><trkpt lat="45.494415" lon="8.7475017"><ele>126.0</ele><time>2026-04-12T08:14:08.894Z</time></trkpt><trkpt lat="45.49444" lon="8.7473883"><ele>126.0</ele><time>2026-04-12T08:14:10.894Z</time></trkpt><trkpt lat="45.4944717" lon="8.747265"><ele>126.0</ele><time>2026-04-12T08:14:12.894Z</time></trkpt><trkpt lat="45.4944933" lon="8.7471367"><ele>126.0</ele><time>2026-04-12T08:14:14.894Z</time></trkpt><trkpt lat="45.4945167" lon="8.74702"><ele>126.0</ele><time>2026-04-12T08:14:16.895Z</time></trkpt><trkpt lat="45.4945367" lon="8.7469"><ele>126.0</ele><time>2026-04-12T08:14:18.894Z</time></trkpt><trkpt lat="45.49456" lon="8.74678"><ele>126.0</ele><time>2026-04-12T08:14:20.894Z</time></trkpt><trkpt lat="45.4945867" lon="8.7466617"><ele>126.0</ele><time>2026-04-12T08:14:22.894Z</time></trkpt><trkpt lat="45.494615" lon="8.7465517"><ele>126.0</ele><time>2026-04-12T08:14:24.894Z</time></trkpt><trkpt lat="45.4946383" lon="8.7464433"><ele>126.0</ele><time>2026-04-12T08:14:26.894Z</time></trkpt><trkpt lat="45.49467" lon="8.74633"><ele>126.0</ele><time>2026-04-12T08:14:28.894Z</time></trkpt><trkpt lat="45.4947" lon="8.7462183"><ele>126.0</ele><time>2026-04-12T08:14:30.894Z</time></trkpt><trkpt lat="45.4947233" lon="8.7461117"><ele>126.0</ele><time>2026-04-12T08:14:32.894Z</time></trkpt><trkpt lat="45.4947433" lon="8.7459967"><ele>126.0</ele><time>2026-04-12T08:14:34.894Z</time></trkpt><trkpt lat="45.4947617" lon="8.7458783"><ele>126.0</ele><time>2026-04-12T08:14:36.894Z</time></trkpt><trkpt lat="45.4947883" lon="8.7457517"><ele>126.0</ele><time>2026-04-12T08:14:38.894Z</time></trkpt><trkpt lat="45.494815" lon="8.7456283"><ele>126.0</ele><time>2026-04-12T08:14:40.894Z</time></trkpt><trkpt lat="45.4948467" lon="8.7455017"><ele>126.0</ele><time>2026-04-12T08:14:42.894Z</time></trkpt><trkpt lat="45.4948767" lon="8.7453883"><ele>126.0</ele><time>2026-04-12T08:14:44.895Z</time></trkpt><trkpt lat="45.4949033" lon="8.7452783"><ele>126.0</ele><time>2026-04-12T08:14:46.894Z</time></trkpt><trkpt lat="45.4949267" lon="8.7451717"><ele>126.16666666666667</ele><time>2026-04-12T08:14:48.894Z</time></trkpt><trkpt lat="45.4949483" lon="8.7450667"><ele>126.33333333333334</ele><time>2026-04-12T08:14:50.894Z</time></trkpt><trkpt lat="45.4949633" lon="8.744955"><ele>126.5</ele><time>2026-04-12T08:14:52.894Z</time></trkpt><trkpt lat="45.49499" lon="8.7448367"><ele>126.66666666666667</ele><time>2026-04-12T08:14:54.895Z</time></trkpt><trkpt lat="45.4950167" lon="8.7447283"><ele>126.83333333333334</ele><time>2026-04-12T08:14:56.894Z</time></trkpt><trkpt lat="45.495045" lon="8.7446183"><ele>127.0</ele><time>2026-04-12T08:14:58.894Z</time></trkpt><trkpt lat="45.4950733" lon="8.7445067"><ele>127.00000000000001</ele><time>2026-04-12T08:15:00.894Z</time></trkpt><trkpt lat="45.4951033" lon="8.7444"><ele>127.0</ele><time>2026-04-12T08:15:02.894Z</time></trkpt><trkpt lat="45.4951317" lon="8.7442883"><ele>127.0</ele><time>2026-04-12T08:15:04.894Z</time></trkpt><trkpt lat="45.4951467" lon="8.7441783"><ele>127.0</ele><time>2026-04-12T08:15:06.894Z</time></trkpt><trkpt lat="45.4951633" lon="8.74406"><ele>127.00000000000001</ele><time>2026-04-12T08:15:08.894Z</time></trkpt><trkpt lat="45.49519" lon="8.7439333"><ele>127.0</ele><time>2026-04-12T08:15:10.894Z</time></trkpt><trkpt lat="45.4952233" lon="8.7438"><ele>127.0</ele><time>2026-04-12T08:15:12.894Z</time></trkpt><trkpt lat="45.4952483" lon="8.743675"><ele>126.99999999999999</ele><time>2026-04-12T08:15:14.895Z</time></trkpt><trkpt lat="45.4952733" lon="8.7435367"><ele>126.99999999999999</ele><time>2026-04-12T08:15:16.894Z</time></trkpt><trkpt lat="45.4953033" lon="8.7434083"><ele>127.0</ele><time>2026-04-12T08:15:18.894Z</time></trkpt><trkpt lat="45.4953283" lon="8.74328"><ele>127.0</ele><time>2026-04-12T08:15:20.894Z</time></trkpt><trkpt lat="45.4953567" lon="8.7431617"><ele>127.0</ele><time>2026-04-12T08:15:22.894Z</time></trkpt><trkpt lat="45.4953867" lon="8.743035"><ele>126.99999999999999</ele><time>2026-04-12T08:15:24.894Z</time></trkpt><trkpt lat="45.4954267" lon="8.7429067"><ele>126.99999999999999</ele><time>2026-04-12T08:15:26.894Z</time></trkpt><trkpt lat="45.495445" lon="8.7427733"><ele>127.0</ele><time>2026-04-12T08:15:28.894Z</time></trkpt><trkpt lat="45.4954667" lon="8.7426417"><ele>127.0</ele><time>2026-04-12T08:15:30.894Z</time></trkpt><trkpt lat="45.49549" lon="8.7425183"><ele>126.6</ele><time>2026-04-12T08:15:32.894Z</time></trkpt><trkpt lat="45.495515" lon="8.7423967"><ele>126.19999999999999</ele><time>2026-04-12T08:15:34.894Z</time></trkpt><trkpt lat="45.4955233" lon="8.7422683"><ele>125.8</ele><time>2026-04-12T08:15:36.894Z</time></trkpt><trkpt lat="45.4955033" lon="8.7421467"><ele>125.4</ele><time>2026-04-12T08:15:38.894Z</time></trkpt><trkpt lat="45.4954733" lon="8.7420217"><ele>125.0</ele><time>2026-04-12T08:15:40.894Z</time></trkpt><trkpt lat="45.49543" lon="8.7419067"><ele>124.6</ele><time>2026-04-12T08:15:42.894Z</time></trkpt><trkpt lat="45.495395" lon="8.7417917"><ele>124.2</ele><time>2026-04-12T08:15:44.894Z</time></trkpt><trkpt lat="45.49535" lon="8.7416667"><ele>123.80000000000001</ele><time>2026-04-12T08:15:46.894Z</time></trkpt><trkpt lat="45.495295" lon="8.7415517"><ele>123.4</ele><time>2026-04-12T08:15:48.895Z</time></trkpt><trkpt lat="45.4952467" lon="8.7414367"><ele>123.0</ele><time>2026-04-12T08:15:50.894Z</time></trkpt><trkpt lat="45.4952033" lon="8.7413133"><ele>123.0</ele><time>2026-04-12T08:15:52.894Z</time></trkpt><trkpt lat="45.4951467" lon="8.7411883"><ele>123.00000000000001</ele><time>2026-04-12T08:15:54.894Z</time></trkpt><trkpt lat="45.4951117" lon="8.7410683"><ele>123.00000000000001</ele><time>2026-04-12T08:15:56.894Z</time></trkpt><trkpt lat="45.49507" lon="8.7409383"><ele>123.0</ele><time>2026-04-12T08:15:58.894Z</time></trkpt><trkpt lat="45.495025" lon="8.7408217"><ele>123.0</ele><time>2026-04-12T08:16:00.895Z</time></trkpt><trkpt lat="45.4949883" lon="8.74071"><ele>123.0</ele><time>2026-04-12T08:16:02.894Z</time></trkpt><trkpt lat="45.49495" lon="8.7406"><ele>123.0</ele><time>2026-04-12T08:16:04.894Z</time></trkpt><trkpt lat="45.494905" lon="8.7404867"><ele>123.0</ele><time>2026-04-12T08:16:06.894Z</time></trkpt><trkpt lat="45.4948767" lon="8.7403867"><ele>123.0</ele><time>2026-04-12T08:16:08.894Z</time></trkpt><trkpt lat="45.4948383" lon="8.740275"><ele>123.0</ele><time>2026-04-12T08:16:10.894Z</time></trkpt><trkpt lat="45.4947917" lon="8.74015"><ele>123.0</ele><time>2026-04-12T08:16:12.894Z</time></trkpt><trkpt lat="45.4947517" lon="8.7400367"><ele>123.0</ele><time>2026-04-12T08:16:14.894Z</time></trkpt><trkpt lat="45.494715" lon="8.7399183"><ele>123.0</ele><time>2026-04-12T08:16:16.894Z</time></trkpt><trkpt lat="45.4946767" lon="8.739805"><ele>123.0</ele><time>2026-04-12T08:16:18.894Z</time></trkpt><trkpt lat="45.4946383" lon="8.7396967"><ele>123.0</ele><time>2026-04-12T08:16:20.894Z</time></trkpt><trkpt lat="45.4946033" lon="8.7395933"><ele>123.0</ele><time>2026-04-12T08:16:22.894Z</time></trkpt><trkpt lat="45.4945683" lon="8.73949"><ele>123.0</ele><time>2026-04-12T08:16:24.894Z</time></trkpt><trkpt lat="45.4945333" lon="8.7393833"><ele>123.5</ele><time>2026-04-12T08:16:26.894Z</time></trkpt><trkpt lat="45.4944933" lon="8.739275"><ele>124.0</ele><time>2026-04-12T08:16:28.894Z</time></trkpt><trkpt lat="45.4944517" lon="8.7391583"><ele>124.5</ele><time>2026-04-12T08:16:30.894Z</time></trkpt><trkpt lat="45.4944183" lon="8.739055"><ele>125.0</ele><time>2026-04-12T08:16:32.894Z</time></trkpt><trkpt lat="45.4943883" lon="8.7389567"><ele>125.5</ele><time>2026-04-12T08:16:34.894Z</time></trkpt><trkpt lat="45.49435" lon="8.7388467"><ele>126.0</ele><time>2026-04-12T08:16:36.894Z</time></trkpt><trkpt lat="45.49431" lon="8.7387333"><ele>126.0</ele><time>2026-04-12T08:16:38.894Z</time></trkpt><trkpt lat="45.49427" lon="8.7386417"><ele>126.0</ele><time>2026-04-12T08:16:40.894Z</time></trkpt><trkpt lat="45.49424" lon="8.7385517"><ele>126.0</ele><time>2026-04-12T08:16:42.894Z</time></trkpt><trkpt lat="45.494285" lon="8.7384383"><ele>126.0</ele><time>2026-04-12T08:16:45.894Z</time></trkpt><trkpt lat="45.49433" lon="8.7383483"><ele>126.0</ele><time>2026-04-12T08:16:47.894Z</time></trkpt><trkpt lat="45.4943717" lon="8.7382517"><ele>126.0</ele><time>2026-04-12T08:16:49.894Z</time></trkpt><trkpt lat="45.49441" lon="8.73815"><ele>125.83333333333333</ele><time>2026-04-12T08:16:51.894Z</time></trkpt><trkpt lat="45.49445" lon="8.7380433"><ele>125.66666666666666</ele><time>2026-04-12T08:16:53.894Z</time></trkpt><trkpt lat="45.4944883" lon="8.7379467"><ele>125.5</ele><time>2026-04-12T08:16:55.894Z</time></trkpt><trkpt lat="45.4945267" lon="8.7378417"><ele>125.33333333333333</ele><time>2026-04-12T08:16:57.894Z</time></trkpt><trkpt lat="45.4945567" lon="8.73775"><ele>125.16666666666666</ele><time>2026-04-12T08:16:59.894Z</time></trkpt><trkpt lat="45.4945867" lon="8.73766"><ele>125.0</ele><time>2026-04-12T08:17:01.894Z</time></trkpt><trkpt lat="45.4946233" lon="8.7375383"><ele>126.16666666666666</ele><time>2026-04-12T08:17:04.894Z</time></trkpt><trkpt lat="45.494655" lon="8.73745"><ele>127.33333333333333</ele><time>2026-04-12T08:17:06.894Z</time></trkpt><trkpt lat="45.494685" lon="8.737345"><ele>128.5</ele><time>2026-04-12T08:17:08.894Z</time></trkpt><trkpt lat="45.49472" lon="8.737235"><ele>129.66666666666666</ele><time>2026-04-12T08:17:10.893Z</time></trkpt><trkpt lat="45.4947617" lon="8.7371417"><ele>130.83333333333334</ele><time>2026-04-12T08:17:12.893Z</time></trkpt><trkpt lat="45.4947983" lon="8.7370417"><ele>132.0</ele><time>2026-04-12T08:17:14.893Z</time></trkpt><trkpt lat="45.4948283" lon="8.7369317"><ele>132.0</ele><time>2026-04-12T08:17:16.893Z</time></trkpt><trkpt lat="45.4948683" lon="8.73682"><ele>132.0</ele><time>2026-04-12T08:17:18.893Z</time></trkpt><trkpt lat="45.4949066" lon="8.736719"><ele>132.0</ele><time>2026-04-12T08:17:20.966Z</time></trkpt><trkpt lat="45.4949485" lon="8.736632"><ele>132.0</ele><time>2026-04-12T08:17:22.924Z</time></trkpt><trkpt lat="45.4949859" lon="8.736552"><ele>132.0</ele><time>2026-04-12T08:17:24.924Z</time></trkpt><trkpt lat="45.4950217" lon="8.7364667"><ele>132.0</ele><time>2026-04-12T08:17:26.893Z</time></trkpt><trkpt lat="45.4950583" lon="8.7363633"><ele>132.0</ele><time>2026-04-12T08:17:28.893Z</time></trkpt><trkpt lat="45.4950933" lon="8.73624"><ele>132.0</ele><time>2026-04-12T08:17:30.893Z</time></trkpt><trkpt lat="45.4951333" lon="8.7361217"><ele>132.0</ele><time>2026-04-12T08:17:32.893Z</time></trkpt><trkpt lat="45.4951783" lon="8.73601"><ele>132.0</ele><time>2026-04-12T08:17:34.893Z</time></trkpt><trkpt lat="45.49522" lon="8.7358983"><ele>132.0</ele><time>2026-04-12T08:17:36.893Z</time></trkpt><trkpt lat="45.495255" lon="8.7357833"><ele>131.6</ele><time>2026-04-12T08:17:38.893Z</time></trkpt><trkpt lat="45.495305" lon="8.7356633"><ele>131.2</ele><time>2026-04-12T08:17:40.893Z</time></trkpt><trkpt lat="45.4953467" lon="8.7355467"><ele>130.8</ele><time>2026-04-12T08:17:42.893Z</time></trkpt><trkpt lat="45.4953767" lon="8.73541"><ele>130.4</ele><time>2026-04-12T08:17:44.893Z</time></trkpt><trkpt lat="45.49543" lon="8.73528"><ele>130.0</ele><time>2026-04-12T08:17:46.893Z</time></trkpt><trkpt lat="45.4954783" lon="8.73516"><ele>131.0</ele><time>2026-04-12T08:17:48.893Z</time></trkpt><trkpt lat="45.4955217" lon="8.735045"><ele>132.0</ele><time>2026-04-12T08:17:50.893Z</time></trkpt><trkpt lat="45.495575" lon="8.73493"><ele>133.0</ele><time>2026-04-12T08:17:52.893Z</time></trkpt><trkpt lat="45.49563" lon="8.7348117"><ele>134.0</ele><time>2026-04-12T08:17:54.893Z</time></trkpt><trkpt lat="45.4956767" lon="8.7346967"><ele>135.0</ele><time>2026-04-12T08:17:56.893Z</time></trkpt><trkpt lat="45.4957283" lon="8.7345817"><ele>135.0</ele><time>2026-04-12T08:17:58.893Z</time></trkpt><trkpt lat="45.4957733" lon="8.734455"><ele>135.0</ele><time>2026-04-12T08:18:00.893Z</time></trkpt><trkpt lat="45.4958233" lon="8.734325"><ele>135.0</ele><time>2026-04-12T08:18:02.893Z</time></trkpt><trkpt lat="45.4958733" lon="8.7341917"><ele>135.0</ele><time>2026-04-12T08:18:04.893Z</time></trkpt><trkpt lat="45.4959217" lon="8.7340567"><ele>135.0</ele><time>2026-04-12T08:18:06.893Z</time></trkpt><trkpt lat="45.4959717" lon="8.733925"><ele>134.8</ele><time>2026-04-12T08:18:08.893Z</time></trkpt><trkpt lat="45.4960067" lon="8.733795"><ele>134.6</ele><time>2026-04-12T08:18:10.893Z</time></trkpt><trkpt lat="45.4960517" lon="8.7336633"><ele>134.4</ele><time>2026-04-12T08:18:12.893Z</time></trkpt><trkpt lat="45.49611" lon="8.73353"><ele>134.2</ele><time>2026-04-12T08:18:14.893Z</time></trkpt><trkpt lat="45.496165" lon="8.7334083"><ele>134.0</ele><time>2026-04-12T08:18:16.893Z</time></trkpt><trkpt lat="45.4962117" lon="8.73327"><ele>134.2</ele><time>2026-04-12T08:18:18.893Z</time></trkpt><trkpt lat="45.49626" lon="8.7331167"><ele>134.4</ele><time>2026-04-12T08:18:20.893Z</time></trkpt><trkpt lat="45.4962783" lon="8.73303"><ele>134.6</ele><time>2026-04-12T08:18:21.893Z</time></trkpt><trkpt lat="45.4963283" lon="8.7328867"><ele>134.8</ele><time>2026-04-12T08:18:23.893Z</time></trkpt><trkpt lat="45.4963767" lon="8.7327533"><ele>135.0</ele><time>2026-04-12T08:18:25.893Z</time></trkpt><trkpt lat="45.49642" lon="8.73263"><ele>134.4</ele><time>2026-04-12T08:18:27.893Z</time></trkpt><trkpt lat="45.49647" lon="8.7325017"><ele>133.8</ele><time>2026-04-12T08:18:29.893Z</time></trkpt><trkpt lat="45.4965233" lon="8.7323667"><ele>133.2</ele><time>2026-04-12T08:18:31.893Z</time></trkpt><trkpt lat="45.49657" lon="8.7322467"><ele>132.6</ele><time>2026-04-12T08:18:33.893Z</time></trkpt><trkpt lat="45.4966117" lon="8.732105"><ele>132.0</ele><time>2026-04-12T08:18:35.893Z</time></trkpt><trkpt lat="45.4966633" lon="8.7319633"><ele>131.4</ele><time>2026-04-12T08:18:37.893Z</time></trkpt><trkpt lat="45.4967117" lon="8.7317983"><ele>130.79999999999998</ele><time>2026-04-12T08:18:39.894Z</time></trkpt><trkpt lat="45.4967617" lon="8.7316733"><ele>130.2</ele><time>2026-04-12T08:18:41.894Z</time></trkpt><trkpt lat="45.4967917" lon="8.7315417"><ele>129.6</ele><time>2026-04-12T08:18:43.893Z</time></trkpt><trkpt lat="45.4968117" lon="8.7314083"><ele>129.0</ele><time>2026-04-12T08:18:45.893Z</time></trkpt><trkpt lat="45.496835" lon="8.731285"><ele>129.0</ele><time>2026-04-12T08:18:47.893Z</time></trkpt><trkpt lat="45.4968617" lon="8.7311717"><ele>129.0</ele><time>2026-04-12T08:18:49.893Z</time></trkpt><trkpt lat="45.4968867" lon="8.731065"><ele>129.0</ele><time>2026-04-12T08:18:51.893Z</time></trkpt><trkpt lat="45.49693" lon="8.730935"><ele>129.0</ele><time>2026-04-12T08:18:54.893Z</time></trkpt><trkpt lat="45.4969717" lon="8.7308333"><ele>129.0</ele><time>2026-04-12T08:18:56.893Z</time></trkpt><trkpt lat="45.49722" lon="8.7309833"><ele>128.4</ele><time>2026-04-12T08:18:58.893Z</time></trkpt><trkpt lat="45.4972817" lon="8.7307983"><ele>127.80000000000001</ele><time>2026-04-12T08:18:59.893Z</time></trkpt><trkpt lat="45.4973633" lon="8.7307417"><ele>127.19999999999999</ele><time>2026-04-12T08:19:00.893Z</time></trkpt><trkpt lat="45.4974833" lon="8.7306817"><ele>126.6</ele><time>2026-04-12T08:19:02.893Z</time></trkpt><trkpt lat="45.49756" lon="8.7306433"><ele>126.0</ele><time>2026-04-12T08:19:03.893Z</time></trkpt><trkpt lat="45.497625" lon="8.7306167"><ele>126.0</ele><time>2026-04-12T08:19:04.893Z</time></trkpt><trkpt lat="45.4976867" lon="8.730555"><ele>126.0</ele><time>2026-04-12T08:19:06.893Z</time></trkpt><trkpt lat="45.4978133" lon="8.730535"><ele>126.0</ele><time>2026-04-12T08:19:08.893Z</time></trkpt><trkpt lat="45.4978817" lon="8.7305233"><ele>126.0</ele><time>2026-04-12T08:19:09.893Z</time></trkpt><trkpt lat="45.4979967" lon="8.7304767"><ele>126.0</ele><time>2026-04-12T08:19:11.893Z</time></trkpt><trkpt lat="45.498095" lon="8.7304867"><ele>126.8</ele><time>2026-04-12T08:19:13.893Z</time></trkpt><trkpt lat="45.4982017" lon="8.7304917"><ele>127.6</ele><time>2026-04-12T08:19:15.894Z</time></trkpt><trkpt lat="45.4983083" lon="8.7304917"><ele>128.4</ele><time>2026-04-12T08:19:17.893Z</time></trkpt><trkpt lat="45.4984083" lon="8.7304733"><ele>129.2</ele><time>2026-04-12T08:19:19.893Z</time></trkpt><trkpt lat="45.498505" lon="8.73046"><ele>130.0</ele><time>2026-04-12T08:19:21.894Z</time></trkpt><trkpt lat="45.4985933" lon="8.7304467"><ele>130.0</ele><time>2026-04-12T08:19:23.894Z</time></trkpt><trkpt lat="45.4986967" lon="8.7304233"><ele>130.0</ele><time>2026-04-12T08:19:25.893Z</time></trkpt><trkpt lat="45.498795" lon="8.73041"><ele>130.0</ele><time>2026-04-12T08:19:27.893Z</time></trkpt><trkpt lat="45.498905" lon="8.7303783"><ele>130.0</ele><time>2026-04-12T08:19:29.893Z</time></trkpt><trkpt lat="45.4990017" lon="8.73034"><ele>130.0</ele><time>2026-04-12T08:19:31.893Z</time></trkpt><trkpt lat="45.4990983" lon="8.73032"><ele>130.0</ele><time>2026-04-12T08:19:33.893Z</time></trkpt><trkpt lat="45.4991983" lon="8.7303133"><ele>130.0</ele><time>2026-04-12T08:19:35.893Z</time></trkpt><trkpt lat="45.4992817" lon="8.7303267"><ele>130.0</ele><time>2026-04-12T08:19:37.893Z</time></trkpt><trkpt lat="45.4993583" lon="8.7303583"><ele>130.0</ele><time>2026-04-12T08:19:39.893Z</time></trkpt><trkpt lat="45.499445" lon="8.7304017"><ele>130.0</ele><time>2026-04-12T08:19:41.893Z</time></trkpt><trkpt lat="45.4995317" lon="8.7304483"><ele>130.0</ele><time>2026-04-12T08:19:43.893Z</time></trkpt><trkpt lat="45.4996083" lon="8.7304817"><ele>130.0</ele><time>2026-04-12T08:19:45.894Z</time></trkpt><trkpt lat="45.4996967" lon="8.730485"><ele>130.0</ele><time>2026-04-12T08:19:47.893Z</time></trkpt><trkpt lat="45.499795" lon="8.7305333"><ele>130.0</ele><time>2026-04-12T08:19:49.893Z</time></trkpt><trkpt lat="45.4998833" lon="8.7305633"><ele>130.0</ele><time>2026-04-12T08:19:51.893Z</time></trkpt><trkpt lat="45.4999733" lon="8.730545"><ele>130.0</ele><time>2026-04-12T08:19:53.893Z</time></trkpt><trkpt lat="45.5000067" lon="8.7304067"><ele>130.0</ele><time>2026-04-12T08:19:55.893Z</time></trkpt><trkpt lat="45.5000283" lon="8.730275"><ele>130.0</ele><time>2026-04-12T08:19:57.893Z</time></trkpt><trkpt lat="45.5000467" lon="8.73015"><ele>130.0</ele><time>2026-04-12T08:19:59.893Z</time></trkpt><trkpt lat="45.5000433" lon="8.7300083"><ele>130.0</ele><time>2026-04-12T08:20:01.894Z</time></trkpt><trkpt lat="45.5000367" lon="8.729855"><ele>130.0</ele><time>2026-04-12T08:20:03.893Z</time></trkpt><trkpt lat="45.500025" lon="8.7297017"><ele>130.0</ele><time>2026-04-12T08:20:05.893Z</time></trkpt><trkpt lat="45.499995" lon="8.7295467"><ele>130.0</ele><time>2026-04-12T08:20:07.893Z</time></trkpt><trkpt lat="45.4999617" lon="8.7294"><ele>130.0</ele><time>2026-04-12T08:20:09.893Z</time></trkpt><trkpt lat="45.4999367" lon="8.729255"><ele>130.0</ele><time>2026-04-12T08:20:11.893Z</time></trkpt><trkpt lat="45.499925" lon="8.72913"><ele>130.0</ele><time>2026-04-12T08:20:13.893Z</time></trkpt><trkpt lat="45.499915" lon="8.7289883"><ele>129.8</ele><time>2026-04-12T08:20:15.893Z</time></trkpt><trkpt lat="45.4999183" lon="8.728855"><ele>129.6</ele><time>2026-04-12T08:20:17.893Z</time></trkpt><trkpt lat="45.4999183" lon="8.728725"><ele>129.4</ele><time>2026-04-12T08:20:19.893Z</time></trkpt><trkpt lat="45.4999167" lon="8.728575"><ele>129.2</ele><time>2026-04-12T08:20:21.893Z</time></trkpt><trkpt lat="45.499925" lon="8.728435"><ele>129.0</ele><time>2026-04-12T08:20:23.893Z</time></trkpt><trkpt lat="45.4999133" lon="8.72833"><ele>128.6</ele><time>2026-04-12T08:20:24.893Z</time></trkpt><trkpt lat="45.4999067" lon="8.7281967"><ele>128.2</ele><time>2026-04-12T08:20:26.893Z</time></trkpt><trkpt lat="45.4999283" lon="8.7280767"><ele>127.79999999999998</ele><time>2026-04-12T08:20:28.893Z</time></trkpt><trkpt lat="45.4999717" lon="8.7279567"><ele>127.39999999999999</ele><time>2026-04-12T08:20:30.893Z</time></trkpt><trkpt lat="45.50002" lon="8.727805"><ele>127.0</ele><time>2026-04-12T08:20:32.894Z</time></trkpt><trkpt lat="45.5000933" lon="8.727695"><ele>127.8</ele><time>2026-04-12T08:20:34.893Z</time></trkpt><trkpt lat="45.5001817" lon="8.727605"><ele>128.6</ele><time>2026-04-12T08:20:36.893Z</time></trkpt><trkpt lat="45.5002683" lon="8.727535"><ele>129.39999999999998</ele><time>2026-04-12T08:20:38.893Z</time></trkpt><trkpt lat="45.50035" lon="8.7274767"><ele>130.2</ele><time>2026-04-12T08:20:40.893Z</time></trkpt><trkpt lat="45.50043" lon="8.7274033"><ele>131.0</ele><time>2026-04-12T08:20:42.893Z</time></trkpt><trkpt lat="45.5005183" lon="8.7273467"><ele>131.4</ele><time>2026-04-12T08:20:44.893Z</time></trkpt><trkpt lat="45.5005967" lon="8.72727"><ele>131.8</ele><time>2026-04-12T08:20:46.893Z</time></trkpt><trkpt lat="45.5006783" lon="8.727185"><ele>132.20000000000002</ele><time>2026-04-12T08:20:48.893Z</time></trkpt><trkpt lat="45.5007533" lon="8.7270933"><ele>132.6</ele><time>2026-04-12T08:20:50.893Z</time></trkpt><trkpt lat="45.500805" lon="8.72697"><ele>133.0</ele><time>2026-04-12T08:20:52.894Z</time></trkpt><trkpt lat="45.5008467" lon="8.7268333"><ele>133.0</ele><time>2026-04-12T08:20:54.893Z</time></trkpt><trkpt lat="45.5008817" lon="8.7267133"><ele>133.0</ele><time>2026-04-12T08:20:56.893Z</time></trkpt><trkpt lat="45.5009167" lon="8.7265883"><ele>133.0</ele><time>2026-04-12T08:20:58.893Z</time></trkpt><trkpt lat="45.5009467" lon="8.72646"><ele>133.0</ele><time>2026-04-12T08:21:00.893Z</time></trkpt><trkpt lat="45.500955" lon="8.7263317"><ele>133.0</ele><time>2026-04-12T08:21:02.893Z</time></trkpt><trkpt lat="45.50094" lon="8.7262017"><ele>133.0</ele><time>2026-04-12T08:21:04.893Z</time></trkpt><trkpt lat="45.5009033" lon="8.726085"><ele>133.0</ele><time>2026-04-12T08:21:06.893Z</time></trkpt><trkpt lat="45.5008767" lon="8.7259717"><ele>133.0</ele><time>2026-04-12T08:21:08.893Z</time></trkpt><trkpt lat="45.500845" lon="8.7258633"><ele>133.0</ele><time>2026-04-12T08:21:10.893Z</time></trkpt><trkpt lat="45.5008017" lon="8.72575"><ele>133.0</ele><time>2026-04-12T08:21:12.893Z</time></trkpt><trkpt lat="45.5007583" lon="8.72563"><ele>133.0</ele><time>2026-04-12T08:21:14.893Z</time></trkpt><trkpt lat="45.500715" lon="8.72551"><ele>133.4</ele><time>2026-04-12T08:21:16.893Z</time></trkpt><trkpt lat="45.5006683" lon="8.7253867"><ele>133.8</ele><time>2026-04-12T08:21:18.893Z</time></trkpt><trkpt lat="45.5006217" lon="8.72525"><ele>134.2</ele><time>2026-04-12T08:21:20.894Z</time></trkpt><trkpt lat="45.5005817" lon="8.7251217"><ele>134.6</ele><time>2026-04-12T08:21:22.893Z</time></trkpt><trkpt lat="45.5005517" lon="8.72502"><ele>135.0</ele><time>2026-04-12T08:21:24.893Z</time></trkpt><trkpt lat="45.5006283" lon="8.7249817"><ele>135.16666666666666</ele><time>2026-04-12T08:21:27.893Z</time></trkpt><trkpt lat="45.5007017" lon="8.72499"><ele>135.33333333333334</ele><time>2026-04-12T08:21:29.894Z</time></trkpt><trkpt lat="45.5007733" lon="8.7249833"><ele>135.5</ele><time>2026-04-12T08:21:31.893Z</time></trkpt><trkpt lat="45.5008567" lon="8.7249817"><ele>135.66666666666669</ele><time>2026-04-12T08:21:33.893Z</time></trkpt><trkpt lat="45.50095" lon="8.724985"><ele>135.83333333333334</ele><time>2026-04-12T08:21:35.893Z</time></trkpt><trkpt lat="45.5010333" lon="8.7249633"><ele>136.0</ele><time>2026-04-12T08:21:37.893Z</time></trkpt><trkpt lat="45.5011017" lon="8.7249383"><ele>136.0</ele><time>2026-04-12T08:21:39.893Z</time></trkpt><trkpt lat="45.5011667" lon="8.724875"><ele>136.0</ele><time>2026-04-12T08:21:41.893Z</time></trkpt><trkpt lat="45.5011967" lon="8.72475"><ele>136.0</ele><time>2026-04-12T08:21:43.893Z</time></trkpt><trkpt lat="45.5012233" lon="8.7246417"><ele>136.0</ele><time>2026-04-12T08:21:45.893Z</time></trkpt><trkpt lat="45.501245" lon="8.7245117"><ele>136.0</ele><time>2026-04-12T08:21:47.893Z</time></trkpt><trkpt lat="45.5012917" lon="8.7243883"><ele>136.0</ele><time>2026-04-12T08:21:49.893Z</time></trkpt><trkpt lat="45.5013567" lon="8.7243217"><ele>135.83333333333334</ele><time>2026-04-12T08:21:51.893Z</time></trkpt><trkpt lat="45.5014417" lon="8.72429"><ele>135.66666666666669</ele><time>2026-04-12T08:21:53.893Z</time></trkpt><trkpt lat="45.5015267" lon="8.7242533"><ele>135.5</ele><time>2026-04-12T08:21:55.893Z</time></trkpt><trkpt lat="45.5016133" lon="8.72424"><ele>135.33333333333334</ele><time>2026-04-12T08:21:57.893Z</time></trkpt><trkpt lat="45.5017083" lon="8.7242217"><ele>135.16666666666666</ele><time>2026-04-12T08:21:59.893Z</time></trkpt><trkpt lat="45.5017967" lon="8.7242317"><ele>135.0</ele><time>2026-04-12T08:22:01.894Z</time></trkpt><trkpt lat="45.5018833" lon="8.7242333"><ele>135.0</ele><time>2026-04-12T08:22:03.893Z</time></trkpt><trkpt lat="45.50196" lon="8.7241883"><ele>135.0</ele><time>2026-04-12T08:22:05.893Z</time></trkpt><trkpt lat="45.5020517" lon="8.7241383"><ele>135.0</ele><time>2026-04-12T08:22:07.893Z</time></trkpt><trkpt lat="45.5021333" lon="8.7240933"><ele>135.0</ele><time>2026-04-12T08:22:09.893Z</time></trkpt><trkpt lat="45.5022267" lon="8.724055"><ele>135.0</ele><time>2026-04-12T08:22:11.893Z</time></trkpt><trkpt lat="45.5023067" lon="8.724015"><ele>134.66666666666666</ele><time>2026-04-12T08:22:13.893Z</time></trkpt><trkpt lat="45.5023783" lon="8.7239717"><ele>134.33333333333334</ele><time>2026-04-12T08:22:15.894Z</time></trkpt><trkpt lat="45.5024517" lon="8.723945"><ele>134.0</ele><time>2026-04-12T08:22:17.893Z</time></trkpt><trkpt lat="45.50251" lon="8.7238967"><ele>133.66666666666669</ele><time>2026-04-12T08:22:19.893Z</time></trkpt><trkpt lat="45.5025717" lon="8.7238417"><ele>133.33333333333334</ele><time>2026-04-12T08:22:21.893Z</time></trkpt><trkpt lat="45.5026417" lon="8.7237783"><ele>133.0</ele><time>2026-04-12T08:22:23.894Z</time></trkpt><trkpt lat="45.502705" lon="8.7236933"><ele>133.0</ele><time>2026-04-12T08:22:25.893Z</time></trkpt><trkpt lat="45.502775" lon="8.7235983"><ele>133.0</ele><time>2026-04-12T08:22:27.893Z</time></trkpt><trkpt lat="45.502855" lon="8.7234883"><ele>133.0</ele><time>2026-04-12T08:22:29.893Z</time></trkpt><trkpt lat="45.50295" lon="8.7233783"><ele>133.0</ele><time>2026-04-12T08:22:31.893Z</time></trkpt><trkpt lat="45.5030483" lon="8.7232783"><ele>132.8</ele><time>2026-04-12T08:22:33.893Z</time></trkpt><trkpt lat="45.5031367" lon="8.723195"><ele>132.60000000000002</ele><time>2026-04-12T08:22:35.893Z</time></trkpt><trkpt lat="45.503225" lon="8.7231483"><ele>132.39999999999998</ele><time>2026-04-12T08:22:37.893Z</time></trkpt><trkpt lat="45.5033117" lon="8.7230633"><ele>132.2</ele><time>2026-04-12T08:22:39.894Z</time></trkpt><trkpt lat="45.5034033" lon="8.7229917"><ele>132.0</ele><time>2026-04-12T08:22:41.893Z</time></trkpt><trkpt lat="45.5034583" lon="8.722945"><ele>132.0</ele><time>2026-04-12T08:22:42.893Z</time></trkpt><trkpt lat="45.5035167" lon="8.7229083"><ele>132.0</ele><time>2026-04-12T08:22:43.893Z</time></trkpt><trkpt lat="45.5036117" lon="8.7228467"><ele>132.0</ele><time>2026-04-12T08:22:45.893Z</time></trkpt><trkpt lat="45.5037017" lon="8.722785"><ele>132.0</ele><time>2026-04-12T08:22:47.893Z</time></trkpt><trkpt lat="45.50378" lon="8.7227317"><ele>132.0</ele><time>2026-04-12T08:22:49.893Z</time></trkpt><trkpt lat="45.50385" lon="8.7226967"><ele>132.0</ele><time>2026-04-12T08:22:51.893Z</time></trkpt><trkpt lat="45.5039417" lon="8.722655"><ele>132.2</ele><time>2026-04-12T08:22:53.893Z</time></trkpt><trkpt lat="45.5040283" lon="8.7226017"><ele>132.39999999999998</ele><time>2026-04-12T08:22:55.893Z</time></trkpt><trkpt lat="45.5041183" lon="8.722575"><ele>132.60000000000002</ele><time>2026-04-12T08:22:57.893Z</time></trkpt><trkpt lat="45.5042" lon="8.722525"><ele>132.8</ele><time>2026-04-12T08:22:59.893Z</time></trkpt><trkpt lat="45.504285" lon="8.722475"><ele>133.0</ele><time>2026-04-12T08:23:01.893Z</time></trkpt><trkpt lat="45.5043767" lon="8.7224217"><ele>133.0</ele><time>2026-04-12T08:23:03.893Z</time></trkpt><trkpt lat="45.5044567" lon="8.72236"><ele>133.0</ele><time>2026-04-12T08:23:05.893Z</time></trkpt><trkpt lat="45.504525" lon="8.722285"><ele>133.0</ele><time>2026-04-12T08:23:07.893Z</time></trkpt><trkpt lat="45.5046" lon="8.7221967"><ele>133.0</ele><time>2026-04-12T08:23:09.893Z</time></trkpt><trkpt lat="45.50467" lon="8.7220983"><ele>133.0</ele><time>2026-04-12T08:23:11.893Z</time></trkpt><trkpt lat="45.5047333" lon="8.722015"><ele>132.8</ele><time>2026-04-12T08:23:13.893Z</time></trkpt><trkpt lat="45.5048067" lon="8.72195"><ele>132.60000000000002</ele><time>2026-04-12T08:23:15.893Z</time></trkpt><trkpt lat="45.5048883" lon="8.7218633"><ele>132.39999999999998</ele><time>2026-04-12T08:23:17.893Z</time></trkpt><trkpt lat="45.5049667" lon="8.7217617"><ele>132.2</ele><time>2026-04-12T08:23:19.893Z</time></trkpt><trkpt lat="45.5050367" lon="8.7216567"><ele>132.0</ele><time>2026-04-12T08:23:21.893Z</time></trkpt><trkpt lat="45.5051083" lon="8.7215617"><ele>132.0</ele><time>2026-04-12T08:23:23.893Z</time></trkpt><trkpt lat="45.505195" lon="8.72148"><ele>132.0</ele><time>2026-04-12T08:23:25.893Z</time></trkpt><trkpt lat="45.5053" lon="8.7214117"><ele>132.0</ele><time>2026-04-12T08:23:27.893Z</time></trkpt><trkpt lat="45.5054017" lon="8.72136"><ele>132.0</ele><time>2026-04-12T08:23:29.893Z</time></trkpt><trkpt lat="45.505495" lon="8.7213167"><ele>132.0</ele><time>2026-04-12T08:23:31.893Z</time></trkpt><trkpt lat="45.505595" lon="8.7212617"><ele>132.0</ele><time>2026-04-12T08:23:33.893Z</time></trkpt><trkpt lat="45.5056767" lon="8.7212283"><ele>132.0</ele><time>2026-04-12T08:23:35.893Z</time></trkpt><trkpt lat="45.5057567" lon="8.72119"><ele>132.0</ele><time>2026-04-12T08:23:37.893Z</time></trkpt><trkpt lat="45.5058383" lon="8.721165"><ele>132.0</ele><time>2026-04-12T08:23:39.893Z</time></trkpt><trkpt lat="45.5059433" lon="8.7211317"><ele>132.0</ele><time>2026-04-12T08:23:41.893Z</time></trkpt><trkpt lat="45.50604" lon="8.7211083"><ele>132.0</ele><time>2026-04-12T08:23:43.893Z</time></trkpt><trkpt lat="45.506145" lon="8.72107"><ele>132.0</ele><time>2026-04-12T08:23:45.893Z</time></trkpt><trkpt lat="45.5062333" lon="8.72102"><ele>132.0</ele><time>2026-04-12T08:23:47.893Z</time></trkpt><trkpt lat="45.50633" lon="8.720975"><ele>132.0</ele><time>2026-04-12T08:23:49.893Z</time></trkpt><trkpt lat="45.5064117" lon="8.7209383"><ele>132.0</ele><time>2026-04-12T08:23:51.893Z</time></trkpt><trkpt lat="45.506495" lon="8.7208733"><ele>131.6</ele><time>2026-04-12T08:23:53.893Z</time></trkpt><trkpt lat="45.5065767" lon="8.7208317"><ele>131.2</ele><time>2026-04-12T08:23:55.893Z</time></trkpt><trkpt lat="45.5066483" lon="8.72079"><ele>130.8</ele><time>2026-04-12T08:23:57.893Z</time></trkpt><trkpt lat="45.5067167" lon="8.7207367"><ele>130.4</ele><time>2026-04-12T08:23:59.893Z</time></trkpt><trkpt lat="45.50681" lon="8.7206667"><ele>130.0</ele><time>2026-04-12T08:24:01.893Z</time></trkpt><trkpt lat="45.50691" lon="8.72061"><ele>130.0</ele><time>2026-04-12T08:24:03.893Z</time></trkpt><trkpt lat="45.506995" lon="8.7205433"><ele>130.0</ele><time>2026-04-12T08:24:05.893Z</time></trkpt><trkpt lat="45.50709" lon="8.7204767"><ele>130.0</ele><time>2026-04-12T08:24:07.893Z</time></trkpt><trkpt lat="45.507165" lon="8.7204017"><ele>130.0</ele><time>2026-04-12T08:24:09.894Z</time></trkpt><trkpt lat="45.5072367" lon="8.7203083"><ele>130.0</ele><time>2026-04-12T08:24:11.893Z</time></trkpt><trkpt lat="45.5073" lon="8.7202033"><ele>130.16666666666669</ele><time>2026-04-12T08:24:13.894Z</time></trkpt><trkpt lat="45.5073683" lon="8.72012"><ele>130.33333333333334</ele><time>2026-04-12T08:24:15.893Z</time></trkpt><trkpt lat="45.5074367" lon="8.7200417"><ele>130.5</ele><time>2026-04-12T08:24:17.893Z</time></trkpt><trkpt lat="45.5075067" lon="8.719955"><ele>130.66666666666666</ele><time>2026-04-12T08:24:19.893Z</time></trkpt><trkpt lat="45.5075767" lon="8.7198817"><ele>130.83333333333331</ele><time>2026-04-12T08:24:21.893Z</time></trkpt><trkpt lat="45.5076433" lon="8.719815"><ele>131.0</ele><time>2026-04-12T08:24:23.893Z</time></trkpt><trkpt lat="45.5077267" lon="8.7197533"><ele>131.0</ele><time>2026-04-12T08:24:25.893Z</time></trkpt><trkpt lat="45.5077983" lon="8.7197083"><ele>131.0</ele><time>2026-04-12T08:24:27.893Z</time></trkpt><trkpt lat="45.5078517" lon="8.7196583"><ele>131.0</ele><time>2026-04-12T08:24:29.894Z</time></trkpt><trkpt lat="45.5079367" lon="8.71961"><ele>131.0</ele><time>2026-04-12T08:24:32.893Z</time></trkpt><trkpt lat="45.508" lon="8.71962"><ele>131.0</ele><time>2026-04-12T08:24:34.893Z</time></trkpt><trkpt lat="45.5080683" lon="8.7196083"><ele>131.0</ele><time>2026-04-12T08:24:36.893Z</time></trkpt><trkpt lat="45.5081567" lon="8.71962"><ele>130.83333333333331</ele><time>2026-04-12T08:24:39.894Z</time></trkpt><trkpt lat="45.5082117" lon="8.719685"><ele>130.66666666666666</ele><time>2026-04-12T08:24:41.893Z</time></trkpt><trkpt lat="45.5082783" lon="8.7197433"><ele>130.5</ele><time>2026-04-12T08:24:43.893Z</time></trkpt><trkpt lat="45.5083367" lon="8.719815"><ele>130.33333333333334</ele><time>2026-04-12T08:24:45.893Z</time></trkpt><trkpt lat="45.5083983" lon="8.7198717"><ele>130.16666666666669</ele><time>2026-04-12T08:24:47.893Z</time></trkpt><trkpt lat="45.5084617" lon="8.7199267"><ele>130.0</ele><time>2026-04-12T08:24:49.894Z</time></trkpt><trkpt lat="45.508535" lon="8.71999"><ele>130.0</ele><time>2026-04-12T08:24:51.893Z</time></trkpt><trkpt lat="45.50861" lon="8.72005"><ele>130.0</ele><time>2026-04-12T08:24:53.893Z</time></trkpt><trkpt lat="45.5086883" lon="8.72013"><ele>130.0</ele><time>2026-04-12T08:24:55.893Z</time></trkpt><trkpt lat="45.5087567" lon="8.7201767"><ele>130.0</ele><time>2026-04-12T08:24:57.893Z</time></trkpt><trkpt lat="45.5088333" lon="8.7202417"><ele>130.0</ele><time>2026-04-12T08:24:59.893Z</time></trkpt><trkpt lat="45.5088983" lon="8.720315"><ele>130.0</ele><time>2026-04-12T08:25:01.893Z</time></trkpt><trkpt lat="45.5089683" lon="8.72039"><ele>130.5</ele><time>2026-04-12T08:25:03.893Z</time></trkpt><trkpt lat="45.5090417" lon="8.720465"><ele>131.0</ele><time>2026-04-12T08:25:05.892Z</time></trkpt><trkpt lat="45.50911" lon="8.720525"><ele>131.5</ele><time>2026-04-12T08:25:07.892Z</time></trkpt><trkpt lat="45.5091833" lon="8.7205983"><ele>132.0</ele><time>2026-04-12T08:25:09.892Z</time></trkpt><trkpt lat="45.509245" lon="8.7206567"><ele>132.5</ele><time>2026-04-12T08:25:11.892Z</time></trkpt><trkpt lat="45.5093133" lon="8.7207433"><ele>133.0</ele><time>2026-04-12T08:25:14.892Z</time></trkpt><trkpt lat="45.5093533" lon="8.720845"><ele>133.0</ele><time>2026-04-12T08:25:17.892Z</time></trkpt><trkpt lat="45.5094017" lon="8.72093"><ele>133.0</ele><time>2026-04-12T08:25:20.892Z</time></trkpt><trkpt lat="45.50946" lon="8.7210133"><ele>133.0</ele><time>2026-04-12T08:25:22.892Z</time></trkpt><trkpt lat="45.5095167" lon="8.7210717"><ele>133.0</ele><time>2026-04-12T08:25:24.892Z</time></trkpt><trkpt lat="45.5095567" lon="8.72116"><ele>133.0</ele><time>2026-04-12T08:25:26.892Z</time></trkpt><trkpt lat="45.5095467" lon="8.7212917"><ele>133.0</ele><time>2026-04-12T08:25:28.892Z</time></trkpt><trkpt lat="45.50945" lon="8.72133"><ele>133.0</ele><time>2026-04-12T08:25:30.892Z</time></trkpt><trkpt lat="45.50939" lon="8.7213017"><ele>133.0</ele><time>2026-04-12T08:25:31.893Z</time></trkpt><trkpt lat="45.5092983" lon="8.72122"><ele>133.0</ele><time>2026-04-12T08:25:33.892Z</time></trkpt><trkpt lat="45.5091983" lon="8.7211733"><ele>133.0</ele><time>2026-04-12T08:25:35.893Z</time></trkpt><trkpt lat="45.5090983" lon="8.7212183"><ele>133.0</ele><time>2026-04-12T08:25:37.892Z</time></trkpt><trkpt lat="45.509005" lon="8.7213217"><ele>133.0</ele><time>2026-04-12T08:25:39.892Z</time></trkpt><trkpt lat="45.508935" lon="8.721435"><ele>133.0</ele><time>2026-04-12T08:25:41.892Z</time></trkpt><trkpt lat="45.5088917" lon="8.7215433"><ele>133.0</ele><time>2026-04-12T08:25:43.892Z</time></trkpt><trkpt lat="45.5088283" lon="8.7216667"><ele>133.0</ele><time>2026-04-12T08:25:45.892Z</time></trkpt><trkpt lat="45.5087833" lon="8.7217883"><ele>133.0</ele><time>2026-04-12T08:25:47.893Z</time></trkpt><trkpt lat="45.5087383" lon="8.7219133"><ele>132.8</ele><time>2026-04-12T08:25:49.892Z</time></trkpt><trkpt lat="45.508705" lon="8.7220267"><ele>132.60000000000002</ele><time>2026-04-12T08:25:51.892Z</time></trkpt><trkpt lat="45.5086867" lon="8.7221617"><ele>132.39999999999998</ele><time>2026-04-12T08:25:53.892Z</time></trkpt><trkpt lat="45.508675" lon="8.7223117"><ele>132.2</ele><time>2026-04-12T08:25:55.892Z</time></trkpt><trkpt lat="45.5086517" lon="8.7224317"><ele>132.0</ele><time>2026-04-12T08:25:57.892Z</time></trkpt><trkpt lat="45.508645" lon="8.7225717"><ele>132.0</ele><time>2026-04-12T08:25:59.892Z</time></trkpt><trkpt lat="45.5086383" lon="8.722715"><ele>132.0</ele><time>2026-04-12T08:26:01.893Z</time></trkpt><trkpt lat="45.5086283" lon="8.7228583"><ele>132.0</ele><time>2026-04-12T08:26:03.892Z</time></trkpt><trkpt lat="45.5086383" lon="8.7230167"><ele>132.0</ele><time>2026-04-12T08:26:05.892Z</time></trkpt><trkpt lat="45.5086233" lon="8.723165"><ele>132.0</ele><time>2026-04-12T08:26:07.892Z</time></trkpt><trkpt lat="45.5085967" lon="8.723295"><ele>132.0</ele><time>2026-04-12T08:26:09.892Z</time></trkpt><trkpt lat="45.5085717" lon="8.723435"><ele>132.0</ele><time>2026-04-12T08:26:11.892Z</time></trkpt><trkpt lat="45.5085233" lon="8.72357"><ele>132.0</ele><time>2026-04-12T08:26:13.892Z</time></trkpt><trkpt lat="45.50846" lon="8.7236767"><ele>132.0</ele><time>2026-04-12T08:26:15.892Z</time></trkpt><trkpt lat="45.5084583" lon="8.7237917"><ele>132.0</ele><time>2026-04-12T08:26:17.892Z</time></trkpt><trkpt lat="45.5085117" lon="8.7238883"><ele>132.0</ele><time>2026-04-12T08:26:19.892Z</time></trkpt><trkpt lat="45.5085683" lon="8.7239883"><ele>132.0</ele><time>2026-04-12T08:26:21.892Z</time></trkpt><trkpt lat="45.50862" lon="8.7240983"><ele>132.0</ele><time>2026-04-12T08:26:23.892Z</time></trkpt><trkpt lat="45.5086633" lon="8.7242"><ele>132.0</ele><time>2026-04-12T08:26:25.892Z</time></trkpt><trkpt lat="45.5086933" lon="8.7243117"><ele>132.0</ele><time>2026-04-12T08:26:27.892Z</time></trkpt><trkpt lat="45.5087117" lon="8.724445"><ele>132.0</ele><time>2026-04-12T08:26:29.892Z</time></trkpt><trkpt lat="45.508705" lon="8.7245767"><ele>132.0</ele><time>2026-04-12T08:26:31.892Z</time></trkpt><trkpt lat="45.5087217" lon="8.7247233"><ele>132.0</ele><time>2026-04-12T08:26:33.893Z</time></trkpt><trkpt lat="45.5087333" lon="8.724855"><ele>132.0</ele><time>2026-04-12T08:26:35.892Z</time></trkpt><trkpt lat="45.5087183" lon="8.7249833"><ele>132.0</ele><time>2026-04-12T08:26:37.892Z</time></trkpt><trkpt lat="45.50869" lon="8.725095"><ele>132.0</ele><time>2026-04-12T08:26:39.892Z</time></trkpt><trkpt lat="45.5086567" lon="8.7252433"><ele>133.0</ele><time>2026-04-12T08:26:41.892Z</time></trkpt><trkpt lat="45.5086567" lon="8.725395"><ele>134.0</ele><time>2026-04-12T08:26:43.893Z</time></trkpt><trkpt lat="45.5086617" lon="8.7255367"><ele>135.0</ele><time>2026-04-12T08:26:45.892Z</time></trkpt><trkpt lat="45.5086583" lon="8.725665"><ele>136.0</ele><time>2026-04-12T08:26:47.892Z</time></trkpt><trkpt lat="45.5086433" lon="8.7258"><ele>137.0</ele><time>2026-04-12T08:26:49.893Z</time></trkpt><trkpt lat="45.5086267" lon="8.7259317"><ele>137.0</ele><time>2026-04-12T08:26:51.892Z</time></trkpt><trkpt lat="45.5086233" lon="8.72608"><ele>137.0</ele><time>2026-04-12T08:26:53.892Z</time></trkpt><trkpt lat="45.50865" lon="8.72623"><ele>137.0</ele><time>2026-04-12T08:26:55.892Z</time></trkpt><trkpt lat="45.508695" lon="8.7263567"><ele>137.0</ele><time>2026-04-12T08:26:57.892Z</time></trkpt><trkpt lat="45.5087483" lon="8.7264783"><ele>137.0</ele><time>2026-04-12T08:26:59.892Z</time></trkpt><trkpt lat="45.50881" lon="8.7265917"><ele>137.0</ele><time>2026-04-12T08:27:01.892Z</time></trkpt><trkpt lat="45.508855" lon="8.7267133"><ele>137.0</ele><time>2026-04-12T08:27:03.892Z</time></trkpt><trkpt lat="45.5088767" lon="8.72684"><ele>137.0</ele><time>2026-04-12T08:27:05.892Z</time></trkpt><trkpt lat="45.50887" lon="8.7269767"><ele>137.0</ele><time>2026-04-12T08:27:07.892Z</time></trkpt><trkpt lat="45.5088533" lon="8.72711"><ele>137.0</ele><time>2026-04-12T08:27:09.892Z</time></trkpt><trkpt lat="45.5088333" lon="8.72724"><ele>137.0</ele><time>2026-04-12T08:27:11.892Z</time></trkpt><trkpt lat="45.5088217" lon="8.7273883"><ele>137.0</ele><time>2026-04-12T08:27:13.892Z</time></trkpt><trkpt lat="45.5088017" lon="8.72751"><ele>137.0</ele><time>2026-04-12T08:27:15.892Z</time></trkpt><trkpt lat="45.5087767" lon="8.7276533"><ele>137.0</ele><time>2026-04-12T08:27:17.892Z</time></trkpt><trkpt lat="45.5087467" lon="8.7278033"><ele>137.0</ele><time>2026-04-12T08:27:19.892Z</time></trkpt><trkpt lat="45.508715" lon="8.7279583"><ele>136.79999999999998</ele><time>2026-04-12T08:27:21.892Z</time></trkpt><trkpt lat="45.5086883" lon="8.7280433"><ele>136.6</ele><time>2026-04-12T08:27:22.892Z</time></trkpt><trkpt lat="45.508645" lon="8.728195"><ele>136.39999999999998</ele><time>2026-04-12T08:27:24.892Z</time></trkpt><trkpt lat="45.5086133" lon="8.7283433"><ele>136.2</ele><time>2026-04-12T08:27:26.892Z</time></trkpt><trkpt lat="45.5086167" lon="8.7285033"><ele>136.0</ele><time>2026-04-12T08:27:28.892Z</time></trkpt><trkpt lat="45.5086317" lon="8.7286483"><ele>136.6</ele><time>2026-04-12T08:27:30.892Z</time></trkpt><trkpt lat="45.5086467" lon="8.7288017"><ele>137.2</ele><time>2026-04-12T08:27:32.892Z</time></trkpt><trkpt lat="45.508675" lon="8.7289533"><ele>137.8</ele><time>2026-04-12T08:27:34.893Z</time></trkpt><trkpt lat="45.5087083" lon="8.7290917"><ele>138.4</ele><time>2026-04-12T08:27:36.892Z</time></trkpt><trkpt lat="45.5087133" lon="8.72924"><ele>139.0</ele><time>2026-04-12T08:27:38.892Z</time></trkpt><trkpt lat="45.5086867" lon="8.7293717"><ele>138.6</ele><time>2026-04-12T08:27:40.892Z</time></trkpt><trkpt lat="45.5086583" lon="8.7294983"><ele>138.2</ele><time>2026-04-12T08:27:42.892Z</time></trkpt><trkpt lat="45.5086367" lon="8.729645"><ele>137.79999999999998</ele><time>2026-04-12T08:27:44.892Z</time></trkpt><trkpt lat="45.5086367" lon="8.729785"><ele>137.4</ele><time>2026-04-12T08:27:46.892Z</time></trkpt><trkpt lat="45.5086367" lon="8.729925"><ele>137.0</ele><time>2026-04-12T08:27:48.892Z</time></trkpt><trkpt lat="45.508625" lon="8.7300517"><ele>137.0</ele><time>2026-04-12T08:27:50.892Z</time></trkpt><trkpt lat="45.5086233" lon="8.7302"><ele>137.0</ele><time>2026-04-12T08:27:52.892Z</time></trkpt><trkpt lat="45.5086167" lon="8.730345"><ele>137.0</ele><time>2026-04-12T08:27:54.892Z</time></trkpt><trkpt lat="45.5085983" lon="8.73049"><ele>137.0</ele><time>2026-04-12T08:27:56.892Z</time></trkpt><trkpt lat="45.508585" lon="8.730635"><ele>137.0</ele><time>2026-04-12T08:27:58.892Z</time></trkpt><trkpt lat="45.50857" lon="8.7308017"><ele>136.79999999999998</ele><time>2026-04-12T08:28:00.893Z</time></trkpt><trkpt lat="45.5085833" lon="8.7309667"><ele>136.6</ele><time>2026-04-12T08:28:02.892Z</time></trkpt><trkpt lat="45.5086167" lon="8.7310933"><ele>136.39999999999998</ele><time>2026-04-12T08:28:04.892Z</time></trkpt><trkpt lat="45.5086783" lon="8.7312233"><ele>136.2</ele><time>2026-04-12T08:28:06.892Z</time></trkpt><trkpt lat="45.508765" lon="8.7313517"><ele>136.0</ele><time>2026-04-12T08:28:08.892Z</time></trkpt><trkpt lat="45.5088433" lon="8.73145"><ele>136.4</ele><time>2026-04-12T08:28:10.892Z</time></trkpt><trkpt lat="45.5089117" lon="8.73153"><ele>136.8</ele><time>2026-04-12T08:28:12.892Z</time></trkpt><trkpt lat="45.508975" lon="8.7316"><ele>137.20000000000002</ele><time>2026-04-12T08:28:14.892Z</time></trkpt><trkpt lat="45.509055" lon="8.7316467"><ele>137.6</ele><time>2026-04-12T08:28:16.892Z</time></trkpt><trkpt lat="45.5091367" lon="8.7317117"><ele>138.0</ele><time>2026-04-12T08:28:18.892Z</time></trkpt><trkpt lat="45.50922" lon="8.7318033"><ele>137.8</ele><time>2026-04-12T08:28:20.892Z</time></trkpt><trkpt lat="45.509295" lon="8.7319033"><ele>137.60000000000002</ele><time>2026-04-12T08:28:22.892Z</time></trkpt><trkpt lat="45.5093567" lon="8.7320117"><ele>137.39999999999998</ele><time>2026-04-12T08:28:24.892Z</time></trkpt><trkpt lat="45.50939" lon="8.732125"><ele>137.2</ele><time>2026-04-12T08:28:26.892Z</time></trkpt><trkpt lat="45.5094067" lon="8.7322467"><ele>137.0</ele><time>2026-04-12T08:28:28.892Z</time></trkpt><trkpt lat="45.5094167" lon="8.732375"><ele>137.0</ele><time>2026-04-12T08:28:30.892Z</time></trkpt><trkpt lat="45.5094183" lon="8.732505"><ele>137.0</ele><time>2026-04-12T08:28:32.892Z</time></trkpt><trkpt lat="45.50941" lon="8.73262"><ele>137.0</ele><time>2026-04-12T08:28:34.893Z</time></trkpt><trkpt lat="45.5094" lon="8.7327317"><ele>137.0</ele><time>2026-04-12T08:28:36.892Z</time></trkpt><trkpt lat="45.5093967" lon="8.73286"><ele>137.0</ele><time>2026-04-12T08:28:38.892Z</time></trkpt><trkpt lat="45.5093783" lon="8.732995"><ele>137.0</ele><time>2026-04-12T08:28:40.892Z</time></trkpt><trkpt lat="45.5093633" lon="8.7331283"><ele>136.6</ele><time>2026-04-12T08:28:42.893Z</time></trkpt><trkpt lat="45.5093517" lon="8.7332567"><ele>136.2</ele><time>2026-04-12T08:28:44.892Z</time></trkpt><trkpt lat="45.50935" lon="8.73339"><ele>135.8</ele><time>2026-04-12T08:28:46.892Z</time></trkpt><trkpt lat="45.5093583" lon="8.7335217"><ele>135.4</ele><time>2026-04-12T08:28:48.892Z</time></trkpt><trkpt lat="45.5093833" lon="8.7336633"><ele>135.0</ele><time>2026-04-12T08:28:50.892Z</time></trkpt><trkpt lat="45.5094333" lon="8.7337933"><ele>135.0</ele><time>2026-04-12T08:28:52.892Z</time></trkpt><trkpt lat="45.5094667" lon="8.7339117"><ele>135.0</ele><time>2026-04-12T08:28:54.892Z</time></trkpt><trkpt lat="45.5094767" lon="8.73403"><ele>135.0</ele><time>2026-04-12T08:28:56.892Z</time></trkpt><trkpt lat="45.5094733" lon="8.7341667"><ele>135.0</ele><time>2026-04-12T08:28:58.892Z</time></trkpt><trkpt lat="45.509449" lon="8.7343177"><ele>135.0</ele><time>2026-04-12T08:29:01.943Z</time></trkpt><trkpt lat="45.509409" lon="8.7344302"><ele>135.0</ele><time>2026-04-12T08:29:03.858Z</time></trkpt><trkpt lat="45.50937" lon="8.7345373"><ele>135.0</ele><time>2026-04-12T08:29:05.913Z</time></trkpt><trkpt lat="45.5094313" lon="8.734618"><ele>135.0</ele><time>2026-04-12T08:29:06.877Z</time></trkpt><trkpt lat="45.5094433" lon="8.7347102"><ele>135.0</ele><time>2026-04-12T08:29:07.913Z</time></trkpt><trkpt lat="45.5094389" lon="8.7348549"><ele>135.0</ele><time>2026-04-12T08:29:09.913Z</time></trkpt><trkpt lat="45.5094194" lon="8.7349947"><ele>135.0</ele><time>2026-04-12T08:29:11.892Z</time></trkpt><trkpt lat="45.5093989" lon="8.7351084"><ele>135.0</ele><time>2026-04-12T08:29:13.815Z</time></trkpt><trkpt lat="45.5093483" lon="8.73522"><ele>135.0</ele><time>2026-04-12T08:29:16.893Z</time></trkpt><trkpt lat="45.5092767" lon="8.7352583"><ele>135.0</ele><time>2026-04-12T08:29:18.892Z</time></trkpt><trkpt lat="45.5092083" lon="8.7353033"><ele>135.0</ele><time>2026-04-12T08:29:20.892Z</time></trkpt><trkpt lat="45.5091367" lon="8.7353467"><ele>135.0</ele><time>2026-04-12T08:29:22.892Z</time></trkpt><trkpt lat="45.50905" lon="8.735375"><ele>135.0</ele><time>2026-04-12T08:29:24.892Z</time></trkpt><trkpt lat="45.5089467" lon="8.7353983"><ele>135.0</ele><time>2026-04-12T08:29:26.892Z</time></trkpt><trkpt lat="45.5088317" lon="8.7353983"><ele>135.0</ele><time>2026-04-12T08:29:28.892Z</time></trkpt><trkpt lat="45.5087583" lon="8.73539"><ele>135.0</ele><time>2026-04-12T08:29:29.892Z</time></trkpt><trkpt lat="45.50869" lon="8.73538"><ele>135.0</ele><time>2026-04-12T08:29:30.892Z</time></trkpt><trkpt lat="45.5085783" lon="8.7353617"><ele>135.0</ele><time>2026-04-12T08:29:32.892Z</time></trkpt><trkpt lat="45.5084817" lon="8.73536"><ele>134.5</ele><time>2026-04-12T08:29:34.892Z</time></trkpt><trkpt lat="45.508395" lon="8.73539"><ele>134.0</ele><time>2026-04-12T08:29:36.892Z</time></trkpt><trkpt lat="45.5083167" lon="8.73545"><ele>133.5</ele><time>2026-04-12T08:29:38.892Z</time></trkpt><trkpt lat="45.5082383" lon="8.7354967"><ele>133.0</ele><time>2026-04-12T08:29:40.892Z</time></trkpt><trkpt lat="45.5081617" lon="8.73551"><ele>132.5</ele><time>2026-04-12T08:29:42.892Z</time></trkpt><trkpt lat="45.5080733" lon="8.7355367"><ele>132.0</ele><time>2026-04-12T08:29:44.892Z</time></trkpt><trkpt lat="45.5079817" lon="8.735555"><ele>132.16666666666666</ele><time>2026-04-12T08:29:46.892Z</time></trkpt><trkpt lat="45.5078983" lon="8.7356033"><ele>132.33333333333334</ele><time>2026-04-12T08:29:48.892Z</time></trkpt><trkpt lat="45.50781" lon="8.7356383"><ele>132.5</ele><time>2026-04-12T08:29:50.892Z</time></trkpt><trkpt lat="45.507735" lon="8.7356783"><ele>132.66666666666669</ele><time>2026-04-12T08:29:52.892Z</time></trkpt><trkpt lat="45.5076683" lon="8.7357367"><ele>132.83333333333334</ele><time>2026-04-12T08:29:54.892Z</time></trkpt><trkpt lat="45.5075917" lon="8.7358"><ele>133.0</ele><time>2026-04-12T08:29:56.892Z</time></trkpt><trkpt lat="45.50753" lon="8.7358667"><ele>133.0</ele><time>2026-04-12T08:29:58.892Z</time></trkpt><trkpt lat="45.5074717" lon="8.7359383"><ele>133.0</ele><time>2026-04-12T08:30:00.892Z</time></trkpt><trkpt lat="45.50741" lon="8.7360167"><ele>133.0</ele><time>2026-04-12T08:30:02.892Z</time></trkpt><trkpt lat="45.5073533" lon="8.736095"><ele>133.0</ele><time>2026-04-12T08:30:04.892Z</time></trkpt><trkpt lat="45.5072917" lon="8.736175"><ele>133.0</ele><time>2026-04-12T08:30:06.892Z</time></trkpt><trkpt lat="45.507215" lon="8.7362567"><ele>133.0</ele><time>2026-04-12T08:30:09.892Z</time></trkpt><trkpt lat="45.5071483" lon="8.7363267"><ele>133.0</ele><time>2026-04-12T08:30:11.892Z</time></trkpt><trkpt lat="45.5070883" lon="8.7363933"><ele>133.0</ele><time>2026-04-12T08:30:13.892Z</time></trkpt><trkpt lat="45.5070633" lon="8.736495"><ele>133.0</ele><time>2026-04-12T08:30:15.892Z</time></trkpt><trkpt lat="45.5070583" lon="8.73662"><ele>133.0</ele><time>2026-04-12T08:30:17.892Z</time></trkpt><trkpt lat="45.50706" lon="8.7367383"><ele>133.0</ele><time>2026-04-12T08:30:19.892Z</time></trkpt><trkpt lat="45.507035" lon="8.73684"><ele>133.0</ele><time>2026-04-12T08:30:21.892Z</time></trkpt><trkpt lat="45.5069617" lon="8.7368933"><ele>133.0</ele><time>2026-04-12T08:30:23.892Z</time></trkpt><trkpt lat="45.5068817" lon="8.7369083"><ele>133.0</ele><time>2026-04-12T08:30:25.892Z</time></trkpt><trkpt lat="45.5067917" lon="8.736955"><ele>133.0</ele><time>2026-04-12T08:30:27.892Z</time></trkpt><trkpt lat="45.5067367" lon="8.7370517"><ele>133.0</ele><time>2026-04-12T08:30:29.892Z</time></trkpt><trkpt lat="45.5067167" lon="8.7371783"><ele>133.0</ele><time>2026-04-12T08:30:31.892Z</time></trkpt><trkpt lat="45.5067" lon="8.7373083"><ele>133.0</ele><time>2026-04-12T08:30:33.892Z</time></trkpt><trkpt lat="45.5066833" lon="8.7374283"><ele>133.0</ele><time>2026-04-12T08:30:35.892Z</time></trkpt><trkpt lat="45.50667" lon="8.7375583"><ele>133.0</ele><time>2026-04-12T08:30:37.892Z</time></trkpt><trkpt lat="45.50666" lon="8.7376883"><ele>133.0</ele><time>2026-04-12T08:30:39.892Z</time></trkpt><trkpt lat="45.506645" lon="8.73782"><ele>133.0</ele><time>2026-04-12T08:30:41.893Z</time></trkpt><trkpt lat="45.5066533" lon="8.73795"><ele>133.0</ele><time>2026-04-12T08:30:43.893Z</time></trkpt><trkpt lat="45.50666" lon="8.7380833"><ele>133.4</ele><time>2026-04-12T08:30:45.892Z</time></trkpt><trkpt lat="45.50667" lon="8.7382267"><ele>133.8</ele><time>2026-04-12T08:30:47.892Z</time></trkpt><trkpt lat="45.5066833" lon="8.7383483"><ele>134.2</ele><time>2026-04-12T08:30:49.892Z</time></trkpt><trkpt lat="45.5067" lon="8.7384783"><ele>134.6</ele><time>2026-04-12T08:30:51.892Z</time></trkpt><trkpt lat="45.5067067" lon="8.7386"><ele>135.0</ele><time>2026-04-12T08:30:53.892Z</time></trkpt><trkpt lat="45.506725" lon="8.73874"><ele>135.0</ele><time>2026-04-12T08:30:55.892Z</time></trkpt><trkpt lat="45.506735" lon="8.7388767"><ele>135.0</ele><time>2026-04-12T08:30:57.893Z</time></trkpt><trkpt lat="45.5067283" lon="8.7389933"><ele>135.0</ele><time>2026-04-12T08:30:59.893Z</time></trkpt><trkpt lat="45.5067247" lon="8.7391026"><ele>135.0</ele><time>2026-04-12T08:31:01.892Z</time></trkpt><trkpt lat="45.5067198" lon="8.7392413"><ele>135.0</ele><time>2026-04-12T08:31:03.892Z</time></trkpt><trkpt lat="45.506725" lon="8.7393867"><ele>134.83333333333334</ele><time>2026-04-12T08:31:05.892Z</time></trkpt><trkpt lat="45.5067333" lon="8.73952"><ele>134.66666666666666</ele><time>2026-04-12T08:31:07.892Z</time></trkpt><trkpt lat="45.5067467" lon="8.73964"><ele>134.5</ele><time>2026-04-12T08:31:09.892Z</time></trkpt><trkpt lat="45.5067517" lon="8.73977"><ele>134.33333333333331</ele><time>2026-04-12T08:31:11.892Z</time></trkpt><trkpt lat="45.5067633" lon="8.7398833"><ele>134.16666666666666</ele><time>2026-04-12T08:31:13.892Z</time></trkpt><trkpt lat="45.50677" lon="8.7400067"><ele>134.0</ele><time>2026-04-12T08:31:15.893Z</time></trkpt><trkpt lat="45.506775" lon="8.7401317"><ele>134.0</ele><time>2026-04-12T08:31:17.892Z</time></trkpt><trkpt lat="45.506775" lon="8.7402517"><ele>134.0</ele><time>2026-04-12T08:31:19.892Z</time></trkpt><trkpt lat="45.5067367" lon="8.7403717"><ele>134.0</ele><time>2026-04-12T08:31:21.892Z</time></trkpt><trkpt lat="45.5066667" lon="8.740475"><ele>134.0</ele><time>2026-04-12T08:31:23.892Z</time></trkpt><trkpt lat="45.5066033" lon="8.7405833"><ele>134.0</ele><time>2026-04-12T08:31:25.892Z</time></trkpt><trkpt lat="45.5065469" lon="8.7406885"><ele>134.0</ele><time>2026-04-12T08:31:27.892Z</time></trkpt><trkpt lat="45.506502" lon="8.7408061"><ele>134.0</ele><time>2026-04-12T08:31:29.892Z</time></trkpt><trkpt lat="45.5064631" lon="8.7409296"><ele>134.0</ele><time>2026-04-12T08:31:31.892Z</time></trkpt><trkpt lat="45.5064225" lon="8.7410372"><ele>134.0</ele><time>2026-04-12T08:31:33.892Z</time></trkpt><trkpt lat="45.5063781" lon="8.7411268"><ele>134.0</ele><time>2026-04-12T08:31:35.893Z</time></trkpt><trkpt lat="45.5063203" lon="8.7412103"><ele>134.0</ele><time>2026-04-12T08:31:37.892Z</time></trkpt><trkpt lat="45.5062523" lon="8.7412994"><ele>134.0</ele><time>2026-04-12T08:31:39.892Z</time></trkpt><trkpt lat="45.5061783" lon="8.74139"><ele>134.0</ele><time>2026-04-12T08:31:41.892Z</time></trkpt><trkpt lat="45.5061233" lon="8.741455"><ele>134.0</ele><time>2026-04-12T08:31:43.892Z</time></trkpt><trkpt lat="45.5060567" lon="8.7414967"><ele>134.0</ele><time>2026-04-12T08:31:45.892Z</time></trkpt><trkpt lat="45.5059917" lon="8.7415517"><ele>134.0</ele><time>2026-04-12T08:31:47.892Z</time></trkpt><trkpt lat="45.5059267" lon="8.7416333"><ele>134.0</ele><time>2026-04-12T08:31:49.892Z</time></trkpt><trkpt lat="45.5058767" lon="8.7417233"><ele>134.0</ele><time>2026-04-12T08:31:51.892Z</time></trkpt><trkpt lat="45.5058167" lon="8.7418417"><ele>134.0</ele><time>2026-04-12T08:31:53.893Z</time></trkpt><trkpt lat="45.5057733" lon="8.7419667"><ele>134.0</ele><time>2026-04-12T08:31:55.892Z</time></trkpt><trkpt lat="45.505725" lon="8.74209"><ele>134.0</ele><time>2026-04-12T08:31:57.892Z</time></trkpt><trkpt lat="45.505675" lon="8.7421883"><ele>134.0</ele><time>2026-04-12T08:31:59.892Z</time></trkpt><trkpt lat="45.5056067" lon="8.74226"><ele>134.16666666666666</ele><time>2026-04-12T08:32:01.892Z</time></trkpt><trkpt lat="45.5055417" lon="8.7423283"><ele>134.33333333333331</ele><time>2026-04-12T08:32:03.892Z</time></trkpt><trkpt lat="45.5054833" lon="8.74243"><ele>134.5</ele><time>2026-04-12T08:32:05.892Z</time></trkpt><trkpt lat="45.5054167" lon="8.7425283"><ele>134.66666666666666</ele><time>2026-04-12T08:32:07.892Z</time></trkpt><trkpt lat="45.5053567" lon="8.742615"><ele>134.83333333333334</ele><time>2026-04-12T08:32:09.892Z</time></trkpt><trkpt lat="45.5052983" lon="8.74268"><ele>135.0</ele><time>2026-04-12T08:32:11.892Z</time></trkpt><trkpt lat="45.5052217" lon="8.742735"><ele>135.0</ele><time>2026-04-12T08:32:13.893Z</time></trkpt><trkpt lat="45.5051333" lon="8.7427833"><ele>135.0</ele><time>2026-04-12T08:32:15.892Z</time></trkpt><trkpt lat="45.5050733" lon="8.7428767"><ele>135.0</ele><time>2026-04-12T08:32:17.892Z</time></trkpt><trkpt lat="45.5049917" lon="8.7429867"><ele>135.0</ele><time>2026-04-12T08:32:19.892Z</time></trkpt><trkpt lat="45.50493" lon="8.743115"><ele>135.0</ele><time>2026-04-12T08:32:21.892Z</time></trkpt><trkpt lat="45.5048617" lon="8.7432317"><ele>135.0</ele><time>2026-04-12T08:32:23.892Z</time></trkpt><trkpt lat="45.5048133" lon="8.7433283"><ele>135.0</ele><time>2026-04-12T08:32:25.892Z</time></trkpt><trkpt lat="45.504785" lon="8.7434567"><ele>135.0</ele><time>2026-04-12T08:32:27.892Z</time></trkpt><trkpt lat="45.5047633" lon="8.74358"><ele>135.0</ele><time>2026-04-12T08:32:29.892Z</time></trkpt><trkpt lat="45.504735" lon="8.743705"><ele>135.0</ele><time>2026-04-12T08:32:31.892Z</time></trkpt><trkpt lat="45.5047167" lon="8.7437967"><ele>135.0</ele><time>2026-04-12T08:32:33.892Z</time></trkpt><trkpt lat="45.50466" lon="8.743895"><ele>134.83333333333334</ele><time>2026-04-12T08:32:35.892Z</time></trkpt><trkpt lat="45.5046117" lon="8.744"><ele>134.66666666666666</ele><time>2026-04-12T08:32:37.892Z</time></trkpt><trkpt lat="45.5045683" lon="8.74412"><ele>134.5</ele><time>2026-04-12T08:32:39.892Z</time></trkpt><trkpt lat="45.5045283" lon="8.74424"><ele>134.33333333333331</ele><time>2026-04-12T08:32:41.892Z</time></trkpt><trkpt lat="45.5045" lon="8.7443367"><ele>134.16666666666666</ele><time>2026-04-12T08:32:43.892Z</time></trkpt><trkpt lat="45.50447" lon="8.7444333"><ele>134.0</ele><time>2026-04-12T08:32:45.892Z</time></trkpt><trkpt lat="45.5044383" lon="8.7445767"><ele>133.66666666666666</ele><time>2026-04-12T08:32:48.892Z</time></trkpt><trkpt lat="45.5044233" lon="8.7447183"><ele>133.33333333333331</ele><time>2026-04-12T08:32:50.893Z</time></trkpt><trkpt lat="45.5044067" lon="8.74484"><ele>133.0</ele><time>2026-04-12T08:32:52.893Z</time></trkpt><trkpt lat="45.5043783" lon="8.7449567"><ele>132.66666666666666</ele><time>2026-04-12T08:32:54.892Z</time></trkpt><trkpt lat="45.5043533" lon="8.745055"><ele>132.33333333333334</ele><time>2026-04-12T08:32:56.892Z</time></trkpt><trkpt lat="45.504335" lon="8.7451617"><ele>132.0</ele><time>2026-04-12T08:32:58.892Z</time></trkpt><trkpt lat="45.504315" lon="8.7452717"><ele>132.0</ele><time>2026-04-12T08:33:00.892Z</time></trkpt><trkpt lat="45.504285" lon="8.7453883"><ele>132.0</ele><time>2026-04-12T08:33:02.892Z</time></trkpt><trkpt lat="45.504255" lon="8.7455067"><ele>132.0</ele><time>2026-04-12T08:33:04.892Z</time></trkpt><trkpt lat="45.5042233" lon="8.7456083"><ele>132.0</ele><time>2026-04-12T08:33:06.892Z</time></trkpt><trkpt lat="45.5042" lon="8.7457267"><ele>132.0</ele><time>2026-04-12T08:33:08.892Z</time></trkpt><trkpt lat="45.504175" lon="8.745845"><ele>132.0</ele><time>2026-04-12T08:33:10.892Z</time></trkpt><trkpt lat="45.50416" lon="8.7459533"><ele>132.16666666666666</ele><time>2026-04-12T08:33:12.892Z</time></trkpt><trkpt lat="45.5041467" lon="8.7460817"><ele>132.33333333333334</ele><time>2026-04-12T08:33:14.892Z</time></trkpt><trkpt lat="45.504145" lon="8.746225"><ele>132.5</ele><time>2026-04-12T08:33:16.892Z</time></trkpt><trkpt lat="45.50417" lon="8.7463433"><ele>132.66666666666669</ele><time>2026-04-12T08:33:18.893Z</time></trkpt><trkpt lat="45.504195" lon="8.7464583"><ele>132.83333333333334</ele><time>2026-04-12T08:33:20.892Z</time></trkpt><trkpt lat="45.5042167" lon="8.74657"><ele>133.0</ele><time>2026-04-12T08:33:22.891Z</time></trkpt><trkpt lat="45.5042417" lon="8.7466867"><ele>133.0</ele><time>2026-04-12T08:33:24.891Z</time></trkpt><trkpt lat="45.5042733" lon="8.7468117"><ele>133.0</ele><time>2026-04-12T08:33:26.891Z</time></trkpt><trkpt lat="45.504295" lon="8.74693"><ele>133.0</ele><time>2026-04-12T08:33:28.891Z</time></trkpt><trkpt lat="45.5043083" lon="8.7470433"><ele>133.0</ele><time>2026-04-12T08:33:30.891Z</time></trkpt><trkpt lat="45.504315" lon="8.747145"><ele>133.0</ele><time>2026-04-12T08:33:32.891Z</time></trkpt><trkpt lat="45.504305" lon="8.747285"><ele>133.0</ele><time>2026-04-12T08:33:35.891Z</time></trkpt><trkpt lat="45.5043017" lon="8.7473833"><ele>133.0</ele><time>2026-04-12T08:33:37.891Z</time></trkpt><trkpt lat="45.5043033" lon="8.74751"><ele>133.0</ele><time>2026-04-12T08:33:40.891Z</time></trkpt><trkpt lat="45.50432" lon="8.74762"><ele>133.0</ele><time>2026-04-12T08:33:43.891Z</time></trkpt><trkpt lat="45.5043167" lon="8.747735"><ele>133.0</ele><time>2026-04-12T08:33:46.891Z</time></trkpt><trkpt lat="45.5043067" lon="8.74785"><ele>133.0</ele><time>2026-04-12T08:33:49.891Z</time></trkpt><trkpt lat="45.50426" lon="8.74799"><ele>133.0</ele><time>2026-04-12T08:33:52.891Z</time></trkpt><trkpt lat="45.5042483" lon="8.7481"><ele>133.16666666666669</ele><time>2026-04-12T08:33:54.891Z</time></trkpt><trkpt lat="45.50423" lon="8.7482017"><ele>133.33333333333334</ele><time>2026-04-12T08:33:56.891Z</time></trkpt><trkpt lat="45.5042083" lon="8.7483"><ele>133.5</ele><time>2026-04-12T08:33:58.891Z</time></trkpt><trkpt lat="45.5041683" lon="8.7484283"><ele>133.66666666666666</ele><time>2026-04-12T08:34:00.891Z</time></trkpt><trkpt lat="45.5041433" lon="8.7485483"><ele>133.83333333333331</ele><time>2026-04-12T08:34:02.891Z</time></trkpt><trkpt lat="45.5041217" lon="8.74864"><ele>134.0</ele><time>2026-04-12T08:34:04.892Z</time></trkpt><trkpt lat="45.50409" lon="8.7487733"><ele>134.0</ele><time>2026-04-12T08:34:11.891Z</time></trkpt><trkpt lat="45.5040933" lon="8.7488633"><ele>134.0</ele><time>2026-04-12T08:34:14.891Z</time></trkpt><trkpt lat="45.5041033" lon="8.7489967"><ele>134.0</ele><time>2026-04-12T08:34:17.891Z</time></trkpt><trkpt lat="45.5040983" lon="8.7491133"><ele>134.0</ele><time>2026-04-12T08:34:19.891Z</time></trkpt><trkpt lat="45.5040983" lon="8.7492283"><ele>134.0</ele><time>2026-04-12T08:34:21.891Z</time></trkpt><trkpt lat="45.5041017" lon="8.7493517"><ele>134.0</ele><time>2026-04-12T08:34:23.891Z</time></trkpt><trkpt lat="45.5041067" lon="8.7494833"><ele>133.83333333333331</ele><time>2026-04-12T08:34:25.891Z</time></trkpt><trkpt lat="45.5041167" lon="8.7496083"><ele>133.66666666666666</ele><time>2026-04-12T08:34:27.891Z</time></trkpt><trkpt lat="45.5041267" lon="8.7497417"><ele>133.5</ele><time>2026-04-12T08:34:29.891Z</time></trkpt><trkpt lat="45.5041433" lon="8.7498583"><ele>133.33333333333334</ele><time>2026-04-12T08:34:31.891Z</time></trkpt><trkpt lat="45.5041517" lon="8.7499717"><ele>133.16666666666669</ele><time>2026-04-12T08:34:33.891Z</time></trkpt><trkpt lat="45.50416" lon="8.7500783"><ele>133.0</ele><time>2026-04-12T08:34:35.891Z</time></trkpt><trkpt lat="45.504185" lon="8.7501917"><ele>132.5</ele><time>2026-04-12T08:34:37.891Z</time></trkpt><trkpt lat="45.5041817" lon="8.7503267"><ele>132.0</ele><time>2026-04-12T08:34:39.891Z</time></trkpt><trkpt lat="45.5041617" lon="8.750455"><ele>131.5</ele><time>2026-04-12T08:34:41.891Z</time></trkpt><trkpt lat="45.5041683" lon="8.7505617"><ele>131.0</ele><time>2026-04-12T08:34:43.891Z</time></trkpt><trkpt lat="45.5041883" lon="8.75067"><ele>130.5</ele><time>2026-04-12T08:34:45.891Z</time></trkpt><trkpt lat="45.504175" lon="8.7507783"><ele>130.0</ele><time>2026-04-12T08:34:47.891Z</time></trkpt><trkpt lat="45.5041567" lon="8.75088"><ele>130.0</ele><time>2026-04-12T08:34:49.891Z</time></trkpt><trkpt lat="45.504125" lon="8.7509833"><ele>130.0</ele><time>2026-04-12T08:34:51.891Z</time></trkpt><trkpt lat="45.5041017" lon="8.7510967"><ele>130.0</ele><time>2026-04-12T08:34:53.891Z</time></trkpt><trkpt lat="45.5040967" lon="8.7512083"><ele>130.0</ele><time>2026-04-12T08:34:55.891Z</time></trkpt><trkpt lat="45.50408" lon="8.7513367"><ele>130.0</ele><time>2026-04-12T08:34:57.891Z</time></trkpt><trkpt lat="45.50407" lon="8.75148"><ele>130.0</ele><time>2026-04-12T08:34:59.891Z</time></trkpt><trkpt lat="45.504035" lon="8.7516017"><ele>130.16666666666669</ele><time>2026-04-12T08:35:01.891Z</time></trkpt><trkpt lat="45.50398" lon="8.751695"><ele>130.33333333333334</ele><time>2026-04-12T08:35:03.891Z</time></trkpt><trkpt lat="45.50391" lon="8.7517683"><ele>130.5</ele><time>2026-04-12T08:35:05.891Z</time></trkpt><trkpt lat="45.50384" lon="8.7518433"><ele>130.66666666666666</ele><time>2026-04-12T08:35:07.891Z</time></trkpt><trkpt lat="45.5037667" lon="8.7519217"><ele>130.83333333333331</ele><time>2026-04-12T08:35:09.891Z</time></trkpt><trkpt lat="45.5037" lon="8.7520083"><ele>131.0</ele><time>2026-04-12T08:35:11.891Z</time></trkpt><trkpt lat="45.5036517" lon="8.7520767"><ele>130.4</ele><time>2026-04-12T08:35:13.891Z</time></trkpt><trkpt lat="45.5035967" lon="8.7521817"><ele>129.8</ele><time>2026-04-12T08:35:15.891Z</time></trkpt><trkpt lat="45.5035733" lon="8.7523117"><ele>129.20000000000002</ele><time>2026-04-12T08:35:17.891Z</time></trkpt><trkpt lat="45.5035283" lon="8.7524267"><ele>128.6</ele><time>2026-04-12T08:35:19.891Z</time></trkpt><trkpt lat="45.50346" lon="8.7525233"><ele>128.0</ele><time>2026-04-12T08:35:21.891Z</time></trkpt><trkpt lat="45.50338" lon="8.7525983"><ele>128.0</ele><time>2026-04-12T08:35:23.891Z</time></trkpt><trkpt lat="45.5033133" lon="8.752665"><ele>128.0</ele><time>2026-04-12T08:35:25.891Z</time></trkpt><trkpt lat="45.5032467" lon="8.7527567"><ele>128.0</ele><time>2026-04-12T08:35:27.891Z</time></trkpt><trkpt lat="45.5031983" lon="8.7528633"><ele>128.0</ele><time>2026-04-12T08:35:29.891Z</time></trkpt><trkpt lat="45.50314" lon="8.75298"><ele>128.0</ele><time>2026-04-12T08:35:31.891Z</time></trkpt><trkpt lat="45.5031017" lon="8.7531017"><ele>127.66666666666666</ele><time>2026-04-12T08:35:33.891Z</time></trkpt><trkpt lat="45.5030733" lon="8.753225"><ele>127.33333333333333</ele><time>2026-04-12T08:35:35.891Z</time></trkpt><trkpt lat="45.503055" lon="8.7533483"><ele>127.0</ele><time>2026-04-12T08:35:37.891Z</time></trkpt><trkpt lat="45.5030233" lon="8.7534783"><ele>126.66666666666666</ele><time>2026-04-12T08:35:39.891Z</time></trkpt><trkpt lat="45.5029933" lon="8.7535933"><ele>126.33333333333333</ele><time>2026-04-12T08:35:41.891Z</time></trkpt><trkpt lat="45.5029383" lon="8.75369"><ele>126.0</ele><time>2026-04-12T08:35:43.891Z</time></trkpt><trkpt lat="45.5028867" lon="8.7537983"><ele>126.0</ele><time>2026-04-12T08:35:45.891Z</time></trkpt><trkpt lat="45.5028417" lon="8.7538917"><ele>126.0</ele><time>2026-04-12T08:35:47.892Z</time></trkpt><trkpt lat="45.502775" lon="8.75396"><ele>126.0</ele><time>2026-04-12T08:35:49.892Z</time></trkpt><trkpt lat="45.502735" lon="8.7540633"><ele>126.0</ele><time>2026-04-12T08:35:51.891Z</time></trkpt><trkpt lat="45.5026733" lon="8.7541867"><ele>126.0</ele><time>2026-04-12T08:35:53.891Z</time></trkpt><trkpt lat="45.5026417" lon="8.7542683"><ele>126.0</ele><time>2026-04-12T08:35:55.891Z</time></trkpt><trkpt lat="45.5026733" lon="8.7543917"><ele>126.28571428571428</ele><time>2026-04-12T08:35:58.891Z</time></trkpt><trkpt lat="45.5026933" lon="8.7544967"><ele>126.57142857142857</ele><time>2026-04-12T08:36:01.891Z</time></trkpt><trkpt lat="45.5027233" lon="8.7545917"><ele>126.85714285714286</ele><time>2026-04-12T08:36:04.891Z</time></trkpt><trkpt lat="45.5027517" lon="8.7546733"><ele>127.14285714285714</ele><time>2026-04-12T08:36:06.891Z</time></trkpt><trkpt lat="45.5027867" lon="8.7547533"><ele>127.42857142857142</ele><time>2026-04-12T08:36:09.892Z</time></trkpt><trkpt lat="45.5027683" lon="8.7548633"><ele>127.71428571428571</ele><time>2026-04-12T08:36:13.891Z</time></trkpt><trkpt lat="45.5027017" lon="8.7549233"><ele>128.0</ele><time>2026-04-12T08:36:16.891Z</time></trkpt><trkpt lat="45.502625" lon="8.7549617"><ele>128.0</ele><time>2026-04-12T08:36:18.891Z</time></trkpt><trkpt lat="45.502545" lon="8.7550367"><ele>128.0</ele><time>2026-04-12T08:36:20.891Z</time></trkpt><trkpt lat="45.5024733" lon="8.755125"><ele>128.0</ele><time>2026-04-12T08:36:22.891Z</time></trkpt><trkpt lat="45.5024617" lon="8.7552317"><ele>128.0</ele><time>2026-04-12T08:36:24.891Z</time></trkpt><trkpt lat="45.50248" lon="8.7553583"><ele>128.0</ele><time>2026-04-12T08:36:27.891Z</time></trkpt><trkpt lat="45.5024617" lon="8.7554883"><ele>128.66666666666666</ele><time>2026-04-12T08:36:30.891Z</time></trkpt><trkpt lat="45.5024617" lon="8.755595"><ele>129.33333333333331</ele><time>2026-04-12T08:36:32.891Z</time></trkpt><trkpt lat="45.5025017" lon="8.7556683"><ele>130.0</ele><time>2026-04-12T08:36:34.891Z</time></trkpt><trkpt lat="45.502585" lon="8.7557217"><ele>130.66666666666666</ele><time>2026-04-12T08:36:37.892Z</time></trkpt><trkpt lat="45.50266" lon="8.755775"><ele>131.33333333333334</ele><time>2026-04-12T08:36:40.891Z</time></trkpt><trkpt lat="45.5027267" lon="8.755865"><ele>132.0</ele><time>2026-04-12T08:36:43.891Z</time></trkpt><trkpt lat="45.5027917" lon="8.7559567"><ele>132.14285714285714</ele><time>2026-04-12T08:36:46.892Z</time></trkpt><trkpt lat="45.5028283" lon="8.7560433"><ele>132.28571428571428</ele><time>2026-04-12T08:36:49.891Z</time></trkpt><trkpt lat="45.5027833" lon="8.7561067"><ele>132.42857142857144</ele><time>2026-04-12T08:36:51.891Z</time></trkpt><trkpt lat="45.5027367" lon="8.756175"><ele>132.57142857142856</ele><time>2026-04-12T08:36:53.891Z</time></trkpt><trkpt lat="45.5026833" lon="8.7562383"><ele>132.71428571428572</ele><time>2026-04-12T08:36:55.891Z</time></trkpt><trkpt lat="45.502625" lon="8.7562967"><ele>132.85714285714286</ele><time>2026-04-12T08:36:57.891Z</time></trkpt><trkpt lat="45.5025617" lon="8.75634"><ele>133.0</ele><time>2026-04-12T08:36:59.891Z</time></trkpt><trkpt lat="45.502495" lon="8.7563733"><ele>133.0</ele><time>2026-04-12T08:37:01.891Z</time></trkpt><trkpt lat="45.5024283" lon="8.7564217"><ele>133.0</ele><time>2026-04-12T08:37:03.891Z</time></trkpt><trkpt lat="45.5023533" lon="8.7564583"><ele>133.0</ele><time>2026-04-12T08:37:05.891Z</time></trkpt><trkpt lat="45.5022783" lon="8.7564983"><ele>133.0</ele><time>2026-04-12T08:37:07.891Z</time></trkpt><trkpt lat="45.5022" lon="8.7565533"><ele>133.0</ele><time>2026-04-12T08:37:09.891Z</time></trkpt><trkpt lat="45.5021383" lon="8.7566117"><ele>133.0</ele><time>2026-04-12T08:37:11.892Z</time></trkpt><trkpt lat="45.502055" lon="8.7566733"><ele>132.4</ele><time>2026-04-12T08:37:13.891Z</time></trkpt><trkpt lat="45.5019683" lon="8.756745"><ele>131.8</ele><time>2026-04-12T08:37:15.892Z</time></trkpt><trkpt lat="45.5018933" lon="8.7567883"><ele>131.2</ele><time>2026-04-12T08:37:17.891Z</time></trkpt><trkpt lat="45.5018" lon="8.75682"><ele>130.6</ele><time>2026-04-12T08:37:19.891Z</time></trkpt><trkpt lat="45.5017183" lon="8.7568433"><ele>130.0</ele><time>2026-04-12T08:37:21.891Z</time></trkpt><trkpt lat="45.5016333" lon="8.7569083"><ele>130.0</ele><time>2026-04-12T08:37:23.891Z</time></trkpt><trkpt lat="45.5015583" lon="8.7569967"><ele>130.0</ele><time>2026-04-12T08:37:25.891Z</time></trkpt><trkpt lat="45.5015" lon="8.7570983"><ele>130.0</ele><time>2026-04-12T08:37:27.891Z</time></trkpt><trkpt lat="45.5014617" lon="8.7572067"><ele>130.0</ele><time>2026-04-12T08:37:29.891Z</time></trkpt><trkpt lat="45.501415" lon="8.7573033"><ele>130.0</ele><time>2026-04-12T08:37:31.891Z</time></trkpt><trkpt lat="45.5013483" lon="8.7573917"><ele>130.0</ele><time>2026-04-12T08:37:33.891Z</time></trkpt><trkpt lat="45.50129" lon="8.757465"><ele>129.5</ele><time>2026-04-12T08:37:35.891Z</time></trkpt><trkpt lat="45.50124" lon="8.7575555"><ele>129.0</ele><time>2026-04-12T08:37:37.932Z</time></trkpt><trkpt lat="45.501206" lon="8.7576701"><ele>128.5</ele><time>2026-04-12T08:37:39.932Z</time></trkpt><trkpt lat="45.5011687" lon="8.7577638"><ele>128.0</ele><time>2026-04-12T08:37:41.932Z</time></trkpt><trkpt lat="45.5011017" lon="8.7578217"><ele>127.50000000000001</ele><time>2026-04-12T08:37:43.891Z</time></trkpt><trkpt lat="45.5010217" lon="8.7578867"><ele>127.0</ele><time>2026-04-12T08:37:45.891Z</time></trkpt><trkpt lat="45.50094" lon="8.757965"><ele>127.0</ele><time>2026-04-12T08:37:47.891Z</time></trkpt><trkpt lat="45.5008583" lon="8.7580417"><ele>126.99999999999999</ele><time>2026-04-12T08:37:49.891Z</time></trkpt><trkpt lat="45.50078" lon="8.7580883"><ele>126.99999999999999</ele><time>2026-04-12T08:37:51.891Z</time></trkpt><trkpt lat="45.500675" lon="8.758115"><ele>127.0</ele><time>2026-04-12T08:37:53.891Z</time></trkpt><trkpt lat="45.50057" lon="8.7581367"><ele>127.0</ele><time>2026-04-12T08:37:55.891Z</time></trkpt><trkpt lat="45.5004683" lon="8.758165"><ele>126.19999999999999</ele><time>2026-04-12T08:37:57.891Z</time></trkpt><trkpt lat="45.50037" lon="8.7582183"><ele>125.39999999999999</ele><time>2026-04-12T08:37:59.891Z</time></trkpt><trkpt lat="45.5002617" lon="8.75827"><ele>124.60000000000001</ele><time>2026-04-12T08:38:01.891Z</time></trkpt><trkpt lat="45.5001783" lon="8.758335"><ele>123.80000000000001</ele><time>2026-04-12T08:38:03.891Z</time></trkpt><trkpt lat="45.5000867" lon="8.7584033"><ele>123.0</ele><time>2026-04-12T08:38:05.891Z</time></trkpt><trkpt lat="45.5000167" lon="8.7584783"><ele>123.4</ele><time>2026-04-12T08:38:07.891Z</time></trkpt><trkpt lat="45.5000067" lon="8.7586083"><ele>123.80000000000001</ele><time>2026-04-12T08:38:09.891Z</time></trkpt><trkpt lat="45.50001" lon="8.7587333"><ele>124.2</ele><time>2026-04-12T08:38:11.891Z</time></trkpt><trkpt lat="45.50001" lon="8.7588633"><ele>124.6</ele><time>2026-04-12T08:38:13.891Z</time></trkpt><trkpt lat="45.50001" lon="8.75899"><ele>125.0</ele><time>2026-04-12T08:38:15.891Z</time></trkpt><trkpt lat="45.5000033" lon="8.7591233"><ele>125.0</ele><time>2026-04-12T08:38:17.891Z</time></trkpt><trkpt lat="45.5000067" lon="8.759255"><ele>125.0</ele><time>2026-04-12T08:38:19.891Z</time></trkpt><trkpt lat="45.5000083" lon="8.7593917"><ele>125.0</ele><time>2026-04-12T08:38:21.891Z</time></trkpt><trkpt lat="45.5000167" lon="8.75952"><ele>125.0</ele><time>2026-04-12T08:38:23.891Z</time></trkpt><trkpt lat="45.5000167" lon="8.7596533"><ele>125.0</ele><time>2026-04-12T08:38:25.891Z</time></trkpt><trkpt lat="45.5000267" lon="8.759785"><ele>125.49999999999999</ele><time>2026-04-12T08:38:27.891Z</time></trkpt><trkpt lat="45.5000517" lon="8.75991"><ele>126.0</ele><time>2026-04-12T08:38:29.891Z</time></trkpt><trkpt lat="45.5001267" lon="8.759965"><ele>126.5</ele><time>2026-04-12T08:38:31.891Z</time></trkpt><trkpt lat="45.5002" lon="8.7599167"><ele>127.0</ele><time>2026-04-12T08:38:33.891Z</time></trkpt><trkpt lat="45.5002733" lon="8.7598917"><ele>127.49999999999999</ele><time>2026-04-12T08:38:35.891Z</time></trkpt><trkpt lat="45.500345" lon="8.7598383"><ele>128.0</ele><time>2026-04-12T08:38:37.892Z</time></trkpt><trkpt lat="45.5004083" lon="8.7597633"><ele>127.99999999999999</ele><time>2026-04-12T08:38:40.891Z</time></trkpt><trkpt lat="45.5004633" lon="8.7598317"><ele>128.0</ele><time>2026-04-12T08:39:30.891Z</time></trkpt><trkpt lat="45.5004017" lon="8.75989"><ele>128.0</ele><time>2026-04-12T08:39:33.891Z</time></trkpt><trkpt lat="45.5003367" lon="8.75996"><ele>128.0</ele><time>2026-04-12T08:39:37.891Z</time></trkpt><trkpt lat="45.500285" lon="8.760035"><ele>127.99999999999999</ele><time>2026-04-12T08:39:40.891Z</time></trkpt><trkpt lat="45.50025" lon="8.760135"><ele>128.0</ele><time>2026-04-12T08:39:43.891Z</time></trkpt><trkpt lat="45.50028" lon="8.7602317"><ele>128.16666666666666</ele><time>2026-04-12T08:39:47.891Z</time></trkpt><trkpt lat="45.5002967" lon="8.7603283"><ele>128.33333333333331</ele><time>2026-04-12T08:39:58.891Z</time></trkpt><trkpt lat="45.500225" lon="8.7603867"><ele>128.5</ele><time>2026-04-12T08:40:06.891Z</time></trkpt><trkpt lat="45.5001783" lon="8.7604833"><ele>128.66666666666666</ele><time>2026-04-12T08:40:09.891Z</time></trkpt><trkpt lat="45.500155" lon="8.7605883"><ele>128.83333333333334</ele><time>2026-04-12T08:40:12.891Z</time></trkpt><trkpt lat="45.5001283" lon="8.7607017"><ele>129.0</ele><time>2026-04-12T08:40:15.891Z</time></trkpt><trkpt lat="45.5001167" lon="8.76083"><ele>129.0</ele><time>2026-04-12T08:40:18.891Z</time></trkpt><trkpt lat="45.5001033" lon="8.7609283"><ele>129.0</ele><time>2026-04-12T08:40:20.891Z</time></trkpt><trkpt lat="45.5000883" lon="8.761035"><ele>129.0</ele><time>2026-04-12T08:40:22.891Z</time></trkpt><trkpt lat="45.5000717" lon="8.7611483"><ele>129.0</ele><time>2026-04-12T08:40:24.892Z</time></trkpt><trkpt lat="45.5000583" lon="8.7612617"><ele>129.0</ele><time>2026-04-12T08:40:26.891Z</time></trkpt><trkpt lat="45.5000433" lon="8.7613683"><ele>129.0</ele><time>2026-04-12T08:40:28.891Z</time></trkpt><trkpt lat="45.5000283" lon="8.7614767"><ele>128.83333333333334</ele><time>2026-04-12T08:40:30.891Z</time></trkpt><trkpt lat="45.5000267" lon="8.761585"><ele>128.66666666666666</ele><time>2026-04-12T08:40:32.891Z</time></trkpt><trkpt lat="45.5000183" lon="8.7617"><ele>128.5</ele><time>2026-04-12T08:40:34.891Z</time></trkpt><trkpt lat="45.50001" lon="8.7618167"><ele>128.33333333333331</ele><time>2026-04-12T08:40:36.892Z</time></trkpt><trkpt lat="45.4999967" lon="8.7619283"><ele>128.16666666666666</ele><time>2026-04-12T08:40:38.891Z</time></trkpt><trkpt lat="45.4999783" lon="8.7620383"><ele>128.0</ele><time>2026-04-12T08:40:40.891Z</time></trkpt><trkpt lat="45.49996" lon="8.76214"><ele>127.99999999999999</ele><time>2026-04-12T08:40:42.891Z</time></trkpt><trkpt lat="45.49994" lon="8.7622517"><ele>128.0</ele><time>2026-04-12T08:40:44.891Z</time></trkpt><trkpt lat="45.4999283" lon="8.76237"><ele>128.0</ele><time>2026-04-12T08:40:46.891Z</time></trkpt><trkpt lat="45.49991" lon="8.7624783"><ele>128.0</ele><time>2026-04-12T08:40:48.891Z</time></trkpt><trkpt lat="45.4998967" lon="8.7625833"><ele>127.99999999999999</ele><time>2026-04-12T08:40:50.892Z</time></trkpt><trkpt lat="45.4998869" lon="8.7627038"><ele>128.0</ele><time>2026-04-12T08:40:52.846Z</time></trkpt><trkpt lat="45.499875" lon="8.762814"><ele>127.99999999999999</ele><time>2026-04-12T08:40:54.922Z</time></trkpt><trkpt lat="45.4998454" lon="8.7629229"><ele>128.0</ele><time>2026-04-12T08:40:56.912Z</time></trkpt><trkpt lat="45.4998139" lon="8.7630254"><ele>128.0</ele><time>2026-04-12T08:40:58.984Z</time></trkpt><trkpt lat="45.4997796" lon="8.7631155"><ele>128.0</ele><time>2026-04-12T08:41:00.892Z</time></trkpt><trkpt lat="45.4997783" lon="8.7632267"><ele>127.99999999999999</ele><time>2026-04-12T08:41:02.892Z</time></trkpt><trkpt lat="45.4997683" lon="8.7633383"><ele>128.0</ele><time>2026-04-12T08:41:04.891Z</time></trkpt><trkpt lat="45.4997433" lon="8.7634367"><ele>127.99999999999999</ele><time>2026-04-12T08:41:06.891Z</time></trkpt><trkpt lat="45.4997317" lon="8.7635317"><ele>128.0</ele><time>2026-04-12T08:41:08.891Z</time></trkpt><trkpt lat="45.4997" lon="8.7636217"><ele>128.0</ele><time>2026-04-12T08:41:10.891Z</time></trkpt><trkpt lat="45.4996633" lon="8.76371"><ele>128.0</ele><time>2026-04-12T08:41:12.891Z</time></trkpt><trkpt lat="45.499625" lon="8.763805"><ele>127.99999999999999</ele><time>2026-04-12T08:41:14.891Z</time></trkpt><trkpt lat="45.4995783" lon="8.7639033"><ele>128.0</ele><time>2026-04-12T08:41:16.891Z</time></trkpt><trkpt lat="45.4995383" lon="8.7640067"><ele>127.99999999999999</ele><time>2026-04-12T08:41:18.891Z</time></trkpt><trkpt lat="45.4995033" lon="8.764105"><ele>128.0</ele><time>2026-04-12T08:41:20.891Z</time></trkpt><trkpt lat="45.4994583" lon="8.7642"><ele>128.0</ele><time>2026-04-12T08:41:22.891Z</time></trkpt><trkpt lat="45.49941" lon="8.76431"><ele>128.0</ele><time>2026-04-12T08:41:24.891Z</time></trkpt><trkpt lat="45.4993633" lon="8.764415"><ele>127.99999999999999</ele><time>2026-04-12T08:41:26.89Z</time></trkpt><trkpt lat="45.4993067" lon="8.7645233"><ele>128.0</ele><time>2026-04-12T08:41:28.89Z</time></trkpt><trkpt lat="45.49925" lon="8.764625"><ele>128.14285714285714</ele><time>2026-04-12T08:41:30.89Z</time></trkpt><trkpt lat="45.499185" lon="8.7647167"><ele>128.28571428571428</ele><time>2026-04-12T08:41:32.89Z</time></trkpt><trkpt lat="45.4991467" lon="8.7647983"><ele>128.42857142857142</ele><time>2026-04-12T08:41:35.89Z</time></trkpt><trkpt lat="45.4991517" lon="8.7649017"><ele>128.57142857142856</ele><time>2026-04-12T08:41:38.89Z</time></trkpt><trkpt lat="45.4991067" lon="8.7649783"><ele>128.71428571428572</ele><time>2026-04-12T08:41:42.89Z</time></trkpt><trkpt lat="45.4990317" lon="8.7650167"><ele>128.85714285714283</ele><time>2026-04-12T08:41:45.89Z</time></trkpt><trkpt lat="45.4989983" lon="8.7650933"><ele>129.0</ele><time>2026-04-12T08:41:48.89Z</time></trkpt><trkpt lat="45.49895" lon="8.765175"><ele>129.5</ele><time>2026-04-12T08:41:51.89Z</time></trkpt><trkpt lat="45.498915" lon="8.7652767"><ele>130.0</ele><time>2026-04-12T08:41:54.89Z</time></trkpt><trkpt lat="45.4988967" lon="8.7653683"><ele>130.5</ele><time>2026-04-12T08:41:56.89Z</time></trkpt><trkpt lat="45.4988533" lon="8.765445"><ele>131.0</ele><time>2026-04-12T08:41:58.89Z</time></trkpt><trkpt lat="45.4987933" lon="8.7655133"><ele>131.5</ele><time>2026-04-12T08:42:00.89Z</time></trkpt><trkpt lat="45.4987317" lon="8.7655767"><ele>132.0</ele><time>2026-04-12T08:42:02.89Z</time></trkpt><trkpt lat="45.4986633" lon="8.765675"><ele>130.5</ele><time>2026-04-12T08:42:05.89Z</time></trkpt><trkpt lat="45.49862" lon="8.7657783"><ele>129.0</ele><time>2026-04-12T08:42:07.89Z</time></trkpt><trkpt lat="45.4986017" lon="8.7658717"><ele>127.5</ele><time>2026-04-12T08:42:09.891Z</time></trkpt><trkpt lat="45.4985867" lon="8.765975"><ele>126.0</ele><time>2026-04-12T08:42:11.89Z</time></trkpt><trkpt lat="45.4985633" lon="8.7660883"><ele>124.5</ele><time>2026-04-12T08:42:13.89Z</time></trkpt><trkpt lat="45.4985333" lon="8.766195"><ele>123.0</ele><time>2026-04-12T08:42:15.89Z</time></trkpt><trkpt lat="45.498495" lon="8.7662933"><ele>123.0</ele><time>2026-04-12T08:42:17.89Z</time></trkpt><trkpt lat="45.4984717" lon="8.766395"><ele>123.0</ele><time>2026-04-12T08:42:19.89Z</time></trkpt><trkpt lat="45.4984417" lon="8.7664817"><ele>123.0</ele><time>2026-04-12T08:42:21.89Z</time></trkpt><trkpt lat="45.4984167" lon="8.7665883"><ele>123.0</ele><time>2026-04-12T08:42:23.89Z</time></trkpt><trkpt lat="45.498385" lon="8.7666933"><ele>123.0</ele><time>2026-04-12T08:42:25.891Z</time></trkpt><trkpt lat="45.49834" lon="8.76679"><ele>123.0</ele><time>2026-04-12T08:42:27.891Z</time></trkpt><trkpt lat="45.4983017" lon="8.7668733"><ele>123.66666666666667</ele><time>2026-04-12T08:42:29.891Z</time></trkpt><trkpt lat="45.4982833" lon="8.7669717"><ele>124.33333333333334</ele><time>2026-04-12T08:42:31.89Z</time></trkpt><trkpt lat="45.4982533" lon="8.7670917"><ele>125.0</ele><time>2026-04-12T08:42:33.89Z</time></trkpt><trkpt lat="45.498235" lon="8.767205"><ele>125.66666666666667</ele><time>2026-04-12T08:42:35.89Z</time></trkpt><trkpt lat="45.4982133" lon="8.7673183"><ele>126.33333333333334</ele><time>2026-04-12T08:42:37.89Z</time></trkpt><trkpt lat="45.498175" lon="8.767435"><ele>127.0</ele><time>2026-04-12T08:42:39.89Z</time></trkpt><trkpt lat="45.498135" lon="8.7675417"><ele>127.00000000000001</ele><time>2026-04-12T08:42:41.891Z</time></trkpt><trkpt lat="45.4981117" lon="8.767655"><ele>127.0</ele><time>2026-04-12T08:42:43.89Z</time></trkpt><trkpt lat="45.4980867" lon="8.76776"><ele>127.0</ele><time>2026-04-12T08:42:45.891Z</time></trkpt><trkpt lat="45.4980533" lon="8.7678517"><ele>127.0</ele><time>2026-04-12T08:42:47.89Z</time></trkpt><trkpt lat="45.49802" lon="8.7679283"><ele>127.00000000000001</ele><time>2026-04-12T08:42:49.89Z</time></trkpt><trkpt lat="45.4979667" lon="8.7681"><ele>127.0</ele><time>2026-04-12T08:43:16.89Z</time></trkpt><trkpt lat="45.4979433" lon="8.7682067"><ele>127.8</ele><time>2026-04-12T08:43:20.89Z</time></trkpt><trkpt lat="45.497925" lon="8.7682967"><ele>128.6</ele><time>2026-04-12T08:43:23.89Z</time></trkpt><trkpt lat="45.497905" lon="8.76841"><ele>129.39999999999998</ele><time>2026-04-12T08:43:27.89Z</time></trkpt><trkpt lat="45.4978517" lon="8.7685"><ele>130.2</ele><time>2026-04-12T08:43:29.89Z</time></trkpt><trkpt lat="45.4977583" lon="8.7685967"><ele>131.0</ele><time>2026-04-12T08:43:31.89Z</time></trkpt><trkpt lat="45.4976883" lon="8.7687317"><ele>129.4</ele><time>2026-04-12T08:43:33.89Z</time></trkpt><trkpt lat="45.4976233" lon="8.7688683"><ele>127.8</ele><time>2026-04-12T08:43:35.89Z</time></trkpt><trkpt lat="45.4975719" lon="8.7689913"><ele>126.20000000000002</ele><time>2026-04-12T08:43:37.89Z</time></trkpt><trkpt lat="45.4975224" lon="8.7690961"><ele>124.60000000000001</ele><time>2026-04-12T08:43:39.89Z</time></trkpt><trkpt lat="45.497478" lon="8.769171"><ele>123.0</ele><time>2026-04-12T08:43:41.89Z</time></trkpt><trkpt lat="45.4974182" lon="8.769243"><ele>123.0</ele><time>2026-04-12T08:43:43.89Z</time></trkpt><trkpt lat="45.4973624" lon="8.769345"><ele>123.00000000000001</ele><time>2026-04-12T08:43:45.89Z</time></trkpt><trkpt lat="45.4973152" lon="8.7694567"><ele>123.00000000000001</ele><time>2026-04-12T08:43:47.89Z</time></trkpt><trkpt lat="45.4972594" lon="8.7695722"><ele>123.0</ele><time>2026-04-12T08:43:49.89Z</time></trkpt><trkpt lat="45.4972034" lon="8.7697042"><ele>123.0</ele><time>2026-04-12T08:43:51.89Z</time></trkpt><trkpt lat="45.4971454" lon="8.7698234"><ele>123.2</ele><time>2026-04-12T08:43:53.89Z</time></trkpt><trkpt lat="45.4970779" lon="8.7699262"><ele>123.4</ele><time>2026-04-12T08:43:55.89Z</time></trkpt><trkpt lat="45.4970005" lon="8.77"><ele>123.60000000000001</ele><time>2026-04-12T08:43:57.89Z</time></trkpt><trkpt lat="45.49692" lon="8.770075"><ele>123.80000000000001</ele><time>2026-04-12T08:43:59.89Z</time></trkpt><trkpt lat="45.4968333" lon="8.770155"><ele>124.0</ele><time>2026-04-12T08:44:01.89Z</time></trkpt><trkpt lat="45.496745" lon="8.7702217"><ele>124.00000000000001</ele><time>2026-04-12T08:44:03.89Z</time></trkpt><trkpt lat="45.496665" lon="8.77031"><ele>124.0</ele><time>2026-04-12T08:44:05.891Z</time></trkpt><trkpt lat="45.4966033" lon="8.7703867"><ele>124.0</ele><time>2026-04-12T08:44:07.89Z</time></trkpt><trkpt lat="45.49653" lon="8.7704467"><ele>124.0</ele><time>2026-04-12T08:44:10.89Z</time></trkpt><trkpt lat="45.49645" lon="8.77052"><ele>124.00000000000001</ele><time>2026-04-12T08:44:13.89Z</time></trkpt><trkpt lat="45.49639" lon="8.7705867"><ele>124.0</ele><time>2026-04-12T08:44:15.89Z</time></trkpt><trkpt lat="45.4963283" lon="8.77065"><ele>124.00000000000001</ele><time>2026-04-12T08:44:17.89Z</time></trkpt><trkpt lat="45.49626" lon="8.7707433"><ele>124.0</ele><time>2026-04-12T08:44:19.89Z</time></trkpt><trkpt lat="45.4961933" lon="8.7708233"><ele>124.0</ele><time>2026-04-12T08:44:21.891Z</time></trkpt><trkpt lat="45.4961583" lon="8.77093"><ele>124.0</ele><time>2026-04-12T08:44:23.891Z</time></trkpt><trkpt lat="45.49616" lon="8.7710267"><ele>124.00000000000001</ele><time>2026-04-12T08:44:25.89Z</time></trkpt><trkpt lat="45.4961467" lon="8.7711267"><ele>124.0</ele><time>2026-04-12T08:44:28.89Z</time></trkpt><trkpt lat="45.4961233" lon="8.7712483"><ele>123.83333333333334</ele><time>2026-04-12T08:44:31.89Z</time></trkpt><trkpt lat="45.4961367" lon="8.7713483"><ele>123.66666666666667</ele><time>2026-04-12T08:44:33.89Z</time></trkpt><trkpt lat="45.496125" lon="8.7714633"><ele>123.5</ele><time>2026-04-12T08:44:35.89Z</time></trkpt><trkpt lat="45.4961" lon="8.7715833"><ele>123.33333333333334</ele><time>2026-04-12T08:44:37.89Z</time></trkpt><trkpt lat="45.4960817" lon="8.7717"><ele>123.16666666666667</ele><time>2026-04-12T08:44:39.89Z</time></trkpt><trkpt lat="45.4960733" lon="8.7718267"><ele>123.0</ele><time>2026-04-12T08:44:41.89Z</time></trkpt><trkpt lat="45.4960767" lon="8.7719567"><ele>123.0</ele><time>2026-04-12T08:44:43.89Z</time></trkpt><trkpt lat="45.4960783" lon="8.7720867"><ele>123.0</ele><time>2026-04-12T08:44:45.89Z</time></trkpt><trkpt lat="45.4960517" lon="8.7721967"><ele>123.0</ele><time>2026-04-12T08:44:47.891Z</time></trkpt><trkpt lat="45.49603" lon="8.772315"><ele>123.0</ele><time>2026-04-12T08:44:49.89Z</time></trkpt><trkpt lat="45.4960067" lon="8.7724367"><ele>123.0</ele><time>2026-04-12T08:44:51.89Z</time></trkpt><trkpt lat="45.4959933" lon="8.7725417"><ele>123.0</ele><time>2026-04-12T08:44:53.89Z</time></trkpt><trkpt lat="45.4960067" lon="8.772655"><ele>123.2857142857143</ele><time>2026-04-12T08:44:55.89Z</time></trkpt><trkpt lat="45.4960633" lon="8.7727217"><ele>123.57142857142858</ele><time>2026-04-12T08:44:57.89Z</time></trkpt><trkpt lat="45.4961383" lon="8.7727283"><ele>123.85714285714286</ele><time>2026-04-12T08:44:59.89Z</time></trkpt><trkpt lat="45.4962133" lon="8.7727183"><ele>124.14285714285715</ele><time>2026-04-12T08:45:01.89Z</time></trkpt><trkpt lat="45.496295" lon="8.7727067"><ele>124.42857142857144</ele><time>2026-04-12T08:45:03.89Z</time></trkpt><trkpt lat="45.4963617" lon="8.77271"><ele>124.71428571428571</ele><time>2026-04-12T08:45:05.89Z</time></trkpt><trkpt lat="45.49643" lon="8.772705"><ele>125.0</ele><time>2026-04-12T08:45:07.89Z</time></trkpt><trkpt lat="45.49651" lon="8.7727"><ele>125.16666666666666</ele><time>2026-04-12T08:45:09.89Z</time></trkpt><trkpt lat="45.496575" lon="8.7726867"><ele>125.33333333333333</ele><time>2026-04-12T08:45:11.89Z</time></trkpt><trkpt lat="45.4966583" lon="8.7726783"><ele>125.5</ele><time>2026-04-12T08:45:13.89Z</time></trkpt><trkpt lat="45.49675" lon="8.7726633"><ele>125.66666666666666</ele><time>2026-04-12T08:45:15.891Z</time></trkpt><trkpt lat="45.4968433" lon="8.7726333"><ele>125.83333333333333</ele><time>2026-04-12T08:45:17.89Z</time></trkpt><trkpt lat="45.496925" lon="8.7726033"><ele>126.0</ele><time>2026-04-12T08:45:19.891Z</time></trkpt><trkpt lat="45.4970183" lon="8.7725867"><ele>126.16666666666667</ele><time>2026-04-12T08:45:21.89Z</time></trkpt><trkpt lat="45.49711" lon="8.7725617"><ele>126.33333333333334</ele><time>2026-04-12T08:45:23.89Z</time></trkpt><trkpt lat="45.4972" lon="8.7725467"><ele>126.5</ele><time>2026-04-12T08:45:25.89Z</time></trkpt><trkpt lat="45.49728" lon="8.7725283"><ele>126.66666666666667</ele><time>2026-04-12T08:45:27.89Z</time></trkpt><trkpt lat="45.4973683" lon="8.772505"><ele>126.83333333333334</ele><time>2026-04-12T08:45:29.89Z</time></trkpt><trkpt lat="45.4974567" lon="8.7724767"><ele>127.0</ele><time>2026-04-12T08:45:31.89Z</time></trkpt><trkpt lat="45.497545" lon="8.7724533"><ele>127.0</ele><time>2026-04-12T08:45:33.89Z</time></trkpt><trkpt lat="45.4976367" lon="8.7724183"><ele>126.99999999999999</ele><time>2026-04-12T08:45:35.89Z</time></trkpt><trkpt lat="45.4977217" lon="8.77238"><ele>126.99999999999999</ele><time>2026-04-12T08:45:37.89Z</time></trkpt><trkpt lat="45.4978083" lon="8.77234"><ele>127.0</ele><time>2026-04-12T08:45:39.89Z</time></trkpt><trkpt lat="45.497895" lon="8.77228"><ele>127.0</ele><time>2026-04-12T08:45:41.89Z</time></trkpt><trkpt lat="45.4979833" lon="8.772215"><ele>127.0</ele><time>2026-04-12T08:45:43.89Z</time></trkpt><trkpt lat="45.4980667" lon="8.77214"><ele>126.99999999999999</ele><time>2026-04-12T08:45:45.89Z</time></trkpt><trkpt lat="45.4981383" lon="8.7720733"><ele>126.99999999999999</ele><time>2026-04-12T08:45:47.89Z</time></trkpt><trkpt lat="45.4982167" lon="8.77199"><ele>127.0</ele><time>2026-04-12T08:45:49.89Z</time></trkpt><trkpt lat="45.49829" lon="8.7719017"><ele>127.0</ele><time>2026-04-12T08:45:51.89Z</time></trkpt><trkpt lat="45.4983667" lon="8.77183"><ele>127.0</ele><time>2026-04-12T08:45:53.89Z</time></trkpt><trkpt lat="45.4984417" lon="8.77176"><ele>126.99999999999999</ele><time>2026-04-12T08:45:55.89Z</time></trkpt><trkpt lat="45.4985183" lon="8.7716983"><ele>126.99999999999999</ele><time>2026-04-12T08:45:57.89Z</time></trkpt><trkpt lat="45.4986083" lon="8.77165"><ele>127.0</ele><time>2026-04-12T08:45:59.89Z</time></trkpt><trkpt lat="45.4986933" lon="8.771595"><ele>127.0</ele><time>2026-04-12T08:46:01.89Z</time></trkpt><trkpt lat="45.4987767" lon="8.7715483"><ele>127.39999999999999</ele><time>2026-04-12T08:46:03.89Z</time></trkpt><trkpt lat="45.4988717" lon="8.7715267"><ele>127.79999999999998</ele><time>2026-04-12T08:46:05.89Z</time></trkpt><trkpt lat="45.498965" lon="8.7714983"><ele>128.2</ele><time>2026-04-12T08:46:07.89Z</time></trkpt><trkpt lat="45.49905" lon="8.771465"><ele>128.6</ele><time>2026-04-12T08:46:09.89Z</time></trkpt><trkpt lat="45.4991433" lon="8.7714267"><ele>129.0</ele><time>2026-04-12T08:46:11.89Z</time></trkpt><trkpt lat="45.4992367" lon="8.77139"><ele>129.0</ele><time>2026-04-12T08:46:13.89Z</time></trkpt><trkpt lat="45.499325" lon="8.7713517"><ele>129.0</ele><time>2026-04-12T08:46:15.89Z</time></trkpt><trkpt lat="45.4994183" lon="8.7713283"><ele>129.0</ele><time>2026-04-12T08:46:17.89Z</time></trkpt><trkpt lat="45.4995083" lon="8.771305"><ele>129.0</ele><time>2026-04-12T08:46:19.89Z</time></trkpt><trkpt lat="45.4996067" lon="8.7712917"><ele>129.0</ele><time>2026-04-12T08:46:21.89Z</time></trkpt><trkpt lat="45.4997033" lon="8.7713"><ele>129.4</ele><time>2026-04-12T08:46:23.89Z</time></trkpt><trkpt lat="45.4997967" lon="8.771285"><ele>129.8</ele><time>2026-04-12T08:46:25.89Z</time></trkpt><trkpt lat="45.4998817" lon="8.7712817"><ele>130.2</ele><time>2026-04-12T08:46:27.89Z</time></trkpt><trkpt lat="45.4999783" lon="8.7712683"><ele>130.6</ele><time>2026-04-12T08:46:29.89Z</time></trkpt><trkpt lat="45.5000783" lon="8.771245"><ele>131.0</ele><time>2026-04-12T08:46:31.89Z</time></trkpt><trkpt lat="45.500175" lon="8.7712233"><ele>131.0</ele><time>2026-04-12T08:46:33.89Z</time></trkpt><trkpt lat="45.50027" lon="8.7712117"><ele>131.0</ele><time>2026-04-12T08:46:35.89Z</time></trkpt><trkpt lat="45.5003617" lon="8.7712017"><ele>131.0</ele><time>2026-04-12T08:46:37.89Z</time></trkpt><trkpt lat="45.500455" lon="8.77116"><ele>131.0</ele><time>2026-04-12T08:46:39.89Z</time></trkpt><trkpt lat="45.500555" lon="8.7711117"><ele>131.0</ele><time>2026-04-12T08:46:41.89Z</time></trkpt><trkpt lat="45.5006383" lon="8.7710583"><ele>131.0</ele><time>2026-04-12T08:46:43.891Z</time></trkpt><trkpt lat="45.50073" lon="8.771"><ele>131.0</ele><time>2026-04-12T08:46:45.89Z</time></trkpt><trkpt lat="45.5008083" lon="8.7709483"><ele>131.0</ele><time>2026-04-12T08:46:47.89Z</time></trkpt><trkpt lat="45.500885" lon="8.770905"><ele>131.0</ele><time>2026-04-12T08:46:49.89Z</time></trkpt><trkpt lat="45.5009683" lon="8.7708567"><ele>131.0</ele><time>2026-04-12T08:46:51.89Z</time></trkpt><trkpt lat="45.50106" lon="8.7708"><ele>131.0</ele><time>2026-04-12T08:46:53.89Z</time></trkpt><trkpt lat="45.501145" lon="8.770735"><ele>131.0</ele><time>2026-04-12T08:46:55.891Z</time></trkpt><trkpt lat="45.5012383" lon="8.7706833"><ele>131.0</ele><time>2026-04-12T08:46:57.89Z</time></trkpt><trkpt lat="45.5013317" lon="8.770625"><ele>131.0</ele><time>2026-04-12T08:46:59.89Z</time></trkpt><trkpt lat="45.5014217" lon="8.7705633"><ele>131.0</ele><time>2026-04-12T08:47:01.891Z</time></trkpt><trkpt lat="45.50152" lon="8.7705067"><ele>131.0</ele><time>2026-04-12T08:47:03.89Z</time></trkpt><trkpt lat="45.5016183" lon="8.7704717"><ele>131.0</ele><time>2026-04-12T08:47:05.89Z</time></trkpt><trkpt lat="45.5017083" lon="8.7704467"><ele>131.0</ele><time>2026-04-12T08:47:07.89Z</time></trkpt><trkpt lat="45.5018083" lon="8.77042"><ele>131.0</ele><time>2026-04-12T08:47:09.89Z</time></trkpt><trkpt lat="45.5019" lon="8.77036"><ele>131.0</ele><time>2026-04-12T08:47:11.89Z</time></trkpt><trkpt lat="45.5019967" lon="8.7702933"><ele>130.8</ele><time>2026-04-12T08:47:13.89Z</time></trkpt><trkpt lat="45.5020817" lon="8.7702117"><ele>130.6</ele><time>2026-04-12T08:47:15.89Z</time></trkpt><trkpt lat="45.502155" lon="8.770125"><ele>130.4</ele><time>2026-04-12T08:47:17.89Z</time></trkpt><trkpt lat="45.5022333" lon="8.77003"><ele>130.2</ele><time>2026-04-12T08:47:19.89Z</time></trkpt><trkpt lat="45.5023167" lon="8.76994"><ele>130.0</ele><time>2026-04-12T08:47:21.89Z</time></trkpt><trkpt lat="45.5023983" lon="8.7698533"><ele>130.0</ele><time>2026-04-12T08:47:23.89Z</time></trkpt><trkpt lat="45.5024817" lon="8.7697667"><ele>130.0</ele><time>2026-04-12T08:47:25.89Z</time></trkpt><trkpt lat="45.5025633" lon="8.7696783"><ele>130.0</ele><time>2026-04-12T08:47:27.89Z</time></trkpt><trkpt lat="45.5026483" lon="8.7695933"><ele>130.0</ele><time>2026-04-12T08:47:29.89Z</time></trkpt><trkpt lat="45.5027217" lon="8.7694967"><ele>130.0</ele><time>2026-04-12T08:47:31.89Z</time></trkpt><trkpt lat="45.5028033" lon="8.7694117"><ele>129.8</ele><time>2026-04-12T08:47:33.89Z</time></trkpt><trkpt lat="45.5028767" lon="8.7693283"><ele>129.6</ele><time>2026-04-12T08:47:35.89Z</time></trkpt><trkpt lat="45.5029567" lon="8.7692283"><ele>129.4</ele><time>2026-04-12T08:47:37.89Z</time></trkpt><trkpt lat="45.503035" lon="8.7691217"><ele>129.2</ele><time>2026-04-12T08:47:39.891Z</time></trkpt><trkpt lat="45.5031083" lon="8.769015"><ele>129.0</ele><time>2026-04-12T08:47:41.89Z</time></trkpt><trkpt lat="45.5031817" lon="8.768915"><ele>129.0</ele><time>2026-04-12T08:47:43.89Z</time></trkpt><trkpt lat="45.50326" lon="8.7688083"><ele>129.0</ele><time>2026-04-12T08:47:45.891Z</time></trkpt><trkpt lat="45.5033317" lon="8.7687033"><ele>129.0</ele><time>2026-04-12T08:47:47.89Z</time></trkpt><trkpt lat="45.5034083" lon="8.768595"><ele>129.0</ele><time>2026-04-12T08:47:49.89Z</time></trkpt><trkpt lat="45.5034733" lon="8.76848"><ele>129.0</ele><time>2026-04-12T08:47:51.891Z</time></trkpt><trkpt lat="45.5035217" lon="8.7683533"><ele>129.0</ele><time>2026-04-12T08:47:53.89Z</time></trkpt><trkpt lat="45.5035683" lon="8.76821"><ele>129.0</ele><time>2026-04-12T08:47:55.89Z</time></trkpt><trkpt lat="45.503595" lon="8.7680717"><ele>129.0</ele><time>2026-04-12T08:47:57.89Z</time></trkpt><trkpt lat="45.503625" lon="8.767915"><ele>129.0</ele><time>2026-04-12T08:47:59.89Z</time></trkpt><trkpt lat="45.50365" lon="8.7677683"><ele>129.0</ele><time>2026-04-12T08:48:01.89Z</time></trkpt><trkpt lat="45.503685" lon="8.76762"><ele>129.0</ele><time>2026-04-12T08:48:03.89Z</time></trkpt><trkpt lat="45.5037167" lon="8.7674617"><ele>129.0</ele><time>2026-04-12T08:48:05.89Z</time></trkpt><trkpt lat="45.50375" lon="8.767315"><ele>129.0</ele><time>2026-04-12T08:48:07.89Z</time></trkpt><trkpt lat="45.5037833" lon="8.7671717"><ele>129.0</ele><time>2026-04-12T08:48:09.89Z</time></trkpt><trkpt lat="45.503815" lon="8.7670233"><ele>129.0</ele><time>2026-04-12T08:48:11.89Z</time></trkpt><trkpt lat="45.5038517" lon="8.7668717"><ele>128.8</ele><time>2026-04-12T08:48:13.89Z</time></trkpt><trkpt lat="45.5038783" lon="8.7667267"><ele>128.60000000000002</ele><time>2026-04-12T08:48:15.891Z</time></trkpt><trkpt lat="45.5039083" lon="8.766575"><ele>128.4</ele><time>2026-04-12T08:48:17.89Z</time></trkpt><trkpt lat="45.503935" lon="8.7664333"><ele>128.20000000000002</ele><time>2026-04-12T08:48:19.89Z</time></trkpt><trkpt lat="45.5039617" lon="8.7662733"><ele>128.0</ele><time>2026-04-12T08:48:21.89Z</time></trkpt><trkpt lat="45.5039933" lon="8.7661267"><ele>128.6</ele><time>2026-04-12T08:48:23.891Z</time></trkpt><trkpt lat="45.50402" lon="8.76599"><ele>129.20000000000002</ele><time>2026-04-12T08:48:25.89Z</time></trkpt><trkpt lat="45.5040533" lon="8.7658433"><ele>129.8</ele><time>2026-04-12T08:48:27.89Z</time></trkpt><trkpt lat="45.5040967" lon="8.7657033"><ele>130.4</ele><time>2026-04-12T08:48:29.89Z</time></trkpt><trkpt lat="45.5041617" lon="8.76558"><ele>131.0</ele><time>2026-04-12T08:48:31.89Z</time></trkpt><trkpt lat="45.5042417" lon="8.7654883"><ele>131.0</ele><time>2026-04-12T08:48:33.89Z</time></trkpt><trkpt lat="45.5043367" lon="8.7654183"><ele>131.0</ele><time>2026-04-12T08:48:35.89Z</time></trkpt><trkpt lat="45.5044217" lon="8.7653417"><ele>131.0</ele><time>2026-04-12T08:48:37.89Z</time></trkpt><trkpt lat="45.5044933" lon="8.76525"><ele>131.0</ele><time>2026-04-12T08:48:39.89Z</time></trkpt><trkpt lat="45.504525" lon="8.7651133"><ele>131.0</ele><time>2026-04-12T08:48:41.89Z</time></trkpt><trkpt lat="45.5045133" lon="8.7649667"><ele>130.8</ele><time>2026-04-12T08:48:43.89Z</time></trkpt><trkpt lat="45.5044967" lon="8.7648167"><ele>130.6</ele><time>2026-04-12T08:48:45.89Z</time></trkpt><trkpt lat="45.5044867" lon="8.7646683"><ele>130.4</ele><time>2026-04-12T08:48:47.89Z</time></trkpt><trkpt lat="45.5044917" lon="8.76451"><ele>130.2</ele><time>2026-04-12T08:48:49.89Z</time></trkpt><trkpt lat="45.5045233" lon="8.7643583"><ele>130.0</ele><time>2026-04-12T08:48:51.89Z</time></trkpt><trkpt lat="45.5045967" lon="8.764225"><ele>130.0</ele><time>2026-04-12T08:48:53.89Z</time></trkpt><trkpt lat="45.5046817" lon="8.7641217"><ele>130.0</ele><time>2026-04-12T08:48:55.89Z</time></trkpt><trkpt lat="45.5047683" lon="8.7640283"><ele>130.0</ele><time>2026-04-12T08:48:57.89Z</time></trkpt><trkpt lat="45.5048483" lon="8.76389"><ele>130.0</ele><time>2026-04-12T08:48:59.89Z</time></trkpt><trkpt lat="45.504935" lon="8.763825"><ele>130.0</ele><time>2026-04-12T08:49:01.89Z</time></trkpt><trkpt lat="45.5050133" lon="8.76373"><ele>130.0</ele><time>2026-04-12T08:49:03.89Z</time></trkpt><trkpt lat="45.5050867" lon="8.7636233"><ele>130.0</ele><time>2026-04-12T08:49:05.89Z</time></trkpt><trkpt lat="45.5051617" lon="8.7635217"><ele>130.0</ele><time>2026-04-12T08:49:07.89Z</time></trkpt><trkpt lat="45.50523" lon="8.7634167"><ele>130.0</ele><time>2026-04-12T08:49:09.89Z</time></trkpt><trkpt lat="45.5053033" lon="8.7633133"><ele>130.0</ele><time>2026-04-12T08:49:11.889Z</time></trkpt><trkpt lat="45.505365" lon="8.76319"><ele>130.0</ele><time>2026-04-12T08:49:13.89Z</time></trkpt><trkpt lat="45.5054167" lon="8.76305"><ele>130.0</ele><time>2026-04-12T08:49:15.889Z</time></trkpt><trkpt lat="45.5054667" lon="8.7629167"><ele>130.0</ele><time>2026-04-12T08:49:17.889Z</time></trkpt><trkpt lat="45.5055267" lon="8.7628033"><ele>130.0</ele><time>2026-04-12T08:49:19.889Z</time></trkpt><trkpt lat="45.5056017" lon="8.76269"><ele>130.0</ele><time>2026-04-12T08:49:21.889Z</time></trkpt><trkpt lat="45.5057067" lon="8.7626217"><ele>130.0</ele><time>2026-04-12T08:49:23.889Z</time></trkpt><trkpt lat="45.5058167" lon="8.7625667"><ele>130.0</ele><time>2026-04-12T08:49:25.889Z</time></trkpt><trkpt lat="45.5059183" lon="8.7625167"><ele>130.0</ele><time>2026-04-12T08:49:27.889Z</time></trkpt><trkpt lat="45.5060117" lon="8.7624433"><ele>130.0</ele><time>2026-04-12T08:49:29.889Z</time></trkpt><trkpt lat="45.5060767" lon="8.7623217"><ele>130.0</ele><time>2026-04-12T08:49:31.889Z</time></trkpt><trkpt lat="45.5060883" lon="8.7621683"><ele>130.0</ele><time>2026-04-12T08:49:33.889Z</time></trkpt><trkpt lat="45.506065" lon="8.7620083"><ele>130.0</ele><time>2026-04-12T08:49:35.889Z</time></trkpt><trkpt lat="45.5060333" lon="8.7618683"><ele>130.0</ele><time>2026-04-12T08:49:37.889Z</time></trkpt><trkpt lat="45.505995" lon="8.76173"><ele>130.0</ele><time>2026-04-12T08:49:39.889Z</time></trkpt><trkpt lat="45.5059667" lon="8.761585"><ele>130.0</ele><time>2026-04-12T08:49:41.889Z</time></trkpt><trkpt lat="45.5059333" lon="8.7614267"><ele>130.5</ele><time>2026-04-12T08:49:43.889Z</time></trkpt><trkpt lat="45.5059" lon="8.76129"><ele>131.0</ele><time>2026-04-12T08:49:45.889Z</time></trkpt><trkpt lat="45.5058767" lon="8.76113"><ele>131.5</ele><time>2026-04-12T08:49:47.889Z</time></trkpt><trkpt lat="45.5058383" lon="8.7609733"><ele>132.0</ele><time>2026-04-12T08:49:49.89Z</time></trkpt><trkpt lat="45.5057917" lon="8.7608133"><ele>132.0</ele><time>2026-04-12T08:49:51.89Z</time></trkpt><trkpt lat="45.505755" lon="8.7606667"><ele>132.0</ele><time>2026-04-12T08:49:53.889Z</time></trkpt><trkpt lat="45.5057217" lon="8.7605133"><ele>132.0</ele><time>2026-04-12T08:49:55.889Z</time></trkpt><trkpt lat="45.50569" lon="8.76036"><ele>132.0</ele><time>2026-04-12T08:49:57.889Z</time></trkpt><trkpt lat="45.50566" lon="8.7602017"><ele>132.0</ele><time>2026-04-12T08:49:59.889Z</time></trkpt><trkpt lat="45.5056117" lon="8.7600533"><ele>131.75</ele><time>2026-04-12T08:50:01.889Z</time></trkpt><trkpt lat="45.5055783" lon="8.7599033"><ele>131.5</ele><time>2026-04-12T08:50:03.889Z</time></trkpt><trkpt lat="45.5055483" lon="8.7597533"><ele>131.25</ele><time>2026-04-12T08:50:05.889Z</time></trkpt><trkpt lat="45.5055167" lon="8.7596"><ele>131.0</ele><time>2026-04-12T08:50:07.889Z</time></trkpt><trkpt lat="45.5054767" lon="8.7594417"><ele>130.8</ele><time>2026-04-12T08:50:09.89Z</time></trkpt><trkpt lat="45.50544" lon="8.7592883"><ele>130.6</ele><time>2026-04-12T08:50:11.889Z</time></trkpt><trkpt lat="45.5053933" lon="8.7591383"><ele>130.4</ele><time>2026-04-12T08:50:13.889Z</time></trkpt><trkpt lat="45.5053483" lon="8.7589817"><ele>130.2</ele><time>2026-04-12T08:50:15.889Z</time></trkpt><trkpt lat="45.5053383" lon="8.7588883"><ele>130.0</ele><time>2026-04-12T08:50:16.889Z</time></trkpt><trkpt lat="45.5053267" lon="8.758795"><ele>130.0</ele><time>2026-04-12T08:50:17.889Z</time></trkpt><trkpt lat="45.5053067" lon="8.758625"><ele>130.0</ele><time>2026-04-12T08:50:19.889Z</time></trkpt><trkpt lat="45.505295" lon="8.7585317"><ele>130.0</ele><time>2026-04-12T08:50:20.889Z</time></trkpt><trkpt lat="45.5052833" lon="8.7584433"><ele>130.0</ele><time>2026-04-12T08:50:21.889Z</time></trkpt><trkpt lat="45.50527" lon="8.758295"><ele>130.0</ele><time>2026-04-12T08:50:23.889Z</time></trkpt><trkpt lat="45.5052583" lon="8.7581517"><ele>129.8</ele><time>2026-04-12T08:50:25.889Z</time></trkpt><trkpt lat="45.5052433" lon="8.7580033"><ele>129.6</ele><time>2026-04-12T08:50:27.889Z</time></trkpt><trkpt lat="45.5052233" lon="8.75785"><ele>129.4</ele><time>2026-04-12T08:50:29.889Z</time></trkpt><trkpt lat="45.5052017" lon="8.7576983"><ele>129.2</ele><time>2026-04-12T08:50:31.889Z</time></trkpt><trkpt lat="45.5051817" lon="8.7575483"><ele>129.0</ele><time>2026-04-12T08:50:33.889Z</time></trkpt><trkpt lat="45.50514" lon="8.7574417"><ele>129.4</ele><time>2026-04-12T08:50:35.889Z</time></trkpt><trkpt lat="45.5050717" lon="8.75736"><ele>129.8</ele><time>2026-04-12T08:50:37.889Z</time></trkpt><trkpt lat="45.5049933" lon="8.7572917"><ele>130.2</ele><time>2026-04-12T08:50:39.89Z</time></trkpt><trkpt lat="45.5049133" lon="8.7572217"><ele>130.6</ele><time>2026-04-12T08:50:41.89Z</time></trkpt><trkpt lat="45.5048333" lon="8.7571417"><ele>131.0</ele><time>2026-04-12T08:50:43.889Z</time></trkpt><trkpt lat="45.5047483" lon="8.7571033"><ele>131.0</ele><time>2026-04-12T08:50:45.889Z</time></trkpt><trkpt lat="45.50466" lon="8.7571133"><ele>131.0</ele><time>2026-04-12T08:50:47.889Z</time></trkpt><trkpt lat="45.5045717" lon="8.7571467"><ele>131.0</ele><time>2026-04-12T08:50:49.889Z</time></trkpt><trkpt lat="45.504465" lon="8.7571667"><ele>131.0</ele><time>2026-04-12T08:50:51.889Z</time></trkpt><trkpt lat="45.5043633" lon="8.7571467"><ele>131.0</ele><time>2026-04-12T08:50:53.889Z</time></trkpt><trkpt lat="45.504265" lon="8.757135"><ele>131.0</ele><time>2026-04-12T08:50:55.889Z</time></trkpt><trkpt lat="45.5041717" lon="8.7570983"><ele>131.0</ele><time>2026-04-12T08:50:57.889Z</time></trkpt><trkpt lat="45.5040917" lon="8.7570567"><ele>131.0</ele><time>2026-04-12T08:50:59.889Z</time></trkpt><trkpt lat="45.50401" lon="8.757005"><ele>131.0</ele><time>2026-04-12T08:51:01.889Z</time></trkpt><trkpt lat="45.5039267" lon="8.75695"><ele>131.0</ele><time>2026-04-12T08:51:03.889Z</time></trkpt><trkpt lat="45.5038317" lon="8.7568733"><ele>131.33333333333331</ele><time>2026-04-12T08:51:05.889Z</time></trkpt><trkpt lat="45.5037483" lon="8.7567867"><ele>131.66666666666666</ele><time>2026-04-12T08:51:07.889Z</time></trkpt><trkpt lat="45.5036833" lon="8.756705"><ele>132.0</ele><time>2026-04-12T08:51:09.889Z</time></trkpt><trkpt lat="45.5037" lon="8.7566067"><ele>132.33333333333334</ele><time>2026-04-12T08:51:11.889Z</time></trkpt><trkpt lat="45.50376" lon="8.7565083"><ele>132.66666666666669</ele><time>2026-04-12T08:51:13.889Z</time></trkpt><trkpt lat="45.5038208" lon="8.7564246"><ele>133.0</ele><time>2026-04-12T08:51:15.936Z</time></trkpt><trkpt lat="45.5038849" lon="8.756343"><ele>133.0</ele><time>2026-04-12T08:51:17.936Z</time></trkpt><trkpt lat="45.503945" lon="8.7562533"><ele>133.0</ele><time>2026-04-12T08:51:19.889Z</time></trkpt><trkpt lat="45.5040033" lon="8.7561733"><ele>133.0</ele><time>2026-04-12T08:51:21.89Z</time></trkpt><trkpt lat="45.5040617" lon="8.7561033"><ele>133.0</ele><time>2026-04-12T08:51:23.89Z</time></trkpt><trkpt lat="45.50412" lon="8.7560467"><ele>133.0</ele><time>2026-04-12T08:51:25.889Z</time></trkpt><trkpt lat="45.50418" lon="8.7559633"><ele>133.0</ele><time>2026-04-12T08:51:27.889Z</time></trkpt><trkpt lat="45.504255" lon="8.7558683"><ele>133.33333333333334</ele><time>2026-04-12T08:51:29.889Z</time></trkpt><trkpt lat="45.504335" lon="8.7557917"><ele>133.66666666666669</ele><time>2026-04-12T08:51:31.889Z</time></trkpt><trkpt lat="45.504395" lon="8.7557167"><ele>134.0</ele><time>2026-04-12T08:51:33.889Z</time></trkpt><trkpt lat="45.5044633" lon="8.755625"><ele>134.33333333333334</ele><time>2026-04-12T08:51:35.889Z</time></trkpt><trkpt lat="45.50453" lon="8.7555417"><ele>134.66666666666666</ele><time>2026-04-12T08:51:37.889Z</time></trkpt><trkpt lat="45.504595" lon="8.755465"><ele>135.0</ele><time>2026-04-12T08:51:39.889Z</time></trkpt><trkpt lat="45.5046567" lon="8.7553783"><ele>135.16666666666666</ele><time>2026-04-12T08:51:41.889Z</time></trkpt><trkpt lat="45.50473" lon="8.7552883"><ele>135.33333333333334</ele><time>2026-04-12T08:51:43.889Z</time></trkpt><trkpt lat="45.5048067" lon="8.7552"><ele>135.5</ele><time>2026-04-12T08:51:45.889Z</time></trkpt><trkpt lat="45.50488" lon="8.7551317"><ele>135.66666666666669</ele><time>2026-04-12T08:51:47.889Z</time></trkpt><trkpt lat="45.50495" lon="8.7550683"><ele>135.83333333333334</ele><time>2026-04-12T08:51:49.889Z</time></trkpt><trkpt lat="45.5050067" lon="8.75499"><ele>136.0</ele><time>2026-04-12T08:51:51.889Z</time></trkpt><trkpt lat="45.5050733" lon="8.7549"><ele>136.0</ele><time>2026-04-12T08:51:53.889Z</time></trkpt><trkpt lat="45.5051333" lon="8.7548167"><ele>136.0</ele><time>2026-04-12T08:51:55.889Z</time></trkpt><trkpt lat="45.5052017" lon="8.7547233"><ele>136.0</ele><time>2026-04-12T08:51:57.889Z</time></trkpt><trkpt lat="45.505285" lon="8.7546383"><ele>136.0</ele><time>2026-04-12T08:51:59.889Z</time></trkpt><trkpt lat="45.5053633" lon="8.754555"><ele>136.0</ele><time>2026-04-12T08:52:01.889Z</time></trkpt><trkpt lat="45.505425" lon="8.75447"><ele>136.0</ele><time>2026-04-12T08:52:03.889Z</time></trkpt><trkpt lat="45.5054983" lon="8.7543883"><ele>136.0</ele><time>2026-04-12T08:52:05.889Z</time></trkpt><trkpt lat="45.5055767" lon="8.7543017"><ele>136.0</ele><time>2026-04-12T08:52:07.89Z</time></trkpt><trkpt lat="45.505665" lon="8.754265"><ele>136.0</ele><time>2026-04-12T08:52:09.889Z</time></trkpt><trkpt lat="45.50577" lon="8.754275"><ele>136.0</ele><time>2026-04-12T08:52:11.89Z</time></trkpt><trkpt lat="45.5058733" lon="8.7542817"><ele>136.0</ele><time>2026-04-12T08:52:13.889Z</time></trkpt><trkpt lat="45.5059783" lon="8.75425"><ele>136.0</ele><time>2026-04-12T08:52:15.89Z</time></trkpt><trkpt lat="45.5060783" lon="8.7541867"><ele>136.0</ele><time>2026-04-12T08:52:17.889Z</time></trkpt><trkpt lat="45.5061533" lon="8.7541033"><ele>136.0</ele><time>2026-04-12T08:52:19.89Z</time></trkpt><trkpt lat="45.5062183" lon="8.7540517"><ele>136.0</ele><time>2026-04-12T08:52:21.889Z</time></trkpt><trkpt lat="45.50628" lon="8.7539883"><ele>136.16666666666669</ele><time>2026-04-12T08:52:23.889Z</time></trkpt><trkpt lat="45.5063467" lon="8.7539233"><ele>136.33333333333334</ele><time>2026-04-12T08:52:25.889Z</time></trkpt><trkpt lat="45.5064167" lon="8.7538633"><ele>136.5</ele><time>2026-04-12T08:52:27.889Z</time></trkpt><trkpt lat="45.5064783" lon="8.753805"><ele>136.66666666666666</ele><time>2026-04-12T08:52:29.889Z</time></trkpt><trkpt lat="45.5065383" lon="8.75372"><ele>136.83333333333331</ele><time>2026-04-12T08:52:31.889Z</time></trkpt><trkpt lat="45.5065983" lon="8.7536317"><ele>137.0</ele><time>2026-04-12T08:52:33.889Z</time></trkpt><trkpt lat="45.5066833" lon="8.7535783"><ele>136.4</ele><time>2026-04-12T08:52:35.889Z</time></trkpt><trkpt lat="45.5067733" lon="8.7535"><ele>135.79999999999998</ele><time>2026-04-12T08:52:37.889Z</time></trkpt><trkpt lat="45.5068217" lon="8.7534"><ele>135.2</ele><time>2026-04-12T08:52:39.889Z</time></trkpt><trkpt lat="45.5068317" lon="8.75329"><ele>134.6</ele><time>2026-04-12T08:52:41.889Z</time></trkpt><trkpt lat="45.5068133" lon="8.7531583"><ele>134.0</ele><time>2026-04-12T08:52:43.889Z</time></trkpt><trkpt lat="45.50679" lon="8.7530333"><ele>134.0</ele><time>2026-04-12T08:52:45.889Z</time></trkpt><trkpt lat="45.506795" lon="8.7529067"><ele>134.0</ele><time>2026-04-12T08:52:47.889Z</time></trkpt><trkpt lat="45.506825" lon="8.7527917"><ele>134.0</ele><time>2026-04-12T08:52:49.889Z</time></trkpt><trkpt lat="45.50685" lon="8.752675"><ele>134.0</ele><time>2026-04-12T08:52:51.889Z</time></trkpt><trkpt lat="45.5068883" lon="8.75254"><ele>134.0</ele><time>2026-04-12T08:52:53.889Z</time></trkpt><trkpt lat="45.5069133" lon="8.7524067"><ele>133.6</ele><time>2026-04-12T08:52:55.89Z</time></trkpt><trkpt lat="45.506935" lon="8.7522817"><ele>133.2</ele><time>2026-04-12T08:52:57.889Z</time></trkpt><trkpt lat="45.5069667" lon="8.7521483"><ele>132.79999999999998</ele><time>2026-04-12T08:52:59.889Z</time></trkpt><trkpt lat="45.506995" lon="8.7520117"><ele>132.4</ele><time>2026-04-12T08:53:01.889Z</time></trkpt><trkpt lat="45.5070217" lon="8.7518733"><ele>132.0</ele><time>2026-04-12T08:53:03.889Z</time></trkpt><trkpt lat="45.5070483" lon="8.751745"><ele>132.6</ele><time>2026-04-12T08:53:05.889Z</time></trkpt><trkpt lat="45.5070783" lon="8.75162"><ele>133.2</ele><time>2026-04-12T08:53:07.889Z</time></trkpt><trkpt lat="45.507115" lon="8.7514817"><ele>133.8</ele><time>2026-04-12T08:53:09.889Z</time></trkpt><trkpt lat="45.5071667" lon="8.7513617"><ele>134.4</ele><time>2026-04-12T08:53:11.889Z</time></trkpt><trkpt lat="45.507185" lon="8.7512417"><ele>135.0</ele><time>2026-04-12T08:53:13.889Z</time></trkpt><trkpt lat="45.507175" lon="8.75113"><ele>135.0</ele><time>2026-04-12T08:53:15.889Z</time></trkpt><trkpt lat="45.5072033" lon="8.751035"><ele>135.0</ele><time>2026-04-12T08:53:18.889Z</time></trkpt><trkpt lat="45.50723" lon="8.750935"><ele>135.0</ele><time>2026-04-12T08:53:20.889Z</time></trkpt><trkpt lat="45.5072483" lon="8.7508067"><ele>135.0</ele><time>2026-04-12T08:53:22.889Z</time></trkpt><trkpt lat="45.5072767" lon="8.7506767"><ele>135.0</ele><time>2026-04-12T08:53:24.889Z</time></trkpt><trkpt lat="45.5073017" lon="8.7505717"><ele>135.0</ele><time>2026-04-12T08:53:26.889Z</time></trkpt><trkpt lat="45.5073283" lon="8.7504583"><ele>135.0</ele><time>2026-04-12T08:53:28.889Z</time></trkpt><trkpt lat="45.50736" lon="8.7503183"><ele>135.0</ele><time>2026-04-12T08:53:30.889Z</time></trkpt><trkpt lat="45.507395" lon="8.7501733"><ele>135.0</ele><time>2026-04-12T08:53:32.889Z</time></trkpt><trkpt lat="45.5074417" lon="8.7500517"><ele>135.0</ele><time>2026-04-12T08:53:34.889Z</time></trkpt><trkpt lat="45.507505" lon="8.7499267"><ele>135.0</ele><time>2026-04-12T08:53:36.889Z</time></trkpt><trkpt lat="45.5075683" lon="8.7498033"><ele>135.0</ele><time>2026-04-12T08:53:38.889Z</time></trkpt><trkpt lat="45.5076217" lon="8.7496983"><ele>135.0</ele><time>2026-04-12T08:53:40.889Z</time></trkpt><trkpt lat="45.5076733" lon="8.7495717"><ele>135.0</ele><time>2026-04-12T08:53:42.889Z</time></trkpt><trkpt lat="45.5077233" lon="8.749455"><ele>135.0</ele><time>2026-04-12T08:53:44.889Z</time></trkpt><trkpt lat="45.50778" lon="8.74935"><ele>135.0</ele><time>2026-04-12T08:53:46.89Z</time></trkpt><trkpt lat="45.5078417" lon="8.749255"><ele>134.6</ele><time>2026-04-12T08:53:48.889Z</time></trkpt><trkpt lat="45.5078933" lon="8.7491683"><ele>134.2</ele><time>2026-04-12T08:53:50.889Z</time></trkpt><trkpt lat="45.5079683" lon="8.749085"><ele>133.8</ele><time>2026-04-12T08:53:52.889Z</time></trkpt><trkpt lat="45.5080433" lon="8.7490233"><ele>133.4</ele><time>2026-04-12T08:53:54.889Z</time></trkpt><trkpt lat="45.5081283" lon="8.7489533"><ele>133.0</ele><time>2026-04-12T08:53:56.89Z</time></trkpt><trkpt lat="45.5082083" lon="8.748885"><ele>133.83333333333334</ele><time>2026-04-12T08:53:58.889Z</time></trkpt><trkpt lat="45.508275" lon="8.7488083"><ele>134.66666666666669</ele><time>2026-04-12T08:54:00.889Z</time></trkpt><trkpt lat="45.5083533" lon="8.7487417"><ele>135.5</ele><time>2026-04-12T08:54:02.889Z</time></trkpt><trkpt lat="45.5084433" lon="8.74868"><ele>136.33333333333334</ele><time>2026-04-12T08:54:04.889Z</time></trkpt><trkpt lat="45.5085233" lon="8.7486383"><ele>137.16666666666666</ele><time>2026-04-12T08:54:06.889Z</time></trkpt><trkpt lat="45.5086033" lon="8.748605"><ele>138.0</ele><time>2026-04-12T08:54:08.889Z</time></trkpt><trkpt lat="45.508685" lon="8.748555"><ele>137.83333333333334</ele><time>2026-04-12T08:54:10.889Z</time></trkpt><trkpt lat="45.5087467" lon="8.7484667"><ele>137.66666666666666</ele><time>2026-04-12T08:54:12.889Z</time></trkpt><trkpt lat="45.5087983" lon="8.7483667"><ele>137.5</ele><time>2026-04-12T08:54:14.889Z</time></trkpt><trkpt lat="45.5088217" lon="8.748245"><ele>137.33333333333331</ele><time>2026-04-12T08:54:16.889Z</time></trkpt><trkpt lat="45.508845" lon="8.7481433"><ele>137.16666666666666</ele><time>2026-04-12T08:54:18.889Z</time></trkpt><trkpt lat="45.5088833" lon="8.7480467"><ele>137.0</ele><time>2026-04-12T08:54:20.889Z</time></trkpt><trkpt lat="45.5089367" lon="8.74792"><ele>137.0</ele><time>2026-04-12T08:54:22.889Z</time></trkpt><trkpt lat="45.508995" lon="8.7477883"><ele>137.0</ele><time>2026-04-12T08:54:24.889Z</time></trkpt><trkpt lat="45.5090483" lon="8.7476717"><ele>137.0</ele><time>2026-04-12T08:54:26.889Z</time></trkpt><trkpt lat="45.5091083" lon="8.74754"><ele>137.0</ele><time>2026-04-12T08:54:28.889Z</time></trkpt><trkpt lat="45.509195" lon="8.7474317"><ele>137.0</ele><time>2026-04-12T08:54:30.889Z</time></trkpt><trkpt lat="45.509255" lon="8.7473983"><ele>136.79999999999998</ele><time>2026-04-12T08:54:31.889Z</time></trkpt><trkpt lat="45.5093733" lon="8.7473483"><ele>136.6</ele><time>2026-04-12T08:54:33.889Z</time></trkpt><trkpt lat="45.509435" lon="8.7473133"><ele>136.39999999999998</ele><time>2026-04-12T08:54:34.889Z</time></trkpt><trkpt lat="45.50953" lon="8.7472183"><ele>136.2</ele><time>2026-04-12T08:54:36.889Z</time></trkpt><trkpt lat="45.5096033" lon="8.74712"><ele>136.0</ele><time>2026-04-12T08:54:38.89Z</time></trkpt><trkpt lat="45.5096917" lon="8.74705"><ele>135.8</ele><time>2026-04-12T08:54:40.889Z</time></trkpt><trkpt lat="45.5097817" lon="8.746985"><ele>135.6</ele><time>2026-04-12T08:54:42.889Z</time></trkpt><trkpt lat="45.5098633" lon="8.746905"><ele>135.4</ele><time>2026-04-12T08:54:44.89Z</time></trkpt><trkpt lat="45.5099533" lon="8.746855"><ele>135.2</ele><time>2026-04-12T08:54:46.889Z</time></trkpt><trkpt lat="45.5100183" lon="8.746805"><ele>135.0</ele><time>2026-04-12T08:54:48.889Z</time></trkpt><trkpt lat="45.5100883" lon="8.74675"><ele>135.0</ele><time>2026-04-12T08:54:50.889Z</time></trkpt><trkpt lat="45.5101683" lon="8.7467017"><ele>135.0</ele><time>2026-04-12T08:54:52.889Z</time></trkpt><trkpt lat="45.5102467" lon="8.7466483"><ele>135.0</ele><time>2026-04-12T08:54:54.889Z</time></trkpt><trkpt lat="45.5103333" lon="8.74658"><ele>135.0</ele><time>2026-04-12T08:54:56.889Z</time></trkpt><trkpt lat="45.5104183" lon="8.7465167"><ele>135.0</ele><time>2026-04-12T08:54:58.889Z</time></trkpt><trkpt lat="45.5104983" lon="8.7464783"><ele>135.16666666666666</ele><time>2026-04-12T08:55:00.889Z</time></trkpt><trkpt lat="45.51058" lon="8.746465"><ele>135.33333333333334</ele><time>2026-04-12T08:55:02.889Z</time></trkpt><trkpt lat="45.5106633" lon="8.7464317"><ele>135.5</ele><time>2026-04-12T08:55:04.889Z</time></trkpt><trkpt lat="45.5107517" lon="8.7463833"><ele>135.66666666666669</ele><time>2026-04-12T08:55:06.889Z</time></trkpt><trkpt lat="45.5108367" lon="8.7463383"><ele>135.83333333333334</ele><time>2026-04-12T08:55:08.889Z</time></trkpt><trkpt lat="45.51092" lon="8.7462783"><ele>136.0</ele><time>2026-04-12T08:55:10.889Z</time></trkpt><trkpt lat="45.510995" lon="8.7462267"><ele>136.0</ele><time>2026-04-12T08:55:12.889Z</time></trkpt><trkpt lat="45.51108" lon="8.7461533"><ele>136.0</ele><time>2026-04-12T08:55:14.889Z</time></trkpt><trkpt lat="45.511175" lon="8.7460967"><ele>136.0</ele><time>2026-04-12T08:55:16.889Z</time></trkpt><trkpt lat="45.5112717" lon="8.7460383"><ele>136.0</ele><time>2026-04-12T08:55:18.889Z</time></trkpt><trkpt lat="45.5113633" lon="8.7459883"><ele>136.0</ele><time>2026-04-12T08:55:20.889Z</time></trkpt><trkpt lat="45.5114483" lon="8.745945"><ele>136.4</ele><time>2026-04-12T08:55:22.889Z</time></trkpt><trkpt lat="45.51153" lon="8.7458933"><ele>136.8</ele><time>2026-04-12T08:55:24.889Z</time></trkpt><trkpt lat="45.511615" lon="8.7458283"><ele>137.20000000000002</ele><time>2026-04-12T08:55:26.889Z</time></trkpt><trkpt lat="45.5117017" lon="8.745755"><ele>137.6</ele><time>2026-04-12T08:55:28.889Z</time></trkpt><trkpt lat="45.5117833" lon="8.7457133"><ele>138.0</ele><time>2026-04-12T08:55:30.889Z</time></trkpt><trkpt lat="45.5118667" lon="8.7456533"><ele>138.0</ele><time>2026-04-12T08:55:32.889Z</time></trkpt><trkpt lat="45.5119417" lon="8.7455967"><ele>138.0</ele><time>2026-04-12T08:55:34.889Z</time></trkpt><trkpt lat="45.5120283" lon="8.7455517"><ele>138.0</ele><time>2026-04-12T08:55:36.889Z</time></trkpt><trkpt lat="45.51211" lon="8.7455167"><ele>138.0</ele><time>2026-04-12T08:55:38.889Z</time></trkpt><trkpt lat="45.5121767" lon="8.745485"><ele>138.0</ele><time>2026-04-12T08:55:40.889Z</time></trkpt><trkpt lat="45.5122683" lon="8.7454333"><ele>138.0</ele><time>2026-04-12T08:55:43.889Z</time></trkpt><trkpt lat="45.51235" lon="8.7453883"><ele>138.0</ele><time>2026-04-12T08:55:45.889Z</time></trkpt><trkpt lat="45.5124317" lon="8.7453233"><ele>138.0</ele><time>2026-04-12T08:55:47.889Z</time></trkpt><trkpt lat="45.5125043" lon="8.7452828"><ele>138.0</ele><time>2026-04-12T08:55:49.903Z</time></trkpt><trkpt lat="45.5125834" lon="8.7452309"><ele>138.0</ele><time>2026-04-12T08:55:51.903Z</time></trkpt><trkpt lat="45.5126586" lon="8.7451762"><ele>138.0</ele><time>2026-04-12T08:55:53.903Z</time></trkpt><trkpt lat="45.5127183" lon="8.745135"><ele>138.0</ele><time>2026-04-12T08:55:55.889Z</time></trkpt><trkpt lat="45.5127933" lon="8.7450767"><ele>138.20000000000002</ele><time>2026-04-12T08:55:57.889Z</time></trkpt><trkpt lat="45.5128833" lon="8.7450117"><ele>138.4</ele><time>2026-04-12T08:55:59.889Z</time></trkpt><trkpt lat="45.5129767" lon="8.7449567"><ele>138.60000000000002</ele><time>2026-04-12T08:56:01.889Z</time></trkpt><trkpt lat="45.5130717" lon="8.7448933"><ele>138.8</ele><time>2026-04-12T08:56:03.889Z</time></trkpt><trkpt lat="45.513165" lon="8.7448317"><ele>139.0</ele><time>2026-04-12T08:56:05.889Z</time></trkpt><trkpt lat="45.5132533" lon="8.7447767"><ele>139.4</ele><time>2026-04-12T08:56:07.889Z</time></trkpt><trkpt lat="45.513335" lon="8.7447233"><ele>139.8</ele><time>2026-04-12T08:56:09.889Z</time></trkpt><trkpt lat="45.51342" lon="8.744665"><ele>140.2</ele><time>2026-04-12T08:56:11.889Z</time></trkpt><trkpt lat="45.513505" lon="8.7446033"><ele>140.6</ele><time>2026-04-12T08:56:13.889Z</time></trkpt><trkpt lat="45.5136017" lon="8.7445617"><ele>141.0</ele><time>2026-04-12T08:56:15.889Z</time></trkpt><trkpt lat="45.51368" lon="8.7446417"><ele>141.0</ele><time>2026-04-12T08:56:17.889Z</time></trkpt><trkpt lat="45.513725" lon="8.7447867"><ele>141.0</ele><time>2026-04-12T08:56:19.889Z</time></trkpt><trkpt lat="45.51378" lon="8.7449133"><ele>141.0</ele><time>2026-04-12T08:56:21.889Z</time></trkpt><trkpt lat="45.5138183" lon="8.7450317"><ele>141.0</ele><time>2026-04-12T08:56:23.889Z</time></trkpt><trkpt lat="45.5138717" lon="8.745165"><ele>141.0</ele><time>2026-04-12T08:56:25.889Z</time></trkpt><trkpt lat="45.5139217" lon="8.745295"><ele>140.4</ele><time>2026-04-12T08:56:27.889Z</time></trkpt><trkpt lat="45.5139633" lon="8.7454233"><ele>139.8</ele><time>2026-04-12T08:56:29.89Z</time></trkpt><trkpt lat="45.5140017" lon="8.745555"><ele>139.20000000000002</ele><time>2026-04-12T08:56:31.889Z</time></trkpt><trkpt lat="45.5140517" lon="8.7456967"><ele>138.6</ele><time>2026-04-12T08:56:33.889Z</time></trkpt><trkpt lat="45.5141067" lon="8.7458333"><ele>138.0</ele><time>2026-04-12T08:56:35.889Z</time></trkpt><trkpt lat="45.5141583" lon="8.7459517"><ele>137.8</ele><time>2026-04-12T08:56:37.889Z</time></trkpt><trkpt lat="45.5142067" lon="8.746065"><ele>137.60000000000002</ele><time>2026-04-12T08:56:39.888Z</time></trkpt><trkpt lat="45.5142417" lon="8.7461883"><ele>137.39999999999998</ele><time>2026-04-12T08:56:41.888Z</time></trkpt><trkpt lat="45.5142867" lon="8.7463"><ele>137.2</ele><time>2026-04-12T08:56:43.888Z</time></trkpt><trkpt lat="45.514335" lon="8.74641"><ele>137.0</ele><time>2026-04-12T08:56:45.888Z</time></trkpt><trkpt lat="45.5143867" lon="8.7465417"><ele>137.0</ele><time>2026-04-12T08:56:47.888Z</time></trkpt><trkpt lat="45.5144367" lon="8.7466917"><ele>137.0</ele><time>2026-04-12T08:56:49.888Z</time></trkpt><trkpt lat="45.5144767" lon="8.74684"><ele>137.0</ele><time>2026-04-12T08:56:51.888Z</time></trkpt><trkpt lat="45.51453" lon="8.7469767"><ele>137.0</ele><time>2026-04-12T08:56:53.888Z</time></trkpt><trkpt lat="45.5145867" lon="8.747095"><ele>137.0</ele><time>2026-04-12T08:56:55.888Z</time></trkpt><trkpt lat="45.5146517" lon="8.7471967"><ele>137.2</ele><time>2026-04-12T08:56:57.888Z</time></trkpt><trkpt lat="45.5147167" lon="8.74731"><ele>137.39999999999998</ele><time>2026-04-12T08:56:59.888Z</time></trkpt><trkpt lat="45.5147867" lon="8.74742"><ele>137.60000000000002</ele><time>2026-04-12T08:57:01.888Z</time></trkpt><trkpt lat="45.5148667" lon="8.7475217"><ele>137.8</ele><time>2026-04-12T08:57:03.888Z</time></trkpt><trkpt lat="45.5149333" lon="8.7476383"><ele>138.0</ele><time>2026-04-12T08:57:05.888Z</time></trkpt><trkpt lat="45.5150017" lon="8.7477583"><ele>138.8</ele><time>2026-04-12T08:57:07.888Z</time></trkpt><trkpt lat="45.5150733" lon="8.7478767"><ele>139.60000000000002</ele><time>2026-04-12T08:57:09.888Z</time></trkpt><trkpt lat="45.5151417" lon="8.7479833"><ele>140.39999999999998</ele><time>2026-04-12T08:57:11.889Z</time></trkpt><trkpt lat="45.5152133" lon="8.7480833"><ele>141.2</ele><time>2026-04-12T08:57:13.888Z</time></trkpt><trkpt lat="45.5152767" lon="8.74818"><ele>142.0</ele><time>2026-04-12T08:57:15.888Z</time></trkpt><trkpt lat="45.515345" lon="8.748285"><ele>141.6</ele><time>2026-04-12T08:57:17.888Z</time></trkpt><trkpt lat="45.51541" lon="8.748385"><ele>141.2</ele><time>2026-04-12T08:57:19.888Z</time></trkpt><trkpt lat="45.51548" lon="8.7484717"><ele>140.8</ele><time>2026-04-12T08:57:21.889Z</time></trkpt><trkpt lat="45.515555" lon="8.7485517"><ele>140.4</ele><time>2026-04-12T08:57:23.888Z</time></trkpt><trkpt lat="45.5156283" lon="8.7486467"><ele>140.0</ele><time>2026-04-12T08:57:25.888Z</time></trkpt><trkpt lat="45.5157" lon="8.7487283"><ele>139.8</ele><time>2026-04-12T08:57:27.888Z</time></trkpt><trkpt lat="45.515775" lon="8.748795"><ele>139.6</ele><time>2026-04-12T08:57:29.888Z</time></trkpt><trkpt lat="45.5158617" lon="8.74887"><ele>139.4</ele><time>2026-04-12T08:57:31.889Z</time></trkpt><trkpt lat="45.51594" lon="8.748945"><ele>139.2</ele><time>2026-04-12T08:57:33.888Z</time></trkpt><trkpt lat="45.5160233" lon="8.7490233"><ele>139.0</ele><time>2026-04-12T08:57:35.888Z</time></trkpt><trkpt lat="45.5161" lon="8.74912"><ele>139.0</ele><time>2026-04-12T08:57:37.888Z</time></trkpt><trkpt lat="45.516175" lon="8.7492067"><ele>139.0</ele><time>2026-04-12T08:57:39.888Z</time></trkpt><trkpt lat="45.516225" lon="8.7492633"><ele>139.0</ele><time>2026-04-12T08:57:40.888Z</time></trkpt><trkpt lat="45.5163033" lon="8.749355"><ele>139.0</ele><time>2026-04-12T08:57:42.888Z</time></trkpt><trkpt lat="45.516385" lon="8.74944"><ele>139.0</ele><time>2026-04-12T08:57:44.888Z</time></trkpt><trkpt lat="45.51646" lon="8.74953"><ele>138.4</ele><time>2026-04-12T08:57:46.888Z</time></trkpt><trkpt lat="45.516545" lon="8.7496367"><ele>137.8</ele><time>2026-04-12T08:57:48.888Z</time></trkpt><trkpt lat="45.5166133" lon="8.7497317"><ele>137.2</ele><time>2026-04-12T08:57:50.889Z</time></trkpt><trkpt lat="45.5166733" lon="8.7498533"><ele>136.6</ele><time>2026-04-12T08:57:52.888Z</time></trkpt><trkpt lat="45.5167117" lon="8.749985"><ele>136.0</ele><time>2026-04-12T08:57:54.888Z</time></trkpt><trkpt lat="45.516705" lon="8.7501317"><ele>136.2</ele><time>2026-04-12T08:57:56.888Z</time></trkpt><trkpt lat="45.516675" lon="8.75027"><ele>136.39999999999998</ele><time>2026-04-12T08:57:58.888Z</time></trkpt><trkpt lat="45.5166533" lon="8.75041"><ele>136.6</ele><time>2026-04-12T08:58:00.888Z</time></trkpt><trkpt lat="45.5166417" lon="8.7505383"><ele>136.79999999999998</ele><time>2026-04-12T08:58:02.888Z</time></trkpt><trkpt lat="45.5166383" lon="8.75066"><ele>137.0</ele><time>2026-04-12T08:58:04.888Z</time></trkpt><trkpt lat="45.5166433" lon="8.7507967"><ele>137.0</ele><time>2026-04-12T08:58:07.888Z</time></trkpt><trkpt lat="45.5166833" lon="8.7508867"><ele>137.0</ele><time>2026-04-12T08:58:09.888Z</time></trkpt><trkpt lat="45.516745" lon="8.7509533"><ele>137.0</ele><time>2026-04-12T08:58:11.888Z</time></trkpt><trkpt lat="45.5168167" lon="8.75099"><ele>137.0</ele><time>2026-04-12T08:58:14.888Z</time></trkpt><trkpt lat="45.5168783" lon="8.751015"><ele>137.0</ele><time>2026-04-12T08:58:16.888Z</time></trkpt><trkpt lat="45.51697" lon="8.7510917"><ele>137.0</ele><time>2026-04-12T08:58:18.888Z</time></trkpt><trkpt lat="45.517035" lon="8.7512033"><ele>136.79999999999998</ele><time>2026-04-12T08:58:20.888Z</time></trkpt><trkpt lat="45.517095" lon="8.75129"><ele>136.6</ele><time>2026-04-12T08:58:22.888Z</time></trkpt><trkpt lat="45.5171683" lon="8.7513867"><ele>136.39999999999998</ele><time>2026-04-12T08:58:24.888Z</time></trkpt><trkpt lat="45.5172567" lon="8.7514883"><ele>136.2</ele><time>2026-04-12T08:58:26.888Z</time></trkpt><trkpt lat="45.5173333" lon="8.7515983"><ele>136.0</ele><time>2026-04-12T08:58:28.888Z</time></trkpt><trkpt lat="45.5174117" lon="8.7517133"><ele>136.0</ele><time>2026-04-12T08:58:30.888Z</time></trkpt><trkpt lat="45.5174833" lon="8.7518067"><ele>136.0</ele><time>2026-04-12T08:58:32.888Z</time></trkpt><trkpt lat="45.51755" lon="8.7518933"><ele>136.0</ele><time>2026-04-12T08:58:34.888Z</time></trkpt><trkpt lat="45.51762" lon="8.75198"><ele>136.0</ele><time>2026-04-12T08:58:36.889Z</time></trkpt><trkpt lat="45.5176933" lon="8.752065"><ele>136.0</ele><time>2026-04-12T08:58:38.888Z</time></trkpt><trkpt lat="45.517745" lon="8.7521483"><ele>136.0</ele><time>2026-04-12T08:58:40.888Z</time></trkpt><trkpt lat="45.5178" lon="8.752235"><ele>136.0</ele><time>2026-04-12T08:58:42.889Z</time></trkpt><trkpt lat="45.5178717" lon="8.75231"><ele>136.0</ele><time>2026-04-12T08:58:44.888Z</time></trkpt><trkpt lat="45.5179467" lon="8.7523767"><ele>136.0</ele><time>2026-04-12T08:58:46.888Z</time></trkpt><trkpt lat="45.5180083" lon="8.752455"><ele>136.0</ele><time>2026-04-12T08:58:48.888Z</time></trkpt><trkpt lat="45.5180667" lon="8.7525383"><ele>136.0</ele><time>2026-04-12T08:58:50.888Z</time></trkpt><trkpt lat="45.5181283" lon="8.7526233"><ele>136.0</ele><time>2026-04-12T08:58:52.888Z</time></trkpt><trkpt lat="45.518185" lon="8.752705"><ele>136.0</ele><time>2026-04-12T08:58:54.888Z</time></trkpt><trkpt lat="45.5182433" lon="8.7527883"><ele>136.0</ele><time>2026-04-12T08:58:56.888Z</time></trkpt><trkpt lat="45.5183033" lon="8.752875"><ele>136.0</ele><time>2026-04-12T08:58:58.888Z</time></trkpt><trkpt lat="45.5183633" lon="8.75297"><ele>136.0</ele><time>2026-04-12T08:59:00.888Z</time></trkpt><trkpt lat="45.5184367" lon="8.7530483"><ele>136.0</ele><time>2026-04-12T08:59:02.888Z</time></trkpt><trkpt lat="45.518505" lon="8.7531217"><ele>136.0</ele><time>2026-04-12T08:59:04.888Z</time></trkpt><trkpt lat="45.51857" lon="8.7532"><ele>136.0</ele><time>2026-04-12T08:59:06.888Z</time></trkpt><trkpt lat="45.5186383" lon="8.7532883"><ele>136.0</ele><time>2026-04-12T08:59:08.888Z</time></trkpt><trkpt lat="45.5187033" lon="8.7533917"><ele>136.0</ele><time>2026-04-12T08:59:10.888Z</time></trkpt><trkpt lat="45.5187683" lon="8.7534767"><ele>136.0</ele><time>2026-04-12T08:59:12.888Z</time></trkpt><trkpt lat="45.5188283" lon="8.753565"><ele>136.0</ele><time>2026-04-12T08:59:14.888Z</time></trkpt><trkpt lat="45.5188983" lon="8.7536517"><ele>136.0</ele><time>2026-04-12T08:59:16.888Z</time></trkpt><trkpt lat="45.5189517" lon="8.7537433"><ele>136.0</ele><time>2026-04-12T08:59:18.888Z</time></trkpt><trkpt lat="45.5190183" lon="8.7538283"><ele>136.0</ele><time>2026-04-12T08:59:20.888Z</time></trkpt><trkpt lat="45.519085" lon="8.753915"><ele>136.0</ele><time>2026-04-12T08:59:22.888Z</time></trkpt><trkpt lat="45.5191567" lon="8.7539983"><ele>136.0</ele><time>2026-04-12T08:59:24.888Z</time></trkpt><trkpt lat="45.519225" lon="8.7540817"><ele>136.0</ele><time>2026-04-12T08:59:26.888Z</time></trkpt><trkpt lat="45.51929" lon="8.7541517"><ele>136.0</ele><time>2026-04-12T08:59:28.889Z</time></trkpt><trkpt lat="45.5193567" lon="8.7542367"><ele>136.0</ele><time>2026-04-12T08:59:30.888Z</time></trkpt><trkpt lat="45.5194217" lon="8.7543317"><ele>136.0</ele><time>2026-04-12T08:59:32.888Z</time></trkpt><trkpt lat="45.5194983" lon="8.7544133"><ele>136.0</ele><time>2026-04-12T08:59:34.888Z</time></trkpt><trkpt lat="45.5195783" lon="8.7544933"><ele>136.0</ele><time>2026-04-12T08:59:36.888Z</time></trkpt><trkpt lat="45.5196483" lon="8.7545917"><ele>136.0</ele><time>2026-04-12T08:59:38.889Z</time></trkpt><trkpt lat="45.5197217" lon="8.75469"><ele>136.0</ele><time>2026-04-12T08:59:40.888Z</time></trkpt><trkpt lat="45.5197817" lon="8.754795"><ele>136.0</ele><time>2026-04-12T08:59:42.888Z</time></trkpt><trkpt lat="45.51985" lon="8.7549033"><ele>136.0</ele><time>2026-04-12T08:59:44.888Z</time></trkpt><trkpt lat="45.51992" lon="8.755"><ele>136.0</ele><time>2026-04-12T08:59:46.889Z</time></trkpt><trkpt lat="45.519985" lon="8.7550783"><ele>136.0</ele><time>2026-04-12T08:59:48.888Z</time></trkpt><trkpt lat="45.5200483" lon="8.7551667"><ele>136.0</ele><time>2026-04-12T08:59:50.888Z</time></trkpt><trkpt lat="45.5201283" lon="8.75526"><ele>136.0</ele><time>2026-04-12T08:59:52.888Z</time></trkpt><trkpt lat="45.520205" lon="8.755355"><ele>136.0</ele><time>2026-04-12T08:59:54.888Z</time></trkpt><trkpt lat="45.5202817" lon="8.7554433"><ele>136.0</ele><time>2026-04-12T08:59:56.888Z</time></trkpt><trkpt lat="45.5203617" lon="8.7555317"><ele>136.4</ele><time>2026-04-12T08:59:58.888Z</time></trkpt><trkpt lat="45.5204367" lon="8.7556283"><ele>136.8</ele><time>2026-04-12T09:00:00.888Z</time></trkpt><trkpt lat="45.5205167" lon="8.7557283"><ele>137.20000000000002</ele><time>2026-04-12T09:00:02.888Z</time></trkpt><trkpt lat="45.5206" lon="8.7558183"><ele>137.6</ele><time>2026-04-12T09:00:04.888Z</time></trkpt><trkpt lat="45.5206667" lon="8.7559117"><ele>138.0</ele><time>2026-04-12T09:00:06.888Z</time></trkpt><trkpt lat="45.520735" lon="8.755995"><ele>137.8</ele><time>2026-04-12T09:00:08.888Z</time></trkpt><trkpt lat="45.5208017" lon="8.7560883"><ele>137.60000000000002</ele><time>2026-04-12T09:00:10.888Z</time></trkpt><trkpt lat="45.5208767" lon="8.756175"><ele>137.39999999999998</ele><time>2026-04-12T09:00:12.888Z</time></trkpt><trkpt lat="45.5209533" lon="8.7562683"><ele>137.2</ele><time>2026-04-12T09:00:14.888Z</time></trkpt><trkpt lat="45.5210183" lon="8.75636"><ele>137.0</ele><time>2026-04-12T09:00:16.888Z</time></trkpt><trkpt lat="45.521055" lon="8.7564783"><ele>137.0</ele><time>2026-04-12T09:00:18.888Z</time></trkpt><trkpt lat="45.521085" lon="8.75661"><ele>137.0</ele><time>2026-04-12T09:00:20.888Z</time></trkpt><trkpt lat="45.5211117" lon="8.7567433"><ele>137.0</ele><time>2026-04-12T09:00:22.888Z</time></trkpt><trkpt lat="45.52109" lon="8.7568783"><ele>137.0</ele><time>2026-04-12T09:00:24.889Z</time></trkpt><trkpt lat="45.52104" lon="8.7569967"><ele>137.0</ele><time>2026-04-12T09:00:26.888Z</time></trkpt><trkpt lat="45.5209617" lon="8.7571033"><ele>137.0</ele><time>2026-04-12T09:00:28.888Z</time></trkpt><trkpt lat="45.5208817" lon="8.7571817"><ele>137.0</ele><time>2026-04-12T09:00:30.888Z</time></trkpt><trkpt lat="45.5208083" lon="8.7572417"><ele>137.0</ele><time>2026-04-12T09:00:32.888Z</time></trkpt><trkpt lat="45.5207317" lon="8.7573083"><ele>137.0</ele><time>2026-04-12T09:00:34.888Z</time></trkpt><trkpt lat="45.5206283" lon="8.757355"><ele>137.0</ele><time>2026-04-12T09:00:36.888Z</time></trkpt><trkpt lat="45.52054" lon="8.7574317"><ele>137.0</ele><time>2026-04-12T09:00:38.888Z</time></trkpt><trkpt lat="45.5204617" lon="8.7575317"><ele>137.0</ele><time>2026-04-12T09:00:40.888Z</time></trkpt><trkpt lat="45.520395" lon="8.757635"><ele>137.0</ele><time>2026-04-12T09:00:42.888Z</time></trkpt><trkpt lat="45.52034" lon="8.7577417"><ele>137.0</ele><time>2026-04-12T09:00:44.888Z</time></trkpt><trkpt lat="45.52028" lon="8.75785"><ele>137.0</ele><time>2026-04-12T09:00:46.888Z</time></trkpt><trkpt lat="45.52022" lon="8.757965"><ele>137.16666666666666</ele><time>2026-04-12T09:00:48.888Z</time></trkpt><trkpt lat="45.520165" lon="8.75807"><ele>137.33333333333331</ele><time>2026-04-12T09:00:50.889Z</time></trkpt><trkpt lat="45.5201117" lon="8.7581567"><ele>137.5</ele><time>2026-04-12T09:00:52.888Z</time></trkpt><trkpt lat="45.52008" lon="8.7582733"><ele>137.66666666666666</ele><time>2026-04-12T09:00:54.888Z</time></trkpt><trkpt lat="45.52011" lon="8.7583833"><ele>137.83333333333334</ele><time>2026-04-12T09:00:56.888Z</time></trkpt><trkpt lat="45.5201733" lon="8.75845"><ele>138.0</ele><time>2026-04-12T09:00:58.888Z</time></trkpt><trkpt lat="45.5202417" lon="8.75853"><ele>138.16666666666666</ele><time>2026-04-12T09:01:00.888Z</time></trkpt><trkpt lat="45.5202817" lon="8.7586283"><ele>138.33333333333334</ele><time>2026-04-12T09:01:02.888Z</time></trkpt><trkpt lat="45.5203283" lon="8.75873"><ele>138.5</ele><time>2026-04-12T09:01:04.888Z</time></trkpt><trkpt lat="45.5203667" lon="8.7588367"><ele>138.66666666666669</ele><time>2026-04-12T09:01:06.888Z</time></trkpt><trkpt lat="45.5204" lon="8.7589567"><ele>138.83333333333334</ele><time>2026-04-12T09:01:08.888Z</time></trkpt><trkpt lat="45.52043" lon="8.759065"><ele>139.0</ele><time>2026-04-12T09:01:10.888Z</time></trkpt><trkpt lat="45.5204467" lon="8.7591833"><ele>139.33333333333334</ele><time>2026-04-12T09:01:12.888Z</time></trkpt><trkpt lat="45.5204583" lon="8.7593083"><ele>139.66666666666669</ele><time>2026-04-12T09:01:14.888Z</time></trkpt><trkpt lat="45.520475" lon="8.7594317"><ele>140.0</ele><time>2026-04-12T09:01:16.888Z</time></trkpt><trkpt lat="45.5204867" lon="8.7595517"><ele>140.33333333333334</ele><time>2026-04-12T09:01:18.888Z</time></trkpt><trkpt lat="45.5204933" lon="8.75966"><ele>140.66666666666666</ele><time>2026-04-12T09:01:20.888Z</time></trkpt><trkpt lat="45.5205033" lon="8.7597717"><ele>141.0</ele><time>2026-04-12T09:01:22.888Z</time></trkpt><trkpt lat="45.520505" lon="8.7598783"><ele>141.33333333333334</ele><time>2026-04-12T09:01:24.888Z</time></trkpt><trkpt lat="45.5204917" lon="8.759995"><ele>141.66666666666666</ele><time>2026-04-12T09:01:26.888Z</time></trkpt><trkpt lat="45.520485" lon="8.760115"><ele>142.0</ele><time>2026-04-12T09:01:28.888Z</time></trkpt><trkpt lat="45.5204833" lon="8.7602183"><ele>142.33333333333331</ele><time>2026-04-12T09:01:30.888Z</time></trkpt><trkpt lat="45.5204767" lon="8.76032"><ele>142.66666666666666</ele><time>2026-04-12T09:01:32.888Z</time></trkpt><trkpt lat="45.5204683" lon="8.76042"><ele>143.0</ele><time>2026-04-12T09:01:34.889Z</time></trkpt><trkpt lat="45.5204617" lon="8.76053"><ele>143.5</ele><time>2026-04-12T09:01:36.889Z</time></trkpt><trkpt lat="45.52045" lon="8.7606317"><ele>144.0</ele><time>2026-04-12T09:01:38.888Z</time></trkpt><trkpt lat="45.5204517" lon="8.7607433"><ele>144.5</ele><time>2026-04-12T09:01:40.888Z</time></trkpt><trkpt lat="45.52044" lon="8.7608783"><ele>145.0</ele><time>2026-04-12T09:01:43.888Z</time></trkpt><trkpt lat="45.5204483" lon="8.7609717"><ele>145.5</ele><time>2026-04-12T09:01:45.888Z</time></trkpt><trkpt lat="45.5204533" lon="8.7610717"><ele>146.0</ele><time>2026-04-12T09:01:47.888Z</time></trkpt><trkpt lat="45.520445" lon="8.7611717"><ele>146.5</ele><time>2026-04-12T09:01:49.888Z</time></trkpt><trkpt lat="45.5204383" lon="8.7612783"><ele>147.0</ele><time>2026-04-12T09:01:51.888Z</time></trkpt><trkpt lat="45.52044" lon="8.7613883"><ele>147.5</ele><time>2026-04-12T09:01:53.888Z</time></trkpt><trkpt lat="45.5204433" lon="8.7614917"><ele>148.0</ele><time>2026-04-12T09:01:55.889Z</time></trkpt><trkpt lat="45.5204517" lon="8.7616183"><ele>148.5</ele><time>2026-04-12T09:01:57.889Z</time></trkpt><trkpt lat="45.5204533" lon="8.7617333"><ele>149.0</ele><time>2026-04-12T09:01:59.888Z</time></trkpt><trkpt lat="45.520435" lon="8.7618233"><ele>149.0</ele><time>2026-04-12T09:02:01.888Z</time></trkpt><trkpt lat="45.5204467" lon="8.761915"><ele>149.0</ele><time>2026-04-12T09:02:03.888Z</time></trkpt><trkpt lat="45.5205083" lon="8.7619417"><ele>149.0</ele><time>2026-04-12T09:02:05.888Z</time></trkpt><trkpt lat="45.5205683" lon="8.76188"><ele>149.0</ele><time>2026-04-12T09:02:07.888Z</time></trkpt><trkpt lat="45.5206267" lon="8.7618083"><ele>149.0</ele><time>2026-04-12T09:02:09.888Z</time></trkpt><trkpt lat="45.5206733" lon="8.7617467"><ele>149.0</ele><time>2026-04-12T09:02:11.888Z</time></trkpt><trkpt lat="45.5207433" lon="8.7616817"><ele>149.0</ele><time>2026-04-12T09:02:14.888Z</time></trkpt><trkpt lat="45.5208067" lon="8.7616667"><ele>149.0</ele><time>2026-04-12T09:02:17.888Z</time></trkpt><trkpt lat="45.52085" lon="8.761735"><ele>149.0</ele><time>2026-04-12T09:02:20.888Z</time></trkpt><trkpt lat="45.5208733" lon="8.7618333"><ele>149.0</ele><time>2026-04-12T09:02:25.888Z</time></trkpt><trkpt lat="45.520885" lon="8.76194"><ele>149.0</ele><time>2026-04-12T09:02:32.888Z</time></trkpt><trkpt lat="45.5208933" lon="8.7620367"><ele>149.0</ele><time>2026-04-12T09:02:37.888Z</time></trkpt><trkpt lat="45.5208917" lon="8.762205"><ele>149.0</ele><time>2026-04-12T09:02:47.888Z</time></trkpt><trkpt lat="45.5208467" lon="8.7623833"><ele>149.5</ele><time>2026-04-12T09:03:01.888Z</time></trkpt><trkpt lat="45.52085" lon="8.762485"><ele>150.0</ele><time>2026-04-12T09:03:05.888Z</time></trkpt><trkpt lat="45.520875" lon="8.762595"><ele>150.5</ele><time>2026-04-12T09:03:08.888Z</time></trkpt><trkpt lat="45.520895" lon="8.7627467"><ele>151.0</ele><time>2026-04-12T09:03:16.888Z</time></trkpt><trkpt lat="45.520905" lon="8.7628533"><ele>151.5</ele><time>2026-04-12T09:03:22.888Z</time></trkpt><trkpt lat="45.5209283" lon="8.7629917"><ele>152.0</ele><time>2026-04-12T09:03:30.888Z</time></trkpt><trkpt lat="45.52096" lon="8.763075"><ele>152.0</ele><time>2026-04-12T09:03:34.888Z</time></trkpt><trkpt lat="45.521" lon="8.763155"><ele>152.0</ele><time>2026-04-12T09:03:39.888Z</time></trkpt><trkpt lat="45.5210383" lon="8.7632933"><ele>152.0</ele><time>2026-04-12T09:03:47.888Z</time></trkpt><trkpt lat="45.521075" lon="8.7633733"><ele>152.0</ele><time>2026-04-12T09:03:53.888Z</time></trkpt><trkpt lat="45.5211183" lon="8.7634583"><ele>152.0</ele><time>2026-04-12T09:03:59.888Z</time></trkpt><trkpt lat="45.5211783" lon="8.7635267"><ele>152.0</ele><time>2026-04-12T09:04:05.888Z</time></trkpt><trkpt lat="45.5212383" lon="8.763565"><ele>154.66666666666666</ele><time>2026-04-12T09:04:10.887Z</time></trkpt><trkpt lat="45.521295" lon="8.7636267"><ele>157.33333333333331</ele><time>2026-04-12T09:04:15.887Z</time></trkpt><trkpt lat="45.5213683" lon="8.763665"><ele>160.0</ele><time>2026-04-12T09:04:22.887Z</time></trkpt><trkpt lat="45.5214433" lon="8.7636817"><ele>162.66666666666666</ele><time>2026-04-12T09:04:29.887Z</time></trkpt><trkpt lat="45.5215133" lon="8.76371"><ele>165.33333333333334</ele><time>2026-04-12T09:04:34.887Z</time></trkpt><trkpt lat="45.5215783" lon="8.7637467"><ele>168.0</ele><time>2026-04-12T09:04:38.887Z</time></trkpt><trkpt lat="45.5216383" lon="8.76383"><ele>168.0</ele><time>2026-04-12T09:04:45.887Z</time></trkpt><trkpt lat="45.52169" lon="8.763945"><ele>168.0</ele><time>2026-04-12T09:04:53.887Z</time></trkpt><trkpt lat="45.5217133" lon="8.7641033"><ele>168.0</ele><time>2026-04-12T09:05:01.887Z</time></trkpt><trkpt lat="45.5217283" lon="8.7641917"><ele>168.0</ele><time>2026-04-12T09:05:07.887Z</time></trkpt><trkpt lat="45.5217217" lon="8.7642917"><ele>168.0</ele><time>2026-04-12T09:05:13.887Z</time></trkpt><trkpt lat="45.5217217" lon="8.764395"><ele>168.0</ele><time>2026-04-12T09:05:18.887Z</time></trkpt><trkpt lat="45.5217267" lon="8.764505"><ele>168.14285714285714</ele><time>2026-04-12T09:05:24.887Z</time></trkpt><trkpt lat="45.5217817" lon="8.7646"><ele>168.28571428571428</ele><time>2026-04-12T09:05:28.887Z</time></trkpt><trkpt lat="45.5218383" lon="8.764665"><ele>168.42857142857144</ele><time>2026-04-12T09:05:30.887Z</time></trkpt><trkpt lat="45.5219033" lon="8.7647183"><ele>168.57142857142856</ele><time>2026-04-12T09:05:32.887Z</time></trkpt><trkpt lat="45.5219633" lon="8.7647817"><ele>168.71428571428572</ele><time>2026-04-12T09:05:34.888Z</time></trkpt><trkpt lat="45.522025" lon="8.7648167"><ele>168.85714285714286</ele><time>2026-04-12T09:05:36.887Z</time></trkpt><trkpt lat="45.5220917" lon="8.7648367"><ele>169.0</ele><time>2026-04-12T09:05:38.887Z</time></trkpt><trkpt lat="45.522165" lon="8.7648833"><ele>169.0</ele><time>2026-04-12T09:05:40.887Z</time></trkpt><trkpt lat="45.5222383" lon="8.76495"><ele>169.0</ele><time>2026-04-12T09:05:42.887Z</time></trkpt><trkpt lat="45.5222933" lon="8.7650583"><ele>169.0</ele><time>2026-04-12T09:05:44.887Z</time></trkpt><trkpt lat="45.5223483" lon="8.7651367"><ele>169.0</ele><time>2026-04-12T09:05:46.887Z</time></trkpt><trkpt lat="45.52241" lon="8.76521"><ele>169.0</ele><time>2026-04-12T09:05:48.887Z</time></trkpt><trkpt lat="45.522485" lon="8.7652667"><ele>169.0</ele><time>2026-04-12T09:05:50.887Z</time></trkpt><trkpt lat="45.5225483" lon="8.7653433"><ele>168.66666666666669</ele><time>2026-04-12T09:05:52.888Z</time></trkpt><trkpt lat="45.5226233" lon="8.76542"><ele>168.33333333333334</ele><time>2026-04-12T09:05:54.887Z</time></trkpt><trkpt lat="45.5226867" lon="8.7654917"><ele>168.0</ele><time>2026-04-12T09:05:56.888Z</time></trkpt><trkpt lat="45.522755" lon="8.7655683"><ele>167.66666666666666</ele><time>2026-04-12T09:05:58.887Z</time></trkpt><trkpt lat="45.522815" lon="8.7656367"><ele>167.33333333333331</ele><time>2026-04-12T09:06:00.887Z</time></trkpt><trkpt lat="45.522875" lon="8.7657067"><ele>167.0</ele><time>2026-04-12T09:06:02.887Z</time></trkpt><trkpt lat="45.52294" lon="8.7657833"><ele>166.66666666666666</ele><time>2026-04-12T09:06:04.887Z</time></trkpt><trkpt lat="45.5230033" lon="8.76586"><ele>166.33333333333331</ele><time>2026-04-12T09:06:06.888Z</time></trkpt><trkpt lat="45.5230633" lon="8.765935"><ele>166.0</ele><time>2026-04-12T09:06:08.887Z</time></trkpt><trkpt lat="45.5231217" lon="8.7660133"><ele>165.66666666666666</ele><time>2026-04-12T09:06:10.888Z</time></trkpt><trkpt lat="45.5231817" lon="8.7661"><ele>165.33333333333334</ele><time>2026-04-12T09:06:12.887Z</time></trkpt><trkpt lat="45.5232483" lon="8.7661783"><ele>165.0</ele><time>2026-04-12T09:06:14.888Z</time></trkpt><trkpt lat="45.52331" lon="8.766265"><ele>164.66666666666666</ele><time>2026-04-12T09:06:16.887Z</time></trkpt><trkpt lat="45.523375" lon="8.7663567"><ele>164.33333333333334</ele><time>2026-04-12T09:06:18.887Z</time></trkpt><trkpt lat="45.5234333" lon="8.766435"><ele>164.0</ele><time>2026-04-12T09:06:20.887Z</time></trkpt><trkpt lat="45.523495" lon="8.7665167"><ele>163.66666666666669</ele><time>2026-04-12T09:06:22.887Z</time></trkpt><trkpt lat="45.52355" lon="8.7666017"><ele>163.33333333333334</ele><time>2026-04-12T09:06:24.887Z</time></trkpt><trkpt lat="45.5235983" lon="8.76669"><ele>163.0</ele><time>2026-04-12T09:06:26.887Z</time></trkpt><trkpt lat="45.5236617" lon="8.76678"><ele>163.5</ele><time>2026-04-12T09:06:28.887Z</time></trkpt><trkpt lat="45.523735" lon="8.7668517"><ele>164.0</ele><time>2026-04-12T09:06:30.888Z</time></trkpt><trkpt lat="45.5238083" lon="8.7669467"><ele>164.5</ele><time>2026-04-12T09:06:32.887Z</time></trkpt><trkpt lat="45.52387" lon="8.76703"><ele>165.0</ele><time>2026-04-12T09:06:34.887Z</time></trkpt><trkpt lat="45.5239283" lon="8.7671067"><ele>165.5</ele><time>2026-04-12T09:06:36.887Z</time></trkpt><trkpt lat="45.5240033" lon="8.7671833"><ele>166.0</ele><time>2026-04-12T09:06:38.887Z</time></trkpt><trkpt lat="45.524065" lon="8.767265"><ele>166.16666666666669</ele><time>2026-04-12T09:06:40.887Z</time></trkpt><trkpt lat="45.5241333" lon="8.7673417"><ele>166.33333333333334</ele><time>2026-04-12T09:06:42.887Z</time></trkpt><trkpt lat="45.5241967" lon="8.767415"><ele>166.5</ele><time>2026-04-12T09:06:44.887Z</time></trkpt><trkpt lat="45.5242617" lon="8.7674917"><ele>166.66666666666666</ele><time>2026-04-12T09:06:46.887Z</time></trkpt><trkpt lat="45.5243317" lon="8.7675583"><ele>166.83333333333331</ele><time>2026-04-12T09:06:48.887Z</time></trkpt><trkpt lat="45.5244" lon="8.7676317"><ele>167.0</ele><time>2026-04-12T09:06:50.887Z</time></trkpt><trkpt lat="45.5244683" lon="8.7677083"><ele>167.0</ele><time>2026-04-12T09:06:52.887Z</time></trkpt><trkpt lat="45.5245433" lon="8.76779"><ele>167.0</ele><time>2026-04-12T09:06:54.887Z</time></trkpt><trkpt lat="45.524615" lon="8.76786"><ele>167.0</ele><time>2026-04-12T09:06:56.888Z</time></trkpt><trkpt lat="45.5246817" lon="8.7679217"><ele>167.0</ele><time>2026-04-12T09:06:58.887Z</time></trkpt><trkpt lat="45.5247517" lon="8.768"><ele>167.0</ele><time>2026-04-12T09:07:00.887Z</time></trkpt><trkpt lat="45.5248267" lon="8.7680633"><ele>167.0</ele><time>2026-04-12T09:07:02.887Z</time></trkpt><trkpt lat="45.5248933" lon="8.7681483"><ele>166.83333333333331</ele><time>2026-04-12T09:07:04.887Z</time></trkpt><trkpt lat="45.52496" lon="8.76823"><ele>166.66666666666666</ele><time>2026-04-12T09:07:06.887Z</time></trkpt><trkpt lat="45.5250233" lon="8.7683"><ele>166.5</ele><time>2026-04-12T09:07:08.887Z</time></trkpt><trkpt lat="45.5250933" lon="8.7683733"><ele>166.33333333333334</ele><time>2026-04-12T09:07:10.887Z</time></trkpt><trkpt lat="45.5251617" lon="8.7684533"><ele>166.16666666666669</ele><time>2026-04-12T09:07:12.887Z</time></trkpt><trkpt lat="45.5252367" lon="8.7685283"><ele>166.0</ele><time>2026-04-12T09:07:14.887Z</time></trkpt><trkpt lat="45.5253" lon="8.7685933"><ele>166.16666666666669</ele><time>2026-04-12T09:07:16.887Z</time></trkpt><trkpt lat="45.5253717" lon="8.7686633"><ele>166.33333333333334</ele><time>2026-04-12T09:07:18.887Z</time></trkpt><trkpt lat="45.525435" lon="8.7687467"><ele>166.5</ele><time>2026-04-12T09:07:20.887Z</time></trkpt><trkpt lat="45.5255067" lon="8.768815"><ele>166.66666666666666</ele><time>2026-04-12T09:07:22.887Z</time></trkpt><trkpt lat="45.525575" lon="8.7688883"><ele>166.83333333333331</ele><time>2026-04-12T09:07:24.887Z</time></trkpt><trkpt lat="45.5256317" lon="8.7689517"><ele>167.0</ele><time>2026-04-12T09:07:26.887Z</time></trkpt><trkpt lat="45.5256983" lon="8.769035"><ele>167.0</ele><time>2026-04-12T09:07:29.887Z</time></trkpt><trkpt lat="45.525765" lon="8.7691317"><ele>167.0</ele><time>2026-04-12T09:07:32.887Z</time></trkpt><trkpt lat="45.525815" lon="8.7692"><ele>167.0</ele><time>2026-04-12T09:07:34.887Z</time></trkpt><trkpt lat="45.525865" lon="8.7692817"><ele>167.0</ele><time>2026-04-12T09:07:36.887Z</time></trkpt><trkpt lat="45.5259183" lon="8.7693683"><ele>167.0</ele><time>2026-04-12T09:07:38.887Z</time></trkpt><trkpt lat="45.5259783" lon="8.7694517"><ele>167.0</ele><time>2026-04-12T09:07:40.887Z</time></trkpt><trkpt lat="45.526045" lon="8.769525"><ele>167.16666666666666</ele><time>2026-04-12T09:07:42.888Z</time></trkpt><trkpt lat="45.5261067" lon="8.7696017"><ele>167.33333333333331</ele><time>2026-04-12T09:07:44.887Z</time></trkpt><trkpt lat="45.5261733" lon="8.7696817"><ele>167.5</ele><time>2026-04-12T09:07:46.887Z</time></trkpt><trkpt lat="45.5262467" lon="8.7697617"><ele>167.66666666666666</ele><time>2026-04-12T09:07:48.888Z</time></trkpt><trkpt lat="45.526315" lon="8.7698333"><ele>167.83333333333334</ele><time>2026-04-12T09:07:50.887Z</time></trkpt><trkpt lat="45.5263917" lon="8.7699183"><ele>168.0</ele><time>2026-04-12T09:07:52.887Z</time></trkpt><trkpt lat="45.5264567" lon="8.770005"><ele>167.83333333333334</ele><time>2026-04-12T09:07:54.887Z</time></trkpt><trkpt lat="45.52652" lon="8.7700867"><ele>167.66666666666666</ele><time>2026-04-12T09:07:56.887Z</time></trkpt><trkpt lat="45.5265867" lon="8.770175"><ele>167.5</ele><time>2026-04-12T09:07:58.887Z</time></trkpt><trkpt lat="45.526655" lon="8.77027"><ele>167.33333333333331</ele><time>2026-04-12T09:08:00.887Z</time></trkpt><trkpt lat="45.526715" lon="8.7703467"><ele>167.16666666666666</ele><time>2026-04-12T09:08:02.887Z</time></trkpt><trkpt lat="45.5267767" lon="8.7704283"><ele>167.0</ele><time>2026-04-12T09:08:04.887Z</time></trkpt><trkpt lat="45.5268417" lon="8.7705133"><ele>167.0</ele><time>2026-04-12T09:08:06.887Z</time></trkpt><trkpt lat="45.5269167" lon="8.770585"><ele>167.0</ele><time>2026-04-12T09:08:08.887Z</time></trkpt><trkpt lat="45.52699" lon="8.7706583"><ele>167.0</ele><time>2026-04-12T09:08:10.887Z</time></trkpt><trkpt lat="45.527055" lon="8.7707383"><ele>167.0</ele><time>2026-04-12T09:08:12.887Z</time></trkpt><trkpt lat="45.5271167" lon="8.770825"><ele>167.0</ele><time>2026-04-12T09:08:14.887Z</time></trkpt><trkpt lat="45.5271817" lon="8.7709"><ele>167.0</ele><time>2026-04-12T09:08:16.888Z</time></trkpt><trkpt lat="45.5272533" lon="8.7709733"><ele>167.33333333333331</ele><time>2026-04-12T09:08:18.887Z</time></trkpt><trkpt lat="45.5273183" lon="8.77106"><ele>167.66666666666666</ele><time>2026-04-12T09:08:20.888Z</time></trkpt><trkpt lat="45.5273833" lon="8.7711533"><ele>168.0</ele><time>2026-04-12T09:08:22.887Z</time></trkpt><trkpt lat="45.5274467" lon="8.7712417"><ele>168.33333333333334</ele><time>2026-04-12T09:08:24.887Z</time></trkpt><trkpt lat="45.5275133" lon="8.771315"><ele>168.66666666666669</ele><time>2026-04-12T09:08:26.887Z</time></trkpt><trkpt lat="45.5275783" lon="8.771395"><ele>169.0</ele><time>2026-04-12T09:08:28.887Z</time></trkpt><trkpt lat="45.5276417" lon="8.7714783"><ele>169.0</ele><time>2026-04-12T09:08:30.887Z</time></trkpt><trkpt lat="45.527705" lon="8.77156"><ele>169.0</ele><time>2026-04-12T09:08:32.887Z</time></trkpt><trkpt lat="45.5277717" lon="8.7716267"><ele>169.0</ele><time>2026-04-12T09:08:34.887Z</time></trkpt><trkpt lat="45.5278383" lon="8.7716967"><ele>169.0</ele><time>2026-04-12T09:08:36.887Z</time></trkpt><trkpt lat="45.5279083" lon="8.7717583"><ele>169.0</ele><time>2026-04-12T09:08:38.887Z</time></trkpt><trkpt lat="45.5279567" lon="8.7718267"><ele>169.0</ele><time>2026-04-12T09:08:40.887Z</time></trkpt><trkpt lat="45.5280067" lon="8.77189"><ele>168.83333333333334</ele><time>2026-04-12T09:08:42.887Z</time></trkpt><trkpt lat="45.5280617" lon="8.7719567"><ele>168.66666666666669</ele><time>2026-04-12T09:08:45.887Z</time></trkpt><trkpt lat="45.528125" lon="8.77204"><ele>168.5</ele><time>2026-04-12T09:08:52.887Z</time></trkpt><trkpt lat="45.5282083" lon="8.7720933"><ele>168.33333333333334</ele><time>2026-04-12T09:08:55.887Z</time></trkpt><trkpt lat="45.5282617" lon="8.7721717"><ele>168.16666666666666</ele><time>2026-04-12T09:08:57.887Z</time></trkpt><trkpt lat="45.528315" lon="8.7722383"><ele>168.0</ele><time>2026-04-12T09:08:59.887Z</time></trkpt><trkpt lat="45.5283667" lon="8.772315"><ele>168.0</ele><time>2026-04-12T09:09:01.887Z</time></trkpt><trkpt lat="45.5284233" lon="8.772375"><ele>168.0</ele><time>2026-04-12T09:09:03.887Z</time></trkpt><trkpt lat="45.52849" lon="8.7724383"><ele>168.0</ele><time>2026-04-12T09:09:05.887Z</time></trkpt><trkpt lat="45.528545" lon="8.772515"><ele>168.0</ele><time>2026-04-12T09:09:07.887Z</time></trkpt><trkpt lat="45.5286033" lon="8.77258"><ele>168.0</ele><time>2026-04-12T09:09:09.887Z</time></trkpt><trkpt lat="45.5286633" lon="8.77266"><ele>168.0</ele><time>2026-04-12T09:09:11.887Z</time></trkpt><trkpt lat="45.528725" lon="8.7727333"><ele>168.28571428571428</ele><time>2026-04-12T09:09:13.887Z</time></trkpt><trkpt lat="45.5287767" lon="8.7728117"><ele>168.57142857142856</ele><time>2026-04-12T09:09:15.887Z</time></trkpt><trkpt lat="45.528835" lon="8.772885"><ele>168.85714285714286</ele><time>2026-04-12T09:09:17.887Z</time></trkpt><trkpt lat="45.5288933" lon="8.77296"><ele>169.14285714285714</ele><time>2026-04-12T09:09:19.887Z</time></trkpt><trkpt lat="45.528955" lon="8.7730267"><ele>169.42857142857142</ele><time>2026-04-12T09:09:21.887Z</time></trkpt><trkpt lat="45.5290167" lon="8.7730917"><ele>169.71428571428572</ele><time>2026-04-12T09:09:23.887Z</time></trkpt><trkpt lat="45.52907" lon="8.7731417"><ele>170.0</ele><time>2026-04-12T09:09:25.887Z</time></trkpt><trkpt lat="45.52913" lon="8.7731983"><ele>170.0</ele><time>2026-04-12T09:09:27.887Z</time></trkpt><trkpt lat="45.5291917" lon="8.7732567"><ele>170.0</ele><time>2026-04-12T09:09:29.888Z</time></trkpt><trkpt lat="45.5292517" lon="8.7733333"><ele>170.0</ele><time>2026-04-12T09:09:31.887Z</time></trkpt><trkpt lat="45.529315" lon="8.7733967"><ele>170.0</ele><time>2026-04-12T09:09:33.887Z</time></trkpt><trkpt lat="45.5293717" lon="8.7734733"><ele>170.0</ele><time>2026-04-12T09:09:35.887Z</time></trkpt><trkpt lat="45.5294333" lon="8.7735533"><ele>170.0</ele><time>2026-04-12T09:09:37.887Z</time></trkpt><trkpt lat="45.529505" lon="8.773625"><ele>170.0</ele><time>2026-04-12T09:09:39.887Z</time></trkpt><trkpt lat="45.5295767" lon="8.7737083"><ele>170.0</ele><time>2026-04-12T09:09:41.888Z</time></trkpt><trkpt lat="45.52964" lon="8.7737883"><ele>170.0</ele><time>2026-04-12T09:09:43.887Z</time></trkpt><trkpt lat="45.5297067" lon="8.773855"><ele>170.0</ele><time>2026-04-12T09:09:45.887Z</time></trkpt><trkpt lat="45.5297783" lon="8.7739367"><ele>170.0</ele><time>2026-04-12T09:09:47.887Z</time></trkpt><trkpt lat="45.52985" lon="8.7740133"><ele>170.0</ele><time>2026-04-12T09:09:49.887Z</time></trkpt><trkpt lat="45.52993" lon="8.774105"><ele>170.0</ele><time>2026-04-12T09:09:51.888Z</time></trkpt><trkpt lat="45.5300017" lon="8.774185"><ele>170.0</ele><time>2026-04-12T09:09:53.887Z</time></trkpt><trkpt lat="45.5300733" lon="8.7742667"><ele>170.0</ele><time>2026-04-12T09:09:55.887Z</time></trkpt><trkpt lat="45.5301417" lon="8.7743483"><ele>170.0</ele><time>2026-04-12T09:09:57.887Z</time></trkpt><trkpt lat="45.53021" lon="8.7744233"><ele>170.0</ele><time>2026-04-12T09:09:59.887Z</time></trkpt><trkpt lat="45.5302583" lon="8.7744867"><ele>170.0</ele><time>2026-04-12T09:10:01.887Z</time></trkpt><trkpt lat="45.5303317" lon="8.7745567"><ele>170.4</ele><time>2026-04-12T09:10:03.887Z</time></trkpt><trkpt lat="45.5304083" lon="8.7746417"><ele>170.8</ele><time>2026-04-12T09:10:05.887Z</time></trkpt><trkpt lat="45.530485" lon="8.7747183"><ele>171.2</ele><time>2026-04-12T09:10:07.887Z</time></trkpt><trkpt lat="45.530555" lon="8.7747867"><ele>171.6</ele><time>2026-04-12T09:10:09.887Z</time></trkpt><trkpt lat="45.5306233" lon="8.77486"><ele>172.0</ele><time>2026-04-12T09:10:11.887Z</time></trkpt><trkpt lat="45.5306917" lon="8.7749417"><ele>172.0</ele><time>2026-04-12T09:10:13.887Z</time></trkpt><trkpt lat="45.53075" lon="8.77502"><ele>172.0</ele><time>2026-04-12T09:10:15.887Z</time></trkpt><trkpt lat="45.53081" lon="8.7751167"><ele>172.0</ele><time>2026-04-12T09:10:17.887Z</time></trkpt><trkpt lat="45.5308633" lon="8.775215"><ele>172.0</ele><time>2026-04-12T09:10:19.887Z</time></trkpt><trkpt lat="45.5309017" lon="8.7753417"><ele>172.0</ele><time>2026-04-12T09:10:21.887Z</time></trkpt><trkpt lat="45.530935" lon="8.7754683"><ele>172.0</ele><time>2026-04-12T09:10:23.887Z</time></trkpt><trkpt lat="45.530965" lon="8.7755817"><ele>172.0</ele><time>2026-04-12T09:10:25.887Z</time></trkpt><trkpt lat="45.5309983" lon="8.7756983"><ele>172.0</ele><time>2026-04-12T09:10:27.887Z</time></trkpt><trkpt lat="45.5310467" lon="8.7758133"><ele>172.0</ele><time>2026-04-12T09:10:29.887Z</time></trkpt><trkpt lat="45.5310917" lon="8.7759233"><ele>172.0</ele><time>2026-04-12T09:10:31.887Z</time></trkpt><trkpt lat="45.5311383" lon="8.7760383"><ele>172.0</ele><time>2026-04-12T09:10:33.887Z</time></trkpt><trkpt lat="45.53119" lon="8.77615"><ele>171.83333333333334</ele><time>2026-04-12T09:10:35.887Z</time></trkpt><trkpt lat="45.5312433" lon="8.77625"><ele>171.66666666666669</ele><time>2026-04-12T09:10:37.887Z</time></trkpt><trkpt lat="45.531305" lon="8.77637"><ele>171.5</ele><time>2026-04-12T09:10:39.887Z</time></trkpt><trkpt lat="45.531355" lon="8.7764767"><ele>171.33333333333334</ele><time>2026-04-12T09:10:41.887Z</time></trkpt><trkpt lat="45.5313983" lon="8.7765733"><ele>171.16666666666666</ele><time>2026-04-12T09:10:43.887Z</time></trkpt><trkpt lat="45.5314133" lon="8.77669"><ele>171.0</ele><time>2026-04-12T09:10:45.887Z</time></trkpt><trkpt lat="45.531385" lon="8.7768017"><ele>171.20000000000002</ele><time>2026-04-12T09:10:47.887Z</time></trkpt><trkpt lat="45.5313233" lon="8.7769067"><ele>171.4</ele><time>2026-04-12T09:10:49.887Z</time></trkpt><trkpt lat="45.5312583" lon="8.7770117"><ele>171.6</ele><time>2026-04-12T09:10:51.887Z</time></trkpt><trkpt lat="45.53119" lon="8.7771083"><ele>171.8</ele><time>2026-04-12T09:10:53.887Z</time></trkpt><trkpt lat="45.531135" lon="8.777215"><ele>172.0</ele><time>2026-04-12T09:10:55.887Z</time></trkpt><trkpt lat="45.5310833" lon="8.7773233"><ele>172.0</ele><time>2026-04-12T09:10:57.887Z</time></trkpt><trkpt lat="45.5310167" lon="8.7774333"><ele>172.0</ele><time>2026-04-12T09:10:59.888Z</time></trkpt><trkpt lat="45.5309433" lon="8.77754"><ele>172.0</ele><time>2026-04-12T09:11:01.887Z</time></trkpt><trkpt lat="45.5308783" lon="8.7776383"><ele>172.0</ele><time>2026-04-12T09:11:03.887Z</time></trkpt><trkpt lat="45.5308" lon="8.7777433"><ele>172.0</ele><time>2026-04-12T09:11:05.887Z</time></trkpt><trkpt lat="45.5307233" lon="8.77786"><ele>171.6</ele><time>2026-04-12T09:11:07.887Z</time></trkpt><trkpt lat="45.5306433" lon="8.77796"><ele>171.2</ele><time>2026-04-12T09:11:09.887Z</time></trkpt><trkpt lat="45.530565" lon="8.7780583"><ele>170.8</ele><time>2026-04-12T09:11:11.887Z</time></trkpt><trkpt lat="45.5304917" lon="8.7781567"><ele>170.4</ele><time>2026-04-12T09:11:13.888Z</time></trkpt><trkpt lat="45.5304267" lon="8.7782567"><ele>170.0</ele><time>2026-04-12T09:11:15.887Z</time></trkpt><trkpt lat="45.5303567" lon="8.7783667"><ele>170.0</ele><time>2026-04-12T09:11:17.887Z</time></trkpt><trkpt lat="45.530275" lon="8.77847"><ele>170.0</ele><time>2026-04-12T09:11:19.887Z</time></trkpt><trkpt lat="45.530205" lon="8.778565"><ele>170.0</ele><time>2026-04-12T09:11:21.887Z</time></trkpt><trkpt lat="45.5301283" lon="8.778645"><ele>170.0</ele><time>2026-04-12T09:11:23.887Z</time></trkpt><trkpt lat="45.53006" lon="8.778725"><ele>170.0</ele><time>2026-04-12T09:11:25.887Z</time></trkpt><trkpt lat="45.5299967" lon="8.778825"><ele>170.0</ele><time>2026-04-12T09:11:27.888Z</time></trkpt><trkpt lat="45.52993" lon="8.7789233"><ele>170.0</ele><time>2026-04-12T09:11:29.888Z</time></trkpt><trkpt lat="45.52986" lon="8.7790217"><ele>170.0</ele><time>2026-04-12T09:11:31.887Z</time></trkpt><trkpt lat="45.5297917" lon="8.77913"><ele>170.0</ele><time>2026-04-12T09:11:33.887Z</time></trkpt><trkpt lat="45.5297317" lon="8.7792367"><ele>170.0</ele><time>2026-04-12T09:11:35.887Z</time></trkpt><trkpt lat="45.5296683" lon="8.7793383"><ele>170.0</ele><time>2026-04-12T09:11:37.887Z</time></trkpt><trkpt lat="45.5296" lon="8.7794317"><ele>170.0</ele><time>2026-04-12T09:11:39.886Z</time></trkpt><trkpt lat="45.5295167" lon="8.7795117"><ele>170.0</ele><time>2026-04-12T09:11:41.887Z</time></trkpt><trkpt lat="45.5294283" lon="8.7795567"><ele>170.0</ele><time>2026-04-12T09:11:43.886Z</time></trkpt><trkpt lat="45.5293333" lon="8.7795633"><ele>170.0</ele><time>2026-04-12T09:11:45.887Z</time></trkpt><trkpt lat="45.5292317" lon="8.7795433"><ele>170.0</ele><time>2026-04-12T09:11:47.886Z</time></trkpt><trkpt lat="45.52912" lon="8.7795383"><ele>170.0</ele><time>2026-04-12T09:11:49.886Z</time></trkpt><trkpt lat="45.5290217" lon="8.7795517"><ele>170.0</ele><time>2026-04-12T09:11:51.886Z</time></trkpt><trkpt lat="45.5289217" lon="8.7796017"><ele>170.0</ele><time>2026-04-12T09:11:53.886Z</time></trkpt><trkpt lat="45.5288267" lon="8.7796617"><ele>170.0</ele><time>2026-04-12T09:11:55.886Z</time></trkpt><trkpt lat="45.528735" lon="8.7797183"><ele>169.4</ele><time>2026-04-12T09:11:57.886Z</time></trkpt><trkpt lat="45.5286483" lon="8.7797767"><ele>168.8</ele><time>2026-04-12T09:11:59.886Z</time></trkpt><trkpt lat="45.528555" lon="8.7798483"><ele>168.2</ele><time>2026-04-12T09:12:01.886Z</time></trkpt><trkpt lat="45.52847" lon="8.7799067"><ele>167.6</ele><time>2026-04-12T09:12:03.886Z</time></trkpt><trkpt lat="45.5283867" lon="8.7799683"><ele>167.0</ele><time>2026-04-12T09:12:05.886Z</time></trkpt><trkpt lat="45.5283017" lon="8.7800283"><ele>167.0</ele><time>2026-04-12T09:12:07.886Z</time></trkpt><trkpt lat="45.528205" lon="8.7800967"><ele>167.0</ele><time>2026-04-12T09:12:09.886Z</time></trkpt><trkpt lat="45.5281033" lon="8.7801683"><ele>167.0</ele><time>2026-04-12T09:12:11.886Z</time></trkpt><trkpt lat="45.528005" lon="8.7802383"><ele>167.0</ele><time>2026-04-12T09:12:13.886Z</time></trkpt><trkpt lat="45.5279" lon="8.7802983"><ele>167.0</ele><time>2026-04-12T09:12:15.886Z</time></trkpt><trkpt lat="45.5278067" lon="8.7803617"><ele>166.8</ele><time>2026-04-12T09:12:17.886Z</time></trkpt><trkpt lat="45.5277167" lon="8.7804333"><ele>166.6</ele><time>2026-04-12T09:12:19.887Z</time></trkpt><trkpt lat="45.5276233" lon="8.7804883"><ele>166.4</ele><time>2026-04-12T09:12:21.886Z</time></trkpt><trkpt lat="45.5275317" lon="8.7805567"><ele>166.20000000000002</ele><time>2026-04-12T09:12:23.886Z</time></trkpt><trkpt lat="45.527435" lon="8.7806183"><ele>166.0</ele><time>2026-04-12T09:12:25.886Z</time></trkpt><trkpt lat="45.5273433" lon="8.7806683"><ele>166.0</ele><time>2026-04-12T09:12:27.886Z</time></trkpt><trkpt lat="45.5272483" lon="8.7807283"><ele>166.0</ele><time>2026-04-12T09:12:29.887Z</time></trkpt><trkpt lat="45.52716" lon="8.7807983"><ele>166.0</ele><time>2026-04-12T09:12:31.886Z</time></trkpt><trkpt lat="45.5270733" lon="8.7808633"><ele>166.0</ele><time>2026-04-12T09:12:33.886Z</time></trkpt><trkpt lat="45.5269767" lon="8.7809317"><ele>166.0</ele><time>2026-04-12T09:12:35.886Z</time></trkpt><trkpt lat="45.52688" lon="8.7809883"><ele>166.0</ele><time>2026-04-12T09:12:37.886Z</time></trkpt><trkpt lat="45.5267883" lon="8.7810717"><ele>166.0</ele><time>2026-04-12T09:12:39.886Z</time></trkpt><trkpt lat="45.526695" lon="8.7811367"><ele>166.0</ele><time>2026-04-12T09:12:41.886Z</time></trkpt><trkpt lat="45.526605" lon="8.7812117"><ele>166.0</ele><time>2026-04-12T09:12:43.886Z</time></trkpt><trkpt lat="45.5265133" lon="8.7812617"><ele>166.0</ele><time>2026-04-12T09:12:45.886Z</time></trkpt><trkpt lat="45.52642" lon="8.781335"><ele>166.0</ele><time>2026-04-12T09:12:47.886Z</time></trkpt><trkpt lat="45.52633" lon="8.7814183"><ele>166.0</ele><time>2026-04-12T09:12:49.886Z</time></trkpt><trkpt lat="45.5262317" lon="8.78148"><ele>166.0</ele><time>2026-04-12T09:12:51.886Z</time></trkpt><trkpt lat="45.5261317" lon="8.7815533"><ele>166.0</ele><time>2026-04-12T09:12:53.886Z</time></trkpt><trkpt lat="45.5260367" lon="8.7816217"><ele>166.0</ele><time>2026-04-12T09:12:55.886Z</time></trkpt><trkpt lat="45.52595" lon="8.7816683"><ele>166.4</ele><time>2026-04-12T09:12:57.886Z</time></trkpt><trkpt lat="45.5258533" lon="8.7816983"><ele>166.8</ele><time>2026-04-12T09:12:59.887Z</time></trkpt><trkpt lat="45.5257633" lon="8.7816983"><ele>167.20000000000002</ele><time>2026-04-12T09:13:01.886Z</time></trkpt><trkpt lat="45.5256783" lon="8.7816983"><ele>167.60000000000002</ele><time>2026-04-12T09:13:03.886Z</time></trkpt><trkpt lat="45.5255917" lon="8.7817233"><ele>168.0</ele><time>2026-04-12T09:13:05.886Z</time></trkpt><trkpt lat="45.5255017" lon="8.781765"><ele>168.0</ele><time>2026-04-12T09:13:07.886Z</time></trkpt><trkpt lat="45.52541" lon="8.781815"><ele>168.0</ele><time>2026-04-12T09:13:09.886Z</time></trkpt><trkpt lat="45.52531" lon="8.781855"><ele>168.0</ele><time>2026-04-12T09:13:11.886Z</time></trkpt><trkpt lat="45.525215" lon="8.7819033"><ele>168.0</ele><time>2026-04-12T09:13:13.886Z</time></trkpt><trkpt lat="45.525115" lon="8.78197"><ele>168.0</ele><time>2026-04-12T09:13:15.886Z</time></trkpt><trkpt lat="45.5250133" lon="8.7820067"><ele>167.8</ele><time>2026-04-12T09:13:17.886Z</time></trkpt><trkpt lat="45.52492" lon="8.781975"><ele>167.60000000000002</ele><time>2026-04-12T09:13:19.886Z</time></trkpt><trkpt lat="45.5248183" lon="8.7819817"><ele>167.39999999999998</ele><time>2026-04-12T09:13:21.886Z</time></trkpt><trkpt lat="45.5247417" lon="8.7820667"><ele>167.2</ele><time>2026-04-12T09:13:23.886Z</time></trkpt><trkpt lat="45.5246533" lon="8.7821467"><ele>167.0</ele><time>2026-04-12T09:13:25.886Z</time></trkpt><trkpt lat="45.5245433" lon="8.7822033"><ele>166.8</ele><time>2026-04-12T09:13:27.886Z</time></trkpt><trkpt lat="45.5244467" lon="8.7822467"><ele>166.6</ele><time>2026-04-12T09:13:29.887Z</time></trkpt><trkpt lat="45.5243883" lon="8.7822867"><ele>166.4</ele><time>2026-04-12T09:13:30.886Z</time></trkpt><trkpt lat="45.5242833" lon="8.7823567"><ele>166.20000000000002</ele><time>2026-04-12T09:13:32.886Z</time></trkpt><trkpt lat="45.5241883" lon="8.7824017"><ele>166.0</ele><time>2026-04-12T09:13:34.886Z</time></trkpt><trkpt lat="45.5240783" lon="8.7824583"><ele>166.0</ele><time>2026-04-12T09:13:36.886Z</time></trkpt><trkpt lat="45.5239833" lon="8.7825083"><ele>166.0</ele><time>2026-04-12T09:13:38.886Z</time></trkpt><trkpt lat="45.52388" lon="8.7825617"><ele>166.0</ele><time>2026-04-12T09:13:40.886Z</time></trkpt><trkpt lat="45.5238217" lon="8.7826083"><ele>166.0</ele><time>2026-04-12T09:13:41.886Z</time></trkpt><trkpt lat="45.52372" lon="8.7826817"><ele>166.0</ele><time>2026-04-12T09:13:43.886Z</time></trkpt><trkpt lat="45.5236217" lon="8.7827433"><ele>165.8</ele><time>2026-04-12T09:13:45.886Z</time></trkpt><trkpt lat="45.523515" lon="8.7828133"><ele>165.60000000000002</ele><time>2026-04-12T09:13:47.886Z</time></trkpt><trkpt lat="45.52341" lon="8.7828717"><ele>165.4</ele><time>2026-04-12T09:13:49.886Z</time></trkpt><trkpt lat="45.52331" lon="8.782925"><ele>165.2</ele><time>2026-04-12T09:13:51.886Z</time></trkpt><trkpt lat="45.5232083" lon="8.7829817"><ele>165.0</ele><time>2026-04-12T09:13:53.886Z</time></trkpt><trkpt lat="45.5231133" lon="8.7830333"><ele>165.0</ele><time>2026-04-12T09:13:55.886Z</time></trkpt><trkpt lat="45.5230267" lon="8.7830967"><ele>165.0</ele><time>2026-04-12T09:13:57.886Z</time></trkpt><trkpt lat="45.5229367" lon="8.7831483"><ele>165.0</ele><time>2026-04-12T09:13:59.886Z</time></trkpt><trkpt lat="45.5228383" lon="8.78322"><ele>165.0</ele><time>2026-04-12T09:14:01.886Z</time></trkpt><trkpt lat="45.5227417" lon="8.7832783"><ele>165.0</ele><time>2026-04-12T09:14:03.886Z</time></trkpt><trkpt lat="45.5226667" lon="8.78333"><ele>166.0</ele><time>2026-04-12T09:14:05.886Z</time></trkpt><trkpt lat="45.5225933" lon="8.783395"><ele>166.0</ele><time>2026-04-12T09:14:07.886Z</time></trkpt><trkpt lat="45.52253" lon="8.7834467"><ele>166.0</ele><time>2026-04-12T09:14:09.886Z</time></trkpt><trkpt lat="45.522465" lon="8.7834783"><ele>166.0</ele><time>2026-04-12T09:14:11.886Z</time></trkpt><trkpt lat="45.5224" lon="8.7835083"><ele>166.0</ele><time>2026-04-12T09:14:13.886Z</time></trkpt><trkpt lat="45.52234" lon="8.7835567"><ele>165.0</ele><time>2026-04-12T09:14:15.886Z</time></trkpt><trkpt lat="45.5222617" lon="8.783585"><ele>165.0</ele><time>2026-04-12T09:14:18.886Z</time></trkpt></trkseg></trk></gpx>